# Wetter Temperatur Luftdruck Luftfeuchtigkeit Sichtweite Windgeschwindigkeit Windrichtung Zeit
1 Clouds 8 1020 93 10000 3.1 220 09:40 29.01.2020
2 Clouds 8 1020 93 10000 3.1 220 09:40 29.01.2020
3 Clouds 7 1020 93 10000 3.1 220 09:21 29.01.2020
4 Clouds 7 1020 93 10000 3.1 210 08:57 29.01.2020
5 Clouds 7 1020 100 10000 3.1 210 08:39 29.01.2020
6 Clouds 7 1020 100 10000 3.1 210 08:20 29.01.2020
7 Clouds 7 1020 93 10000 2.1 210 07:44 29.01.2020
8 Clouds 7 1019 93 10000 1 240 07:24 29.01.2020
9 Clouds 7 1019 93 10000 2.1 280 06:54 29.01.2020
10 Clouds 7 1019 93 10000 2.1 210 06:36 29.01.2020
11 Clouds 7 1019 93 10000 2.1 210 06:18 29.01.2020
12 Rain 8 1019 93 10000 3.1 200 05:43 29.01.2020
13 Clouds 8 1019 93 10000 3.1 220 05:25 29.01.2020
14 Clouds 8 1019 93 10000 3.6 220 04:37 29.01.2020
15 Clouds 8 1019 93 10000 2.1 220 02:43 29.01.2020
16 Clouds 8 1019 87 10000 3.1 250 02:18 29.01.2020
17 Clouds 8 1019 87 10000 4.1 230 00:43 29.01.2020
18 Clouds 8 1018 87 10000 4.1 230 00:24 29.01.2020
19 Clouds 8 1018 87 10000 4.1 230 23:56 28.01.2020
20 Clouds 9 1018 87 10000 3.6 230 23:37 28.01.2020
21 Clouds 9 1018 87 10000 3.6 230 23:18 28.01.2020
22 Clouds 9 1018 87 10000 3.6 230 22:40 28.01.2020
23 Clouds 9 1018 81 10000 4.1 230 22:21 28.01.2020
24 Clouds 9 1018 81 10000 3.6 240 21:42 28.01.2020
25 Clouds 9 1018 81 10000 4.1 230 21:22 28.01.2020
26 Clouds 9 1018 81 10000 4.1 230 20:57 28.01.2020
27 Clouds 10 1018 81 10000 4.1 230 20:39 28.01.2020
28 Clouds 10 1018 81 10000 4.1 230 20:39 28.01.2020
29 Clouds 10 1018 81 10000 4.1 240 20:21 28.01.2020
30 Clouds 10 1018 76 10000 4.6 260 19:39 28.01.2020
31 Clouds 10 1018 76 10000 4.6 260 19:20 28.01.2020
32 Clouds 10 1017 76 10000 4.6 260 18:58 28.01.2020
33 Clouds 11 1017 76 10000 4.6 260 18:39 28.01.2020
34 Clouds 11 1017 76 10000 4.6 260 18:21 28.01.2020
35 Clouds 11 1017 71 10000 6.2 260 17:57 28.01.2020
36 Clouds 11 1017 71 10000 6.2 260 17:37 28.01.2020
37 Clouds 12 1017 66 10000 8.7 270 17:19 28.01.2020
38 Clouds 12 1017 66 10000 8.7 270 17:19 28.01.2020
39 Clouds 12 1016 71 10000 6.7 260 16:46 28.01.2020
40 Clouds 12 1016 62 10000 9.8 280 16:27 28.01.2020
41 Rain 12 1016 71 10000 10.8 270 15:59 28.01.2020
42 Rain 12 1016 71 10000 10.8 270 15:40 28.01.2020
43 Rain 12 1016 71 10000 10.3 270 15:18 28.01.2020
44 Clouds 12 1016 76 10000 8.7 260 14:45 28.01.2020
45 Rain 12 1016 81 10000 8.7 270 14:20 28.01.2020
46 Rain 12 1017 87 6000 8.2 290 13:46 28.01.2020
47 Clouds 12 1016 81 10000 5.1 260 13:25 28.01.2020
48 Drizzle 12 1017 81 10000 5.1 280 12:59 28.01.2020
49 Drizzle 11 1017 81 10000 5.1 280 12:41 28.01.2020
50 Rain 11 1017 76 10000 7.7 270 12:22 28.01.2020
51 Clouds 12 1016 76 10000 6.2 250 11:43 28.01.2020
52 Clouds 11 1016 81 10000 6.2 250 11:23 28.01.2020
53 Clouds 11 1016 87 10000 6.2 240 10:56 28.01.2020
54 Clouds 10 1016 81 10000 6.2 260 10:38 28.01.2020
55 Clouds 10 1016 81 10000 6.2 260 10:18 28.01.2020
56 Rain 10 1015 87 10000 6.7 250 09:42 28.01.2020
57 Rain 10 1015 87 10000 5.1 250 09:21 28.01.2020
58 Rain 10 1014 87 10000 5.1 260 08:47 28.01.2020
59 Rain 10 1014 87 10000 5.1 270 08:27 28.01.2020
60 Rain 10 1013 87 10000 7.2 240 07:57 28.01.2020
61 Clouds 10 1013 81 10000 7.2 260 07:36 28.01.2020
62 Rain 10 1013 76 10000 8.2 270 06:49 28.01.2020
63 Rain 10 1013 76 10000 8.2 270 06:25 28.01.2020
64 Clouds 11 1012 76 10000 7.2 260 05:42 28.01.2020
65 Rain 11 1012 66 10000 10.3 260 05:24 28.01.2020
66 Rain 11 1011 87 10000 6.7 250 03:51 28.01.2020
67 Rain 10 1011 93 10000 6.2 240 02:55 28.01.2020
68 Rain 10 1011 87 10000 6.2 280 02:25 28.01.2020
69 Rain 10 1011 93 10000 7.2 250 01:56 28.01.2020
70 Rain 11 1011 93 10000 8.7 250 01:22 28.01.2020
71 Rain 11 1011 93 10000 8.2 230 00:45 28.01.2020
72 Rain 10 1011 100 10000 6.2 230 00:24 28.01.2020
73 Rain 10 1011 87 10000 7.2 230 23:46 27.01.2020
74 Rain 10 1011 93 10000 6.7 220 23:28 27.01.2020
75 Rain 10 1011 93 10000 6.7 220 23:28 27.01.2020
76 Rain 10 1012 93 10000 7.7 250 22:46 27.01.2020
77 Rain 10 1011 93 8000 5.7 210 22:22 27.01.2020
78 Rain 10 1011 93 8000 5.7 210 22:22 27.01.2020
79 Rain 10 1011 87 10000 5.1 200 21:59 27.01.2020
80 Rain 10 1011 87 10000 5.1 200 21:39 27.01.2020
81 Rain 10 1012 93 10000 3.1 230 21:19 27.01.2020
82 Rain 10 1011 81 10000 5.1 220 20:59 27.01.2020
83 Rain 10 1011 87 10000 5.1 200 20:38 27.01.2020
84 Rain 10 1011 87 10000 5.1 200 20:20 27.01.2020
85 Rain 10 1011 87 10000 5.7 190 19:57 27.01.2020
86 Rain 10 1011 87 10000 5.7 190 19:39 27.01.2020
87 Rain 10 1011 87 10000 5.7 190 19:21 27.01.2020
88 Clouds 10 1011 93 10000 5.7 190 18:54 27.01.2020
89 Clouds 10 1011 93 10000 4.6 200 18:36 27.01.2020
90 Clouds 11 1011 93 10000 4.6 200 18:18 27.01.2020
91 Rain 10 1012 93 10000 5.1 190 17:39 27.01.2020
92 Rain 11 1012 93 10000 4.6 210 17:39 27.01.2020
93 Rain 10 1012 93 10000 5.1 190 17:19 27.01.2020
94 Rain 10 1012 93 10000 5.1 190 16:56 27.01.2020
95 Rain 10 1012 93 10000 4.1 200 16:37 27.01.2020
96 Rain 10 1012 93 10000 4.1 200 16:19 27.01.2020
97 Rain 10 1013 100 10000 3.1 200 15:41 27.01.2020
98 Rain 10 1013 93 10000 3.1 200 15:20 27.01.2020
99 Rain 10 1014 93 10000 3.6 200 14:57 27.01.2020
100 Rain 9 1014 100 10000 3.6 190 14:39 27.01.2020
101 Rain 9 1014 100 10000 3.6 190 14:20 27.01.2020
102 Rain 9 1014 93 7000 4.6 180 13:42 27.01.2020
103 Rain 9 1015 93 10000 5.7 200 13:23 27.01.2020
104 Rain 9 1015 93 10000 6.2 190 12:58 27.01.2020
105 Rain 9 1015 93 10000 6.2 190 12:39 27.01.2020
106 Rain 9 1015 93 10000 6.2 200 12:21 27.01.2020
107 Rain 8 1015 93 7000 5.1 170 11:43 27.01.2020
108 Rain 8 1016 87 9000 3.6 180 11:22 27.01.2020
109 Rain 8 1016 81 10000 2.6 180 10:56 27.01.2020
110 Rain 8 1016 81 10000 1.5 170 10:37 27.01.2020
111 Rain 8 1016 81 10000 1.5 170 10:18 27.01.2020
112 Rain 7 1015 75 10000 2.6 150 09:39 27.01.2020
113 Rain 7 1015 75 10000 2.6 150 09:19 27.01.2020
114 Rain 8 1015 75 10000 3.6 160 08:48 27.01.2020
115 Clouds 7 1016 75 10000 3.6 170 08:23 27.01.2020
116 Clouds 7 1016 81 10000 3.1 160 07:56 27.01.2020
117 Clouds 8 1016 81 10000 3.1 160 07:37 27.01.2020
118 Rain 8 1016 81 10000 3.1 170 07:19 27.01.2020
119 Clouds 7 1016 81 10000 4.1 180 06:37 27.01.2020
120 Clouds 8 1016 75 10000 3.6 190 06:37 27.01.2020
121 Clouds 7 1017 81 10000 3.6 170 05:38 27.01.2020
122 Clouds 7 1017 81 10000 3.6 170 05:38 27.01.2020
123 Rain 8 1018 87 10000 3.6 190 04:37 27.01.2020
124 Clouds 8 1018 81 10000 5.1 180 03:35 27.01.2020
125 Clouds 7 1019 87 10000 4.6 180 01:47 27.01.2020
126 Clouds 7 1019 93 10000 4.6 170 01:22 27.01.2020
127 Clouds 7 1019 93 10000 3.6 180 00:40 27.01.2020
128 Clouds 7 1020 93 10000 3.6 180 00:21 27.01.2020
129 Clouds 7 1020 100 10000 2.6 200 23:43 26.01.2020
130 Clouds 7 1020 100 10000 3.6 180 23:21 26.01.2020
131 Clouds 7 1020 100 7000 2.6 180 22:57 26.01.2020
132 Clouds 7 1020 93 7000 2.6 190 22:37 26.01.2020
133 Clouds 7 1020 93 7000 2.6 190 22:19 26.01.2020
134 Clouds 7 1020 93 7000 2.6 190 22:19 26.01.2020
135 Clouds 8 1020 93 10000 2.6 180 21:57 26.01.2020
136 Clouds 8 1020 93 10000 2.6 180 21:38 26.01.2020
137 Clouds 8 1020 93 10000 2.6 200 21:20 26.01.2020
138 Clouds 9 1020 93 10000 2.1 200 20:56 26.01.2020
139 Clouds 9 1020 93 10000 2.1 180 20:38 26.01.2020
140 Clouds 9 1020 93 10000 2.1 180 20:18 26.01.2020
141 Clouds 9 1020 87 10000 2.1 200 19:57 26.01.2020
142 Clouds 10 1020 87 10000 2.6 210 19:37 26.01.2020
143 Clouds 10 1020 87 10000 2.6 210 19:18 26.01.2020
144 Clouds 10 1020 87 10000 2.6 210 18:41 26.01.2020
145 Clouds 11 1020 81 10000 2.6 220 18:22 26.01.2020
146 Clouds 11 1020 76 10000 3.6 240 17:59 26.01.2020
147 Clouds 12 1020 76 10000 3.6 240 17:59 26.01.2020
148 Clouds 12 1020 76 10000 3.6 240 17:39 26.01.2020
149 Clear 13 1020 71 10000 4.6 240 17:20 26.01.2020
150 Clouds 13 1020 71 10000 5.1 240 16:58 26.01.2020
151 Clouds 13 1020 71 10000 5.1 240 16:40 26.01.2020
152 Clouds 13 1020 67 10000 6.2 240 16:21 26.01.2020
153 Clouds 14 1020 67 10000 5.7 240 15:58 26.01.2020
154 Clear 14 1017 75 0 2.24 257 15:39 26.01.2020
155 Clear 14 1017 76 0 1.79 232 15:19 26.01.2020
156 Clear 14 1017 73 0 2.24 256 14:41 26.01.2020
157 Clouds 14 1017 76 0 2.24 247 14:21 26.01.2020
158 Clouds 13 1017 80 0 1.79 238 13:57 26.01.2020
159 Clouds 13 1017 79 0 2.24 253 13:37 26.01.2020
160 Clouds 13 1017 79 0 2.24 253 13:37 26.01.2020
161 Clouds 13 1017 79 0 2.68 241 13:18 26.01.2020
162 Clouds 13 1017 79 0 2.68 241 13:18 26.01.2020
163 Clouds 13 1018 86 0 1.79 233 12:42 26.01.2020
164 Clouds 12 1018 89 0 2.24 238 12:23 26.01.2020
165 Clouds 11 1018 91 0 1.79 229 11:57 26.01.2020
166 Clouds 11 1018 92 0 1.34 243 11:39 26.01.2020
167 Clouds 10 1020 100 9000 2.1 220 11:19 26.01.2020
168 Clouds 9 1020 100 9000 2.1 220 10:58 26.01.2020
169 Clouds 9 1020 100 9000 2.1 220 10:38 26.01.2020
170 Clouds 9 1020 100 9000 2.1 220 10:20 26.01.2020
171 Mist 8 1020 100 5000 2.6 210 09:57 26.01.2020
172 Fog 6 1019 100 650 2.1 210 09:39 26.01.2020
173 Fog 6 1019 100 650 2.1 210 09:39 26.01.2020
174 Fog 7 1019 100 650 2.1 210 09:20 26.01.2020
175 Fog 7 1019 93 500 2.1 220 08:43 26.01.2020
176 Fog 7 1019 100 1200 1.5 240 08:22 26.01.2020
177 Rain 7 1018 100 4300 1 0 07:57 26.01.2020
178 Rain 7 1018 100 4300 1 0 07:39 26.01.2020
179 Clouds 8 1018 93 6000 1.5 190 07:20 26.01.2020
180 Clouds 8 1018 93 10000 2.1 210 06:30 26.01.2020
181 Rain 8 1017 100 5000 1 0 05:31 26.01.2020
182 Rain 8 1017 100 4700 1.5 220 04:45 26.01.2020
183 Drizzle 8 1017 93 5000 1.28 181 02:42 26.01.2020
184 Mist 8 1017 100 3500 1.5 220 01:48 26.01.2020
185 Fog 8 1017 93 1300 0.64 75 01:24 26.01.2020
186 Fog 8 1017 93 6000 0.5 130 00:44 26.01.2020
187 Clouds 8 1017 93 8000 1.5 220 00:26 26.01.2020
188 Clouds 9 1015 90 0 1.1 103 23:40 25.01.2020
189 Clouds 9 1015 89 0 1.75 160 23:21 25.01.2020
190 Clouds 9 1015 89 0 1.75 160 22:58 25.01.2020
191 Clouds 9 1015 89 0 1.75 160 22:39 25.01.2020
192 Clouds 9 1015 89 0 1.75 160 22:18 25.01.2020
193 Clouds 9 1015 89 0 0.45 315 21:56 25.01.2020
194 Clouds 9 1015 88 0 0.89 90 21:38 25.01.2020
195 Clouds 9 1018 90 0 1.75 160 21:19 25.01.2020
196 Clouds 10 1015 88 0 1.75 160 20:43 25.01.2020
197 Clouds 9 1017 89 0 1.37 141 20:25 25.01.2020
198 Clouds 9 1017 89 0 1.37 141 19:54 25.01.2020
199 Clouds 10 1015 87 0 1.63 156 19:36 25.01.2020
200 Clouds 11 1014 86 0 1.37 141 19:18 25.01.2020
201 Clouds 10 1014 87 0 1.37 141 18:41 25.01.2020
202 Clouds 11 1014 86 0 1.37 141 18:21 25.01.2020
203 Clouds 11 1014 86 0 1.37 141 18:21 25.01.2020
204 Clouds 11 1014 85 0 1.37 141 17:57 25.01.2020
205 Clouds 11 993 70 0 0.45 108 17:37 25.01.2020
206 Clouds 11 1014 84 0 0.45 112 17:18 25.01.2020
207 Clouds 12 1014 83 0 0.45 134 16:42 25.01.2020
208 Clouds 12 1014 83 0 0.45 134 16:42 25.01.2020
209 Clouds 12 1014 83 0 0.89 113 16:23 25.01.2020
210 Clouds 13 1014 82 0 0.89 103 15:56 25.01.2020
211 Clouds 13 1014 82 0 0.89 107 15:38 25.01.2020
212 Clouds 12 1014 82 0 1.34 84 15:19 25.01.2020
213 Clouds 12 1015 83 0 1.34 90 14:42 25.01.2020
214 Clouds 12 1015 86 0 0.89 86 14:19 25.01.2020
215 Clouds 11 1015 88 0 1.34 100 13:45 25.01.2020
216 Clouds 11 1015 90 0 0.89 137 13:26 25.01.2020
217 Clouds 10 1019 87 10000 3.1 120 12:51 25.01.2020
218 Clouds 9 1019 87 10000 3.1 120 12:31 25.01.2020
219 Clouds 9 1019 87 10000 3.1 120 11:57 25.01.2020
220 Clouds 9 1019 87 10000 3.1 120 11:39 25.01.2020
221 Clouds 8 1019 100 10000 2.6 120 11:19 25.01.2020
222 Clouds 7 1019 100 9000 2.1 130 10:42 25.01.2020
223 Clouds 6 1019 100 8000 2.6 130 10:21 25.01.2020
224 Clouds 5 1019 100 7000 2.6 120 09:59 25.01.2020
225 Clouds 6 1019 100 7000 2.6 120 09:38 25.01.2020
226 Clouds 5 1019 100 6000 2.6 120 09:19 25.01.2020
227 Rain 5 1018 100 6000 2.6 120 08:42 25.01.2020
228 Rain 5 1018 100 6000 2.6 120 08:42 25.01.2020
229 Clouds 5 1018 100 7000 2.6 110 07:57 25.01.2020
230 Clouds 5 1018 100 8000 2.1 110 07:28 25.01.2020
231 Clouds 5 1018 100 6000 2.6 120 06:31 25.01.2020
232 Mist 6 1018 100 5000 1.5 130 05:52 25.01.2020
233 Mist 5 1018 100 4900 3.1 120 05:32 25.01.2020
234 Fog 5 1018 100 1400 2.6 120 03:58 25.01.2020
235 Fog 5 1018 100 1400 2.6 120 03:39 25.01.2020
236 Fog 6 1019 100 4200 1.5 90 02:36 25.01.2020
237 Fog 6 1019 100 4900 2.1 90 01:56 25.01.2020
238 Fog 6 1019 100 5000 1.5 90 01:21 25.01.2020
239 Fog 6 1019 100 6000 2.1 110 00:37 25.01.2020
240 Fog 6 1020 100 6000 1 130 00:18 25.01.2020
241 Clouds 7 1020 93 7000 1.5 130 23:41 24.01.2020
242 Clouds 7 1020 93 7000 1.5 130 23:41 24.01.2020
243 Clouds 7 1020 100 8000 1.5 150 23:23 24.01.2020
244 Clouds 7 1020 93 9000 2.6 120 22:46 24.01.2020
245 Clouds 7 1020 100 9000 2.6 130 22:27 24.01.2020
246 Clouds 7 1020 93 9000 2.1 130 21:58 24.01.2020
247 Clouds 7 1020 93 9000 2.1 130 21:39 24.01.2020
248 Clouds 8 1020 93 10000 2.6 130 21:18 24.01.2020
249 Clouds 8 1020 93 10000 2.6 110 20:43 24.01.2020
250 Clouds 9 1020 93 10000 2.6 110 20:22 24.01.2020
251 Clouds 9 1020 87 10000 2.1 130 19:58 24.01.2020
252 Clouds 10 1020 87 10000 2.1 130 19:40 24.01.2020
253 Clouds 10 1019 87 10000 3.1 110 19:21 24.01.2020
254 Clouds 10 1019 93 10000 2.1 110 18:54 24.01.2020
255 Clouds 11 1019 87 10000 1.5 110 18:36 24.01.2020
256 Clouds 11 1019 87 10000 1.5 110 18:18 24.01.2020
257 Clouds 12 1019 81 10000 2.1 130 17:42 24.01.2020
258 Clouds 13 1019 76 10000 3.1 130 17:21 24.01.2020
259 Clouds 13 1019 76 10000 2.6 120 16:43 24.01.2020
260 Clouds 13 1019 81 10000 3.1 110 16:21 24.01.2020
261 Clouds 13 1019 81 10000 2.6 120 15:56 24.01.2020
262 Clouds 12 1019 81 10000 2.6 110 15:38 24.01.2020
263 Clouds 12 1019 81 10000 2.6 110 15:19 24.01.2020
264 Clouds 12 1020 76 10000 2.1 130 14:41 24.01.2020
265 Clouds 12 1020 76 10000 3.1 130 14:23 24.01.2020
266 Clouds 12 1020 76 10000 3.1 130 14:23 24.01.2020
267 Clouds 12 1020 81 10000 2.6 130 13:45 24.01.2020
268 Clouds 12 1021 81 10000 3.6 140 13:24 24.01.2020
269 Clouds 11 1021 81 10000 2.6 140 12:55 24.01.2020
270 Clouds 11 1021 87 10000 3.1 140 12:37 24.01.2020
271 Clouds 10 1021 87 10000 3.1 140 12:18 24.01.2020
272 Clouds 10 1021 87 10000 3.1 140 12:18 24.01.2020
273 Clouds 10 1021 87 10000 3.6 140 11:42 24.01.2020
274 Clouds 9 1021 87 10000 4.1 140 11:19 24.01.2020
275 Clouds 9 1021 87 10000 3.6 130 10:43 24.01.2020
276 Clouds 8 1021 93 10000 3.1 140 10:22 24.01.2020
277 Clouds 8 1021 93 10000 2.6 120 09:56 24.01.2020
278 Clouds 7 1021 93 10000 2.6 120 09:38 24.01.2020
279 Clouds 7 1021 93 10000 2.6 120 09:38 24.01.2020
280 Clouds 7 1020 100 10000 2.1 110 09:20 24.01.2020
281 Clouds 7 1020 100 10000 3.1 120 08:40 24.01.2020
282 Clouds 7 1020 100 10000 2.1 130 08:19 24.01.2020
283 Clouds 7 1020 100 10000 2.6 110 07:50 24.01.2020
284 Clouds 7 1020 100 10000 2.1 120 07:28 24.01.2020
285 Clouds 7 1020 100 10000 2.1 120 06:48 24.01.2020
286 Clouds 7 1020 100 10000 2.1 120 06:28 24.01.2020
287 Clouds 7 1020 100 10000 2.1 130 05:57 24.01.2020
288 Clouds 7 1020 100 10000 3.1 130 04:52 24.01.2020
289 Clouds 8 1020 93 10000 1.5 180 02:53 24.01.2020
290 Clouds 8 1020 93 10000 2.1 140 02:23 24.01.2020
291 Clouds 8 1020 93 9000 1.5 150 01:40 24.01.2020
292 Clouds 8 1020 100 10000 2.6 160 01:19 24.01.2020
293 Clouds 9 1020 93 10000 2.6 180 00:19 24.01.2020
294 Clouds 9 1020 93 10000 2.6 190 23:45 23.01.2020
295 Mist 9 1020 100 5000 2.6 160 23:27 23.01.2020
296 Clouds 9 1020 100 6000 1.5 170 22:59 23.01.2020
297 Drizzle 10 1020 100 9000 1.5 180 22:37 23.01.2020
298 Drizzle 10 1020 100 9000 1.5 180 22:18 23.01.2020
299 Rain 10 1020 93 10000 1.5 0 21:55 23.01.2020
300 Rain 10 1020 87 7000 1 109 21:37 23.01.2020
301 Rain 10 1020 87 7000 1 109 21:19 23.01.2020
302 Rain 11 1019 93 10000 1.5 200 20:56 23.01.2020
303 Rain 11 1019 81 10000 1 0 20:37 23.01.2020
304 Rain 11 1019 93 10000 1.5 200 20:37 23.01.2020
305 Rain 11 1019 81 10000 1 0 20:18 23.01.2020
306 Rain 11 1019 81 10000 2.1 50 19:44 23.01.2020
307 Rain 11 1019 81 10000 1.5 0 19:24 23.01.2020
308 Rain 11 1019 81 10000 1 0 18:58 23.01.2020
309 Rain 11 1019 81 10000 1 0 18:39 23.01.2020
310 Clouds 12 1019 81 10000 2.1 190 18:20 23.01.2020
311 Rain 12 1019 71 10000 1.5 150 17:56 23.01.2020
312 Rain 13 1019 71 10000 4.1 90 17:37 23.01.2020
313 Rain 13 1019 71 10000 4.1 90 17:18 23.01.2020
314 Clouds 13 1018 62 10000 4.6 80 16:39 23.01.2020
315 Clouds 13 1018 62 10000 4.6 80 16:20 23.01.2020
316 Clouds 14 1018 62 10000 5.1 80 15:58 23.01.2020
317 Clouds 14 1018 62 10000 5.1 80 15:40 23.01.2020
318 Clouds 14 1018 62 10000 5.1 80 15:19 23.01.2020
319 Clouds 14 1018 62 10000 4.1 80 14:59 23.01.2020
320 Clouds 14 1018 62 10000 4.1 80 14:41 23.01.2020
321 Clouds 14 1019 62 10000 4.1 70 14:22 23.01.2020
322 Clouds 14 1019 62 10000 5.7 90 13:56 23.01.2020
323 Clouds 14 1019 62 10000 5.7 90 13:37 23.01.2020
324 Clouds 14 1020 62 10000 5.7 90 13:18 23.01.2020
325 Clouds 13 1020 62 10000 6.7 90 12:43 23.01.2020
326 Clouds 13 1020 62 10000 6.7 90 12:24 23.01.2020
327 Clouds 13 1020 62 10000 5.1 80 11:56 23.01.2020
328 Clouds 13 1020 66 10000 4.1 80 11:37 23.01.2020
329 Clouds 13 1020 66 10000 4.1 80 11:37 23.01.2020
330 Clouds 12 1020 66 10000 4.1 80 11:18 23.01.2020
331 Clouds 12 1020 66 10000 4.1 80 11:18 23.01.2020
332 Rain 12 1020 71 10000 3.6 90 10:42 23.01.2020
333 Clouds 12 1020 66 10000 4.1 90 10:19 23.01.2020
334 Clouds 12 1020 66 10000 4.1 90 09:42 23.01.2020
335 Rain 12 1020 71 10000 5.1 90 09:24 23.01.2020
336 Clouds 11 1020 66 10000 4.1 90 08:58 23.01.2020
337 Clouds 12 1020 66 10000 4.1 90 08:58 23.01.2020
338 Rain 11 1020 66 10000 4.1 90 08:40 23.01.2020
339 Rain 11 1020 66 10000 4.1 90 08:21 23.01.2020
340 Clouds 11 1020 71 10000 3.1 90 07:44 23.01.2020
341 Clouds 11 1020 66 10000 1.5 70 07:24 23.01.2020
342 Clouds 11 1020 66 10000 2.6 60 06:51 23.01.2020
343 Clouds 11 1020 66 10000 2.6 60 06:20 23.01.2020
344 Clouds 11 1020 66 10000 3.6 70 04:58 23.01.2020
345 Clouds 11 1021 66 10000 3.6 70 04:22 23.01.2020
346 Clouds 11 1021 62 10000 6.2 70 02:31 23.01.2020
347 Clouds 10 1021 81 10000 3.1 50 00:56 23.01.2020
348 Clouds 10 1021 87 10000 3.6 40 00:26 23.01.2020
349 Clouds 10 1021 81 10000 4.1 40 23:47 22.01.2020
350 Clouds 10 1021 93 10000 4.1 40 23:29 22.01.2020
351 Clouds 10 1022 87 10000 4.6 40 22:56 22.01.2020
352 Clouds 10 1022 87 10000 4.6 40 22:38 22.01.2020
353 Clouds 10 1022 87 10000 4.6 40 22:20 22.01.2020
354 Rain 10 1022 87 8000 5.1 30 21:39 22.01.2020
355 Rain 10 1022 87 8000 5.1 30 21:21 22.01.2020
356 Rain 10 1023 93 8000 4.6 20 20:56 22.01.2020
357 Rain 10 1023 93 5000 3.6 20 20:36 22.01.2020
358 Rain 10 1023 93 5000 3.6 20 20:36 22.01.2020
359 Rain 10 1023 93 5000 3.6 20 20:18 22.01.2020
360 Rain 10 1023 93 4900 3.1 30 19:55 22.01.2020
361 Rain 10 1023 93 4900 3.1 30 19:36 22.01.2020
362 Rain 10 1023 93 7000 3.1 30 19:18 22.01.2020
363 Rain 10 1023 93 7000 3.1 30 18:54 22.01.2020
364 Rain 11 1023 87 9000 2.6 90 18:36 22.01.2020
365 Rain 11 1023 87 9000 2.6 90 18:18 22.01.2020
366 Rain 11 1023 81 10000 2.6 90 17:39 22.01.2020
367 Rain 11 1023 81 10000 3.1 70 17:20 22.01.2020
368 Rain 11 1023 71 10000 2.6 60 16:56 22.01.2020
369 Clouds 11 1023 66 10000 3.6 60 16:37 22.01.2020
370 Clouds 11 1023 66 10000 3.6 60 16:37 22.01.2020
371 Clouds 12 1023 66 10000 3.6 60 16:18 22.01.2020
372 Clouds 12 1024 66 10000 4.6 50 15:43 22.01.2020
373 Clouds 11 1024 71 10000 4.1 50 15:24 22.01.2020
374 Clouds 11 1024 71 10000 4.1 40 14:59 22.01.2020
375 Clouds 11 1024 71 10000 4.1 40 14:38 22.01.2020
376 Clouds 11 1024 76 10000 5.7 30 14:20 22.01.2020
377 Clouds 10 1025 87 10000 6.2 40 13:56 22.01.2020
378 Rain 10 1025 93 10000 5.1 30 13:37 22.01.2020
379 Clouds 10 1025 93 10000 5.1 30 13:19 22.01.2020
380 Rain 10 1026 87 10000 4.1 60 12:56 22.01.2020
381 Rain 10 1026 87 10000 4.1 60 12:56 22.01.2020
382 Rain 10 1026 81 10000 4.1 50 12:38 22.01.2020
383 Rain 10 1026 81 10000 4.1 50 12:19 22.01.2020
384 Rain 10 1027 70 10000 5.1 60 11:56 22.01.2020
385 Clouds 9 1027 58 10000 3.6 60 11:38 22.01.2020
386 Clear 9 1027 58 10000 3.6 60 11:19 22.01.2020
387 Clear 8 1026 52 10000 3.6 30 10:45 22.01.2020
388 Clear 7 1026 60 10000 3.6 20 10:21 22.01.2020
389 Clear 7 1026 56 10000 3.1 50 09:57 22.01.2020
390 Clear 7 1026 56 10000 3.1 50 09:39 22.01.2020
391 Clouds 7 1027 56 10000 3.1 50 09:20 22.01.2020
392 Clear 6 1027 56 10000 4.1 50 08:54 22.01.2020
393 Clear 6 1027 56 10000 4.1 50 08:36 22.01.2020
394 Clear 6 1027 56 10000 4.1 50 08:18 22.01.2020
395 Clear 6 1027 60 10000 3.6 40 07:40 22.01.2020
396 Clear 6 1027 60 10000 3.6 40 07:21 22.01.2020
397 Clear 6 1027 60 10000 3.6 40 07:21 22.01.2020
398 Clear 5 1027 65 10000 3.6 40 06:33 22.01.2020
399 Clear 5 1027 65 10000 3.6 30 05:42 22.01.2020
400 Clear 5 1027 65 10000 3.6 30 05:42 22.01.2020
401 Clear 6 1029 75 10000 3.1 30 04:24 22.01.2020
402 Clear 5 1029 80 10000 2.1 20 03:26 22.01.2020
403 Clear 5 1029 80 10000 2.6 360 02:38 22.01.2020
404 Clouds 6 1030 75 10000 3.1 30 00:46 22.01.2020
405 Clouds 7 1030 75 10000 4.1 30 00:27 22.01.2020
406 Clouds 7 1030 75 10000 5.1 30 23:55 21.01.2020
407 Clouds 7 1030 75 10000 5.7 30 23:37 21.01.2020
408 Clouds 7 1030 75 10000 5.7 30 23:18 21.01.2020
409 Clouds 7 1030 75 10000 5.7 30 23:18 21.01.2020
410 Clouds 7 1030 75 10000 5.7 30 23:18 21.01.2020
411 Clouds 8 1030 70 10000 5.7 20 22:40 21.01.2020
412 Clouds 8 1030 75 10000 5.7 20 22:20 21.01.2020
413 Clouds 9 1030 70 10000 5.1 20 21:57 21.01.2020
414 Clouds 9 1030 66 10000 5.1 30 21:38 21.01.2020
415 Clouds 9 1030 66 10000 5.1 30 21:20 21.01.2020
416 Clouds 9 1030 66 10000 5.1 30 20:56 21.01.2020
417 Clouds 9 1030 66 10000 5.1 30 20:37 21.01.2020
418 Clouds 9 1030 66 10000 5.7 30 20:19 21.01.2020
419 Clouds 9 1030 66 10000 6.2 30 19:56 21.01.2020
420 Clouds 9 1030 66 10000 5.1 30 19:37 21.01.2020
421 Clouds 10 1030 66 10000 5.1 30 19:19 21.01.2020
422 Clouds 10 1030 66 10000 3.6 20 18:55 21.01.2020
423 Clouds 10 1030 61 10000 3.1 20 18:37 21.01.2020
424 Clouds 10 1030 61 10000 3.1 20 18:18 21.01.2020
425 Clouds 11 1030 57 10000 5.7 40 17:44 21.01.2020
426 Clear 12 1030 54 10000 5.7 40 17:20 21.01.2020
427 Clear 12 1030 54 10000 6.2 50 16:58 21.01.2020
428 Clear 12 1031 54 10000 5.7 60 16:37 21.01.2020
429 Clear 12 1031 54 10000 5.7 60 16:18 21.01.2020
430 Clear 12 1031 54 10000 6.2 50 15:42 21.01.2020
431 Clear 12 1031 54 10000 6.2 50 15:21 21.01.2020
432 Clouds 12 1032 57 10000 5.7 40 14:59 21.01.2020
433 Clouds 11 1032 57 10000 5.1 50 14:37 21.01.2020
434 Clouds 11 1032 57 10000 5.1 50 14:19 21.01.2020
435 Clouds 9 1033 57 10000 5.1 50 13:40 21.01.2020
436 Clouds 9 1033 57 10000 5.1 50 13:19 21.01.2020
437 Clouds 8 1034 57 10000 5.1 40 12:43 21.01.2020
438 Clouds 6 1034 65 10000 4.1 40 12:25 21.01.2020
439 Clouds 5 1034 69 10000 4.1 40 11:57 21.01.2020
440 Clouds 5 1034 69 10000 4.6 40 11:38 21.01.2020
441 Clouds 5 1034 69 10000 4.6 40 11:20 21.01.2020
442 Clouds 4 1034 74 10000 5.7 40 10:44 21.01.2020
443 Clouds 3 1034 74 10000 4.6 40 10:23 21.01.2020
444 Clouds 3 1034 74 10000 4.6 40 10:23 21.01.2020
445 Clouds 3 1034 74 10000 4.1 30 09:59 21.01.2020
446 Clouds 3 1034 74 10000 4.1 30 09:40 21.01.2020
447 Clouds 3 1034 80 10000 3.6 40 09:22 21.01.2020
448 Clouds 3 1034 80 10000 3.6 40 09:22 21.01.2020
449 Clouds 3 1034 80 10000 3.6 20 08:48 21.01.2020
450 Clouds 2 1034 80 10000 3.6 30 08:28 21.01.2020
451 Clouds 2 1034 80 10000 3.6 40 07:57 21.01.2020
452 Clouds 2 1034 80 10000 3.6 40 07:38 21.01.2020
453 Clouds 3 1034 80 10000 3.1 40 07:20 21.01.2020
454 Clouds 3 1034 80 10000 3.6 30 06:45 21.01.2020
455 Clouds 3 1034 80 10000 3.6 30 06:23 21.01.2020
456 Clouds 3 1034 80 10000 3.6 30 06:23 21.01.2020
457 Clouds 3 1034 80 10000 3.6 30 05:41 21.01.2020
458 Clouds 2 1035 74 10000 3.1 40 04:39 21.01.2020
459 Clouds 2 1035 74 10000 3.6 30 02:54 21.01.2020
460 Clear 3 1036 69 10000 2.6 20 01:47 21.01.2020
461 Clear 2 1036 74 10000 3.6 30 00:52 21.01.2020
462 Clear 3 1037 69 10000 3.6 30 00:29 21.01.2020
463 Clear 3 1037 69 10000 3.1 50 23:57 20.01.2020
464 Clear 3 1037 69 10000 3.1 50 23:36 20.01.2020
465 Clear 3 1036 69 10000 3.6 50 23:18 20.01.2020
466 Clear 3 1037 69 10000 4.1 50 22:55 20.01.2020
467 Clear 3 1037 69 10000 4.1 50 22:36 20.01.2020
468 Clear 4 1037 69 10000 4.1 40 22:18 20.01.2020
469 Clear 4 1037 64 10000 4.1 40 21:55 20.01.2020
470 Clear 4 1037 64 10000 4.6 40 21:36 20.01.2020
471 Clear 4 1037 64 10000 4.6 40 21:18 20.01.2020
472 Clouds 5 1037 60 10000 5.1 30 20:43 20.01.2020
473 Clear 5 1037 60 10000 5.7 30 20:20 20.01.2020
474 Clouds 5 1037 60 10000 5.1 40 19:59 20.01.2020
475 Clouds 5 1037 60 10000 5.1 40 19:59 20.01.2020
476 Clouds 5 1037 60 10000 5.1 40 19:41 20.01.2020
477 Clear 5 1036 56 10000 5.1 40 19:19 20.01.2020
478 Clear 6 1036 56 10000 5.1 40 18:56 20.01.2020
479 Clear 6 1036 52 10000 4.6 40 18:38 20.01.2020
480 Clear 6 1036 52 10000 4.6 40 18:19 20.01.2020
481 Clear 7 1036 48 10000 5.1 40 17:39 20.01.2020
482 Clear 8 1036 45 10000 6.7 50 17:19 20.01.2020
483 Clear 8 1036 45 10000 6.2 50 16:47 20.01.2020
484 Clear 8 1036 49 10000 7.2 40 16:26 20.01.2020
485 Clear 8 1036 49 10000 7.2 40 15:59 20.01.2020
486 Clear 8 1036 49 10000 7.2 40 15:40 20.01.2020
487 Clear 8 1036 45 10000 6.7 40 15:22 20.01.2020
488 Clear 8 1036 52 10000 5.7 50 14:59 20.01.2020
489 Clear 8 1036 52 10000 5.7 50 14:40 20.01.2020
490 Clear 8 1036 52 10000 6.7 50 14:21 20.01.2020
491 Clear 7 1037 56 10000 7.2 40 13:56 20.01.2020
492 Clear 7 1037 60 10000 6.7 60 13:38 20.01.2020
493 Clear 7 1037 60 10000 6.7 60 13:38 20.01.2020
494 Clear 7 1037 60 10000 6.7 60 13:18 20.01.2020
495 Clear 6 1037 56 10000 6.7 50 12:42 20.01.2020
496 Clear 6 1037 60 10000 7.7 50 12:23 20.01.2020
497 Clear 6 1038 65 10000 7.2 40 11:55 20.01.2020
498 Clear 5 1038 45 10000 6.2 40 11:36 20.01.2020
499 Clear 5 1038 62 10000 6.2 40 11:18 20.01.2020
500 Clear 4 1037 62 10000 7.7 40 10:41 20.01.2020
501 Clear 3 1037 62 10000 7.2 30 10:20 20.01.2020
502 Clear 3 1037 62 10000 7.2 30 09:42 20.01.2020
503 Clear 2 1037 62 10000 6.7 30 09:24 20.01.2020
504 Clear 2 1037 62 10000 6.7 30 08:55 20.01.2020
505 Clear 2 1037 62 10000 6.2 20 08:34 20.01.2020
506 Clouds 2 1037 76 10000 7.2 20 07:56 20.01.2020
507 Clear 2 1037 76 10000 7.2 20 07:38 20.01.2020
508 Clear 2 1037 76 10000 7.2 20 07:19 20.01.2020
509 Clear 2 1037 76 10000 7.2 30 06:40 20.01.2020
510 Clear 2 1037 76 10000 7.2 30 06:20 20.01.2020
511 Clear 2 1037 76 10000 6.7 20 05:38 20.01.2020
512 Clear 2 1037 77 10000 6.7 20 05:19 20.01.2020
513 Clear 3 1038 77 10000 6.2 20 03:55 20.01.2020
514 Clear 4 1038 75 10000 7.7 20 01:58 20.01.2020
515 Clear 4 1038 75 10000 7.7 20 01:39 20.01.2020
516 Clear 4 1039 78 10000 6.7 20 00:56 20.01.2020
517 Clear 4 1039 78 10000 5.7 30 00:37 20.01.2020
518 Clear 4 1039 78 10000 5.7 30 00:19 20.01.2020
519 Clear 4 1039 78 10000 4.6 20 23:37 19.01.2020
520 Clear 4 1039 71 10000 4.6 20 23:18 19.01.2020
521 Clear 5 1039 71 10000 5.1 30 22:55 19.01.2020
522 Clear 4 1038 71 10000 4.6 30 22:37 19.01.2020
523 Clear 4 1038 71 10000 4.6 30 22:18 19.01.2020
524 Clear 5 1038 71 10000 4.6 30 21:55 19.01.2020
525 Clear 5 1038 71 10000 4.6 30 21:37 19.01.2020
526 Clear 5 1038 71 10000 5.7 30 21:19 19.01.2020
527 Clear 5 1038 71 10000 5.7 30 20:55 19.01.2020
528 Clear 5 1038 71 10000 5.7 30 20:55 19.01.2020
529 Clear 5 1038 71 10000 5.7 20 20:37 19.01.2020
530 Clear 5 1038 71 10000 5.7 30 20:37 19.01.2020
531 Clear 5 1038 71 10000 5.7 20 20:18 19.01.2020
532 Clear 5 1038 71 10000 6.7 30 19:54 19.01.2020
533 Clear 6 1037 60 10000 7.2 20 19:36 19.01.2020
534 Clear 6 1037 60 10000 7.2 20 19:18 19.01.2020
535 Clear 6 1037 60 10000 8.2 30 18:54 19.01.2020
536 Clear 6 1037 60 10000 6.2 30 18:36 19.01.2020
537 Clear 6 1037 60 10000 6.2 30 18:18 19.01.2020
538 Clear 7 1036 56 10000 9.3 30 17:56 19.01.2020
539 Clear 7 1036 56 10000 9.3 30 17:38 19.01.2020
540 Clear 7 1036 56 10000 7.7 30 17:18 19.01.2020
541 Clear 8 1035 52 10000 8.7 30 16:55 19.01.2020
542 Clear 8 1035 52 10000 8.7 30 16:36 19.01.2020
543 Clear 8 1035 52 10000 8.7 30 16:18 19.01.2020
544 Clear 9 1035 52 10000 8.2 20 15:41 19.01.2020
545 Clear 9 1035 57 10000 7.7 20 15:22 19.01.2020
546 Clear 9 1035 57 10000 8.2 20 14:59 19.01.2020
547 Clear 9 1035 57 10000 8.2 20 14:40 19.01.2020
548 Clear 9 1035 61 10000 8.2 20 14:19 19.01.2020
549 Clear 8 1035 53 10000 8.7 30 13:58 19.01.2020
550 Clear 8 1035 61 10000 8.2 30 13:39 19.01.2020
551 Clear 8 1035 61 10000 8.2 30 13:21 19.01.2020
552 Clear 8 1035 55 10000 8.2 30 12:58 19.01.2020
553 Clear 8 1035 55 10000 8.2 30 12:58 19.01.2020
554 Clear 8 1035 55 10000 8.2 30 12:40 19.01.2020
555 Clear 8 1035 55 10000 8.2 30 12:40 19.01.2020
556 Clear 7 1035 55 10000 9.3 30 12:21 19.01.2020
557 Clear 7 1035 70 10000 8.7 30 11:56 19.01.2020
558 Clear 6 1035 75 10000 8.7 20 11:37 19.01.2020
559 Clouds 6 1035 75 10000 8.7 20 11:18 19.01.2020
560 Clouds 6 1034 75 10000 8.2 30 10:39 19.01.2020
561 Clouds 5 1033 75 10000 8.7 30 10:20 19.01.2020
562 Clouds 5 1033 75 10000 7.7 30 09:57 19.01.2020
563 Clouds 5 1033 75 10000 7.7 30 09:57 19.01.2020
564 Clouds 5 1033 75 10000 7.7 30 09:38 19.01.2020
565 Clouds 4 1032 68 10000 7.2 20 09:19 19.01.2020
566 Clouds 4 1031 80 10000 5.7 20 08:54 19.01.2020
567 Clouds 5 1031 75 10000 6.7 30 08:31 19.01.2020
568 Clouds 5 1030 75 10000 6.7 30 07:49 19.01.2020
569 Clouds 5 1030 75 10000 5.7 30 07:28 19.01.2020
570 Clouds 5 1029 75 10000 6.2 20 06:54 19.01.2020
571 Clouds 5 1028 75 10000 6.2 20 06:21 19.01.2020
572 Clouds 6 1026 75 10000 4.1 30 03:52 19.01.2020
573 Clouds 7 1026 75 10000 5.1 20 02:32 19.01.2020
574 Rain 7 1025 70 10000 5.1 20 01:39 19.01.2020
575 Clouds 7 1025 75 10000 5.7 20 01:18 19.01.2020
576 Clouds 7 1024 81 10000 5.7 20 00:41 19.01.2020
577 Clouds 7 1024 81 10000 4.6 30 00:19 19.01.2020
578 Clouds 7 1024 81 10000 4.6 40 23:42 18.01.2020
579 Rain 7 1023 81 10000 5.1 40 23:24 18.01.2020
580 Rain 7 1023 93 10000 5.1 40 22:58 18.01.2020
581 Rain 6 1023 93 10000 5.1 40 22:40 18.01.2020
582 Rain 7 1024 93 9000 4.1 30 22:21 18.01.2020
583 Rain 7 1024 87 8000 3.6 40 21:57 18.01.2020
584 Rain 7 1024 87 6000 5.7 40 21:38 18.01.2020
585 Rain 7 1024 87 6000 5.7 40 21:20 18.01.2020
586 Rain 7 1023 87 8000 6.2 30 20:44 18.01.2020
587 Drizzle 8 1023 81 10000 5.1 20 20:22 18.01.2020
588 Clouds 8 1022 81 10000 3.6 50 19:59 18.01.2020
589 Clouds 8 1022 81 10000 3.6 50 19:41 18.01.2020
590 Rain 8 1022 81 10000 5.1 50 19:22 18.01.2020
591 Rain 8 1022 81 10000 5.13 77 18:43 18.01.2020
592 Clouds 8 1021 81 10000 4.1 100 18:24 18.01.2020
593 Clouds 8 1021 75 10000 4.1 100 17:56 18.01.2020
594 Clouds 8 1022 75 10000 7.2 90 17:38 18.01.2020
595 Clouds 8 1022 75 10000 7.2 90 17:19 18.01.2020
596 Clouds 8 1021 75 10000 6.7 90 16:55 18.01.2020
597 Clouds 8 1021 75 10000 6.7 90 16:55 18.01.2020
598 Clouds 8 1022 75 10000 7.7 100 16:36 18.01.2020
599 Clouds 8 1022 75 10000 7.7 100 16:18 18.01.2020
600 Clouds 8 1022 75 10000 7.7 100 15:41 18.01.2020
601 Clouds 8 1022 81 10000 6.7 110 15:23 18.01.2020
602 Clouds 9 1023 81 10000 7.7 120 14:57 18.01.2020
603 Clouds 9 1023 76 10000 7.2 120 14:39 18.01.2020
604 Clouds 9 1023 76 10000 7.2 120 14:18 18.01.2020
605 Clouds 9 1023 76 10000 7.7 110 13:43 18.01.2020
606 Clouds 9 1023 76 10000 7.7 110 13:43 18.01.2020
607 Clouds 10 1025 76 10000 7.2 120 13:24 18.01.2020
608 Clouds 9 1026 87 10000 6.2 110 12:57 18.01.2020
609 Clouds 9 1026 87 10000 6.2 110 12:38 18.01.2020
610 Clouds 9 1026 87 10000 6.2 110 12:38 18.01.2020
611 Clouds 8 1026 87 10000 5.1 110 12:19 18.01.2020
612 Clouds 7 1027 87 10000 4.1 100 11:44 18.01.2020
613 Clouds 6 1027 93 10000 3.6 100 11:21 18.01.2020
614 Clouds 6 1027 93 10000 4.6 100 10:56 18.01.2020
615 Clouds 6 1027 93 10000 4.6 100 10:38 18.01.2020
616 Clouds 5 1028 100 10000 3.1 110 10:19 18.01.2020
617 Clouds 5 1028 93 10000 2.6 100 09:42 18.01.2020
618 Clouds 4 1028 100 10000 2.6 100 09:24 18.01.2020
619 Clouds 4 1028 100 10000 2.1 110 08:55 18.01.2020
620 Clouds 4 1029 100 10000 1 130 08:37 18.01.2020
621 Clouds 4 1029 100 10000 1 130 08:18 18.01.2020
622 Clouds 4 1029 100 10000 2.1 130 07:40 18.01.2020
623 Clouds 4 1029 100 10000 2.1 110 07:21 18.01.2020
624 Clouds 4 1029 100 10000 1 0 06:45 18.01.2020
625 Clouds 4 1030 100 10000 1.5 180 05:55 18.01.2020
626 Clouds 4 1030 93 10000 3.1 180 04:29 18.01.2020
627 Clouds 4 1031 93 10000 0.5 0 02:49 18.01.2020
628 Clear 4 1031 93 10000 3.1 190 01:47 18.01.2020
629 Clouds 5 1031 93 10000 3.1 190 00:40 18.01.2020
630 Clouds 5 1031 93 10000 3.1 190 00:21 18.01.2020
631 Clouds 5 1031 93 10000 1.5 200 23:59 17.01.2020
632 Clouds 5 1031 93 10000 1.5 200 23:40 17.01.2020
633 Clouds 5 1031 93 10000 1.5 200 23:40 17.01.2020
634 Clear 6 1031 93 10000 1 180 23:18 17.01.2020
635 Clear 6 1031 86 10000 2.1 210 22:42 17.01.2020
636 Clear 7 1031 87 10000 3.1 230 22:20 17.01.2020
637 Clear 7 1031 81 10000 3.6 250 21:57 17.01.2020
638 Clear 7 1031 81 10000 3.6 250 21:38 17.01.2020
639 Clear 7 1031 87 10000 2.6 230 21:38 17.01.2020
640 Clear 7 1031 87 10000 2.6 230 21:20 17.01.2020
641 Clear 8 1031 81 10000 2.6 260 20:55 17.01.2020
642 Clouds 8 1030 81 10000 3.6 250 20:36 17.01.2020
643 Clouds 8 1030 81 10000 3.6 250 20:18 17.01.2020
644 Rain 8 1030 87 10000 3.6 260 19:54 17.01.2020
645 Clear 8 1030 81 10000 2.1 280 19:36 17.01.2020
646 Clear 8 1030 81 10000 2.1 280 19:18 17.01.2020
647 Clouds 9 1029 81 10000 2.6 240 18:41 17.01.2020
648 Clouds 9 1029 81 10000 3.1 280 18:23 17.01.2020
649 Clouds 10 1028 76 10000 4.1 290 17:54 17.01.2020
650 Clear 10 1028 71 10000 5.1 270 17:36 17.01.2020
651 Rain 10 1028 71 10000 5.1 270 17:18 17.01.2020
652 Rain 11 1027 81 10000 5.1 280 16:41 17.01.2020
653 Rain 11 1027 71 10000 5.1 270 16:19 17.01.2020
654 Rain 10 1027 81 10000 3.6 280 15:48 17.01.2020
655 Rain 10 1027 71 10000 5.1 290 15:26 17.01.2020
656 Rain 11 1026 81 10000 4.1 270 14:54 17.01.2020
657 Rain 11 1026 81 10000 4.1 300 14:36 17.01.2020
658 Rain 11 1026 81 10000 4.1 300 14:18 17.01.2020
659 Rain 11 1026 81 10000 4.1 300 14:18 17.01.2020
660 Rain 11 1026 87 10000 4.1 270 13:38 17.01.2020
661 Rain 11 1026 76 10000 5.7 250 13:19 17.01.2020
662 Clouds 11 1026 76 10000 5.1 250 12:45 17.01.2020
663 Rain 10 1026 76 10000 5.1 240 12:22 17.01.2020
664 Rain 10 1025 87 10000 3.6 230 11:40 17.01.2020
665 Rain 10 1025 87 10000 5.1 270 11:19 17.01.2020
666 Rain 10 1024 87 10000 4.6 220 10:45 17.01.2020
667 Clouds 10 1024 87 10000 4.1 200 10:23 17.01.2020
668 Rain 10 1024 93 10000 4.6 220 09:59 17.01.2020
669 Rain 10 1024 93 10000 4.6 220 09:41 17.01.2020
670 Rain 10 1023 93 10000 3.6 230 09:20 17.01.2020
671 Rain 10 1023 93 10000 3.6 230 08:46 17.01.2020
672 Rain 10 1022 93 10000 3.6 210 08:25 17.01.2020
673 Clouds 10 1022 93 10000 4.1 220 07:56 17.01.2020
674 Clouds 10 1022 93 10000 4.1 220 07:56 17.01.2020
675 Clouds 10 1022 93 10000 3.6 210 07:32 17.01.2020
676 Rain 10 1022 93 10000 3.1 200 06:59 17.01.2020
677 Rain 10 1022 93 10000 3.1 200 06:41 17.01.2020
678 Rain 10 1021 93 10000 3.1 210 05:56 17.01.2020
679 Rain 11 1020 76 10000 1.5 180 03:39 17.01.2020
680 Rain 11 1020 76 10000 2.6 170 02:53 17.01.2020
681 Clouds 11 1018 79 0 0.89 126 01:47 17.01.2020
682 Rain 11 1016 79 0 1.79 148 01:29 17.01.2020
683 Rain 11 1016 79 0 1.79 147 00:51 17.01.2020
684 Rain 11 1019 71 10000 5.7 150 00:28 17.01.2020
685 Rain 11 1019 71 10000 5.7 150 23:46 16.01.2020
686 Clear 11 1019 71 10000 5.7 150 23:26 16.01.2020
687 Clear 11 1019 71 10000 5.1 150 22:58 16.01.2020
688 Clear 11 1019 71 10000 5.1 150 22:40 16.01.2020
689 Clear 11 1019 71 10000 6.7 140 22:20 16.01.2020
690 Clear 11 1019 71 10000 6.2 140 21:55 16.01.2020
691 Clear 12 1019 71 10000 7.2 150 21:37 16.01.2020
692 Clear 12 1019 71 10000 7.2 150 21:18 16.01.2020
693 Clear 12 1019 71 10000 7.2 150 21:18 16.01.2020
694 Clear 12 1019 71 10000 7.2 150 20:41 16.01.2020
695 Clouds 12 1019 71 10000 6.2 140 20:21 16.01.2020
696 Clouds 13 1019 71 10000 7.2 140 19:59 16.01.2020
697 Clouds 13 1019 71 10000 7.2 140 19:41 16.01.2020
698 Clouds 13 1019 71 10000 6.7 150 19:22 16.01.2020
699 Clouds 13 1019 71 10000 6.7 150 19:22 16.01.2020
700 Clouds 13 1019 67 10000 6.7 140 18:57 16.01.2020
701 Clouds 14 1019 67 10000 6.2 140 18:38 16.01.2020
702 Clouds 14 1019 67 10000 6.2 140 18:20 16.01.2020
703 Clouds 14 1019 58 10000 5.7 140 17:59 16.01.2020
704 Clouds 14 1019 58 10000 5.7 140 17:40 16.01.2020
705 Clouds 15 1019 55 10000 5.1 150 17:20 16.01.2020
706 Clouds 16 1019 51 10000 6.2 140 16:42 16.01.2020
707 Clouds 17 1019 51 10000 5.1 150 16:24 16.01.2020
708 Clouds 17 1019 51 10000 4.6 160 15:58 16.01.2020
709 Clouds 17 1019 51 10000 4.6 160 15:39 16.01.2020
710 Clouds 17 1019 51 10000 4.6 160 15:39 16.01.2020
711 Clouds 17 1020 51 10000 5.7 160 15:20 16.01.2020
712 Clouds 17 1020 51 10000 5.7 160 14:44 16.01.2020
713 Clouds 16 1021 55 10000 5.1 150 14:24 16.01.2020
714 Clouds 16 1021 55 10000 5.1 150 14:24 16.01.2020
715 Clouds 16 1021 59 10000 5.7 140 13:56 16.01.2020
716 Clouds 16 1021 59 10000 5.7 140 13:37 16.01.2020
717 Clouds 15 1021 62 10000 5.1 140 13:19 16.01.2020
718 Clouds 14 1022 62 10000 6.7 140 12:42 16.01.2020
719 Clouds 13 1022 66 10000 5.7 140 12:22 16.01.2020
720 Clouds 12 1022 71 10000 5.7 130 11:43 16.01.2020
721 Clouds 11 1022 71 10000 6.2 130 11:24 16.01.2020
722 Clouds 10 1023 76 10000 5.7 130 10:59 16.01.2020
723 Clouds 10 1023 76 10000 5.7 130 10:38 16.01.2020
724 Clouds 9 1023 76 10000 5.7 130 10:20 16.01.2020
725 Clouds 8 1022 81 10000 5.7 130 09:54 16.01.2020
726 Clouds 8 1022 81 10000 5.1 130 09:36 16.01.2020
727 Clouds 8 1022 81 10000 5.1 130 09:18 16.01.2020
728 Clouds 7 1022 87 10000 4.6 130 08:42 16.01.2020
729 Clouds 7 1022 87 10000 4.1 120 08:22 16.01.2020
730 Clouds 7 1022 87 10000 4.1 120 07:43 16.01.2020
731 Clouds 7 1022 87 10000 4.6 120 07:25 16.01.2020
732 Clouds 7 1022 87 10000 4.6 130 06:55 16.01.2020
733 Clouds 7 1022 81 10000 4.1 130 06:35 16.01.2020
734 Clouds 7 1023 81 10000 4.1 120 05:56 16.01.2020
735 Clouds 8 1023 81 10000 4.6 130 05:30 16.01.2020
736 Clouds 8 1023 81 10000 4.6 130 04:23 16.01.2020
737 Clouds 8 1024 87 10000 4.1 130 03:27 16.01.2020
738 Clouds 8 1023 87 10000 4.1 130 02:23 16.01.2020
739 Clouds 9 1024 87 10000 3.1 130 00:44 16.01.2020
740 Clouds 9 1024 93 10000 3.1 120 00:23 16.01.2020
741 Clouds 10 1024 93 10000 2.1 120 23:45 15.01.2020
742 Clouds 10 1025 93 10000 1.5 130 23:22 15.01.2020
743 Clouds 11 1024 93 10000 1.5 140 22:57 15.01.2020
744 Clouds 11 1024 93 10000 1.5 150 22:39 15.01.2020
745 Clouds 11 1024 93 10000 1.5 150 22:18 15.01.2020
746 Clouds 11 1024 87 10000 2.1 150 21:56 15.01.2020
747 Clouds 11 1024 87 10000 2.1 150 21:56 15.01.2020
748 Clouds 11 1024 93 10000 2.1 180 21:37 15.01.2020
749 Clouds 11 1024 93 10000 2.1 180 21:19 15.01.2020
750 Clouds 12 1024 87 10000 1.5 0 20:55 15.01.2020
751 Clouds 12 1024 87 10000 1 200 20:37 15.01.2020
752 Clouds 12 1024 87 10000 1 200 20:19 15.01.2020
753 Clouds 12 1024 87 10000 1.5 200 19:54 15.01.2020
754 Clouds 12 1023 87 10000 2.1 220 19:36 15.01.2020
755 Clouds 12 1023 87 10000 2.1 220 19:18 15.01.2020
756 Clouds 12 1023 87 10000 2.1 220 19:18 15.01.2020
757 Clouds 12 1023 82 10000 2.6 230 18:56 15.01.2020
758 Clouds 12 1022 82 10000 2.6 210 18:37 15.01.2020
759 Clouds 13 1022 82 10000 2.6 210 18:19 15.01.2020
760 Clouds 13 1021 82 10000 2.6 220 17:42 15.01.2020
761 Clouds 13 1021 82 10000 2.6 220 17:23 15.01.2020
762 Rain 14 1021 82 10000 4.1 240 16:59 15.01.2020
763 Rain 14 1021 82 10000 4.1 240 16:39 15.01.2020
764 Clouds 14 1020 76 10000 3.6 230 16:21 15.01.2020
765 Rain 14 1020 76 10000 4.6 230 15:44 15.01.2020
766 Clouds 15 1019 59 10000 5.7 230 15:21 15.01.2020
767 Clouds 15 1018 55 10000 5.7 210 14:59 15.01.2020
768 Clouds 15 1018 55 10000 5.7 210 14:41 15.01.2020
769 Clouds 15 1019 51 10000 6.7 210 14:18 15.01.2020
770 Clouds 15 1019 48 10000 6.7 200 13:45 15.01.2020
771 Clouds 15 1018 51 10000 5.7 190 13:26 15.01.2020
772 Clouds 14 1018 54 10000 6.2 180 12:58 15.01.2020
773 Clouds 14 1018 58 10000 5.1 170 12:39 15.01.2020
774 Clouds 13 1018 58 10000 5.1 170 12:19 15.01.2020
775 Clouds 12 1018 62 10000 4.1 170 11:56 15.01.2020
776 Clouds 11 1017 66 10000 5.1 170 11:36 15.01.2020
777 Clouds 11 1017 66 10000 5.1 170 11:18 15.01.2020
778 Clouds 11 1017 66 10000 5.1 170 11:18 15.01.2020
779 Clouds 10 1016 66 10000 6.2 160 10:41 15.01.2020
780 Clouds 9 1016 70 10000 6.2 150 10:21 15.01.2020
781 Clouds 8 1016 70 10000 5.7 150 09:42 15.01.2020
782 Clouds 8 1016 75 10000 5.1 150 09:22 15.01.2020
783 Clouds 8 1015 75 10000 5.1 150 08:46 15.01.2020
784 Clear 8 1015 75 10000 5.7 150 08:28 15.01.2020
785 Clear 8 1015 75 10000 6.2 150 07:59 15.01.2020
786 Clear 8 1015 75 10000 6.2 150 07:41 15.01.2020
787 Clear 8 1015 75 10000 5.1 150 07:21 15.01.2020
788 Clear 8 1015 70 10000 5.7 160 06:43 15.01.2020
789 Clear 7 1014 70 10000 4.6 160 05:52 15.01.2020
790 Clear 8 1015 70 10000 3.6 150 03:44 15.01.2020
791 Clear 8 1015 70 10000 5.1 150 01:50 15.01.2020
792 Clear 8 1015 70 10000 5.7 150 01:22 15.01.2020
793 Clear 8 1016 70 10000 5.1 150 00:38 15.01.2020
794 Clear 8 1016 70 10000 4.6 150 00:20 15.01.2020
795 Clear 8 1016 70 10000 5.7 150 23:47 14.01.2020
796 Clear 8 1016 66 10000 5.7 150 23:28 14.01.2020
797 Clear 9 1016 66 10000 5.7 150 22:58 14.01.2020
798 Clear 9 1016 66 10000 5.7 150 22:40 14.01.2020
799 Clear 9 1016 71 10000 5.7 160 22:19 14.01.2020
800 Clear 9 1015 71 10000 6.2 160 21:57 14.01.2020
801 Clear 9 1015 71 10000 6.2 150 21:39 14.01.2020
802 Clear 10 1015 71 10000 6.2 150 21:19 14.01.2020
803 Clear 10 1015 76 10000 4.6 150 20:54 14.01.2020
804 Clear 10 1015 76 10000 5.1 150 20:36 14.01.2020
805 Clear 10 1015 76 10000 5.1 150 20:36 14.01.2020
806 Clouds 10 1015 76 10000 5.1 150 20:18 14.01.2020
807 Clouds 10 1015 76 10000 5.1 150 20:18 14.01.2020
808 Clouds 11 1015 76 10000 5.1 150 19:55 14.01.2020
809 Clouds 11 1015 71 10000 4.6 140 19:36 14.01.2020
810 Clouds 11 1015 71 10000 4.6 140 19:18 14.01.2020
811 Clouds 11 1015 66 10000 3.6 140 18:40 14.01.2020
812 Clouds 12 1015 51 10000 3.1 150 18:20 14.01.2020
813 Clouds 13 1015 51 10000 3.1 150 17:55 14.01.2020
814 Clouds 14 1015 48 10000 3.1 170 17:36 14.01.2020
815 Clouds 14 1015 48 10000 3.1 170 17:18 14.01.2020
816 Clouds 14 1015 48 10000 3.1 160 16:42 14.01.2020
817 Clouds 15 1015 48 10000 3.6 160 16:22 14.01.2020
818 Clouds 15 1015 51 10000 4.1 150 15:56 14.01.2020
819 Clouds 15 1015 47 10000 4.6 170 15:38 14.01.2020
820 Clouds 14 1015 47 10000 4.6 170 15:18 14.01.2020
821 Clouds 14 1015 47 10000 4.6 170 15:18 14.01.2020
822 Clouds 14 1015 47 10000 4.1 160 14:43 14.01.2020
823 Clouds 14 1015 47 10000 4.1 160 14:20 14.01.2020
824 Clouds 14 1015 50 10000 4.1 160 13:54 14.01.2020
825 Clouds 13 1015 50 10000 5.1 140 13:36 14.01.2020
826 Clouds 13 1015 50 10000 5.1 140 13:18 14.01.2020
827 Clouds 13 1016 58 10000 4.1 140 12:40 14.01.2020
828 Clouds 12 1016 62 10000 4.1 150 12:20 14.01.2020
829 Clouds 12 1016 62 10000 4.1 150 12:20 14.01.2020
830 Clouds 12 1016 62 10000 4.1 150 12:20 14.01.2020
831 Clouds 11 1016 62 10000 4.1 150 11:43 14.01.2020
832 Clouds 10 1016 70 10000 4.6 150 11:23 14.01.2020
833 Clouds 9 1016 70 10000 5.1 140 10:59 14.01.2020
834 Clouds 8 1016 81 10000 4.6 140 10:39 14.01.2020
835 Clouds 8 1016 81 10000 4.6 140 10:20 14.01.2020
836 Clouds 7 1016 81 10000 4.1 150 09:57 14.01.2020
837 Clouds 7 1016 81 10000 4.1 150 09:39 14.01.2020
838 Clouds 7 1015 81 10000 4.6 140 09:20 14.01.2020
839 Clouds 6 1016 81 10000 4.1 140 08:44 14.01.2020
840 Clouds 6 1015 81 10000 4.1 130 08:23 14.01.2020
841 Clouds 6 1015 81 10000 5.1 140 07:53 14.01.2020
842 Clouds 6 1015 81 10000 4.1 150 07:31 14.01.2020
843 Clouds 6 1015 75 10000 4.1 140 06:50 14.01.2020
844 Clouds 6 1015 75 10000 4.1 150 06:23 14.01.2020
845 Clouds 6 1015 81 10000 4.1 150 05:21 14.01.2020
846 Clouds 6 1015 75 10000 5.1 150 03:51 14.01.2020
847 Clouds 6 1015 75 10000 5.7 160 02:42 14.01.2020
848 Clouds 6 1015 81 10000 3.6 150 01:35 14.01.2020
849 Clouds 6 1016 81 10000 4.1 150 00:49 14.01.2020
850 Clouds 6 1016 81 10000 4.1 160 00:27 14.01.2020
851 Clouds 6 1016 81 10000 3.1 150 23:47 13.01.2020
852 Clouds 6 1016 86 10000 4.6 140 23:19 13.01.2020
853 Clouds 5 1016 93 10000 4.1 150 22:59 13.01.2020
854 Clouds 5 1016 93 10000 4.1 150 22:40 13.01.2020
855 Clouds 5 1016 93 10000 3.1 160 22:20 13.01.2020
856 Clouds 5 1016 93 8000 4.1 140 21:56 13.01.2020
857 Clouds 5 1017 93 8000 2.6 140 21:37 13.01.2020
858 Clouds 5 1016 93 8000 4.1 140 21:37 13.01.2020
859 Clouds 5 1017 93 8000 2.6 140 21:18 13.01.2020
860 Clouds 6 1017 93 8000 2.1 150 20:56 13.01.2020
861 Clouds 6 1017 93 8000 3.1 140 20:38 13.01.2020
862 Clouds 6 1017 93 8000 3.1 140 20:19 13.01.2020
863 Clouds 6 1017 87 9000 3.6 140 19:42 13.01.2020
864 Clouds 6 1017 87 9000 3.6 140 19:42 13.01.2020
865 Clouds 6 1017 87 10000 3.6 130 19:22 13.01.2020
866 Clouds 7 1017 87 10000 3.6 130 18:59 13.01.2020
867 Clouds 7 1017 87 10000 3.6 130 18:40 13.01.2020
868 Clouds 7 1017 81 10000 4.1 130 18:20 13.01.2020
869 Clouds 7 1017 81 10000 4.1 130 18:20 13.01.2020
870 Clouds 8 1017 81 10000 3.6 130 17:59 13.01.2020
871 Clouds 9 1017 81 10000 3.6 130 17:40 13.01.2020
872 Clouds 9 1018 75 10000 3.6 110 17:21 13.01.2020
873 Clouds 10 1018 76 10000 3.6 110 16:55 13.01.2020
874 Clouds 9 1015 78 0 1.79 119 16:36 13.01.2020
875 Clouds 9 1015 78 0 1.79 119 16:36 13.01.2020
876 Clouds 9 1015 77 0 1.34 105 16:18 13.01.2020
877 Clouds 10 1016 75 0 1.79 115 15:42 13.01.2020
878 Clouds 10 1016 75 0 1.79 89 15:22 13.01.2020
879 Clouds 11 1016 75 0 1.34 130 14:56 13.01.2020
880 Clouds 11 1016 75 0 1.79 113 14:36 13.01.2020
881 Clouds 10 1016 76 0 1.79 147 14:18 13.01.2020
882 Clouds 10 1017 79 0 0.89 120 13:40 13.01.2020
883 Clouds 9 1018 81 0 2.68 148 13:22 13.01.2020
884 Clouds 7 1023 87 10000 2.1 130 12:58 13.01.2020
885 Clouds 7 1023 87 10000 2.1 130 12:40 13.01.2020
886 Clouds 7 1023 87 10000 2.1 130 12:21 13.01.2020
887 Clouds 7 1023 87 10000 2.1 130 11:54 13.01.2020
888 Clouds 6 1023 87 10000 3.1 140 11:36 13.01.2020
889 Clouds 6 1023 87 10000 3.1 140 11:18 13.01.2020
890 Clouds 6 1023 87 10000 3.1 140 11:18 13.01.2020
891 Clouds 6 1023 87 10000 3.1 140 11:18 13.01.2020
892 Clouds 6 1023 86 10000 3.6 130 10:55 13.01.2020
893 Clouds 5 1023 86 10000 3.1 130 10:36 13.01.2020
894 Clouds 5 1023 86 10000 3.1 130 10:18 13.01.2020
895 Clouds 5 1023 86 10000 2.1 140 09:40 13.01.2020
896 Clouds 4 1023 93 10000 2.1 150 09:22 13.01.2020
897 Clouds 4 1023 93 10000 1.5 130 08:41 13.01.2020
898 Clouds 5 1023 86 10000 3.1 140 08:21 13.01.2020
899 Clouds 5 1024 86 10000 2.1 140 07:52 13.01.2020
900 Clouds 5 1024 86 10000 2.1 150 07:33 13.01.2020
901 Clouds 5 1024 93 10000 3.1 140 06:44 13.01.2020
902 Clouds 5 1024 87 10000 2.6 150 06:22 13.01.2020
903 Clouds 6 1025 87 10000 3.1 150 05:36 13.01.2020
904 Clouds 6 1027 87 10000 2.1 160 03:57 13.01.2020
905 Clouds 7 1027 87 10000 3.1 170 03:25 13.01.2020
906 Clouds 7 1027 81 10000 3.6 170 02:47 13.01.2020
907 Clouds 8 1027 81 10000 3.1 170 02:28 13.01.2020
908 Clouds 8 1028 76 10000 3.6 170 01:21 13.01.2020
909 Clouds 8 1028 81 10000 3.6 170 00:41 13.01.2020
910 Clouds 9 1029 76 10000 3.6 180 00:22 13.01.2020
911 Clouds 9 1029 76 10000 3.1 180 23:42 12.01.2020
912 Clouds 9 1029 81 10000 2.6 180 23:24 12.01.2020
913 Clouds 9 1029 81 10000 3.6 180 22:58 12.01.2020
914 Clouds 9 1029 81 10000 3.6 180 22:39 12.01.2020
915 Clouds 9 1029 81 10000 3.6 180 22:21 12.01.2020
916 Clouds 9 1029 81 10000 3.6 190 21:56 12.01.2020
917 Clouds 9 1029 81 10000 3.6 190 21:38 12.01.2020
918 Clouds 9 1029 81 10000 3.1 180 21:19 12.01.2020
919 Clouds 9 1030 76 10000 3.1 180 20:56 12.01.2020
920 Clouds 9 1030 76 10000 3.6 170 20:37 12.01.2020
921 Clouds 10 1030 76 10000 3.6 170 20:19 12.01.2020
922 Clouds 10 1030 76 10000 3.6 170 20:19 12.01.2020
923 Clouds 10 1030 81 10000 3.1 170 19:55 12.01.2020
924 Clouds 10 1030 76 10000 2.6 170 19:37 12.01.2020
925 Clouds 10 1030 76 10000 2.6 170 19:18 12.01.2020
926 Clouds 10 1030 76 10000 2.6 170 19:18 12.01.2020
927 Clouds 10 1030 81 10000 2.1 180 18:57 12.01.2020
928 Clouds 10 1030 81 10000 2.1 180 18:38 12.01.2020
929 Clouds 10 1030 81 10000 2.1 180 18:20 12.01.2020
930 Clouds 10 1030 76 10000 2.6 180 17:42 12.01.2020
931 Clouds 10 1030 71 10000 2.6 180 17:22 12.01.2020
932 Clouds 11 1030 71 10000 2.6 190 16:58 12.01.2020
933 Clouds 11 1030 71 10000 2.6 190 16:39 12.01.2020
934 Clouds 11 1030 71 10000 2.1 180 16:20 12.01.2020
935 Clouds 11 1030 71 10000 2.6 170 15:56 12.01.2020
936 Clouds 11 1030 66 10000 2.6 180 15:38 12.01.2020
937 Clouds 11 1030 66 10000 2.6 180 15:20 12.01.2020
938 Clouds 11 1030 71 10000 2.6 180 14:42 12.01.2020
939 Clouds 10 1030 76 10000 2.6 190 14:23 12.01.2020
940 Clouds 9 1031 71 10000 2.1 180 13:57 12.01.2020
941 Clouds 9 1031 71 10000 2.1 180 13:39 12.01.2020
942 Clouds 9 1031 76 10000 2.1 160 13:20 12.01.2020
943 Clouds 8 1032 75 10000 2.1 150 12:56 12.01.2020
944 Clouds 8 1032 81 10000 3.1 160 12:37 12.01.2020
945 Clouds 8 1032 75 10000 2.1 150 12:37 12.01.2020
946 Clouds 8 1032 81 10000 3.1 160 12:18 12.01.2020
947 Clouds 5 1032 86 10000 2.1 150 11:41 12.01.2020
948 Clouds 5 1032 86 10000 2.1 150 11:22 12.01.2020
949 Clouds 4 1032 93 10000 2.1 150 10:56 12.01.2020
950 Clouds 3 1032 93 10000 1.5 0 10:37 12.01.2020
951 Clouds 3 1032 93 10000 1.5 0 10:18 12.01.2020
952 Clouds 2 1031 93 10000 1.5 140 09:41 12.01.2020
953 Clouds 1 1031 100 10000 1.5 140 09:22 12.01.2020
954 Clouds 1 1031 100 10000 2.1 140 08:48 12.01.2020
955 Clouds 0 1031 88 10000 2.1 130 08:22 12.01.2020
956 Clouds 0 1031 88 9000 1.5 110 07:47 12.01.2020
957 Clouds 0 1031 100 9000 1 130 07:26 12.01.2020
958 Clouds 0 1031 100 9000 1 130 07:26 12.01.2020
959 Clouds 0 1031 88 8000 1 140 06:54 12.01.2020
960 Clouds 0 1031 88 7000 1 130 06:36 12.01.2020
961 Clouds 0 1031 88 6000 1 130 05:50 12.01.2020
962 Clouds 0 1030 88 6000 0.5 140 04:54 12.01.2020
963 Clouds 0 1030 88 6000 1 120 03:35 12.01.2020
964 Mist 1 1030 88 5000 1.86 176 02:43 12.01.2020
965 Mist 1 1030 87 5000 1.45 162 02:24 12.01.2020
966 Clouds 1 1031 87 6000 0.5 120 01:31 12.01.2020
967 Clouds 2 1031 87 6000 1.3 156 00:46 12.01.2020
968 Clouds 2 1031 93 6000 1.3 156 00:22 12.01.2020
969 Clouds 2 1031 93 10000 1.3 156 23:56 11.01.2020
970 Clouds 2 1031 93 10000 1.3 156 23:38 11.01.2020
971 Clouds 3 1031 93 10000 0.5 110 23:18 11.01.2020
972 Clouds 3 1031 93 10000 1.05 128 22:56 11.01.2020
973 Clouds 3 1031 93 10000 1.5 240 22:37 11.01.2020
974 Clouds 4 1031 93 10000 1.5 240 22:19 11.01.2020
975 Clouds 4 1031 93 10000 0.5 250 21:44 11.01.2020
976 Clouds 5 1031 86 10000 1.05 128 21:19 11.01.2020
977 Clouds 5 1031 86 10000 1.05 128 21:19 11.01.2020
978 Clouds 5 1031 86 10000 1.05 128 20:56 11.01.2020
979 Clouds 5 1031 86 10000 1.05 128 20:38 11.01.2020
980 Clouds 5 1031 86 10000 1.53 112 20:19 11.01.2020
981 Clouds 6 1031 86 10000 1.53 112 19:55 11.01.2020
982 Clouds 6 1031 81 10000 0.5 0 19:37 11.01.2020
983 Clouds 6 1031 81 10000 0.5 0 19:19 11.01.2020
984 Clouds 6 1031 81 10000 0.5 0 19:19 11.01.2020
985 Clouds 7 1031 70 10000 1 120 18:55 11.01.2020
986 Clouds 8 1031 65 10000 1.5 100 18:36 11.01.2020
987 Clouds 8 1031 65 10000 1.5 100 18:18 11.01.2020
988 Clouds 9 1031 61 10000 1.5 0 17:56 11.01.2020
989 Clouds 9 1031 61 10000 1.5 0 17:37 11.01.2020
990 Clouds 10 1031 57 10000 1 120 17:18 11.01.2020
991 Clouds 10 1031 57 10000 1 120 17:18 11.01.2020
992 Clouds 11 1031 53 10000 1.5 0 16:43 11.01.2020
993 Clouds 11 1031 50 10000 1.5 0 16:23 11.01.2020
994 Clouds 11 1032 50 10000 1 0 15:43 11.01.2020
995 Clouds 11 1032 53 10000 1.5 150 15:24 11.01.2020
996 Clouds 12 1032 50 10000 2.6 140 14:59 11.01.2020
997 Clouds 12 1032 50 10000 2.6 140 14:41 11.01.2020
998 Clouds 11 1032 53 10000 2.6 180 14:22 11.01.2020
999 Clouds 11 1033 57 10000 2.1 150 13:55 11.01.2020
1000 Clouds 10 1033 57 10000 2.6 170 13:37 11.01.2020
1001 Clouds 10 1033 57 10000 2.6 170 13:18 11.01.2020
1002 Clouds 10 1034 57 10000 2.1 140 12:44 11.01.2020
1003 Clouds 9 1034 71 10000 1.5 0 12:25 11.01.2020
1004 Clouds 8 1034 76 10000 1.5 140 11:54 11.01.2020
1005 Clouds 8 1035 81 10000 1 0 11:36 11.01.2020
1006 Clear 7 1035 81 10000 1 0 11:18 11.01.2020
1007 Clear 7 1035 81 10000 1 0 11:18 11.01.2020
1008 Clear 6 1035 87 10000 1.51 120 10:42 11.01.2020
1009 Clear 5 1034 100 9000 1 140 10:23 11.01.2020
1010 Mist 3 1034 100 5000 1.5 120 09:39 11.01.2020
1011 Clear 2 1034 93 9000 2.1 100 09:21 11.01.2020
1012 Clear 3 1034 100 6000 1.51 120 08:43 11.01.2020
1013 Clouds 3 1034 93 10000 0.5 0 08:22 11.01.2020
1014 Clouds 3 1034 93 10000 0.5 130 07:44 11.01.2020
1015 Clouds 3 1034 100 10000 1.67 110 07:26 11.01.2020
1016 Clouds 3 1034 100 10000 1.67 110 06:52 11.01.2020
1017 Clouds 4 1034 100 10000 1.67 110 06:19 11.01.2020
1018 Clouds 4 1034 100 10000 2.32 84 04:48 11.01.2020
1019 Clouds 3 1034 100 10000 1.5 210 04:29 11.01.2020
1020 Clouds 4 1034 100 10000 0.5 250 03:28 11.01.2020
1021 Clouds 5 1034 100 10000 2.32 84 02:40 11.01.2020
1022 Clouds 5 1034 93 10000 1.85 27 01:44 11.01.2020
1023 Clouds 5 1034 93 10000 1.46 38 01:20 11.01.2020
1024 Clouds 5 1034 93 10000 1 260 00:43 11.01.2020
1025 Clouds 5 1034 93 10000 1.46 38 00:18 11.01.2020
1026 Clouds 5 1034 93 10000 1.46 38 23:40 10.01.2020
1027 Clouds 6 1034 87 10000 1 220 23:22 10.01.2020
1028 Clouds 6 1034 87 10000 1 260 22:59 10.01.2020
1029 Clouds 6 1034 87 10000 1 260 22:40 10.01.2020
1030 Clouds 6 1034 87 10000 0.5 240 22:20 10.01.2020
1031 Clouds 6 1034 93 10000 1 0 21:57 10.01.2020
1032 Clouds 6 1034 87 10000 1 0 21:37 10.01.2020
1033 Clouds 6 1034 87 10000 1 0 21:19 10.01.2020
1034 Clouds 6 1033 87 10000 0.5 0 20:43 10.01.2020
1035 Clouds 7 1033 81 10000 1.5 240 20:24 10.01.2020
1036 Clouds 7 1033 75 10000 1 0 19:59 10.01.2020
1037 Clouds 7 1032 81 10000 1.5 0 19:38 10.01.2020
1038 Clouds 7 1032 81 10000 1.5 0 19:19 10.01.2020
1039 Clouds 8 1032 75 10000 2.1 290 18:43 10.01.2020
1040 Clouds 8 1032 75 10000 1 0 18:19 10.01.2020
1041 Clouds 9 1032 70 10000 1.5 0 17:58 10.01.2020
1042 Clouds 10 1031 61 10000 2.6 360 17:39 10.01.2020
1043 Clouds 10 1031 61 10000 2.6 360 17:20 10.01.2020
1044 Clouds 11 1031 62 10000 2.1 360 16:58 10.01.2020
1045 Clouds 11 1031 62 10000 2.1 360 16:39 10.01.2020
1046 Clouds 11 1031 61 10000 3.6 350 16:20 10.01.2020
1047 Clouds 12 1030 57 10000 3.6 10 15:56 10.01.2020
1048 Clouds 11 1030 57 10000 3.6 10 15:37 10.01.2020
1049 Clouds 11 1030 57 10000 3.6 10 15:18 10.01.2020
1050 Clouds 12 1030 57 10000 4.6 10 14:55 10.01.2020
1051 Clouds 12 1030 57 10000 4.6 10 14:37 10.01.2020
1052 Clouds 11 1030 62 10000 5.1 360 14:18 10.01.2020
1053 Clouds 11 1030 66 10000 4.6 350 13:44 10.01.2020
1054 Clouds 11 1030 62 10000 5.1 10 13:26 10.01.2020
1055 Clouds 11 1030 62 10000 6.2 360 12:59 10.01.2020
1056 Clouds 11 1029 66 10000 4.6 350 12:39 10.01.2020
1057 Clouds 11 1029 66 10000 4.6 350 12:19 10.01.2020
1058 Clouds 11 1029 66 10000 4.6 340 11:56 10.01.2020
1059 Clouds 11 1029 71 10000 4.1 350 11:38 10.01.2020
1060 Clouds 11 1029 71 10000 4.1 350 11:38 10.01.2020
1061 Clouds 11 1029 71 10000 4.1 350 11:38 10.01.2020
1062 Rain 11 1029 71 10000 4.1 350 11:18 10.01.2020
1063 Rain 10 1028 87 10000 2.6 340 10:58 10.01.2020
1064 Clouds 10 1028 93 10000 2.1 280 10:36 10.01.2020
1065 Clouds 10 1028 93 10000 2.1 280 10:18 10.01.2020
1066 Clouds 9 1027 93 10000 3.1 290 09:43 10.01.2020
1067 Clouds 9 1027 93 10000 2.6 250 09:24 10.01.2020
1068 Rain 9 1026 93 10000 2.1 310 08:43 10.01.2020
1069 Drizzle 9 1026 93 10000 3.6 300 08:24 10.01.2020
1070 Rain 9 1026 93 7000 4.1 300 07:48 10.01.2020
1071 Rain 9 1025 93 10000 2.6 240 07:30 10.01.2020
1072 Rain 10 1025 87 10000 3.6 270 06:56 10.01.2020
1073 Rain 10 1024 87 10000 5.1 270 06:27 10.01.2020
1074 Rain 10 1024 93 10000 3.6 260 05:52 10.01.2020
1075 Rain 10 1023 87 10000 5.1 260 03:50 10.01.2020
1076 Clouds 10 1023 87 10000 5.7 270 03:31 10.01.2020
1077 Rain 11 1022 87 10000 5.7 250 02:51 10.01.2020
1078 Rain 11 1022 87 10000 5.7 250 01:52 10.01.2020
1079 Rain 11 1022 87 10000 6.7 250 01:29 10.01.2020
1080 Clouds 11 1022 87 10000 7.7 260 00:48 10.01.2020
1081 Rain 11 1022 81 10000 8.7 270 00:30 10.01.2020
1082 Rain 11 1022 76 10000 7.7 240 23:40 09.01.2020
1083 Clouds 11 1022 81 10000 7.7 240 23:21 09.01.2020
1084 Clouds 11 1021 87 10000 8.7 240 22:58 09.01.2020
1085 Clouds 11 1021 87 10000 8.7 240 22:39 09.01.2020
1086 Clouds 11 1021 76 10000 8.2 240 22:19 09.01.2020
1087 Clouds 11 1021 76 10000 8.2 240 22:19 09.01.2020
1088 Clouds 11 1021 76 10000 7.2 240 21:57 09.01.2020
1089 Clouds 11 1021 76 10000 7.2 240 21:57 09.01.2020
1090 Clouds 11 1021 76 10000 7.2 240 21:39 09.01.2020
1091 Rain 11 1021 87 10000 6.2 240 21:20 09.01.2020
1092 Rain 11 1021 87 10000 5.7 220 20:58 09.01.2020
1093 Clouds 11 1020 87 10000 4.6 200 20:39 09.01.2020
1094 Rain 11 1020 87 10000 4.1 220 20:20 09.01.2020
1095 Clouds 11 1020 87 10000 4.6 200 20:20 09.01.2020
1096 Rain 11 1020 87 10000 4.1 220 19:59 09.01.2020
1097 Rain 11 1020 87 10000 5.1 240 19:39 09.01.2020
1098 Rain 11 1020 87 10000 5.1 240 19:20 09.01.2020
1099 Rain 11 1020 93 10000 5.7 250 18:56 09.01.2020
1100 Rain 11 1020 93 10000 5.7 250 18:56 09.01.2020
1101 Rain 12 1020 87 6000 8.2 280 18:38 09.01.2020
1102 Rain 12 1020 87 6000 8.2 280 18:20 09.01.2020
1103 Clouds 14 1018 67 10000 5.1 220 17:41 09.01.2020
1104 Clouds 14 1018 67 10000 5.1 220 17:19 09.01.2020
1105 Clouds 15 1018 55 10000 4.6 230 16:56 09.01.2020
1106 Clouds 15 1018 55 10000 3.6 200 16:37 09.01.2020
1107 Clouds 16 1017 55 10000 4.1 190 16:19 09.01.2020
1108 Clouds 16 1018 59 10000 5.1 210 15:41 09.01.2020
1109 Clouds 16 1018 59 10000 5.1 210 15:21 09.01.2020
1110 Clouds 16 1018 55 10000 6.2 220 14:55 09.01.2020
1111 Clouds 15 1019 62 10000 4.6 200 14:37 09.01.2020
1112 Clouds 15 1019 62 10000 5.7 210 14:18 09.01.2020
1113 Clouds 14 1019 62 10000 5.7 210 13:55 09.01.2020
1114 Clouds 14 1019 62 10000 5.7 210 13:55 09.01.2020
1115 Clouds 15 1020 62 10000 4.6 200 13:36 09.01.2020
1116 Clouds 14 1021 71 10000 4.1 180 13:18 09.01.2020
1117 Clouds 12 1021 76 10000 3.6 180 12:42 09.01.2020
1118 Clouds 12 1021 76 10000 3.6 180 12:23 09.01.2020
1119 Clouds 11 1022 81 10000 3.1 200 11:59 09.01.2020
1120 Clouds 11 1022 81 10000 3.1 160 11:41 09.01.2020
1121 Clouds 10 1022 81 10000 3.1 160 11:22 09.01.2020
1122 Clouds 9 1022 93 10000 1 180 10:45 09.01.2020
1123 Clouds 9 1022 93 10000 1 180 10:23 09.01.2020
1124 Clouds 9 1022 93 9000 3.6 160 09:59 09.01.2020
1125 Clouds 9 1022 93 8000 3.6 150 09:40 09.01.2020
1126 Clouds 9 1022 93 8000 3.6 150 09:21 09.01.2020
1127 Clouds 9 1023 93 7000 2.6 160 08:55 09.01.2020
1128 Clouds 9 1023 93 7000 2.6 160 08:37 09.01.2020
1129 Clouds 9 1023 93 7000 2.6 160 08:19 09.01.2020
1130 Clouds 8 1023 93 7000 2.6 150 07:42 09.01.2020
1131 Clouds 8 1023 93 7000 2.6 150 07:24 09.01.2020
1132 Clouds 8 1023 93 6000 1.5 120 06:39 09.01.2020
1133 Clouds 7 1024 93 7000 2.1 140 06:20 09.01.2020
1134 Clouds 8 1024 93 10000 2.84 150 05:50 09.01.2020
1135 Clouds 8 1024 93 10000 2.84 150 05:50 09.01.2020
1136 Clouds 9 1024 100 10000 3.1 140 04:44 09.01.2020
1137 Clouds 9 1025 93 10000 3.1 140 03:54 09.01.2020
1138 Clouds 9 1025 93 10000 1.5 0 02:55 09.01.2020
1139 Clouds 9 1026 93 10000 1.96 147 02:30 09.01.2020
1140 Clouds 9 1026 87 10000 3.1 150 01:40 09.01.2020
1141 Clouds 9 1027 93 10000 1.5 170 00:44 09.01.2020
1142 Clouds 9 1027 93 10000 1.5 170 00:21 09.01.2020
1143 Clouds 9 1027 93 10000 1.5 170 23:55 08.01.2020
1144 Clouds 9 1027 93 10000 3.1 150 23:37 08.01.2020
1145 Clouds 9 1027 93 10000 2.6 140 23:18 08.01.2020
1146 Clouds 9 1028 93 10000 0.5 0 22:39 08.01.2020
1147 Clouds 10 1028 87 10000 2.1 130 22:21 08.01.2020
1148 Clouds 10 1028 87 10000 2.1 130 21:57 08.01.2020
1149 Clouds 10 1028 93 10000 2.6 130 21:38 08.01.2020
1150 Clouds 10 1028 93 10000 2.6 130 21:20 08.01.2020
1151 Clouds 10 1028 93 10000 1.5 140 20:58 08.01.2020
1152 Clouds 10 1028 93 10000 1.5 140 20:39 08.01.2020
1153 Clouds 10 1029 87 10000 1.5 120 20:20 08.01.2020
1154 Clouds 10 1029 87 10000 1.5 120 19:56 08.01.2020
1155 Clouds 10 1029 93 10000 1.5 130 19:37 08.01.2020
1156 Clouds 11 1029 87 10000 1.5 120 19:19 08.01.2020
1157 Clouds 11 1029 87 10000 1.5 120 18:55 08.01.2020
1158 Clouds 12 1029 82 10000 2.1 110 18:37 08.01.2020
1159 Clouds 12 1029 76 10000 2.1 110 18:18 08.01.2020
1160 Clouds 13 1029 72 10000 1.5 130 17:48 08.01.2020
1161 Clouds 14 1029 72 10000 1.5 130 17:24 08.01.2020
1162 Clouds 14 1029 72 10000 1.5 130 17:24 08.01.2020
1163 Clouds 15 1029 72 10000 1.5 120 16:57 08.01.2020
1164 Clouds 15 1029 72 10000 1 0 16:39 08.01.2020
1165 Clouds 15 1029 72 10000 1.5 150 16:19 08.01.2020
1166 Clouds 15 1029 72 10000 1.5 150 15:58 08.01.2020
1167 Clouds 15 1029 72 10000 1.5 150 15:39 08.01.2020
1168 Clouds 15 1029 72 10000 1.15 159 15:19 08.01.2020
1169 Clouds 15 1029 72 10000 1.15 159 14:55 08.01.2020
1170 Clouds 14 1030 76 10000 4.6 170 14:37 08.01.2020
1171 Clouds 14 1030 76 10000 4.6 170 14:19 08.01.2020
1172 Clouds 13 1030 82 10000 3.6 160 13:39 08.01.2020
1173 Clouds 13 1031 76 10000 3.6 160 13:18 08.01.2020
1174 Clouds 12 1031 81 10000 2.6 150 12:41 08.01.2020
1175 Clouds 11 1031 81 10000 2.6 150 12:19 08.01.2020
1176 Clouds 11 1031 81 10000 2.6 150 12:19 08.01.2020
1177 Clouds 11 1031 81 10000 2.6 150 11:55 08.01.2020
1178 Clouds 10 1031 93 10000 2.1 150 11:55 08.01.2020
1179 Clouds 10 1031 93 10000 2.1 150 11:37 08.01.2020
1180 Clouds 10 1031 87 10000 2.1 150 11:18 08.01.2020
1181 Clouds 9 1031 93 10000 3.1 140 10:42 08.01.2020
1182 Clouds 9 1031 93 10000 3.1 140 10:22 08.01.2020
1183 Clouds 8 1031 93 10000 2.1 130 09:59 08.01.2020
1184 Clouds 7 1031 100 10000 1.5 140 09:41 08.01.2020
1185 Clouds 7 1031 100 10000 1.5 140 09:19 08.01.2020
1186 Clouds 7 1031 100 10000 1.5 140 09:19 08.01.2020
1187 Clouds 6 1031 100 10000 2.6 140 08:55 08.01.2020
1188 Clouds 7 1031 100 6000 2.1 140 08:36 08.01.2020
1189 Clouds 7 1031 93 7000 1.5 110 08:18 08.01.2020
1190 Fog 6 1031 100 7000 1.5 130 07:43 08.01.2020
1191 Fog 6 1031 100 7000 1.5 130 07:23 08.01.2020
1192 Fog 7 1030 100 4800 1 150 06:44 08.01.2020
1193 Fog 7 1030 100 4000 1.5 140 05:59 08.01.2020
1194 Fog 7 1031 100 700 1.54 183 05:28 08.01.2020
1195 Fog 8 1031 93 8000 1.45 187 04:46 08.01.2020
1196 Clouds 8 1031 93 10000 1.5 200 03:32 08.01.2020
1197 Clouds 9 1031 93 10000 2.1 190 02:44 08.01.2020
1198 Clouds 10 1031 93 10000 1.5 200 02:19 08.01.2020
1199 Clouds 10 1031 87 10000 1.5 210 01:39 08.01.2020
1200 Clouds 10 1031 87 10000 2.1 210 00:53 08.01.2020
1201 Clouds 11 1032 93 10000 1.5 220 00:26 08.01.2020
1202 Clouds 11 1032 93 10000 2.1 210 23:46 07.01.2020
1203 Clouds 11 1032 93 10000 2.1 210 23:22 07.01.2020
1204 Clouds 11 1032 93 7000 1.5 200 22:58 07.01.2020
1205 Clouds 11 1032 93 7000 1.5 200 22:38 07.01.2020
1206 Clouds 11 1032 93 7000 1.5 200 22:19 07.01.2020
1207 Clouds 11 1032 93 7000 1.5 200 22:19 07.01.2020
1208 Clouds 11 1032 100 9000 1.5 200 21:42 07.01.2020
1209 Clouds 11 1032 100 7000 2.1 220 21:23 07.01.2020
1210 Clouds 11 1032 100 7000 2.1 220 20:59 07.01.2020
1211 Mist 11 1032 100 4200 2.6 190 20:41 07.01.2020
1212 Mist 11 1032 100 4200 2.6 190 20:22 07.01.2020
1213 Mist 11 1032 100 4800 2.6 190 19:58 07.01.2020
1214 Mist 11 1032 93 5000 1.5 210 19:38 07.01.2020
1215 Clouds 11 1031 93 7000 1.5 180 19:19 07.01.2020
1216 Clouds 11 1031 93 7000 1.5 180 18:56 07.01.2020
1217 Mist 12 1031 93 4200 1.5 170 18:38 07.01.2020
1218 Mist 12 1032 93 5000 1.5 220 18:18 07.01.2020
1219 Mist 12 1032 93 5000 1.5 220 17:56 07.01.2020
1220 Clouds 12 1031 93 10000 2.6 250 17:37 07.01.2020
1221 Clouds 12 1031 87 10000 2.6 260 17:18 07.01.2020
1222 Clouds 12 1031 87 10000 2.6 260 16:55 07.01.2020
1223 Clouds 12 1031 87 10000 2.1 260 16:37 07.01.2020
1224 Clouds 12 1031 87 10000 2.1 260 16:18 07.01.2020
1225 Clouds 12 1031 87 10000 3.1 270 15:42 07.01.2020
1226 Clouds 12 1031 87 10000 3.1 270 15:24 07.01.2020
1227 Clouds 12 1031 100 10000 2.6 250 14:58 07.01.2020
1228 Clouds 12 1031 93 10000 1.5 220 14:40 07.01.2020
1229 Clouds 12 1031 93 10000 1.5 220 14:20 07.01.2020
1230 Drizzle 11 1032 100 2500 1.5 230 13:46 07.01.2020
1231 Drizzle 11 1032 100 2500 1.5 230 13:20 07.01.2020
1232 Drizzle 11 1032 100 2500 1.5 230 13:20 07.01.2020
1233 Mist 11 1033 93 5000 2.1 210 12:56 07.01.2020
1234 Mist 11 1033 93 5000 2.1 210 12:37 07.01.2020
1235 Mist 10 1033 93 5000 2.1 210 12:18 07.01.2020
1236 Clouds 10 1033 100 7000 2.1 190 11:41 07.01.2020
1237 Clouds 10 1033 100 7000 2.1 190 11:22 07.01.2020
1238 Mist 9 1033 100 5000 1 170 10:56 07.01.2020
1239 Mist 9 1033 93 3100 1 160 10:37 07.01.2020
1240 Mist 9 1033 93 3100 1 160 10:37 07.01.2020
1241 Mist 9 1033 93 5000 1 0 10:19 07.01.2020
1242 Mist 8 1032 100 3300 3.1 170 09:39 07.01.2020
1243 Mist 8 1032 100 3300 3.1 170 09:20 07.01.2020
1244 Mist 8 1032 100 4800 1.5 160 08:57 07.01.2020
1245 Clouds 8 1032 100 6000 1.5 140 08:37 07.01.2020
1246 Clouds 8 1032 100 6000 1.5 140 08:37 07.01.2020
1247 Clouds 8 1032 100 7000 1 150 08:18 07.01.2020
1248 Clouds 8 1032 100 6000 1 160 07:42 07.01.2020
1249 Clouds 8 1032 100 6000 1 160 07:42 07.01.2020
1250 Clouds 8 1032 100 6000 1.5 170 06:57 07.01.2020
1251 Clouds 8 1031 93 7000 1 180 06:35 07.01.2020
1252 Clouds 7 1031 93 7000 1.5 170 05:59 07.01.2020
1253 Clouds 7 1031 93 7000 1.5 210 05:40 07.01.2020
1254 Clouds 7 1032 93 9000 1.5 190 03:44 07.01.2020
1255 Clouds 6 1032 100 7000 1.5 170 02:38 07.01.2020
1256 Clouds 6 1032 100 7000 1.5 170 01:59 07.01.2020
1257 Clouds 6 1031 100 6000 1.5 0 01:35 07.01.2020
1258 Mist 5 1031 100 4400 1 190 00:51 07.01.2020
1259 Clouds 6 1031 93 7000 1.5 170 00:20 07.01.2020
1260 Clouds 6 1031 93 7000 1.5 170 23:56 06.01.2020
1261 Clouds 6 1031 93 7000 2.6 160 23:36 06.01.2020
1262 Clouds 6 1031 93 7000 2.6 160 23:18 06.01.2020
1263 Clouds 6 1031 93 7000 2.6 160 23:18 06.01.2020
1264 Clouds 6 1031 100 7000 1.5 160 22:43 06.01.2020
1265 Clouds 6 1031 100 7000 1.5 160 22:23 06.01.2020
1266 Clouds 6 1031 100 7000 1.5 0 21:58 06.01.2020
1267 Clouds 6 1031 100 7000 1.5 0 21:39 06.01.2020
1268 Clouds 6 1031 100 7000 1.5 0 21:20 06.01.2020
1269 Clouds 6 1031 100 7000 1.5 0 21:20 06.01.2020
1270 Clouds 6 1031 100 7000 1.5 0 21:20 06.01.2020
1271 Clouds 6 1030 93 6000 2.1 160 20:57 06.01.2020
1272 Clouds 5 1030 93 6000 2.6 170 20:38 06.01.2020
1273 Mist 5 1031 100 5000 2.1 150 20:20 06.01.2020
1274 Mist 5 1031 100 5000 2.1 150 19:56 06.01.2020
1275 Mist 5 1031 100 5000 2.1 150 19:56 06.01.2020
1276 Mist 5 1031 100 5000 1 180 19:37 06.01.2020
1277 Mist 5 1031 100 5000 1 180 19:19 06.01.2020
1278 Mist 5 1031 100 5000 1 180 19:19 06.01.2020
1279 Clouds 5 1029 93 7000 2.1 140 18:46 06.01.2020
1280 Clouds 5 1029 93 8000 1.5 150 18:21 06.01.2020
1281 Clouds 5 1029 93 8000 1.5 150 17:57 06.01.2020
1282 Clouds 5 1029 93 10000 1 0 17:37 06.01.2020
1283 Clouds 5 1029 93 10000 1 0 17:18 06.01.2020
1284 Clouds 5 1028 93 10000 2.1 150 16:44 06.01.2020
1285 Clouds 5 1028 93 10000 2.1 150 16:24 06.01.2020
1286 Clouds 5 1028 100 10000 2.1 140 15:59 06.01.2020
1287 Clouds 4 1028 93 7000 2.1 120 15:38 06.01.2020
1288 Clouds 4 1028 93 7000 2.1 120 15:18 06.01.2020
1289 Fog 3 1028 100 800 1.5 150 14:42 06.01.2020
1290 Fog 3 1028 100 800 1.5 150 14:23 06.01.2020
1291 Fog 3 1029 100 800 1.5 170 13:59 06.01.2020
1292 Fog 3 1029 57 1500 2.6 220 13:40 06.01.2020
1293 Fog 3 1029 58 1500 2.6 220 13:22 06.01.2020
1294 Fog 2 1029 58 4100 3.1 230 12:58 06.01.2020
1295 Clouds 2 1029 58 10000 3.6 230 12:39 06.01.2020
1296 Clouds 2 1029 58 10000 3.1 230 12:20 06.01.2020
1297 Clouds 1 1029 100 10000 2.6 190 11:43 06.01.2020
1298 Clouds 1 1029 100 10000 2.6 190 11:24 06.01.2020
1299 Mist 1 1028 74 4600 2.1 170 11:00 06.01.2020
1300 Fog 1 1028 74 1000 3.6 130 10:41 06.01.2020
1301 Fog 1 1028 74 1000 3.6 130 10:21 06.01.2020
1302 Fog 0 1028 100 900 1.5 150 09:42 06.01.2020
1303 Fog 0 1028 100 900 1.5 150 09:23 06.01.2020
1304 Mist 0 1028 100 1900 1 0 08:55 06.01.2020
1305 Mist 0 1028 100 3300 2.6 140 08:37 06.01.2020
1306 Mist 0 1028 100 3300 2.6 140 07:58 06.01.2020
1307 Mist 0 1027 100 2900 2.1 140 07:39 06.01.2020
1308 Fog 0 1027 100 1000 4.1 140 06:51 06.01.2020
1309 Fog 0 1027 100 750 3.6 120 06:32 06.01.2020
1310 Fog -1 1027 100 1400 2.6 150 05:48 06.01.2020
1311 Fog -1 1028 100 1800 2.1 150 04:58 06.01.2020
1312 Mist -1 1027 100 5000 2.6 120 04:22 06.01.2020
1313 Mist 0 1028 100 4800 1.5 0 03:26 06.01.2020
1314 Fog 0 1028 100 4200 1 160 02:26 06.01.2020
1315 Fog 0 1028 89 5000 1.46 101 01:49 06.01.2020
1316 Clouds 0 1028 89 6000 0.5 250 01:29 06.01.2020
1317 Clear 0 1029 90 6000 0.5 260 00:45 06.01.2020
1318 Clear 1 1029 90 6000 0.5 260 00:26 06.01.2020
1319 Mist 1 1030 100 5000 1 260 23:57 05.01.2020
1320 Mist 1 1030 93 4900 1.5 260 23:37 05.01.2020
1321 Clear 1 1030 93 9000 2.6 240 23:19 05.01.2020
1322 Clear 2 1030 93 8000 1.5 250 22:40 05.01.2020
1323 Clear 2 1030 93 10000 1.63 36 22:20 05.01.2020
1324 Clear 2 1030 93 10000 1.63 36 21:56 05.01.2020
1325 Clear 2 1030 93 10000 1.63 36 21:38 05.01.2020
1326 Clear 2 1030 93 10000 1.63 36 21:20 05.01.2020
1327 Clear 3 1030 86 10000 1.63 36 20:56 05.01.2020
1328 Clear 3 1031 86 10000 1 0 20:38 05.01.2020
1329 Clear 3 1031 86 10000 1 0 20:19 05.01.2020
1330 Clear 4 1031 86 10000 2.1 50 19:57 05.01.2020
1331 Clear 4 1031 75 10000 1.5 50 19:38 05.01.2020
1332 Clear 5 1031 75 10000 2.1 40 19:19 05.01.2020
1333 Clear 5 1031 75 10000 2.1 40 18:55 05.01.2020
1334 Clear 6 1031 70 10000 1.5 50 18:36 05.01.2020
1335 Clear 7 1031 65 10000 2.1 70 18:18 05.01.2020
1336 Clear 7 1031 65 10000 2.1 70 17:57 05.01.2020
1337 Clear 8 1031 61 10000 3.1 60 17:37 05.01.2020
1338 Clear 8 1031 61 10000 3.1 60 17:19 05.01.2020
1339 Clear 8 1031 61 10000 3.1 60 17:19 05.01.2020
1340 Clear 9 1031 61 10000 2.6 60 16:55 05.01.2020
1341 Clear 9 1031 61 10000 2.6 60 16:37 05.01.2020
1342 Clear 9 1031 61 10000 3.6 60 16:19 05.01.2020
1343 Clear 9 1031 61 10000 3.6 60 16:19 05.01.2020
1344 Clear 9 1031 57 10000 3.6 60 15:37 05.01.2020
1345 Clear 9 1032 65 10000 3.6 50 15:18 05.01.2020
1346 Clear 9 1032 65 10000 3.6 50 14:55 05.01.2020
1347 Clear 9 1032 65 10000 3.6 80 14:36 05.01.2020
1348 Clear 9 1032 65 10000 3.6 80 14:18 05.01.2020
1349 Clear 8 1033 70 10000 3.6 50 13:40 05.01.2020
1350 Clear 8 1033 70 10000 3.6 50 13:21 05.01.2020
1351 Clear 7 1034 70 10000 2.6 70 12:58 05.01.2020
1352 Clear 6 1035 75 10000 2.6 70 12:39 05.01.2020
1353 Clear 6 1035 75 10000 2.6 70 12:21 05.01.2020
1354 Clear 6 1035 75 10000 2.6 70 12:21 05.01.2020
1355 Clear 5 1035 80 10000 3.1 70 11:58 05.01.2020
1356 Clear 5 1035 80 10000 2.6 60 11:39 05.01.2020
1357 Clear 4 1035 80 10000 2.6 60 11:19 05.01.2020
1358 Clear 4 1035 93 10000 1 0 10:56 05.01.2020
1359 Clear 3 1036 100 10000 2.03 40 10:36 05.01.2020
1360 Clear 3 1036 100 10000 2.03 40 10:36 05.01.2020
1361 Clear 1 1036 100 6000 2.03 40 10:18 05.01.2020
1362 Fog 0 1036 88 7000 1.5 40 09:41 05.01.2020
1363 Fog 0 1036 88 7000 1.5 40 09:21 05.01.2020
1364 Mist 0 1036 88 5000 1.5 20 08:46 05.01.2020
1365 Mist 0 1036 89 5000 1.5 20 08:27 05.01.2020
1366 Fog 1 1036 100 8000 1 0 07:55 05.01.2020
1367 Clear 1 1036 100 8000 1.5 40 07:35 05.01.2020
1368 Clear 1 1036 100 8000 1 0 06:58 05.01.2020
1369 Mist 1 1036 100 5000 1 0 05:55 05.01.2020
1370 Fog 1 1036 100 6000 2.1 10 05:28 05.01.2020
1371 Fog 1 1037 100 1700 0.5 330 04:24 05.01.2020
1372 Clear 1 1037 100 6000 0.5 0 03:47 05.01.2020
1373 Fog 1 1036 93 4000 2.76 25 02:43 05.01.2020
1374 Fog 2 1036 93 4000 2.44 31 02:20 05.01.2020
1375 Fog 2 1037 100 10000 1.5 40 01:39 05.01.2020
1376 Clear 2 1037 93 6000 1 20 01:18 05.01.2020
1377 Fog 3 1037 93 6000 1 30 00:40 05.01.2020
1378 Fog 3 1037 93 6000 1 30 00:21 05.01.2020
1379 Clear 3 1038 100 10000 1.5 20 23:59 04.01.2020
1380 Clear 3 1038 100 8000 1 360 23:39 04.01.2020
1381 Fog 3 1038 100 6000 1.5 10 23:18 04.01.2020
1382 Clouds 3 1038 93 10000 1 0 22:39 04.01.2020
1383 Clouds 3 1038 93 10000 1 0 22:39 04.01.2020
1384 Clouds 4 1038 93 10000 1 0 22:21 04.01.2020
1385 Clouds 4 1038 93 10000 1 0 21:57 04.01.2020
1386 Clouds 4 1038 93 10000 1 0 21:57 04.01.2020
1387 Clear 4 1038 93 10000 1.5 0 21:38 04.01.2020
1388 Clear 4 1038 93 10000 1.5 0 21:19 04.01.2020
1389 Clouds 5 1038 93 10000 2.1 20 20:56 04.01.2020
1390 Clear 5 1038 87 10000 1.5 0 20:37 04.01.2020
1391 Clouds 6 1037 87 10000 3.1 30 20:19 04.01.2020
1392 Clouds 6 1037 81 10000 3.1 30 19:42 04.01.2020
1393 Clouds 6 1037 81 10000 3.1 30 19:42 04.01.2020
1394 Clouds 7 1037 81 10000 2.6 10 19:23 04.01.2020
1395 Clouds 7 1037 81 10000 2.6 10 18:58 04.01.2020
1396 Clouds 7 1037 81 10000 2.6 360 18:39 04.01.2020
1397 Clouds 8 1037 81 10000 2.6 360 18:20 04.01.2020
1398 Clouds 9 1037 76 10000 3.6 360 17:58 04.01.2020
1399 Clouds 9 1036 71 10000 3.1 10 17:40 04.01.2020
1400 Clouds 10 1036 66 10000 2.1 20 17:21 04.01.2020
1401 Clouds 10 1036 66 10000 2.1 20 16:42 04.01.2020
1402 Clouds 10 1036 71 10000 3.1 340 16:24 04.01.2020
1403 Clouds 11 1036 71 10000 3.1 340 15:57 04.01.2020
1404 Clouds 10 1036 76 10000 2.1 320 15:39 04.01.2020
1405 Clouds 10 1036 76 10000 2.1 320 15:39 04.01.2020
1406 Clouds 10 1036 76 10000 2.6 350 15:19 04.01.2020
1407 Clouds 11 1036 76 10000 2.6 350 14:57 04.01.2020
1408 Clouds 10 1037 76 10000 1.5 330 14:39 04.01.2020
1409 Clouds 10 1037 87 10000 1.5 350 14:19 04.01.2020
1410 Clouds 10 1037 87 10000 1.5 350 13:55 04.01.2020
1411 Clouds 10 1037 87 10000 2.6 360 13:37 04.01.2020
1412 Clouds 10 1037 87 10000 2.6 360 13:37 04.01.2020
1413 Clouds 10 1037 87 10000 2.6 360 13:18 04.01.2020
1414 Clouds 10 1038 93 10000 2.1 10 12:41 04.01.2020
1415 Clouds 9 1038 93 10000 2.1 10 12:20 04.01.2020
1416 Clouds 9 1038 87 10000 3.1 10 11:59 04.01.2020
1417 Clouds 9 1038 93 10000 3.1 20 11:40 04.01.2020
1418 Clouds 9 1038 93 10000 3.1 10 11:19 04.01.2020
1419 Clouds 9 1038 93 10000 3.1 10 10:55 04.01.2020
1420 Clouds 9 1038 93 10000 3.1 10 10:55 04.01.2020
1421 Clouds 9 1037 93 10000 3.1 360 10:36 04.01.2020
1422 Clouds 9 1037 93 10000 2.6 360 10:18 04.01.2020
1423 Clouds 9 1036 93 10000 2.6 360 09:41 04.01.2020
1424 Clouds 9 1036 93 10000 2.6 360 09:22 04.01.2020
1425 Mist 9 1036 100 5000 3.1 360 08:42 04.01.2020
1426 Mist 9 1036 100 5000 3.1 360 08:21 04.01.2020
1427 Clouds 9 1035 100 7000 3.6 360 07:44 04.01.2020
1428 Mist 8 1035 100 3400 2.6 350 07:21 04.01.2020
1429 Mist 8 1035 100 3900 1.5 300 06:33 04.01.2020
1430 Clouds 8 1035 100 10000 1.5 240 05:39 04.01.2020
1431 Mist 7 1035 100 1100 2.1 230 04:44 04.01.2020
1432 Mist 7 1035 100 1100 2.1 230 04:25 04.01.2020
1433 Fog 8 1034 100 700 1.5 240 03:19 04.01.2020
1434 Fog 9 1034 100 350 1.5 240 02:23 04.01.2020
1435 Fog 9 1034 100 2500 1.5 280 01:56 04.01.2020
1436 Clouds 9 1034 100 10000 1.5 0 01:32 04.01.2020
1437 Drizzle 9 1034 100 2700 2.1 270 00:46 04.01.2020
1438 Drizzle 9 1034 100 2700 2.1 270 00:27 04.01.2020
1439 Clouds 9 1034 100 10000 2.6 260 23:48 03.01.2020
1440 Clouds 9 1034 100 10000 2.1 240 23:26 03.01.2020
1441 Drizzle 10 1034 93 8000 2.6 270 22:54 03.01.2020
1442 Clouds 9 1034 93 10000 2.6 230 22:36 03.01.2020
1443 Clouds 9 1034 93 10000 3.1 260 22:18 03.01.2020
1444 Clouds 9 1034 93 10000 3.1 260 22:18 03.01.2020
1445 Clouds 9 1034 93 10000 3.1 260 21:54 03.01.2020
1446 Mist 9 1033 100 5000 3.1 230 21:36 03.01.2020
1447 Fog 9 1033 100 2500 3.1 240 21:18 03.01.2020
1448 Clouds 9 1033 93 6000 3.1 230 20:42 03.01.2020
1449 Clouds 10 1032 93 10000 2.6 220 20:19 03.01.2020
1450 Clouds 10 1032 93 10000 2.6 220 19:58 03.01.2020
1451 Clouds 11 1032 93 10000 2.6 240 19:39 03.01.2020
1452 Clouds 11 1032 93 10000 2.6 240 19:21 03.01.2020
1453 Clouds 11 1032 93 10000 2.1 240 18:44 03.01.2020
1454 Clouds 11 1032 93 10000 2.1 240 18:44 03.01.2020
1455 Clouds 12 1032 87 10000 3.1 260 18:26 03.01.2020
1456 Clouds 12 1032 87 10000 3.1 260 17:57 03.01.2020
1457 Clouds 12 1031 87 10000 2.6 260 17:39 03.01.2020
1458 Clouds 12 1031 87 10000 3.6 260 17:19 03.01.2020
1459 Clouds 13 1031 87 10000 4.6 240 16:43 03.01.2020
1460 Clouds 13 1031 87 10000 4.6 240 16:24 03.01.2020
1461 Clouds 13 1031 87 10000 5.1 240 15:58 03.01.2020
1462 Clouds 13 1031 87 10000 5.1 240 15:58 03.01.2020
1463 Clouds 12 1031 87 10000 5.1 240 15:40 03.01.2020
1464 Clouds 13 1031 87 10000 5.1 230 15:18 03.01.2020
1465 Clouds 12 1031 93 10000 5.1 240 14:39 03.01.2020
1466 Clouds 12 1031 93 10000 5.1 240 14:20 03.01.2020
1467 Clouds 12 1031 93 10000 5.1 230 13:56 03.01.2020
1468 Clouds 11 1031 100 10000 4.6 220 13:37 03.01.2020
1469 Clouds 11 1031 93 8000 4.6 220 13:19 03.01.2020
1470 Drizzle 11 1031 93 4000 4.6 220 12:39 03.01.2020
1471 Drizzle 11 1031 93 4000 4.6 220 12:21 03.01.2020
1472 Drizzle 10 1031 100 4400 3.6 220 11:48 03.01.2020
1473 Drizzle 10 1031 100 4400 3.6 220 11:29 03.01.2020
1474 Drizzle 9 1031 100 3700 3.1 210 10:47 03.01.2020
1475 Drizzle 9 1031 100 3700 3.1 210 10:28 03.01.2020
1476 Drizzle 9 1030 100 4200 3.1 210 09:59 03.01.2020
1477 Clouds 9 1030 93 10000 3.1 210 09:40 03.01.2020
1478 Clouds 9 1030 93 10000 3.1 210 09:22 03.01.2020
1479 Clouds 8 1030 93 10000 3.1 220 08:57 03.01.2020
1480 Clouds 8 1030 93 10000 3.6 210 08:38 03.01.2020
1481 Clouds 8 1030 93 10000 3.6 210 08:19 03.01.2020
1482 Clouds 7 1029 93 10000 3.6 210 07:40 03.01.2020
1483 Clouds 7 1029 93 10000 3.6 210 07:19 03.01.2020
1484 Clouds 7 1029 100 10000 3.1 210 06:50 03.01.2020
1485 Clouds 7 1029 100 10000 3.1 200 06:32 03.01.2020
1486 Clouds 6 1029 100 7000 2.6 200 05:46 03.01.2020
1487 Fog 5 1028 100 5000 0.5 0 04:24 03.01.2020
1488 Fog 5 1028 100 5000 2.1 180 02:57 03.01.2020
1489 Mist 5 1028 100 4800 1.5 190 02:33 03.01.2020
1490 Mist 6 1028 93 3700 1 220 01:45 03.01.2020
1491 Clouds 6 1028 93 6000 1.5 240 00:50 03.01.2020
1492 Clouds 6 1028 93 7000 1.5 0 00:31 03.01.2020
1493 Clouds 7 1028 100 10000 1.5 210 23:57 02.01.2020
1494 Clouds 7 1028 93 9000 1.5 220 23:38 02.01.2020
1495 Clouds 6 1028 100 8000 1.5 200 23:19 02.01.2020
1496 Clouds 6 1028 100 8000 1.5 200 22:57 02.01.2020
1497 Clouds 6 1027 93 7000 2.6 190 22:38 02.01.2020
1498 Clouds 6 1027 93 7000 1.5 180 22:18 02.01.2020
1499 Clouds 6 1027 93 7000 1 170 21:41 02.01.2020
1500 Clouds 6 1027 93 7000 1 170 21:23 02.01.2020
1501 Clouds 6 1027 93 9000 2.08 169 20:59 02.01.2020
1502 Clouds 6 1027 93 9000 2.08 169 20:59 02.01.2020
1503 Clouds 6 1027 93 9000 2.08 169 20:59 02.01.2020
1504 Clouds 7 1027 87 10000 1 160 20:39 02.01.2020
1505 Clouds 7 1027 87 10000 1 160 20:21 02.01.2020
1506 Clouds 7 1027 93 10000 1 140 19:56 02.01.2020
1507 Clouds 7 1027 93 10000 1 140 19:56 02.01.2020
1508 Clouds 7 1027 93 10000 1 140 19:56 02.01.2020
1509 Clouds 7 1027 93 10000 1 0 19:37 02.01.2020
1510 Clouds 8 1027 87 10000 1 160 19:19 02.01.2020
1511 Clouds 8 1027 87 10000 1 160 18:57 02.01.2020
1512 Clouds 8 1027 87 10000 1 130 18:38 02.01.2020
1513 Clouds 9 1027 81 10000 1.5 130 18:20 02.01.2020
1514 Clouds 9 1027 81 10000 1.5 130 17:56 02.01.2020
1515 Clouds 10 1027 81 10000 2.1 140 17:37 02.01.2020
1516 Clouds 10 1027 76 10000 2.1 130 17:18 02.01.2020
1517 Clouds 10 1027 76 10000 2.1 130 16:56 02.01.2020
1518 Clouds 11 1026 76 10000 3.1 130 16:38 02.01.2020
1519 Clouds 11 1026 76 10000 3.1 130 16:19 02.01.2020
1520 Clouds 11 1026 71 10000 3.6 130 15:45 02.01.2020
1521 Clouds 11 1026 71 10000 4.1 110 15:24 02.01.2020
1522 Clouds 11 1026 71 10000 4.1 110 14:58 02.01.2020
1523 Clouds 11 1027 71 10000 4.1 120 14:38 02.01.2020
1524 Clouds 11 1027 71 10000 4.1 120 14:20 02.01.2020
1525 Clouds 11 1027 76 10000 4.1 120 13:58 02.01.2020
1526 Clouds 10 1028 76 10000 3.6 120 13:40 02.01.2020
1527 Clouds 10 1028 71 10000 3.1 120 13:19 02.01.2020
1528 Clouds 10 1029 76 10000 2.6 120 12:42 02.01.2020
1529 Clouds 9 1029 76 10000 3.6 130 12:21 02.01.2020
1530 Clouds 9 1029 76 10000 3.6 130 11:42 02.01.2020
1531 Clear 9 1029 76 10000 3.6 130 11:22 02.01.2020
1532 Clear 7 1029 81 10000 3.1 130 10:46 02.01.2020
1533 Clear 7 1029 81 10000 3.1 130 10:28 02.01.2020
1534 Clear 6 1029 87 10000 2.6 140 09:58 02.01.2020
1535 Clear 6 1029 93 10000 2.1 140 09:36 02.01.2020
1536 Clouds 6 1029 87 10000 2.6 160 08:59 02.01.2020
1537 Clouds 7 1029 81 10000 3.6 160 08:40 02.01.2020
1538 Clouds 7 1029 76 10000 3.1 160 08:21 02.01.2020
1539 Clouds 7 1029 81 10000 2.1 160 07:47 02.01.2020
1540 Clouds 8 1029 81 10000 1.5 150 07:27 02.01.2020
1541 Clouds 9 1029 81 10000 1.5 160 06:41 02.01.2020
1542 Clouds 9 1029 87 10000 1 0 05:40 02.01.2020
1543 Clouds 9 1029 87 10000 1 180 04:35 02.01.2020
1544 Clouds 9 1030 87 10000 3.1 180 03:44 02.01.2020
1545 Clouds 10 1030 81 10000 2.1 200 02:21 02.01.2020
1546 Clouds 9 1030 81 10000 2.1 190 01:53 02.01.2020
1547 Clouds 10 1030 81 10000 2.1 200 01:53 02.01.2020
1548 Clouds 9 1030 81 10000 2.1 190 01:25 02.01.2020
1549 Clouds 10 1030 81 10000 2.6 190 00:45 02.01.2020
1550 Clouds 10 1030 81 10000 2.6 190 00:26 02.01.2020
1551 Clouds 10 1031 81 10000 3.1 180 23:43 01.01.2020
1552 Clouds 10 1031 81 10000 3.6 180 23:23 01.01.2020
1553 Clouds 10 1031 81 10000 3.1 170 22:39 01.01.2020
1554 Clouds 10 1031 81 10000 3.1 170 22:39 01.01.2020
1555 Clouds 10 1031 81 10000 3.1 170 22:39 01.01.2020
1556 Clouds 10 1031 81 10000 3.1 170 22:20 01.01.2020
1557 Clouds 10 1031 87 10000 3.1 170 22:20 01.01.2020
1558 Clouds 10 1031 87 10000 2.1 160 21:58 01.01.2020
1559 Clouds 10 1031 87 10000 2.1 160 21:39 01.01.2020
1560 Clouds 10 1031 87 10000 2.1 160 21:20 01.01.2020
1561 Clouds 10 1031 87 10000 1.5 150 20:57 01.01.2020
1562 Clouds 10 1031 87 10000 1.5 150 20:38 01.01.2020
1563 Clouds 10 1031 87 10000 1.5 170 20:20 01.01.2020
1564 Clouds 10 1031 87 10000 1.5 220 19:56 01.01.2020
1565 Clouds 10 1031 87 10000 1.5 220 19:37 01.01.2020
1566 Clouds 10 1031 87 10000 1.5 220 19:19 01.01.2020
1567 Clouds 10 1031 87 10000 2.1 220 18:56 01.01.2020
1568 Clouds 10 1031 87 10000 2.1 220 18:37 01.01.2020
1569 Clouds 10 1031 87 10000 2.1 220 18:37 01.01.2020
1570 Clouds 10 1031 87 10000 1.5 200 18:19 01.01.2020
1571 Clouds 10 1031 87 10000 1.5 200 17:57 01.01.2020
1572 Rain 11 1031 81 10000 2.6 230 17:39 01.01.2020
1573 Rain 11 1031 81 10000 2.6 230 17:19 01.01.2020
1574 Clouds 11 1031 81 10000 2.6 220 16:56 01.01.2020
1575 Clouds 11 1031 81 10000 2.6 220 16:56 01.01.2020
1576 Clouds 11 1031 81 10000 2.6 220 16:37 01.01.2020
1577 Clouds 11 1031 81 10000 2.6 220 16:18 01.01.2020
1578 Clouds 11 1030 87 10000 4.1 230 15:54 01.01.2020
1579 Clouds 11 1031 81 10000 3.6 220 15:36 01.01.2020
1580 Clouds 11 1031 81 10000 4.6 230 15:18 01.01.2020
1581 Clouds 11 1031 81 10000 4.6 220 14:41 01.01.2020
1582 Clouds 11 1031 81 10000 4.1 220 14:22 01.01.2020
1583 Clouds 11 1031 81 10000 4.1 220 13:56 01.01.2020
1584 Clouds 11 1031 81 10000 4.1 220 13:56 01.01.2020
1585 Clouds 11 1031 81 10000 4.1 220 13:56 01.01.2020
1586 Clouds 11 1032 81 10000 4.1 220 13:37 01.01.2020
1587 Clouds 11 1032 81 10000 4.1 220 13:19 01.01.2020
1588 Clouds 11 1032 81 10000 4.1 220 12:57 01.01.2020
1589 Clouds 11 1032 81 10000 3.6 210 12:39 01.01.2020
1590 Clouds 11 1032 81 10000 3.6 210 12:19 01.01.2020
1591 Clouds 11 1032 81 10000 3.6 210 12:19 01.01.2020
1592 Clouds 10 1033 81 10000 4.1 200 11:56 01.01.2020
1593 Clouds 10 1033 87 10000 3.6 200 11:37 01.01.2020
1594 Clouds 10 1032 87 10000 3.1 200 11:18 01.01.2020
1595 Clouds 10 1032 87 10000 3.1 190 10:41 01.01.2020
1596 Clouds 10 1032 87 10000 3.1 190 10:21 01.01.2020
1597 Clouds 9 1032 93 10000 3.1 190 09:59 01.01.2020
1598 Clouds 9 1032 93 10000 3.1 190 09:38 01.01.2020
1599 Clouds 9 1032 93 10000 3.1 200 09:19 01.01.2020
1600 Clouds 9 1032 93 10000 3.1 200 08:55 01.01.2020
1601 Clouds 9 1032 93 10000 3.1 200 08:37 01.01.2020
1602 Clouds 9 1032 93 10000 3.1 200 08:37 01.01.2020
1603 Clouds 9 1032 93 10000 3.1 200 08:18 01.01.2020
1604 Clouds 9 1032 93 10000 3.1 190 07:54 01.01.2020
1605 Clouds 9 1031 93 10000 2.1 200 07:36 01.01.2020
1606 Clouds 9 1031 93 10000 1 0 06:45 01.01.2020
1607 Clouds 9 1031 93 10000 1 0 06:21 01.01.2020
1608 Clouds 10 1031 87 10000 1.5 190 05:22 01.01.2020
1609 Clouds 9 1031 93 10000 2.6 180 03:45 01.01.2020
1610 Clouds 9 1031 93 10000 2.6 180 03:23 01.01.2020
1611 Clouds 9 1031 93 10000 1.5 170 02:57 01.01.2020
1612 Clouds 9 1031 93 10000 2.1 180 02:35 01.01.2020
1613 Clouds 9 1031 93 10000 2.6 180 01:56 01.01.2020
1614 Clouds 9 1032 93 10000 1.5 180 01:38 01.01.2020
1615 Clouds 9 1032 93 10000 2.1 180 01:19 01.01.2020
1616 Clouds 9 1032 93 10000 2.6 180 00:44 01.01.2020
1617 Clouds 9 1032 93 10000 2.6 180 00:25 01.01.2020
1618 Clouds 9 1032 87 10000 2.6 190 23:41 31.12.2019
1619 Clouds 9 1032 87 10000 2.6 190 23:21 31.12.2019
1620 Clouds 9 1032 87 10000 2.1 210 22:57 31.12.2019
1621 Clouds 8 1032 93 10000 1.5 210 22:39 31.12.2019
1622 Clouds 8 1032 93 10000 1.5 210 22:20 31.12.2019
1623 Clouds 8 1032 93 10000 1.5 180 21:57 31.12.2019
1624 Clouds 8 1032 93 10000 2.1 190 21:38 31.12.2019
1625 Clouds 8 1032 93 10000 2.1 190 21:20 31.12.2019
1626 Clouds 8 1032 93 9000 1.5 210 20:55 31.12.2019
1627 Clouds 8 1032 93 8000 1.5 190 20:36 31.12.2019
1628 Clouds 8 1032 93 7000 1.5 140 20:18 31.12.2019
1629 Clouds 9 1032 87 7000 1.5 140 19:42 31.12.2019
1630 Clouds 9 1032 87 7000 1 150 19:24 31.12.2019
1631 Clouds 9 1032 87 7000 1.5 120 18:59 31.12.2019
1632 Clouds 9 1032 87 7000 1.5 120 18:40 31.12.2019
1633 Clouds 9 1032 87 10000 1 130 18:20 31.12.2019
1634 Clouds 9 1032 87 10000 1 130 17:57 31.12.2019
1635 Clouds 9 1032 87 9000 1 120 17:38 31.12.2019
1636 Clouds 9 1031 87 10000 1.5 100 17:19 31.12.2019
1637 Clouds 9 1031 87 10000 1.5 100 16:57 31.12.2019
1638 Clouds 10 1031 93 10000 2.1 90 16:38 31.12.2019
1639 Clouds 10 1031 93 10000 0.45 211 16:19 31.12.2019
1640 Clouds 10 1031 93 10000 0.45 211 15:56 31.12.2019
1641 Clouds 10 1031 93 10000 1 0 15:38 31.12.2019
1642 Clouds 10 1031 93 10000 1 0 15:20 31.12.2019
1643 Clouds 10 1031 93 8000 1 0 14:58 31.12.2019
1644 Clouds 9 1031 93 7000 1 0 14:38 31.12.2019
1645 Clouds 9 1031 93 7000 1 0 14:19 31.12.2019
1646 Clouds 9 1032 93 6000 1 0 14:19 31.12.2019
1647 Clouds 9 1032 93 6000 1 0 13:57 31.12.2019
1648 Clouds 8 1032 100 6000 1 0 13:39 31.12.2019
1649 Clouds 8 1032 100 6000 1 0 13:20 31.12.2019
1650 Clouds 7 1033 93 6000 1.85 161 12:56 31.12.2019
1651 Mist 8 1032 100 5000 0.5 0 12:38 31.12.2019
1652 Mist 7 1032 100 5000 0.5 0 12:19 31.12.2019
1653 Mist 7 1033 100 5000 1 0 11:56 31.12.2019
1654 Mist 7 1033 100 5000 1 0 11:56 31.12.2019
1655 Mist 7 1033 100 5000 1 0 11:56 31.12.2019
1656 Mist 7 1033 100 5000 1 0 11:56 31.12.2019
1657 Mist 6 1032 100 4000 1.5 150 11:38 31.12.2019
1658 Mist 5 1032 100 4000 1.5 150 11:19 31.12.2019
1659 Mist 4 1032 100 2900 2.6 120 10:57 31.12.2019
1660 Mist 4 1032 100 2900 2.6 120 10:57 31.12.2019
1661 Mist 3 1032 100 1500 1.5 150 10:38 31.12.2019
1662 Fog 3 1032 100 1900 1.5 140 10:19 31.12.2019
1663 Fog 2 1032 100 1900 1.5 140 09:58 31.12.2019
1664 Fog 2 1032 100 1400 1 150 09:39 31.12.2019
1665 Fog 2 1031 100 1800 0.5 130 09:19 31.12.2019
1666 Fog 2 1031 100 2300 1.5 130 08:43 31.12.2019
1667 Fog 1 1031 100 2300 1.5 130 08:24 31.12.2019
1668 Fog 1 1031 100 700 2.1 120 07:59 31.12.2019
1669 Fog 2 1031 93 750 1 150 07:41 31.12.2019
1670 Fog 2 1031 100 2100 1.5 130 07:19 31.12.2019
1671 Fog 2 1031 100 2300 1 170 06:42 31.12.2019
1672 Fog 2 1030 100 2900 2.1 140 05:54 31.12.2019
1673 Fog 2 1031 100 1000 2.6 130 04:27 31.12.2019
1674 Fog 2 1031 100 1500 1 100 03:27 31.12.2019
1675 Fog 2 1031 100 600 1 110 02:39 31.12.2019
1676 Fog 2 1031 100 550 1.81 122 01:53 31.12.2019
1677 Fog 3 1031 100 900 0.5 10 01:34 31.12.2019
1678 Fog 3 1031 100 700 1.83 120 00:56 31.12.2019
1679 Fog 3 1031 93 1800 0.5 120 00:37 31.12.2019
1680 Fog 4 1031 93 4800 1.83 120 00:18 31.12.2019
1681 Fog 4 1031 93 4800 1.83 120 23:55 30.12.2019
1682 Mist 4 1031 100 5000 2.1 110 23:37 30.12.2019
1683 Fog 4 1031 100 5000 2.1 110 23:18 30.12.2019
1684 Fog 4 1031 100 5000 2.1 110 22:55 30.12.2019
1685 Clouds 4 1031 93 6000 1.5 100 22:37 30.12.2019
1686 Clouds 4 1031 93 6000 1.5 100 22:18 30.12.2019
1687 Clouds 5 1031 93 6000 2.6 100 21:55 30.12.2019
1688 Clouds 5 1031 93 8000 2.1 100 21:37 30.12.2019
1689 Clouds 5 1031 93 8000 2.1 100 21:18 30.12.2019
1690 Clouds 5 1031 93 10000 1 0 20:54 30.12.2019
1691 Clouds 5 1031 93 10000 1 0 20:36 30.12.2019
1692 Clear 6 1031 87 10000 2.1 100 20:18 30.12.2019
1693 Clear 6 1031 87 10000 2.1 100 19:55 30.12.2019
1694 Clear 7 1031 87 10000 1.5 100 19:36 30.12.2019
1695 Clear 7 1031 81 10000 1 120 19:18 30.12.2019
1696 Clear 7 1031 81 10000 1 120 19:18 30.12.2019
1697 Clear 9 1031 76 10000 1.5 110 18:41 30.12.2019
1698 Clear 9 1031 76 10000 1.5 110 18:21 30.12.2019
1699 Clear 10 1030 76 10000 1.5 100 17:59 30.12.2019
1700 Clear 11 1030 66 10000 2.1 120 17:41 30.12.2019
1701 Clear 11 1030 66 10000 2.1 120 17:20 30.12.2019
1702 Clear 12 1030 66 10000 2.6 110 16:59 30.12.2019
1703 Clear 12 1030 62 10000 1.5 120 16:40 30.12.2019
1704 Clear 12 1030 62 10000 3.1 110 16:20 30.12.2019
1705 Clear 12 1030 62 10000 3.1 110 15:56 30.12.2019
1706 Clear 12 1030 62 10000 3.1 110 15:38 30.12.2019
1707 Clear 12 1030 62 10000 3.6 100 15:19 30.12.2019
1708 Clear 11 1030 66 10000 2.6 90 14:43 30.12.2019
1709 Clear 11 1030 66 10000 2.6 90 14:21 30.12.2019
1710 Clear 10 1031 71 10000 2.1 110 13:59 30.12.2019
1711 Clear 10 1031 76 10000 3.1 120 13:41 30.12.2019
1712 Clear 9 1031 76 10000 3.1 120 13:22 30.12.2019
1713 Clear 9 1031 76 10000 2.6 110 12:57 30.12.2019
1714 Clear 8 1032 81 10000 3.1 120 12:38 30.12.2019
1715 Clear 7 1032 81 10000 3.1 120 12:18 30.12.2019
1716 Clear 7 1032 81 10000 3.1 120 12:18 30.12.2019
1717 Clear 5 1032 93 10000 2.1 120 11:46 30.12.2019
1718 Clear 5 1032 93 10000 2.1 120 11:22 30.12.2019
1719 Clouds 4 1032 100 7000 2.6 110 10:59 30.12.2019
1720 Fog 4 1032 100 3500 2.1 90 10:40 30.12.2019
1721 Fog 3 1032 100 3500 2.1 90 10:19 30.12.2019
1722 Fog 3 1032 100 3500 2.1 90 10:19 30.12.2019
1723 Fog 3 1031 100 450 2.6 90 09:42 30.12.2019
1724 Fog 3 1031 100 450 2.6 90 09:21 30.12.2019
1725 Fog 3 1031 100 550 3.1 110 08:57 30.12.2019
1726 Fog 3 1031 100 550 2.6 100 08:38 30.12.2019
1727 Fog 3 1031 100 550 2.6 100 08:19 30.12.2019
1728 Fog 3 1031 100 500 2.6 100 07:44 30.12.2019
1729 Fog 3 1031 100 500 2.6 100 07:18 30.12.2019
1730 Fog 4 1031 100 450 2.6 80 06:29 30.12.2019
1731 Fog 4 1031 100 450 1.5 110 04:23 30.12.2019
1732 Fog 5 1031 100 500 1.5 0 03:42 30.12.2019
1733 Fog 5 1031 100 500 2.1 120 02:41 30.12.2019
1734 Fog 5 1031 100 500 2.1 120 02:21 30.12.2019
1735 Fog 4 1032 100 500 2.1 110 01:26 30.12.2019
1736 Fog 4 1032 100 800 2.6 130 00:47 30.12.2019
1737 Fog 4 1032 100 800 2.6 130 00:26 30.12.2019
1738 Mist 5 1031 100 1500 2.6 100 23:40 29.12.2019
1739 Mist 5 1032 100 2000 3.1 120 23:22 29.12.2019
1740 Mist 5 1032 100 2000 3.1 120 22:57 29.12.2019
1741 Mist 5 1032 100 2200 2.1 70 22:38 29.12.2019
1742 Mist 5 1032 100 2200 2.1 70 22:38 29.12.2019
1743 Mist 5 1032 100 2200 2.1 70 22:20 29.12.2019
1744 Mist 5 1032 100 3700 3.1 110 21:54 29.12.2019
1745 Mist 5 1032 100 3400 2.6 80 21:36 29.12.2019
1746 Mist 5 1032 100 3200 3.6 120 21:18 29.12.2019
1747 Mist 5 1032 100 3100 3.1 110 20:40 29.12.2019
1748 Mist 5 1032 100 3100 3.1 110 20:22 29.12.2019
1749 Mist 5 1032 100 3600 3.6 120 19:59 29.12.2019
1750 Mist 5 1032 93 4700 3.6 80 19:40 29.12.2019
1751 Mist 5 1032 93 4700 3.6 80 19:21 29.12.2019
1752 Mist 5 1032 100 4900 2.6 60 18:58 29.12.2019
1753 Mist 5 1031 93 4300 3.1 70 18:40 29.12.2019
1754 Mist 5 1031 93 4300 3.1 70 18:20 29.12.2019
1755 Mist 5 1031 93 4500 3.1 80 17:58 29.12.2019
1756 Mist 5 1031 100 5000 3.1 80 17:39 29.12.2019
1757 Mist 5 1031 100 5000 3.1 80 17:20 29.12.2019
1758 Clouds 5 1031 100 7000 3.1 70 16:57 29.12.2019
1759 Clouds 5 1031 100 6000 3.1 70 16:57 29.12.2019
1760 Clouds 5 1031 100 7000 3.1 70 16:39 29.12.2019
1761 Clouds 5 1031 100 6000 3.6 110 16:21 29.12.2019
1762 Clouds 5 1031 100 6000 2.6 80 15:58 29.12.2019
1763 Clouds 5 1031 100 6000 2.6 80 15:39 29.12.2019
1764 Clouds 5 1031 100 6000 2.6 80 15:20 29.12.2019
1765 Clouds 5 1031 100 6000 2.6 80 15:20 29.12.2019
1766 Mist 5 1031 100 4100 3.6 90 14:58 29.12.2019
1767 Fog 5 1032 100 1000 2.6 90 14:39 29.12.2019
1768 Fog 4 1032 100 500 2.6 90 14:18 29.12.2019
1769 Fog 4 1032 100 350 2.6 110 13:58 29.12.2019
1770 Fog 4 1032 100 350 2.6 110 13:39 29.12.2019
1771 Fog 4 1032 100 350 2.6 110 13:21 29.12.2019
1772 Fog 4 1032 100 350 2.6 120 12:56 29.12.2019
1773 Fog 3 1033 100 350 2.1 110 12:37 29.12.2019
1774 Fog 3 1033 100 350 2.6 100 12:19 29.12.2019
1775 Fog 2 1033 100 500 2.1 120 11:40 29.12.2019
1776 Fog 3 1032 100 400 2.6 150 11:20 29.12.2019
1777 Fog 2 1032 100 400 2.6 150 10:55 29.12.2019
1778 Fog 2 1032 100 300 2.1 140 10:37 29.12.2019
1779 Fog 2 1032 100 300 2.1 140 10:18 29.12.2019
1780 Mist 1 1032 100 1300 2.6 110 09:43 29.12.2019
1781 Mist 1 1032 100 1300 2.6 110 09:25 29.12.2019
1782 Fog 1 1032 100 450 1.5 100 08:50 29.12.2019
1783 Fog 1 1032 100 550 1.5 50 08:29 29.12.2019
1784 Fog 1 1032 100 550 1.5 50 07:59 29.12.2019
1785 Fog 1 1032 100 500 1.5 0 07:31 29.12.2019
1786 Fog 1 1032 100 600 2.1 40 06:57 29.12.2019
1787 Fog 1 1031 90 4300 0.5 20 06:27 29.12.2019
1788 Fog 1 1031 90 4300 0.5 20 05:54 29.12.2019
1789 Fog 2 1032 100 800 1.18 91 04:42 29.12.2019
1790 Fog 2 1032 100 800 1.18 91 04:21 29.12.2019
1791 Fog 2 1031 100 3600 1 20 03:21 29.12.2019
1792 Fog 2 1031 93 750 1.45 80 02:22 29.12.2019
1793 Fog 3 1032 93 5000 0.5 30 01:42 29.12.2019
1794 Fog 3 1032 93 5000 0.5 30 01:22 29.12.2019
1795 Mist 4 1032 100 3700 1.75 80 00:42 29.12.2019
1796 Mist 4 1032 100 3700 1.75 80 00:23 29.12.2019
1797 Clouds 5 1032 93 7000 1 10 23:44 28.12.2019
1798 Fog 5 1032 100 7000 1.5 0 23:18 28.12.2019
1799 Clouds 5 1032 93 10000 1.56 71 22:40 28.12.2019
1800 Clouds 5 1032 93 10000 1.56 71 22:21 28.12.2019
1801 Clouds 5 1032 93 10000 2.1 30 21:58 28.12.2019
1802 Fog 6 1032 93 10000 0.5 0 21:40 28.12.2019
1803 Fog 6 1032 93 10000 0.5 0 21:22 28.12.2019
1804 Clouds 6 1032 93 10000 1 0 20:59 28.12.2019
1805 Clouds 7 1032 93 10000 1 0 20:38 28.12.2019
1806 Clouds 7 1032 93 10000 1 0 20:20 28.12.2019
1807 Clouds 7 1032 93 10000 1 0 19:58 28.12.2019
1808 Clouds 8 1032 87 10000 1.5 40 19:39 28.12.2019
1809 Clouds 8 1032 87 10000 1.5 40 19:21 28.12.2019
1810 Clouds 8 1032 87 10000 1.5 60 18:58 28.12.2019
1811 Clouds 9 1032 81 10000 1.5 70 18:40 28.12.2019
1812 Clouds 9 1032 81 10000 1.5 70 18:19 28.12.2019
1813 Clouds 10 1032 76 10000 2.1 60 17:55 28.12.2019
1814 Clouds 10 1032 76 10000 2.6 60 17:36 28.12.2019
1815 Clouds 11 1031 71 10000 3.6 50 17:18 28.12.2019
1816 Clouds 12 1031 66 10000 2.6 70 16:46 28.12.2019
1817 Clouds 12 1031 71 10000 2.6 60 16:26 28.12.2019
1818 Clouds 12 1031 71 10000 2.6 90 15:46 28.12.2019
1819 Clouds 12 1031 71 10000 2.6 90 15:24 28.12.2019
1820 Clouds 12 1031 66 10000 2.1 60 14:59 28.12.2019
1821 Clouds 12 1032 71 10000 2.1 70 14:39 28.12.2019
1822 Clouds 12 1032 71 10000 2.6 50 14:20 28.12.2019
1823 Clouds 11 1032 76 10000 2.6 70 13:43 28.12.2019
1824 Clouds 11 1032 76 10000 2.6 70 13:24 28.12.2019
1825 Clouds 11 1033 76 10000 2.6 80 12:59 28.12.2019
1826 Clouds 11 1033 76 10000 2.6 90 12:41 28.12.2019
1827 Clouds 10 1033 76 10000 2.6 90 12:23 28.12.2019
1828 Clouds 9 1033 81 10000 3.1 70 11:56 28.12.2019
1829 Clouds 9 1034 81 10000 3.6 60 11:37 28.12.2019
1830 Clouds 9 1033 87 10000 3.1 60 11:18 28.12.2019
1831 Clouds 8 1033 93 10000 3.1 40 10:43 28.12.2019
1832 Clouds 7 1033 93 10000 2.6 30 10:21 28.12.2019
1833 Clouds 7 1033 93 10000 2.1 50 09:57 28.12.2019
1834 Clouds 7 1033 93 10000 2.1 50 09:39 28.12.2019
1835 Clouds 6 1033 100 10000 2.1 60 09:19 28.12.2019
1836 Clouds 7 1033 93 10000 2.6 50 08:44 28.12.2019
1837 Clouds 7 1033 93 10000 2.6 50 08:26 28.12.2019
1838 Clouds 7 1033 93 10000 2.6 40 07:49 28.12.2019
1839 Clouds 8 1032 87 10000 2.6 60 07:27 28.12.2019
1840 Clouds 10 1032 93 10000 2.6 50 06:21 28.12.2019
1841 Clouds 11 1033 87 10000 2.6 40 03:59 28.12.2019
1842 Clouds 11 1033 87 10000 1.5 60 03:38 28.12.2019
1843 Clouds 11 1033 81 10000 2.1 60 02:48 28.12.2019
1844 Clouds 11 1033 87 10000 1 0 01:59 28.12.2019
1845 Clouds 11 1033 87 10000 1 0 01:29 28.12.2019
1846 Clouds 11 1033 87 10000 1 80 00:54 28.12.2019
1847 Clouds 11 1033 87 10000 1.5 0 00:36 28.12.2019
1848 Clouds 11 1033 87 10000 2.6 70 00:18 28.12.2019
1849 Clouds 11 1033 87 10000 3.1 70 23:42 27.12.2019
1850 Clouds 11 1033 87 10000 3.6 60 23:19 27.12.2019
1851 Clouds 11 1033 87 10000 3.6 60 23:19 27.12.2019
1852 Clouds 11 1033 87 10000 3.6 60 23:19 27.12.2019
1853 Clouds 11 1033 87 10000 3.6 60 22:57 27.12.2019
1854 Clouds 11 1033 87 10000 3.1 40 22:38 27.12.2019
1855 Clouds 11 1033 93 10000 3.1 30 22:20 27.12.2019
1856 Clouds 11 1033 93 10000 3.1 30 21:54 27.12.2019
1857 Clouds 11 1033 87 10000 2.6 30 21:36 27.12.2019
1858 Clouds 11 1033 87 10000 2.6 30 21:18 27.12.2019
1859 Clouds 11 1033 87 10000 2.6 30 20:40 27.12.2019
1860 Clouds 11 1033 87 10000 2.6 30 20:21 27.12.2019
1861 Clouds 11 1033 87 10000 3.1 20 19:42 27.12.2019
1862 Clouds 11 1032 87 10000 3.1 10 19:20 27.12.2019
1863 Clouds 11 1032 87 10000 3.1 10 18:59 27.12.2019
1864 Clouds 12 1032 76 10000 1.5 350 18:38 27.12.2019
1865 Clouds 12 1032 76 10000 1.5 0 18:20 27.12.2019
1866 Clouds 12 1032 76 10000 1.5 0 17:57 27.12.2019
1867 Clouds 13 1032 76 10000 2.6 340 17:39 27.12.2019
1868 Clouds 13 1032 76 10000 2.6 340 17:19 27.12.2019
1869 Clouds 13 1032 71 10000 1.5 350 16:58 27.12.2019
1870 Clouds 13 1032 71 10000 2.1 320 16:38 27.12.2019
1871 Clouds 14 1032 71 10000 2.6 330 16:19 27.12.2019
1872 Clouds 14 1032 71 10000 2.6 330 16:19 27.12.2019
1873 Clouds 14 1032 71 10000 3.6 350 15:43 27.12.2019
1874 Clouds 14 1032 71 10000 3.6 350 15:20 27.12.2019
1875 Clouds 14 1032 71 10000 2.1 320 14:57 27.12.2019
1876 Clear 13 1031 71 10000 2.6 280 14:39 27.12.2019
1877 Clouds 13 1031 71 10000 2.6 280 14:20 27.12.2019
1878 Clouds 12 1031 76 10000 3.1 280 13:48 27.12.2019
1879 Clouds 12 1031 76 10000 3.1 280 13:25 27.12.2019
1880 Clouds 12 1031 76 10000 3.1 280 13:25 27.12.2019
1881 Clouds 12 1032 76 10000 2.1 280 12:58 27.12.2019
1882 Clouds 11 1032 87 10000 2.1 280 12:39 27.12.2019
1883 Clouds 11 1032 87 10000 2.1 280 12:21 27.12.2019
1884 Clouds 9 1032 100 10000 1 0 11:43 27.12.2019
1885 Clouds 9 1032 100 10000 1 0 11:24 27.12.2019
1886 Clouds 8 1032 100 7000 1.5 230 10:55 27.12.2019
1887 Mist 7 1032 100 5000 2.1 230 10:37 27.12.2019
1888 Fog 6 1032 100 1000 1.5 220 10:19 27.12.2019
1889 Fog 6 1031 100 650 2.1 230 09:42 27.12.2019
1890 Fog 5 1031 100 650 2.1 230 09:21 27.12.2019
1891 Fog 5 1031 100 1100 2.1 220 08:56 27.12.2019
1892 Fog 6 1031 93 1200 1.5 220 08:36 27.12.2019
1893 Fog 5 1031 100 1100 3.1 220 07:51 27.12.2019
1894 Fog 5 1031 100 1100 3.1 220 07:31 27.12.2019
1895 Fog 6 1031 100 1100 3.1 220 06:37 27.12.2019
1896 Fog 6 1031 100 3500 3.1 210 05:28 27.12.2019
1897 Fog 6 1032 100 3400 1 220 03:40 27.12.2019
1898 Fog 6 1031 100 3400 0.5 200 02:20 27.12.2019
1899 Mist 6 1031 100 3000 1.5 210 01:37 27.12.2019
1900 Mist 7 1031 100 4400 2.6 220 01:18 27.12.2019
1901 Clouds 7 1031 93 6000 1.5 210 00:41 27.12.2019
1902 Clouds 7 1031 93 6000 1.5 210 00:23 27.12.2019
1903 Fog 8 1031 100 7000 2.1 210 23:41 26.12.2019
1904 Fog 8 1031 100 7000 2.1 210 23:22 26.12.2019
1905 Clouds 8 1031 93 9000 2.6 220 22:47 26.12.2019
1906 Clouds 8 1031 93 9000 2.6 220 22:23 26.12.2019
1907 Clouds 9 1031 93 8000 2.1 210 21:59 26.12.2019
1908 Clouds 9 1031 93 10000 2.6 210 21:38 26.12.2019
1909 Clouds 9 1031 93 10000 2.6 210 21:20 26.12.2019
1910 Clouds 10 1031 87 10000 2.6 230 20:46 26.12.2019
1911 Clouds 10 1031 87 10000 2.6 230 20:23 26.12.2019
1912 Clouds 10 1031 87 10000 3.1 230 19:59 26.12.2019
1913 Clouds 11 1031 87 10000 2.6 230 19:40 26.12.2019
1914 Clouds 11 1031 87 10000 2.6 230 19:21 26.12.2019
1915 Clouds 11 1030 87 10000 2.6 220 18:58 26.12.2019
1916 Clouds 11 1030 81 10000 2.6 230 18:39 26.12.2019
1917 Clouds 11 1030 81 10000 2.6 230 18:19 26.12.2019
1918 Clouds 12 1030 71 10000 3.6 270 17:43 26.12.2019
1919 Clouds 13 1030 71 10000 3.6 270 17:22 26.12.2019
1920 Clouds 13 1030 67 10000 5.1 270 16:59 26.12.2019
1921 Clouds 13 1030 67 10000 4.6 270 16:41 26.12.2019
1922 Clouds 14 1029 71 10000 6.7 280 16:22 26.12.2019
1923 Clouds 14 1029 71 10000 6.7 280 15:55 26.12.2019
1924 Clouds 14 1029 76 10000 5.1 250 15:37 26.12.2019
1925 Clouds 14 1029 71 10000 4.6 270 15:18 26.12.2019
1926 Clouds 15 1029 67 10000 4.6 280 14:39 26.12.2019
1927 Clouds 15 1029 67 10000 5.7 270 14:21 26.12.2019
1928 Clouds 14 1029 71 10000 5.1 280 13:43 26.12.2019
1929 Clouds 15 1029 71 10000 5.1 280 13:21 26.12.2019
1930 Clouds 14 1029 82 10000 5.1 280 12:58 26.12.2019
1931 Rain 14 1029 82 10000 3.6 250 12:39 26.12.2019
1932 Rain 14 1029 82 10000 3.6 250 12:20 26.12.2019
1933 Clouds 14 1029 82 10000 1.5 220 11:57 26.12.2019
1934 Clouds 13 1029 87 10000 2.6 210 11:38 26.12.2019
1935 Clouds 12 1029 81 10000 3.1 230 11:20 26.12.2019
1936 Clouds 12 1028 87 10000 3.1 250 10:42 26.12.2019
1937 Clouds 11 1028 93 10000 3.1 260 10:18 26.12.2019
1938 Clouds 11 1028 93 10000 3.1 260 09:49 26.12.2019
1939 Clouds 11 1027 93 10000 3.1 260 09:31 26.12.2019
1940 Clouds 11 1025 87 10000 2.6 250 08:43 26.12.2019
1941 Clouds 11 1025 87 10000 2.6 250 08:24 26.12.2019
1942 Clouds 11 1025 93 10000 2.6 290 07:53 26.12.2019
1943 Clouds 11 1024 93 10000 2.6 290 07:27 26.12.2019
1944 Clouds 11 1023 100 10000 3.1 280 06:53 26.12.2019
1945 Clouds 11 1023 100 10000 3.1 280 06:32 26.12.2019
1946 Clouds 10 1022 100 7000 1 250 05:45 26.12.2019
1947 Clouds 9 1021 100 6000 1.98 123 04:57 26.12.2019
1948 Clouds 8 1021 100 10000 1.5 240 04:30 26.12.2019
1949 Clouds 9 1021 93 10000 2.1 110 02:56 26.12.2019
1950 Clouds 9 1021 93 10000 2.6 100 02:34 26.12.2019
1951 Clouds 9 1021 93 10000 2.6 100 02:34 26.12.2019
1952 Clouds 9 1021 93 10000 2.6 100 01:50 26.12.2019
1953 Clouds 8 1021 93 10000 2.6 110 01:32 26.12.2019
1954 Clouds 8 1021 93 10000 2.1 120 00:50 26.12.2019
1955 Clouds 9 1021 100 10000 1.5 140 00:27 26.12.2019
1956 Clouds 9 1021 93 10000 3.6 120 23:58 25.12.2019
1957 Clouds 9 1021 93 10000 3.6 110 23:39 25.12.2019
1958 Clouds 9 1021 93 10000 3.6 110 23:21 25.12.2019
1959 Clouds 9 1021 93 10000 2.6 110 22:59 25.12.2019
1960 Clouds 10 1021 93 10000 2.6 110 22:39 25.12.2019
1961 Clouds 10 1021 93 10000 2.6 110 22:20 25.12.2019
1962 Clouds 9 1022 100 10000 3.1 90 21:58 25.12.2019
1963 Clouds 9 1022 100 10000 3.1 90 21:39 25.12.2019
1964 Clouds 9 1022 100 10000 2.6 100 21:20 25.12.2019
1965 Clouds 9 1022 100 10000 2.6 100 20:54 25.12.2019
1966 Clouds 10 1022 93 10000 3.1 110 20:36 25.12.2019
1967 Clouds 10 1022 93 10000 3.6 100 20:18 25.12.2019
1968 Clouds 10 1022 93 10000 3.1 120 19:43 25.12.2019
1969 Clouds 10 1022 93 10000 3.1 120 19:22 25.12.2019
1970 Clouds 10 1022 93 10000 3.1 120 19:22 25.12.2019
1971 Clouds 11 1022 93 10000 3.6 110 18:56 25.12.2019
1972 Clouds 11 1022 93 10000 3.1 110 18:36 25.12.2019
1973 Clouds 12 1023 87 10000 3.1 100 18:18 25.12.2019
1974 Clouds 12 1023 87 10000 3.6 100 17:40 25.12.2019
1975 Clouds 13 1023 82 10000 4.1 90 17:19 25.12.2019
1976 Clouds 13 1023 82 10000 4.1 90 16:56 25.12.2019
1977 Clouds 13 1023 82 10000 3.1 100 16:37 25.12.2019
1978 Clouds 13 1023 82 10000 3.6 90 16:18 25.12.2019
1979 Clouds 13 1023 82 10000 3.6 90 15:56 25.12.2019
1980 Clouds 13 1023 87 10000 3.1 90 15:37 25.12.2019
1981 Clouds 12 1024 93 10000 3.6 110 15:18 25.12.2019
1982 Clouds 13 1023 87 10000 3.1 90 15:18 25.12.2019
1983 Clouds 12 1024 93 10000 3.6 110 14:55 25.12.2019
1984 Clouds 12 1024 93 10000 3.1 130 14:37 25.12.2019
1985 Clouds 12 1024 93 10000 3.1 130 14:18 25.12.2019
1986 Clouds 12 1024 93 10000 3.1 140 13:42 25.12.2019
1987 Clouds 11 1025 100 10000 3.1 130 13:21 25.12.2019
1988 Mist 11 1025 100 4100 3.1 130 12:44 25.12.2019
1989 Mist 11 1025 100 4100 3.1 130 12:22 25.12.2019
1990 Clouds 11 1025 100 10000 3.1 130 11:58 25.12.2019
1991 Clouds 11 1025 100 10000 3.1 120 11:40 25.12.2019
1992 Clouds 11 1025 100 10000 3.1 120 11:21 25.12.2019
1993 Mist 11 1025 100 1900 3.6 100 10:39 25.12.2019
1994 Mist 11 1025 100 1900 3.6 100 10:21 25.12.2019
1995 Mist 11 1025 100 4700 2.6 110 09:59 25.12.2019
1996 Fog 11 1025 100 2600 2.1 110 09:40 25.12.2019
1997 Mist 11 1025 100 5000 2.1 110 09:22 25.12.2019
1998 Clouds 11 1025 93 8000 2.1 90 08:43 25.12.2019
1999 Clouds 11 1025 93 8000 2.1 90 08:23 25.12.2019
2000 Clouds 11 1025 100 10000 1.5 0 07:43 25.12.2019
2001 Clouds 11 1025 100 10000 1.5 0 07:22 25.12.2019
2002 Fog 12 1025 100 700 1.52 69 06:24 25.12.2019
2003 Fog 12 1025 100 600 0.5 60 05:50 25.12.2019
2004 Fog 12 1025 100 400 1 0 04:44 25.12.2019
2005 Fog 12 1025 100 400 1 0 04:24 25.12.2019
2006 Clouds 12 1025 100 7000 2.1 250 03:44 25.12.2019
2007 Clouds 12 1025 100 7000 2.1 250 03:44 25.12.2019
2008 Mist 11 1025 100 3900 2.1 240 02:59 25.12.2019
2009 Mist 12 1025 100 4500 3.1 240 02:29 25.12.2019
2010 Fog 12 1026 100 1200 3.1 230 01:44 25.12.2019
2011 Fog 12 1026 100 750 3.1 220 01:19 25.12.2019
2012 Mist 12 1026 100 2300 3.1 220 00:41 25.12.2019
2013 Mist 12 1026 100 2300 3.1 220 00:23 25.12.2019
2014 Mist 12 1026 100 2300 3.1 220 00:23 25.12.2019
2015 Fog 12 1026 100 450 2.1 230 23:39 24.12.2019
2016 Fog 12 1026 100 1300 2.6 230 23:20 24.12.2019
2017 Clouds 12 1026 100 10000 3.6 240 22:42 24.12.2019
2018 Clouds 12 1026 100 10000 3.6 240 22:24 24.12.2019
2019 Fog 12 1026 100 3100 3.1 240 21:59 24.12.2019
2020 Fog 12 1026 100 1000 2.1 250 21:41 24.12.2019
2021 Fog 12 1026 100 1000 2.1 250 21:20 24.12.2019
2022 Clouds 13 1026 93 9000 3.1 230 20:42 24.12.2019
2023 Clouds 13 1026 93 9000 3.1 230 20:23 24.12.2019
2024 Clouds 13 1026 100 10000 2.6 250 19:55 24.12.2019
2025 Clouds 13 1026 93 10000 2.1 280 19:37 24.12.2019
2026 Clouds 13 1025 100 10000 2.6 220 19:18 24.12.2019
2027 Clouds 13 1025 100 10000 2.1 230 18:42 24.12.2019
2028 Clouds 13 1025 93 10000 2.1 260 18:18 24.12.2019
2029 Clouds 13 1025 93 10000 2.1 250 17:44 24.12.2019
2030 Clouds 14 1025 93 10000 2.1 250 17:22 24.12.2019
2031 Clouds 14 1025 93 10000 3.1 250 16:58 24.12.2019
2032 Clouds 14 1025 93 10000 3.6 260 16:39 24.12.2019
2033 Clouds 14 1025 93 10000 3.6 260 16:21 24.12.2019
2034 Clouds 15 1025 93 10000 5.1 260 15:57 24.12.2019
2035 Clouds 15 1024 93 10000 4.6 260 15:37 24.12.2019
2036 Clouds 15 1024 93 10000 4.6 260 15:19 24.12.2019
2037 Clouds 14 1024 100 10000 4.6 260 14:58 24.12.2019
2038 Drizzle 15 1024 93 4400 4.1 250 14:39 24.12.2019
2039 Drizzle 14 1024 93 4400 4.1 250 14:21 24.12.2019
2040 Drizzle 14 1024 93 4000 6.2 250 13:56 24.12.2019
2041 Drizzle 14 1024 93 4000 6.2 250 13:38 24.12.2019
2042 Drizzle 14 1024 93 4000 6.2 250 13:19 24.12.2019
2043 Rain 15 1025 93 4000 5.7 250 12:56 24.12.2019
2044 Rain 15 1025 93 4000 5.7 250 12:56 24.12.2019
2045 Drizzle 15 1024 87 7000 5.7 240 12:37 24.12.2019
2046 Drizzle 15 1024 87 7000 5.7 240 12:19 24.12.2019
2047 Clouds 15 1024 87 10000 6.2 250 11:56 24.12.2019
2048 Clouds 15 1024 87 10000 5.7 240 11:37 24.12.2019
2049 Clouds 15 1024 87 10000 5.7 240 11:37 24.12.2019
2050 Clouds 14 1024 93 10000 5.7 250 11:19 24.12.2019
2051 Drizzle 14 1024 93 7000 6.2 250 10:56 24.12.2019
2052 Drizzle 14 1024 93 7000 6.2 250 10:37 24.12.2019
2053 Drizzle 14 1024 93 7000 6.2 250 10:19 24.12.2019
2054 Rain 14 1024 87 10000 5.7 260 09:55 24.12.2019
2055 Rain 14 1023 82 10000 5.1 250 09:37 24.12.2019
2056 Rain 14 1023 82 10000 5.1 250 09:19 24.12.2019
2057 Clouds 14 1023 87 10000 3.6 220 08:45 24.12.2019
2058 Clouds 14 1023 87 10000 3.6 220 08:24 24.12.2019
2059 Clouds 14 1022 82 10000 3.1 210 07:46 24.12.2019
2060 Clouds 14 1022 82 10000 3.1 210 07:26 24.12.2019
2061 Clouds 14 1022 82 10000 2.6 230 06:59 24.12.2019
2062 Clouds 13 1022 87 10000 3.1 210 06:38 24.12.2019
2063 Clouds 13 1021 87 10000 3.6 210 06:19 24.12.2019
2064 Clouds 13 1022 87 10000 3.1 210 05:40 24.12.2019
2065 Clouds 13 1022 87 10000 4.1 220 05:18 24.12.2019
2066 Clouds 14 1022 82 10000 4.1 210 03:50 24.12.2019
2067 Clouds 13 1022 87 10000 4.1 200 03:23 24.12.2019
2068 Clouds 13 1022 87 10000 3.6 210 02:25 24.12.2019
2069 Clouds 13 1022 87 10000 3.6 210 02:25 24.12.2019
2070 Clouds 13 1022 82 10000 3.6 220 01:51 24.12.2019
2071 Clouds 13 1022 82 10000 4.1 220 01:23 24.12.2019
2072 Clouds 12 1022 81 10000 3.6 220 00:46 24.12.2019
2073 Clouds 12 1022 81 10000 3.6 220 00:26 24.12.2019
2074 Clouds 12 1022 81 10000 4.1 220 23:59 23.12.2019
2075 Clouds 12 1022 76 10000 4.6 220 23:41 23.12.2019
2076 Clouds 12 1022 76 10000 4.6 220 23:23 23.12.2019
2077 Clouds 11 1022 81 10000 4.6 200 22:56 23.12.2019
2078 Clouds 11 1022 81 10000 4.6 200 22:37 23.12.2019
2079 Clouds 11 1022 87 10000 4.6 190 22:19 23.12.2019
2080 Clouds 11 1022 87 10000 4.6 190 21:55 23.12.2019
2081 Clouds 10 1022 100 10000 4.1 190 21:36 23.12.2019
2082 Clouds 10 1022 93 10000 2.1 180 21:18 23.12.2019
2083 Clouds 11 1022 93 10000 2.1 180 20:56 23.12.2019
2084 Clouds 11 1022 93 10000 2.1 180 20:38 23.12.2019
2085 Drizzle 11 1022 93 8000 2.6 200 20:18 23.12.2019
2086 Drizzle 11 1022 93 8000 2.6 200 19:55 23.12.2019
2087 Drizzle 11 1023 93 8000 4.6 220 19:37 23.12.2019
2088 Drizzle 11 1023 93 8000 4.6 220 19:19 23.12.2019
2089 Rain 11 1022 93 9000 3.6 190 18:55 23.12.2019
2090 Drizzle 11 1023 93 10000 1.5 180 18:37 23.12.2019
2091 Rain 11 1023 93 10000 2.1 200 18:19 23.12.2019
2092 Rain 11 1022 93 10000 2.6 210 17:55 23.12.2019
2093 Rain 11 1023 93 10000 2.1 200 17:55 23.12.2019
2094 Rain 11 1022 93 10000 2.6 210 17:37 23.12.2019
2095 Rain 11 1023 100 10000 3.6 230 17:18 23.12.2019
2096 Rain 12 1023 87 10000 3.6 220 16:42 23.12.2019
2097 Rain 12 1023 87 10000 3.6 220 16:19 23.12.2019
2098 Rain 12 1023 93 10000 2.1 210 15:58 23.12.2019
2099 Rain 12 1023 87 10000 3.1 230 15:38 23.12.2019
2100 Rain 12 1023 87 10000 3.1 230 15:20 23.12.2019
2101 Rain 12 1023 87 10000 3.1 240 14:58 23.12.2019
2102 Rain 12 1023 87 10000 3.6 240 14:39 23.12.2019
2103 Clouds 12 1023 87 10000 3.6 240 14:21 23.12.2019
2104 Rain 12 1023 87 3700 3.6 280 13:58 23.12.2019
2105 Clouds 12 1023 82 10000 3.6 240 13:40 23.12.2019
2106 Clouds 12 1023 82 10000 3.6 240 13:22 23.12.2019
2107 Clouds 12 1023 82 10000 3.1 240 12:56 23.12.2019
2108 Clouds 12 1023 87 10000 2.6 230 12:37 23.12.2019
2109 Clouds 12 1024 81 10000 2.6 260 12:19 23.12.2019
2110 Clouds 12 1024 87 10000 1.5 0 11:44 23.12.2019
2111 Clouds 11 1024 87 10000 1.5 0 11:25 23.12.2019
2112 Clouds 11 1023 87 10000 3.1 290 10:57 23.12.2019
2113 Clouds 10 1023 87 10000 2.1 230 10:39 23.12.2019
2114 Clouds 10 1023 87 10000 2.1 230 10:20 23.12.2019
2115 Clear 10 1022 76 10000 3.6 260 09:59 23.12.2019
2116 Clear 10 1022 76 10000 3.6 260 09:39 23.12.2019
2117 Clear 10 1022 76 10000 3.6 260 09:20 23.12.2019
2118 Clouds 9 1022 81 10000 4.1 270 08:55 23.12.2019
2119 Clouds 9 1021 76 10000 4.1 270 08:37 23.12.2019
2120 Clouds 9 1021 81 10000 3.6 250 08:19 23.12.2019
2121 Clouds 9 1020 87 10000 3.6 270 07:43 23.12.2019
2122 Rain 10 1020 87 10000 4.1 270 07:20 23.12.2019
2123 Rain 10 1020 87 10000 4.1 270 06:52 23.12.2019
2124 Clouds 10 1020 81 10000 5.1 270 06:25 23.12.2019
2125 Rain 10 1020 81 10000 7.2 270 05:50 23.12.2019
2126 Rain 10 1020 76 10000 7.7 290 05:26 23.12.2019
2127 Rain 10 1019 81 10000 5.1 290 04:27 23.12.2019
2128 Rain 11 1017 71 10000 6.7 280 02:56 23.12.2019
2129 Rain 11 1017 71 10000 3.6 300 02:32 23.12.2019
2130 Clouds 11 1016 71 10000 6.7 280 01:56 23.12.2019
2131 Clouds 11 1016 71 10000 6.7 280 01:38 23.12.2019
2132 Clouds 11 1016 71 10000 6.7 280 01:19 23.12.2019
2133 Clouds 12 1016 66 10000 7.7 290 00:41 23.12.2019
2134 Clouds 11 1016 66 10000 7.7 290 00:19 23.12.2019
2135 Clouds 12 1014 71 10000 7.2 280 23:39 22.12.2019
2136 Clouds 12 1014 71 10000 7.2 280 23:20 22.12.2019
2137 Clouds 12 1013 71 10000 6.7 280 22:58 22.12.2019
2138 Clouds 12 1013 71 10000 7.7 280 22:39 22.12.2019
2139 Clouds 11 1013 71 10000 7.7 280 22:19 22.12.2019
2140 Clouds 11 1012 76 10000 7.2 290 21:57 22.12.2019
2141 Clouds 11 1011 76 10000 8.7 290 21:39 22.12.2019
2142 Clouds 11 1011 76 10000 8.7 290 21:20 22.12.2019
2143 Clouds 12 1011 76 10000 8.2 290 20:56 22.12.2019
2144 Clouds 11 1010 87 10000 7.2 290 20:38 22.12.2019
2145 Rain 11 1010 76 10000 7.7 280 20:18 22.12.2019
2146 Rain 11 1010 76 10000 7.7 280 19:54 22.12.2019
2147 Rain 11 1009 87 10000 5.7 270 19:36 22.12.2019
2148 Rain 11 1008 81 10000 5.7 250 19:18 22.12.2019
2149 Clouds 10 1008 81 10000 6.2 260 18:39 22.12.2019
2150 Clouds 10 1008 81 10000 6.2 260 18:39 22.12.2019
2151 Rain 9 1008 87 10000 6.7 260 18:21 22.12.2019
2152 Rain 9 1008 87 10000 6.7 260 17:55 22.12.2019
2153 Rain 10 1006 87 10000 7.7 250 17:37 22.12.2019
2154 Rain 10 1007 87 10000 8.7 280 17:18 22.12.2019
2155 Rain 10 1007 87 10000 8.7 280 16:56 22.12.2019
2156 Rain 10 1007 87 10000 8.7 280 16:56 22.12.2019
2157 Rain 10 1006 87 10000 7.7 260 16:37 22.12.2019
2158 Rain 10 1006 87 10000 7.7 260 16:19 22.12.2019
2159 Rain 10 1005 93 5000 9.8 260 15:54 22.12.2019
2160 Rain 10 1004 87 6000 10.8 240 15:36 22.12.2019
2161 Rain 10 1004 87 8000 8.7 250 15:18 22.12.2019
2162 Rain 11 1004 87 10000 10.3 260 14:39 22.12.2019
2163 Rain 11 1004 87 10000 10.3 260 14:20 22.12.2019
2164 Rain 11 1003 82 6000 8.2 260 13:56 22.12.2019
2165 Rain 12 1002 76 10000 6.7 250 13:38 22.12.2019
2166 Clouds 12 1003 76 10000 5.7 250 13:20 22.12.2019
2167 Clouds 12 1003 76 10000 5.7 250 12:57 22.12.2019
2168 Clouds 13 1004 76 10000 7.7 260 12:39 22.12.2019
2169 Rain 13 1004 71 10000 7.7 270 12:20 22.12.2019
2170 Clouds 13 1004 76 10000 7.7 260 12:20 22.12.2019
2171 Rain 13 1004 71 10000 7.7 270 11:59 22.12.2019
2172 Rain 13 1005 71 10000 8.7 270 11:39 22.12.2019
2173 Rain 13 1004 71 10000 7.7 270 11:20 22.12.2019
2174 Rain 13 1004 71 10000 7.7 270 10:58 22.12.2019
2175 Rain 12 1004 76 10000 11.3 270 10:40 22.12.2019
2176 Rain 12 1004 76 10000 9.3 270 10:19 22.12.2019
2177 Rain 12 1004 76 10000 9.3 270 09:58 22.12.2019
2178 Rain 12 1003 71 10000 10.8 270 09:39 22.12.2019
2179 Rain 12 1003 71 10000 10.8 270 09:21 22.12.2019
2180 Rain 11 1002 81 10000 9.3 270 08:45 22.12.2019
2181 Rain 11 1002 81 10000 9.3 270 08:45 22.12.2019
2182 Rain 11 1002 81 10000 9.3 270 08:23 22.12.2019
2183 Rain 11 1002 76 10000 8.7 290 07:50 22.12.2019
2184 Rain 11 1001 87 10000 8.7 280 07:22 22.12.2019
2185 Rain 12 1001 76 7000 12.9 280 06:57 22.12.2019
2186 Rain 12 999 76 10000 12.9 270 06:27 22.12.2019
2187 Drizzle 12 998 81 10000 12.9 270 05:43 22.12.2019
2188 Drizzle 12 998 81 10000 12.9 270 05:21 22.12.2019
2189 Rain 12 996 71 10000 13.4 280 04:26 22.12.2019
2190 Rain 12 992 81 6000 15.4 270 02:56 22.12.2019
2191 Rain 12 992 81 6000 15.4 270 02:34 22.12.2019
2192 Rain 13 990 71 10000 17 260 01:32 22.12.2019
2193 Rain 13 990 76 9000 15.9 250 00:57 22.12.2019
2194 Clouds 13 990 76 10000 14.9 250 00:38 22.12.2019
2195 Rain 12 990 81 10000 14.4 250 00:20 22.12.2019
2196 Thunderstorm 12 990 81 10000 14.9 260 23:41 21.12.2019
2197 Thunderstorm 12 990 81 10000 14.9 260 23:21 21.12.2019
2198 Rain 13 989 67 10000 13.4 240 22:57 21.12.2019
2199 Clouds 14 989 62 10000 15.4 240 22:39 21.12.2019
2200 Rain 14 990 71 10000 10.3 240 22:18 21.12.2019
2201 Rain 14 990 71 10000 10.3 240 22:18 21.12.2019
2202 Rain 14 990 71 10000 10.3 240 21:55 21.12.2019
2203 Clouds 13 991 71 10000 10.8 240 21:36 21.12.2019
2204 Clouds 13 990 71 10000 10.8 250 21:18 21.12.2019
2205 Clouds 13 990 66 10000 9.8 250 20:56 21.12.2019
2206 Clouds 13 990 66 10000 9.8 250 20:37 21.12.2019
2207 Clouds 13 990 66 10000 9.8 250 20:19 21.12.2019
2208 Rain 13 990 62 10000 11.8 260 19:55 21.12.2019
2209 Rain 12 990 71 10000 7.7 250 19:36 21.12.2019
2210 Clouds 12 989 71 10000 8.2 260 19:18 21.12.2019
2211 Clouds 12 989 87 10000 4.1 220 18:41 21.12.2019
2212 Clouds 12 989 87 10000 4.1 220 18:23 21.12.2019
2213 Rain 11 989 81 10000 6.2 250 17:56 21.12.2019
2214 Rain 11 989 81 10000 6.2 250 17:37 21.12.2019
2215 Rain 12 989 71 10000 11.3 270 17:18 21.12.2019
2216 Rain 12 989 71 10000 11.3 270 16:54 21.12.2019
2217 Rain 13 989 87 10000 9.8 230 16:36 21.12.2019
2218 Rain 13 989 87 10000 9.8 230 16:36 21.12.2019
2219 Rain 12 988 87 10000 4.6 180 16:18 21.12.2019
2220 Rain 12 988 87 10000 4.6 180 15:55 21.12.2019
2221 Rain 11 989 87 10000 2.1 180 15:36 21.12.2019
2222 Rain 11 989 87 4300 5.1 150 15:18 21.12.2019
2223 Rain 12 989 76 10000 6.7 140 14:41 21.12.2019
2224 Clouds 12 989 76 10000 6.7 140 14:22 21.12.2019
2225 Clouds 12 990 76 10000 6.7 140 13:58 21.12.2019
2226 Rain 12 992 76 10000 5.1 150 13:39 21.12.2019
2227 Rain 12 992 76 10000 4.6 150 13:19 21.12.2019
2228 Rain 11 992 76 10000 4.6 150 12:56 21.12.2019
2229 Rain 11 993 76 10000 5.7 150 12:38 21.12.2019
2230 Rain 11 993 76 10000 5.7 150 12:19 21.12.2019
2231 Rain 10 995 93 10000 4.1 160 11:46 21.12.2019
2232 Rain 10 995 93 10000 4.1 160 11:27 21.12.2019
2233 Clouds 9 996 93 10000 4.6 160 10:58 21.12.2019
2234 Clouds 9 996 93 10000 4.1 170 10:39 21.12.2019
2235 Clouds 8 996 93 10000 3.1 150 10:21 21.12.2019
2236 Clouds 8 997 93 10000 4.1 170 09:57 21.12.2019
2237 Clouds 8 997 93 10000 4.1 170 09:39 21.12.2019
2238 Clouds 8 997 93 10000 4.1 170 09:39 21.12.2019
2239 Clouds 8 997 87 10000 3.6 180 09:19 21.12.2019
2240 Clouds 9 997 93 10000 3.1 190 08:46 21.12.2019
2241 Clouds 9 997 93 10000 3.1 190 08:26 21.12.2019
2242 Clouds 9 998 93 10000 3.6 200 07:47 21.12.2019
2243 Clouds 9 998 93 10000 3.6 200 07:23 21.12.2019
2244 Clouds 9 997 93 10000 3.6 190 06:46 21.12.2019
2245 Clouds 9 997 93 10000 3.6 190 06:28 21.12.2019
2246 Clouds 9 997 93 10000 3.6 210 05:58 21.12.2019
2247 Clouds 9 997 93 10000 3.6 210 04:59 21.12.2019
2248 Rain 10 996 87 10000 3.6 220 04:19 21.12.2019
2249 Clouds 10 996 87 10000 4.6 240 03:56 21.12.2019
2250 Rain 10 996 87 9000 9.3 260 02:19 21.12.2019
2251 Clouds 11 995 87 10000 3.1 200 01:41 21.12.2019
2252 Clouds 11 995 87 10000 3.1 200 01:23 21.12.2019
2253 Rain 10 994 93 10000 4.6 230 00:39 21.12.2019
2254 Rain 10 994 93 10000 4.6 230 00:19 21.12.2019
2255 Rain 9 994 87 10000 3.6 180 23:38 20.12.2019
2256 Rain 9 994 87 10000 3.6 180 23:19 20.12.2019
2257 Rain 9 993 93 10000 2.1 150 22:57 20.12.2019
2258 Rain 9 993 87 10000 2.6 160 22:36 20.12.2019
2259 Rain 9 993 87 10000 3.6 160 22:18 20.12.2019
2260 Rain 9 993 93 10000 3.1 150 21:40 20.12.2019
2261 Rain 9 993 93 10000 4.1 150 21:20 20.12.2019
2262 Rain 9 993 93 10000 4.1 150 20:57 20.12.2019
2263 Clouds 9 993 87 10000 4.1 160 20:38 20.12.2019
2264 Clouds 9 993 87 10000 4.1 160 20:18 20.12.2019
2265 Rain 9 994 87 10000 3.1 160 19:42 20.12.2019
2266 Rain 9 994 81 10000 2.1 170 19:21 20.12.2019
2267 Rain 9 994 81 10000 2.1 170 18:58 20.12.2019
2268 Rain 10 994 81 10000 2.6 160 18:39 20.12.2019
2269 Rain 10 994 81 10000 2.6 160 18:21 20.12.2019
2270 Rain 10 994 71 10000 2.6 180 17:55 20.12.2019
2271 Clouds 11 994 66 10000 3.6 200 17:37 20.12.2019
2272 Clouds 12 994 66 10000 3.6 200 17:18 20.12.2019
2273 Rain 12 995 66 10000 3.1 210 16:41 20.12.2019
2274 Clouds 13 995 66 10000 5.7 230 16:21 20.12.2019
2275 Clouds 13 995 66 10000 5.7 250 15:57 20.12.2019
2276 Clouds 13 995 66 10000 8.7 240 15:39 20.12.2019
2277 Clouds 13 995 66 10000 8.7 240 15:20 20.12.2019
2278 Clouds 14 995 62 10000 8.7 250 14:59 20.12.2019
2279 Clouds 14 995 62 10000 8.7 250 14:59 20.12.2019
2280 Clouds 14 995 62 10000 8.7 250 14:40 20.12.2019
2281 Rain 14 995 62 10000 8.7 230 14:22 20.12.2019
2282 Rain 13 995 71 10000 7.2 250 13:55 20.12.2019
2283 Clouds 13 996 67 10000 8.7 240 13:36 20.12.2019
2284 Clouds 14 996 67 10000 8.7 240 13:18 20.12.2019
2285 Clouds 13 996 67 10000 8.7 250 12:42 20.12.2019
2286 Clouds 13 996 66 10000 7.2 250 12:20 20.12.2019
2287 Rain 12 996 71 10000 5.7 250 11:59 20.12.2019
2288 Rain 12 996 71 10000 5.7 250 11:40 20.12.2019
2289 Clouds 12 996 71 10000 6.2 250 11:21 20.12.2019
2290 Clouds 12 995 81 10000 4.1 220 10:59 20.12.2019
2291 Clouds 11 995 87 10000 4.6 240 10:41 20.12.2019
2292 Clouds 11 995 87 10000 4.6 240 10:22 20.12.2019
2293 Rain 11 994 87 10000 5.1 240 09:58 20.12.2019
2294 Clouds 11 993 87 10000 4.1 230 09:40 20.12.2019
2295 Clouds 11 993 87 10000 4.1 230 09:20 20.12.2019
2296 Rain 11 993 87 10000 6.2 260 08:44 20.12.2019
2297 Clouds 11 992 87 10000 6.2 250 08:26 20.12.2019
2298 Clouds 11 992 93 10000 4.1 240 07:59 20.12.2019
2299 Clouds 11 992 93 10000 4.1 240 07:41 20.12.2019
2300 Drizzle 12 991 87 10000 5.7 240 07:20 20.12.2019
2301 Rain 12 990 87 10000 6.2 240 06:52 20.12.2019
2302 Clouds 12 990 93 10000 5.7 230 06:33 20.12.2019
2303 Clouds 12 989 93 10000 4.6 230 05:56 20.12.2019
2304 Clouds 12 989 93 10000 4.1 250 05:37 20.12.2019
2305 Clouds 12 989 93 10000 4.1 250 05:37 20.12.2019
2306 Rain 12 988 93 3400 4.6 240 04:33 20.12.2019
2307 Rain 12 986 93 10000 6.2 140 03:30 20.12.2019
2308 Rain 12 986 93 10000 6.2 140 02:44 20.12.2019
2309 Rain 13 988 87 10000 7.7 140 01:54 20.12.2019
2310 Rain 13 988 82 10000 8.2 140 01:33 20.12.2019
2311 Rain 13 989 82 10000 8.7 140 00:48 20.12.2019
2312 Rain 13 990 82 10000 8.2 140 00:29 20.12.2019
2313 Rain 13 990 87 10000 8.2 130 23:54 19.12.2019
2314 Rain 13 991 87 10000 8.2 130 23:36 19.12.2019
2315 Rain 13 991 87 10000 8.2 130 23:18 19.12.2019
2316 Rain 13 994 87 10000 8.2 130 22:37 19.12.2019
2317 Rain 13 994 87 10000 8.2 130 22:19 19.12.2019
2318 Rain 13 994 87 10000 8.2 130 22:19 19.12.2019
2319 Rain 13 995 87 10000 6.7 140 21:55 19.12.2019
2320 Rain 14 995 76 10000 6.7 140 21:37 19.12.2019
2321 Rain 14 995 76 10000 6.7 140 21:18 19.12.2019
2322 Rain 14 996 76 10000 6.2 140 20:55 19.12.2019
2323 Rain 14 997 76 10000 6.2 140 20:36 19.12.2019
2324 Rain 14 997 76 10000 6.2 140 20:18 19.12.2019
2325 Rain 14 997 76 10000 6.2 140 19:56 19.12.2019
2326 Rain 14 997 72 10000 7.7 140 19:37 19.12.2019
2327 Rain 14 997 72 10000 7.7 140 19:19 19.12.2019
2328 Rain 14 998 76 10000 7.2 140 18:41 19.12.2019
2329 Rain 14 998 76 10000 7.2 140 18:22 19.12.2019
2330 Rain 14 999 76 10000 7.2 140 17:58 19.12.2019
2331 Rain 14 999 76 10000 7.2 140 17:39 19.12.2019
2332 Clouds 14 999 76 10000 6.2 140 17:19 19.12.2019
2333 Clouds 14 1000 76 10000 5.7 140 16:58 19.12.2019
2334 Clouds 14 1000 77 10000 5.1 150 16:40 19.12.2019
2335 Clouds 14 1000 77 10000 5.1 150 16:22 19.12.2019
2336 Clouds 14 1001 72 10000 5.7 150 15:59 19.12.2019
2337 Clouds 15 1001 72 10000 7.2 140 15:39 19.12.2019
2338 Clouds 15 1001 72 10000 7.2 140 15:20 19.12.2019
2339 Clouds 15 1001 72 10000 7.2 140 15:20 19.12.2019
2340 Clouds 15 1002 72 10000 4.6 160 14:59 19.12.2019
2341 Clouds 14 1002 72 10000 4.6 160 14:41 19.12.2019
2342 Rain 15 1003 72 10000 5.1 150 14:19 19.12.2019
2343 Rain 14 1003 72 10000 6.7 150 13:57 19.12.2019
2344 Rain 14 1004 76 10000 6.2 140 13:37 19.12.2019
2345 Rain 14 1004 76 10000 6.2 140 13:18 19.12.2019
2346 Clouds 13 1004 82 10000 7.2 130 12:55 19.12.2019
2347 Rain 14 1006 71 10000 5.7 150 12:36 19.12.2019
2348 Rain 14 1006 71 10000 5.7 150 12:18 19.12.2019
2349 Rain 14 1006 71 10000 5.7 150 12:18 19.12.2019
2350 Rain 14 1006 71 10000 5.7 150 12:18 19.12.2019
2351 Rain 14 1006 71 10000 5.7 150 11:56 19.12.2019
2352 Rain 14 1006 71 10000 6.7 150 11:38 19.12.2019
2353 Clouds 14 1006 71 10000 6.7 150 11:18 19.12.2019
2354 Clouds 13 1006 76 10000 5.7 150 10:39 19.12.2019
2355 Clouds 13 1006 76 10000 5.7 150 10:20 19.12.2019
2356 Clouds 12 1005 76 10000 6.7 150 09:59 19.12.2019
2357 Clouds 12 1005 76 10000 7.2 140 09:38 19.12.2019
2358 Clouds 12 1005 76 10000 7.2 140 09:20 19.12.2019
2359 Clouds 12 1005 81 10000 6.7 150 08:56 19.12.2019
2360 Clouds 12 1005 81 10000 6.2 150 08:37 19.12.2019
2361 Rain 12 1005 81 10000 6.2 150 08:18 19.12.2019
2362 Rain 12 1005 87 10000 5.7 140 07:55 19.12.2019
2363 Rain 12 1005 87 10000 5.7 140 07:55 19.12.2019
2364 Rain 12 1005 87 10000 5.7 140 07:37 19.12.2019
2365 Rain 12 1005 87 10000 5.7 140 07:19 19.12.2019
2366 Rain 12 1005 87 10000 5.1 140 06:45 19.12.2019
2367 Rain 12 1006 87 10000 5.7 140 06:26 19.12.2019
2368 Rain 12 1006 87 10000 6.7 140 05:49 19.12.2019
2369 Rain 12 1007 87 10000 5.7 140 05:28 19.12.2019
2370 Clouds 13 1007 82 10000 5.1 150 04:41 19.12.2019
2371 Clouds 12 1008 93 10000 5.7 150 02:30 19.12.2019
2372 Clouds 12 1009 93 10000 4.6 150 01:43 19.12.2019
2373 Clouds 12 1009 87 10000 5.1 150 01:21 19.12.2019
2374 Clouds 12 1009 87 10000 5.7 150 00:39 19.12.2019
2375 Clouds 12 1009 87 10000 5.7 150 00:19 19.12.2019
2376 Clouds 12 1010 87 10000 6.7 150 23:45 18.12.2019
2377 Clouds 12 1010 87 10000 6.2 150 23:19 18.12.2019
2378 Clouds 12 1010 87 10000 6.2 150 23:19 18.12.2019
2379 Clouds 12 1010 87 10000 6.2 150 22:58 18.12.2019
2380 Clouds 12 1010 87 10000 6.2 150 22:40 18.12.2019
2381 Clouds 12 1010 87 10000 7.2 150 22:22 18.12.2019
2382 Clouds 12 1010 87 10000 6.7 160 21:59 18.12.2019
2383 Clouds 12 1010 87 10000 6.7 160 21:41 18.12.2019
2384 Clouds 12 1010 87 10000 5.1 150 21:21 18.12.2019
2385 Clouds 12 1010 87 10000 5.7 160 20:57 18.12.2019
2386 Clouds 12 1010 87 10000 5.7 160 20:57 18.12.2019
2387 Clouds 12 1010 87 10000 5.7 160 20:39 18.12.2019
2388 Clouds 12 1010 82 10000 5.7 140 20:20 18.12.2019
2389 Clouds 12 1010 82 10000 5.7 140 20:20 18.12.2019
2390 Clouds 12 1010 87 10000 5.1 140 19:57 18.12.2019
2391 Clouds 12 1010 87 10000 5.1 140 19:39 18.12.2019
2392 Clouds 12 1010 87 10000 5.1 140 19:19 18.12.2019
2393 Clouds 12 1010 82 10000 5.1 140 18:56 18.12.2019
2394 Clouds 12 1010 82 10000 4.1 140 18:37 18.12.2019
2395 Clouds 12 1010 82 10000 4.1 140 18:18 18.12.2019
2396 Clouds 13 1010 82 10000 3.6 140 17:55 18.12.2019
2397 Clouds 13 1010 76 10000 4.1 130 17:37 18.12.2019
2398 Clouds 13 1010 76 10000 4.1 130 17:37 18.12.2019
2399 Clouds 14 1010 76 10000 4.1 130 17:18 18.12.2019
2400 Clouds 14 1011 72 10000 4.1 140 16:42 18.12.2019
2401 Clouds 15 1010 72 10000 4.6 140 16:24 18.12.2019
2402 Clouds 15 1010 67 10000 4.1 160 15:57 18.12.2019
2403 Clouds 15 1010 67 10000 5.7 140 15:39 18.12.2019
2404 Clouds 15 1010 67 10000 5.7 140 15:21 18.12.2019
2405 Clouds 15 1011 63 10000 5.1 150 14:56 18.12.2019
2406 Clouds 15 1011 63 10000 5.1 150 14:56 18.12.2019
2407 Clouds 15 1011 67 10000 5.7 160 14:38 18.12.2019
2408 Clouds 15 1012 72 10000 5.7 160 14:19 18.12.2019
2409 Clouds 15 1012 72 10000 5.7 160 13:55 18.12.2019
2410 Clouds 14 1012 76 10000 5.7 140 13:36 18.12.2019
2411 Clouds 14 1012 76 10000 5.1 150 13:18 18.12.2019
2412 Clouds 13 1013 82 10000 4.6 150 12:40 18.12.2019
2413 Clouds 13 1013 82 10000 4.6 150 12:21 18.12.2019
2414 Clouds 11 1013 93 10000 5.1 150 11:57 18.12.2019
2415 Clouds 11 1013 93 10000 5.1 150 11:39 18.12.2019
2416 Clouds 10 1013 93 10000 4.6 150 11:20 18.12.2019
2417 Clouds 10 1013 93 10000 4.6 150 10:58 18.12.2019
2418 Clouds 10 1013 93 10000 4.1 150 10:39 18.12.2019
2419 Clouds 10 1013 93 10000 4.1 150 10:21 18.12.2019
2420 Clouds 9 1013 93 10000 4.1 150 09:59 18.12.2019
2421 Clouds 9 1013 93 10000 4.1 150 09:59 18.12.2019
2422 Mist 9 1013 100 4600 5.7 150 09:20 18.12.2019
2423 Mist 9 1013 100 4600 5.7 150 08:55 18.12.2019
2424 Clouds 9 1013 93 10000 4.6 150 08:37 18.12.2019
2425 Clouds 9 1013 93 10000 4.6 150 08:19 18.12.2019
2426 Clouds 8 1013 100 10000 3.6 130 07:42 18.12.2019
2427 Clouds 8 1013 100 10000 3.6 130 07:21 18.12.2019
2428 Clouds 8 1013 93 10000 3.6 130 06:52 18.12.2019
2429 Clouds 8 1013 93 10000 3.6 130 06:26 18.12.2019
2430 Clouds 9 1014 93 10000 2.6 130 05:37 18.12.2019
2431 Clouds 8 1014 93 7000 1.5 130 04:33 18.12.2019
2432 Clouds 9 1013 93 9000 2.36 118 02:48 18.12.2019
2433 Clouds 9 1014 93 10000 1.15 114 02:29 18.12.2019
2434 Clouds 9 1014 93 10000 1.5 150 01:45 18.12.2019
2435 Clouds 9 1014 93 10000 1.5 150 01:27 18.12.2019
2436 Clouds 9 1013 93 10000 1.5 140 00:55 18.12.2019
2437 Clouds 9 1013 93 10000 1.5 130 00:36 18.12.2019
2438 Clouds 9 1013 100 10000 1.5 160 00:18 18.12.2019
2439 Clouds 9 1013 93 10000 1.5 140 23:43 17.12.2019
2440 Clouds 9 1013 93 10000 1.5 140 23:23 17.12.2019
2441 Clouds 10 1013 87 10000 1.5 140 22:57 17.12.2019
2442 Clouds 10 1013 87 10000 0.95 331 22:39 17.12.2019
2443 Clouds 10 1013 93 10000 1 200 22:19 17.12.2019
2444 Clouds 10 1013 93 10000 1 200 21:57 17.12.2019
2445 Clouds 10 1012 93 10000 1.5 280 21:39 17.12.2019
2446 Clouds 10 1012 93 10000 1.5 280 21:20 17.12.2019
2447 Clouds 10 1012 87 10000 1 0 20:59 17.12.2019
2448 Clouds 10 1011 87 10000 1 330 20:40 17.12.2019
2449 Clouds 10 1011 93 10000 3.6 320 20:19 17.12.2019
2450 Clouds 10 1011 93 10000 3.6 320 19:57 17.12.2019
2451 Clouds 10 1010 93 10000 3.6 310 19:39 17.12.2019
2452 Clouds 11 1010 87 10000 4.1 310 19:19 17.12.2019
2453 Clouds 11 1010 87 10000 4.1 310 18:56 17.12.2019
2454 Clouds 11 1009 87 10000 5.1 310 18:37 17.12.2019
2455 Clouds 11 1008 87 10000 3.1 310 18:19 17.12.2019
2456 Clouds 11 1008 87 10000 3.1 310 18:19 17.12.2019
2457 Clouds 11 1008 87 10000 3.6 300 17:42 17.12.2019
2458 Clouds 12 1007 87 10000 3.6 310 17:21 17.12.2019
2459 Clouds 12 1007 87 10000 3.6 310 16:57 17.12.2019
2460 Clouds 12 1006 87 10000 3.6 300 16:38 17.12.2019
2461 Rain 12 1006 87 10000 3.1 300 16:19 17.12.2019
2462 Rain 12 1006 87 10000 3.1 300 15:59 17.12.2019
2463 Rain 13 1005 87 10000 4.1 280 15:38 17.12.2019
2464 Clouds 13 1005 87 10000 3.6 250 15:19 17.12.2019
2465 Clouds 13 1005 87 10000 3.6 250 14:56 17.12.2019
2466 Clouds 14 1004 82 10000 3.6 230 14:38 17.12.2019
2467 Clouds 14 1004 82 10000 4.1 230 14:19 17.12.2019
2468 Clouds 14 1004 76 10000 3.6 220 13:56 17.12.2019
2469 Clouds 14 1004 76 10000 3.6 220 13:38 17.12.2019
2470 Clouds 14 1004 82 10000 3.6 220 13:19 17.12.2019
2471 Clouds 14 1004 82 10000 3.6 220 12:56 17.12.2019
2472 Clouds 14 1004 76 10000 3.1 200 12:37 17.12.2019
2473 Clouds 13 1004 82 10000 2.1 200 12:18 17.12.2019
2474 Clouds 13 1004 82 10000 2.1 200 11:55 17.12.2019
2475 Clouds 13 1004 82 10000 1 0 11:36 17.12.2019
2476 Clouds 12 1003 87 10000 1 0 11:18 17.12.2019
2477 Clouds 12 1003 87 10000 1 0 11:18 17.12.2019
2478 Clouds 12 1003 87 10000 1 0 11:18 17.12.2019
2479 Clouds 12 1003 87 10000 1 0 10:55 17.12.2019
2480 Clouds 11 1002 93 10000 1.07 70 10:36 17.12.2019
2481 Clouds 11 1002 93 10000 1.5 0 10:18 17.12.2019
2482 Clouds 11 1002 93 10000 1 0 09:42 17.12.2019
2483 Clouds 10 1002 93 10000 1 0 09:21 17.12.2019
2484 Clouds 10 1001 93 10000 1.5 130 08:58 17.12.2019
2485 Clouds 10 1001 93 10000 1 0 08:39 17.12.2019
2486 Clouds 10 1000 93 10000 2.1 230 08:21 17.12.2019
2487 Clouds 10 1000 93 10000 2.1 230 07:56 17.12.2019
2488 Clouds 10 1000 93 10000 3.1 260 07:38 17.12.2019
2489 Clouds 10 1000 93 10000 2.1 220 07:18 17.12.2019
2490 Clouds 11 999 93 10000 1.5 190 06:35 17.12.2019
2491 Clouds 11 999 87 10000 2.6 160 05:57 17.12.2019
2492 Clouds 12 999 87 10000 2.1 180 05:38 17.12.2019
2493 Clouds 12 999 82 10000 3.1 190 04:45 17.12.2019
2494 Clouds 13 997 82 10000 5.1 130 02:47 17.12.2019
2495 Clouds 13 997 82 10000 6.2 140 01:56 17.12.2019
2496 Clouds 13 997 82 10000 6.2 140 01:20 17.12.2019
2497 Clouds 13 997 82 10000 6.2 140 00:38 17.12.2019
2498 Clouds 13 997 82 10000 6.2 140 00:38 17.12.2019
2499 Clouds 13 997 82 10000 6.2 140 00:20 17.12.2019
2500 Clouds 13 997 82 10000 5.7 140 23:42 16.12.2019
2501 Clouds 13 997 82 10000 5.7 140 23:42 16.12.2019
2502 Clouds 13 997 82 10000 5.7 140 23:42 16.12.2019
2503 Clouds 13 997 76 10000 6.2 140 23:19 16.12.2019
2504 Clouds 13 997 76 10000 6.2 140 22:58 16.12.2019
2505 Clouds 13 997 76 10000 5.7 140 22:38 16.12.2019
2506 Clouds 14 997 76 10000 5.7 140 22:20 16.12.2019
2507 Clouds 13 997 76 10000 5.7 140 22:20 16.12.2019
2508 Clouds 13 997 76 10000 5.7 140 21:56 16.12.2019
2509 Clouds 13 997 76 10000 6.2 140 21:38 16.12.2019
2510 Clouds 13 997 76 10000 6.2 140 21:38 16.12.2019
2511 Clouds 13 997 76 10000 6.2 140 21:20 16.12.2019
2512 Clouds 13 996 71 10000 5.7 140 20:58 16.12.2019
2513 Clouds 13 996 71 10000 5.7 140 20:38 16.12.2019
2514 Clouds 13 996 71 10000 5.7 140 20:38 16.12.2019
2515 Clouds 13 996 71 10000 5.7 140 20:19 16.12.2019
2516 Clouds 13 996 71 10000 6.7 130 19:56 16.12.2019
2517 Clouds 13 996 76 10000 6.7 140 19:37 16.12.2019
2518 Clouds 13 996 76 10000 6.7 140 19:19 16.12.2019
2519 Clouds 13 996 76 10000 5.1 130 18:56 16.12.2019
2520 Clouds 13 997 82 10000 5.1 120 18:38 16.12.2019
2521 Clouds 13 997 82 10000 5.1 120 18:19 16.12.2019
2522 Clouds 13 997 82 10000 5.1 120 17:57 16.12.2019
2523 Clouds 13 997 82 10000 6.2 120 17:38 16.12.2019
2524 Clouds 13 998 82 10000 5.7 120 17:20 16.12.2019
2525 Clouds 13 998 82 10000 5.7 120 16:57 16.12.2019
2526 Clouds 13 998 82 10000 5.1 120 16:38 16.12.2019
2527 Clouds 13 998 82 10000 5.1 120 16:19 16.12.2019
2528 Clouds 13 998 82 10000 5.1 130 15:57 16.12.2019
2529 Clouds 13 999 82 10000 5.1 130 15:38 16.12.2019
2530 Clouds 13 999 82 10000 5.1 130 15:20 16.12.2019
2531 Clouds 13 999 82 10000 4.6 130 14:55 16.12.2019
2532 Clouds 13 999 82 10000 5.1 120 14:37 16.12.2019
2533 Clouds 13 999 82 10000 5.1 120 14:37 16.12.2019
2534 Clouds 13 999 82 10000 5.1 130 14:18 16.12.2019
2535 Clouds 13 999 82 10000 5.1 130 13:56 16.12.2019
2536 Clouds 13 1000 87 10000 5.1 130 13:56 16.12.2019
2537 Clouds 12 1000 87 10000 5.1 130 13:37 16.12.2019
2538 Clouds 12 1001 87 10000 5.7 130 13:19 16.12.2019
2539 Clouds 12 1001 87 10000 5.7 130 12:56 16.12.2019
2540 Clouds 12 1002 87 10000 5.1 130 12:38 16.12.2019
2541 Clouds 11 1002 93 10000 5.1 130 12:18 16.12.2019
2542 Clouds 11 1002 93 10000 5.1 130 11:57 16.12.2019
2543 Clouds 11 1002 93 10000 5.7 140 11:38 16.12.2019
2544 Clouds 11 1003 93 10000 4.6 140 11:19 16.12.2019
2545 Clouds 11 1003 93 10000 4.6 140 10:54 16.12.2019
2546 Clouds 11 1003 93 10000 4.6 140 10:36 16.12.2019
2547 Clouds 11 1002 93 10000 5.7 140 10:18 16.12.2019
2548 Clouds 10 1003 93 10000 4.1 140 09:43 16.12.2019
2549 Clouds 10 1003 93 10000 4.1 140 09:24 16.12.2019
2550 Clouds 10 1003 93 10000 5.1 140 08:40 16.12.2019
2551 Clouds 10 1003 93 10000 5.1 140 08:20 16.12.2019
2552 Clouds 10 1003 93 10000 4.6 140 07:53 16.12.2019
2553 Clouds 10 1003 93 10000 4.6 140 07:31 16.12.2019
2554 Clouds 10 1003 93 10000 5.1 140 06:58 16.12.2019
2555 Clouds 10 1003 93 10000 5.7 130 06:40 16.12.2019
2556 Clouds 10 1004 93 10000 5.7 140 06:20 16.12.2019
2557 Clouds 10 1004 93 10000 5.7 140 05:41 16.12.2019
2558 Clouds 10 1004 93 10000 5.1 140 05:22 16.12.2019
2559 Clouds 10 1005 87 10000 5.7 140 03:28 16.12.2019
2560 Clouds 12 1006 81 10000 4.1 170 01:46 16.12.2019
2561 Clouds 12 1007 76 10000 4.6 170 01:21 16.12.2019
2562 Clouds 12 1007 76 10000 4.6 180 00:39 16.12.2019
2563 Clouds 12 1007 71 10000 4.6 160 00:19 16.12.2019
2564 Clouds 12 1007 71 10000 2.6 150 23:44 15.12.2019
2565 Clouds 12 1007 71 10000 2.6 150 23:25 15.12.2019
2566 Clouds 13 1007 71 10000 1 0 22:57 15.12.2019
2567 Clouds 13 1007 71 10000 1 0 22:39 15.12.2019
2568 Clouds 13 1007 76 10000 2.1 200 22:19 15.12.2019
2569 Clouds 13 1007 76 10000 2.1 200 21:58 15.12.2019
2570 Clouds 13 1008 76 10000 2.6 240 21:39 15.12.2019
2571 Clouds 13 1008 76 10000 2.6 240 21:20 15.12.2019
2572 Clouds 14 1007 71 10000 2.1 190 20:58 15.12.2019
2573 Clouds 14 1007 71 10000 2.1 190 20:58 15.12.2019
2574 Clouds 14 1007 71 10000 2.6 160 20:40 15.12.2019
2575 Clouds 14 1007 71 10000 2.6 160 20:21 15.12.2019
2576 Rain 13 1007 76 10000 3.6 180 19:58 15.12.2019
2577 Clouds 13 1008 76 10000 2.1 170 19:40 15.12.2019
2578 Clouds 13 1007 82 10000 2.1 170 19:20 15.12.2019
2579 Clouds 13 1007 82 10000 2.1 170 19:20 15.12.2019
2580 Clouds 13 1007 82 10000 2.1 170 18:58 15.12.2019
2581 Clouds 13 1007 82 10000 2.1 160 18:39 15.12.2019
2582 Rain 14 1007 87 10000 2.1 140 18:19 15.12.2019
2583 Clouds 14 1008 87 10000 0.77 135 17:57 15.12.2019
2584 Clouds 14 1008 87 10000 0.77 135 17:38 15.12.2019
2585 Clouds 14 1008 87 10000 0.77 135 17:38 15.12.2019
2586 Rain 14 1008 77 10000 1 130 17:19 15.12.2019
2587 Rain 14 1008 77 10000 1 130 16:58 15.12.2019
2588 Rain 15 1008 77 10000 0.5 0 16:39 15.12.2019
2589 Rain 15 1008 77 10000 1.5 170 16:20 15.12.2019
2590 Clouds 16 1008 77 10000 1.5 170 15:55 15.12.2019
2591 Rain 15 1008 77 10000 1.5 0 15:37 15.12.2019
2592 Clouds 15 1008 77 10000 1.5 0 15:18 15.12.2019
2593 Clouds 16 1008 72 10000 2.1 190 14:55 15.12.2019
2594 Rain 16 1008 77 10000 2.6 190 14:37 15.12.2019
2595 Clouds 16 1008 77 10000 2.1 180 14:18 15.12.2019
2596 Clouds 16 1008 77 10000 2.1 180 13:56 15.12.2019
2597 Clouds 15 1009 77 10000 1.5 210 13:37 15.12.2019
2598 Clouds 15 1009 77 10000 2.6 210 13:19 15.12.2019
2599 Clouds 15 1009 77 10000 2.6 210 13:19 15.12.2019
2600 Clouds 15 1009 77 10000 2.6 220 12:56 15.12.2019
2601 Clouds 15 1009 77 10000 2.6 210 12:56 15.12.2019
2602 Clouds 14 1009 77 10000 2.6 220 12:38 15.12.2019
2603 Clouds 14 1010 87 10000 2.1 210 12:20 15.12.2019
2604 Clouds 13 1009 87 10000 1.5 190 11:39 15.12.2019
2605 Clouds 13 1009 87 10000 1.5 190 11:20 15.12.2019
2606 Clouds 12 1009 87 10000 1.5 190 10:58 15.12.2019
2607 Clouds 12 1009 87 10000 2.1 200 10:40 15.12.2019
2608 Clouds 11 1009 87 10000 1.5 200 10:20 15.12.2019
2609 Clouds 11 1009 87 10000 1.5 200 09:59 15.12.2019
2610 Clouds 10 1009 93 10000 1.5 200 09:38 15.12.2019
2611 Clouds 11 1009 87 10000 2.1 190 09:20 15.12.2019
2612 Clouds 11 1009 87 10000 2.1 190 09:20 15.12.2019
2613 Clouds 11 1009 87 10000 2.1 190 08:55 15.12.2019
2614 Clouds 12 1008 87 10000 2.1 210 08:37 15.12.2019
2615 Clouds 11 1008 87 10000 2.6 200 08:19 15.12.2019
2616 Clouds 12 1008 81 10000 2.1 230 07:53 15.12.2019
2617 Clouds 12 1008 81 10000 2.1 230 07:32 15.12.2019
2618 Rain 12 1008 76 10000 3.1 210 06:30 15.12.2019
2619 Rain 12 1008 76 10000 3.6 210 05:50 15.12.2019
2620 Clouds 13 1008 71 10000 3.6 220 05:23 15.12.2019
2621 Clouds 13 1007 66 10000 5.1 190 04:24 15.12.2019
2622 Clouds 12 1008 66 10000 5.7 200 02:59 15.12.2019
2623 Clouds 12 1008 76 10000 5.1 210 02:32 15.12.2019
2624 Clouds 12 1009 76 10000 4.6 210 01:42 15.12.2019
2625 Clouds 12 1008 76 10000 5.1 180 01:19 15.12.2019
2626 Clouds 12 1008 76 10000 5.1 180 00:51 15.12.2019
2627 Clouds 12 1009 71 10000 5.1 200 00:33 15.12.2019
2628 Clouds 12 1009 76 10000 4.6 200 23:55 14.12.2019
2629 Clouds 12 1009 81 10000 4.6 200 23:37 14.12.2019
2630 Clouds 12 1009 81 10000 4.1 190 23:18 14.12.2019
2631 Clouds 12 1009 81 10000 4.1 190 23:18 14.12.2019
2632 Clouds 12 1009 81 10000 4.1 190 22:56 14.12.2019
2633 Clouds 12 1009 81 10000 4.6 190 22:37 14.12.2019
2634 Clouds 12 1009 81 10000 4.6 190 22:18 14.12.2019
2635 Clouds 12 1009 81 10000 5.1 190 22:18 14.12.2019
2636 Clouds 12 1009 81 10000 5.1 190 21:55 14.12.2019
2637 Clouds 13 1010 82 10000 4.6 200 21:36 14.12.2019
2638 Clouds 12 1009 82 10000 4.1 200 21:18 14.12.2019
2639 Clouds 12 1010 82 10000 3.1 210 20:42 14.12.2019
2640 Clouds 12 1010 82 10000 3.1 210 20:20 14.12.2019
2641 Clouds 13 1010 82 10000 3.1 190 19:59 14.12.2019
2642 Clouds 13 1010 87 10000 3.1 200 19:39 14.12.2019
2643 Clouds 13 1010 87 10000 3.1 200 19:21 14.12.2019
2644 Clouds 13 1010 87 10000 2.6 200 18:56 14.12.2019
2645 Clouds 13 1010 87 10000 3.1 200 18:38 14.12.2019
2646 Clouds 13 1010 93 10000 2.6 200 18:20 14.12.2019
2647 Clouds 13 1010 93 10000 2.6 200 17:54 14.12.2019
2648 Drizzle 13 1010 93 10000 4.1 240 17:36 14.12.2019
2649 Drizzle 13 1010 93 9000 7.2 250 17:18 14.12.2019
2650 Drizzle 13 1010 93 4100 8.2 260 16:40 14.12.2019
2651 Drizzle 13 1010 93 4100 8.2 260 16:19 14.12.2019
2652 Drizzle 14 1010 93 4400 7.7 250 15:54 14.12.2019
2653 Rain 14 1010 93 4000 7.2 260 15:36 14.12.2019
2654 Rain 14 1010 93 4000 7.2 260 15:36 14.12.2019
2655 Rain 14 1010 93 4000 7.2 260 15:36 14.12.2019
2656 Rain 14 1010 93 5000 8.7 250 15:18 14.12.2019
2657 Rain 13 1011 93 5000 8.2 250 14:40 14.12.2019
2658 Clouds 13 1011 82 10000 5.7 240 14:21 14.12.2019
2659 Drizzle 13 1011 100 4900 9.3 250 13:59 14.12.2019
2660 Rain 13 1011 93 4400 7.7 250 13:41 14.12.2019
2661 Rain 14 1011 93 3100 7.7 250 13:19 14.12.2019
2662 Drizzle 14 1011 93 7000 8.2 260 12:56 14.12.2019
2663 Drizzle 14 1011 93 7000 8.2 260 12:37 14.12.2019
2664 Drizzle 14 1011 93 6000 9.8 260 12:19 14.12.2019
2665 Drizzle 14 1011 93 6000 9.8 260 11:56 14.12.2019
2666 Clouds 14 1011 87 10000 10.3 260 11:37 14.12.2019
2667 Clouds 14 1011 87 10000 9.8 270 11:18 14.12.2019
2668 Clouds 14 1011 87 10000 9.8 270 10:56 14.12.2019
2669 Drizzle 14 1010 93 9000 9.8 270 10:38 14.12.2019
2670 Drizzle 14 1010 93 7000 9.3 270 10:19 14.12.2019
2671 Drizzle 13 1010 100 5000 9.8 260 09:42 14.12.2019
2672 Drizzle 13 1010 100 5000 9.8 260 09:21 14.12.2019
2673 Rain 13 1009 100 4600 10.3 270 08:56 14.12.2019
2674 Rain 13 1009 100 4600 10.3 270 08:56 14.12.2019
2675 Rain 13 1010 93 5000 9.3 260 08:37 14.12.2019
2676 Rain 13 1009 100 4300 9.3 260 08:18 14.12.2019
2677 Drizzle 13 1009 100 6000 9.3 260 07:40 14.12.2019
2678 Drizzle 13 1009 93 8000 9.8 260 07:19 14.12.2019
2679 Drizzle 13 1008 93 10000 10.3 260 06:41 14.12.2019
2680 Clouds 14 1008 87 10000 10.8 270 06:22 14.12.2019
2681 Clouds 13 1008 93 10000 9.8 270 05:25 14.12.2019
2682 Rain 13 1007 93 3900 10.8 260 02:51 14.12.2019
2683 Rain 13 1007 93 3900 10.8 260 02:23 14.12.2019
2684 Rain 13 1006 93 4900 11.8 260 01:44 14.12.2019
2685 Rain 13 1006 93 6000 11.8 260 00:58 14.12.2019
2686 Rain 13 1006 93 3800 11.3 260 00:40 14.12.2019
2687 Rain 13 1006 93 3300 12.3 260 00:19 14.12.2019
2688 Rain 13 1006 93 3600 12.3 260 23:41 13.12.2019
2689 Rain 13 1005 93 3700 11.8 270 23:19 13.12.2019
2690 Rain 13 1005 93 3700 11.8 270 23:19 13.12.2019
2691 Rain 13 1005 93 3700 11.8 270 22:55 13.12.2019
2692 Rain 13 1005 93 3600 10.3 270 22:37 13.12.2019
2693 Rain 13 1005 93 3600 10.3 270 22:18 13.12.2019
2694 Rain 13 1005 93 6000 10.8 270 21:42 13.12.2019
2695 Rain 13 1005 93 6000 10.8 270 21:21 13.12.2019
2696 Rain 14 1005 93 4900 10.8 270 20:58 13.12.2019
2697 Rain 14 1004 100 4800 11.8 280 20:39 13.12.2019
2698 Rain 13 1004 100 4300 10.8 280 20:19 13.12.2019
2699 Rain 13 1004 100 4300 10.8 280 19:56 13.12.2019
2700 Rain 14 1004 93 3900 10.8 290 19:38 13.12.2019
2701 Rain 14 1004 93 3900 10.8 290 19:18 13.12.2019
2702 Rain 14 1003 93 3800 12.3 280 18:42 13.12.2019
2703 Rain 14 1003 93 5000 12.9 280 18:20 13.12.2019
2704 Rain 14 1003 93 3900 11.3 280 17:59 13.12.2019
2705 Rain 14 1003 93 5000 11.8 280 17:39 13.12.2019
2706 Rain 14 1003 93 5000 11.8 280 17:18 13.12.2019
2707 Rain 13 1003 93 3500 6.2 270 16:56 13.12.2019
2708 Rain 13 1003 100 2300 7.7 290 16:38 13.12.2019
2709 Rain 12 1003 100 2300 7.7 290 16:19 13.12.2019
2710 Rain 12 1003 93 4200 7.2 300 15:42 13.12.2019
2711 Rain 12 1003 87 4400 8.7 300 15:21 13.12.2019
2712 Clouds 13 1003 76 10000 12.3 290 14:57 13.12.2019
2713 Rain 13 1003 82 10000 12.3 290 14:37 13.12.2019
2714 Rain 13 1003 82 10000 12.3 290 14:18 13.12.2019
2715 Rain 12 1003 87 10000 9.3 290 13:43 13.12.2019
2716 Clouds 12 1003 81 10000 9.8 290 13:24 13.12.2019
2717 Rain 13 1003 81 10000 10.3 300 12:55 13.12.2019
2718 Rain 13 1002 76 10000 10.3 290 12:37 13.12.2019
2719 Rain 13 1002 76 10000 10.3 290 12:18 13.12.2019
2720 Rain 12 1002 81 10000 11.3 290 11:43 13.12.2019
2721 Rain 13 1001 81 10000 9.8 300 11:24 13.12.2019
2722 Rain 12 1001 87 6000 11.8 300 10:56 13.12.2019
2723 Rain 12 999 71 10000 11.8 300 10:38 13.12.2019
2724 Rain 13 999 71 10000 11.8 300 10:19 13.12.2019
2725 Clouds 12 999 71 10000 11.8 300 09:42 13.12.2019
2726 Rain 13 998 71 10000 13.4 300 09:21 13.12.2019
2727 Rain 12 998 76 10000 11.8 290 08:44 13.12.2019
2728 Clouds 12 997 87 10000 11.3 290 08:26 13.12.2019
2729 Rain 12 997 93 10000 11.8 290 07:48 13.12.2019
2730 Rain 12 996 87 6000 15.4 290 07:25 13.12.2019
2731 Rain 13 995 93 9000 12.9 280 06:55 13.12.2019
2732 Rain 13 995 93 6000 14.9 290 06:29 13.12.2019
2733 Rain 14 995 87 9000 15.9 280 05:51 13.12.2019
2734 Drizzle 14 994 87 6000 14.9 280 05:30 13.12.2019
2735 Rain 14 994 87 10000 18 270 04:48 13.12.2019
2736 Rain 14 995 93 8000 13.4 270 03:50 13.12.2019
2737 Rain 14 995 93 4200 10.8 270 02:35 13.12.2019
2738 Drizzle 13 996 87 9000 11.3 270 01:50 13.12.2019
2739 Rain 13 996 100 4900 10.3 270 01:21 13.12.2019
2740 Rain 13 997 93 6000 7.2 270 00:46 13.12.2019
2741 Rain 13 997 93 4800 7.7 280 00:24 13.12.2019
2742 Drizzle 13 997 93 10000 8.7 270 23:41 12.12.2019
2743 Rain 13 998 93 7000 8.2 270 23:22 12.12.2019
2744 Rain 13 998 93 10000 9.3 280 22:56 12.12.2019
2745 Rain 13 998 93 9000 9.3 280 22:38 12.12.2019
2746 Rain 13 998 93 9000 9.3 280 22:19 12.12.2019
2747 Rain 13 998 93 5000 8.7 280 21:55 12.12.2019
2748 Rain 13 998 93 5000 8.7 280 21:55 12.12.2019
2749 Rain 13 998 93 5000 8.7 280 21:55 12.12.2019
2750 Drizzle 12 998 93 10000 7.2 280 21:37 12.12.2019
2751 Drizzle 12 998 93 10000 7.2 280 21:19 12.12.2019
2752 Clouds 13 998 87 10000 7.7 280 20:56 12.12.2019
2753 Rain 13 998 93 10000 7.7 280 20:38 12.12.2019
2754 Rain 13 998 93 10000 7.7 280 20:20 12.12.2019
2755 Rain 13 998 93 4900 6.7 290 19:43 12.12.2019
2756 Rain 13 998 93 4900 6.7 290 19:43 12.12.2019
2757 Rain 13 998 87 9000 8.7 280 19:23 12.12.2019
2758 Drizzle 13 998 87 10000 10.8 290 18:58 12.12.2019
2759 Rain 12 997 93 10000 8.7 280 18:40 12.12.2019
2760 Rain 12 997 93 10000 8.7 280 18:21 12.12.2019
2761 Rain 12 997 100 10000 7.7 270 17:59 12.12.2019
2762 Rain 12 997 100 10000 7.7 270 17:40 12.12.2019
2763 Rain 11 997 100 3300 7.7 230 17:21 12.12.2019
2764 Rain 10 997 93 4000 9.8 220 16:59 12.12.2019
2765 Rain 10 997 93 4000 9.8 220 16:41 12.12.2019
2766 Rain 10 998 93 4600 7.7 220 16:21 12.12.2019
2767 Rain 10 999 93 5000 8.7 210 15:58 12.12.2019
2768 Rain 10 999 93 5000 8.7 210 15:40 12.12.2019
2769 Rain 10 1000 93 4600 7.7 200 15:19 12.12.2019
2770 Rain 10 1001 93 6000 6.7 210 14:56 12.12.2019
2771 Rain 10 1001 93 6000 6.7 210 14:56 12.12.2019
2772 Rain 10 1003 87 8000 9.8 230 14:36 12.12.2019
2773 Rain 10 1003 87 8000 9.8 230 14:18 12.12.2019
2774 Rain 10 1004 93 8000 8.2 230 13:54 12.12.2019
2775 Rain 10 1005 93 8000 5.1 220 13:36 12.12.2019
2776 Rain 10 1005 93 8000 5.1 220 13:18 12.12.2019
2777 Rain 10 1006 93 6000 5.1 210 12:41 12.12.2019
2778 Rain 10 1006 93 6000 5.1 210 12:41 12.12.2019
2779 Rain 10 1007 93 10000 4.1 210 12:22 12.12.2019
2780 Rain 10 1008 93 10000 3.6 200 11:59 12.12.2019
2781 Rain 10 1009 100 8000 3.6 220 11:39 12.12.2019
2782 Rain 10 1008 93 10000 3.6 200 11:39 12.12.2019
2783 Rain 9 1009 100 8000 3.6 220 11:21 12.12.2019
2784 Rain 9 1009 93 5000 4.1 190 10:58 12.12.2019
2785 Rain 9 1009 93 5000 4.1 190 10:40 12.12.2019
2786 Rain 9 1010 93 10000 5.1 190 10:21 12.12.2019
2787 Rain 9 1010 93 9000 4.1 190 09:56 12.12.2019
2788 Rain 9 1011 93 10000 4.1 200 09:38 12.12.2019
2789 Rain 9 1011 93 10000 4.1 200 09:19 12.12.2019
2790 Rain 8 1011 100 10000 3.6 200 08:46 12.12.2019
2791 Rain 8 1012 100 10000 3.6 200 08:28 12.12.2019
2792 Rain 8 1012 100 10000 3.6 210 07:50 12.12.2019
2793 Rain 8 1012 100 9000 3.1 230 07:28 12.12.2019
2794 Rain 8 1012 100 10000 3.6 220 06:57 12.12.2019
2795 Rain 8 1013 93 10000 3.1 220 06:36 12.12.2019
2796 Rain 8 1013 93 10000 3.1 210 05:49 12.12.2019
2797 Rain 8 1013 93 10000 2.6 220 05:25 12.12.2019
2798 Rain 7 1014 93 10000 2.1 200 04:28 12.12.2019
2799 Clouds 7 1015 93 10000 1 0 02:41 12.12.2019
2800 Clouds 7 1015 87 10000 2.1 220 02:22 12.12.2019
2801 Clouds 8 1016 87 10000 2.6 250 01:54 12.12.2019
2802 Clouds 8 1016 87 10000 3.6 280 01:32 12.12.2019
2803 Rain 8 1016 93 10000 2.1 290 00:47 12.12.2019
2804 Rain 8 1016 87 10000 2.1 260 00:21 12.12.2019
2805 Clouds 8 1016 87 10000 3.1 220 23:54 11.12.2019
2806 Clouds 8 1016 87 10000 3.6 270 23:36 11.12.2019
2807 Rain 8 1016 87 10000 3.6 270 23:18 11.12.2019
2808 Rain 9 1016 87 6000 7.7 300 22:54 11.12.2019
2809 Rain 9 1016 81 10000 6.2 280 22:36 11.12.2019
2810 Rain 9 1016 81 10000 6.2 280 22:18 11.12.2019
2811 Rain 9 1016 81 10000 5.7 280 21:39 11.12.2019
2812 Rain 9 1016 81 10000 5.7 280 21:20 11.12.2019
2813 Rain 9 1016 81 10000 5.1 270 20:58 11.12.2019
2814 Clouds 9 1015 93 10000 3.6 250 20:39 11.12.2019
2815 Clouds 9 1015 93 10000 3.6 250 20:19 11.12.2019
2816 Rain 9 1015 87 10000 4.1 260 19:58 11.12.2019
2817 Rain 9 1015 87 10000 4.1 260 19:40 11.12.2019
2818 Rain 9 1015 87 10000 6.2 280 19:20 11.12.2019
2819 Rain 9 1015 87 10000 6.7 250 18:55 11.12.2019
2820 Rain 9 1016 87 10000 6.7 260 18:37 11.12.2019
2821 Rain 9 1016 87 10000 6.7 260 18:37 11.12.2019
2822 Rain 9 1016 87 10000 6.7 260 18:18 11.12.2019
2823 Rain 10 1016 76 10000 5.7 250 17:54 11.12.2019
2824 Rain 10 1016 81 10000 8.7 260 17:36 11.12.2019
2825 Rain 10 1016 81 10000 8.7 260 17:18 11.12.2019
2826 Rain 11 1016 76 10000 6.2 240 16:55 11.12.2019
2827 Rain 11 1016 76 10000 5.7 250 16:36 11.12.2019
2828 Rain 11 1016 76 10000 5.7 250 16:18 11.12.2019
2829 Rain 12 1017 66 10000 5.7 270 15:41 11.12.2019
2830 Rain 12 1017 66 10000 5.7 270 15:23 11.12.2019
2831 Rain 11 1018 76 10000 6.7 300 14:56 11.12.2019
2832 Rain 11 1018 76 10000 6.7 300 14:38 11.12.2019
2833 Rain 12 1017 66 10000 7.7 280 14:20 11.12.2019
2834 Clouds 11 1018 71 10000 5.7 290 13:55 11.12.2019
2835 Clouds 11 1018 76 10000 5.1 280 13:37 11.12.2019
2836 Clouds 11 1018 76 10000 5.1 280 13:18 11.12.2019
2837 Rain 10 1018 93 10000 3.1 250 12:56 11.12.2019
2838 Rain 10 1018 93 10000 3.1 250 12:38 11.12.2019
2839 Rain 10 1018 93 10000 2.1 250 12:18 11.12.2019
2840 Clouds 9 1018 100 10000 2.6 250 11:57 11.12.2019
2841 Rain 9 1018 93 9000 1.5 280 11:38 11.12.2019
2842 Rain 9 1018 93 9000 1.5 280 11:38 11.12.2019
2843 Rain 9 1018 93 9000 1.5 280 11:18 11.12.2019
2844 Rain 9 1018 93 9000 1.5 280 11:18 11.12.2019
2845 Rain 9 1018 100 10000 4.1 330 10:45 11.12.2019
2846 Rain 9 1018 93 10000 2.6 270 10:27 11.12.2019
2847 Rain 9 1017 93 10000 2.6 300 09:59 11.12.2019
2848 Rain 10 1017 93 6000 4.1 310 09:39 11.12.2019
2849 Rain 10 1017 93 6000 4.1 310 09:39 11.12.2019
2850 Rain 10 1017 93 6000 4.1 310 09:20 11.12.2019
2851 Rain 10 1016 93 10000 5.1 320 08:57 11.12.2019
2852 Rain 10 1016 100 8000 6.2 260 08:38 11.12.2019
2853 Rain 10 1016 100 8000 6.2 260 08:19 11.12.2019
2854 Rain 9 1016 87 10000 3.1 220 07:45 11.12.2019
2855 Rain 9 1016 81 10000 2.6 240 07:26 11.12.2019
2856 Clouds 8 1016 87 10000 1.5 180 06:57 11.12.2019
2857 Rain 8 1016 87 10000 2.6 190 06:37 11.12.2019
2858 Rain 8 1016 87 10000 2.6 190 06:18 11.12.2019
2859 Clouds 8 1016 87 10000 1.5 160 05:37 11.12.2019
2860 Clouds 8 1016 87 10000 1.5 160 05:18 11.12.2019
2861 Clouds 8 1018 81 10000 1.5 160 03:50 11.12.2019
2862 Clouds 8 1018 81 10000 2.6 170 02:49 11.12.2019
2863 Clouds 8 1020 81 10000 2.6 180 01:23 11.12.2019
2864 Clouds 8 1020 81 10000 2.6 170 00:46 11.12.2019
2865 Clouds 8 1020 81 10000 4.1 140 00:21 11.12.2019
2866 Clouds 8 1020 81 10000 3.1 150 23:47 10.12.2019
2867 Clouds 8 1020 81 10000 3.1 150 23:28 10.12.2019
2868 Clouds 8 1021 81 10000 2.1 160 22:57 10.12.2019
2869 Clouds 8 1021 81 10000 2.1 160 22:39 10.12.2019
2870 Clouds 8 1021 81 10000 2.1 180 22:21 10.12.2019
2871 Clouds 9 1021 76 10000 3.1 160 21:55 10.12.2019
2872 Clouds 9 1021 76 10000 3.1 160 21:55 10.12.2019
2873 Clouds 9 1022 81 10000 3.1 150 21:37 10.12.2019
2874 Clouds 9 1022 81 10000 3.1 150 21:19 10.12.2019
2875 Clouds 9 1022 81 10000 3.6 150 20:56 10.12.2019
2876 Clouds 9 1023 81 10000 2.6 150 20:37 10.12.2019
2877 Clouds 9 1022 81 10000 3.6 150 20:37 10.12.2019
2878 Clouds 9 1023 81 10000 2.6 150 20:19 10.12.2019
2879 Clouds 9 1023 81 10000 2.6 150 20:19 10.12.2019
2880 Clouds 9 1023 81 10000 2.6 140 19:54 10.12.2019
2881 Clouds 9 1023 87 10000 3.6 130 19:36 10.12.2019
2882 Clouds 9 1023 87 10000 3.6 130 19:18 10.12.2019
2883 Clouds 9 1023 81 10000 3.1 130 18:40 10.12.2019
2884 Clouds 9 1023 81 10000 3.1 130 18:20 10.12.2019
2885 Clouds 9 1024 76 10000 1.5 150 17:57 10.12.2019
2886 Clouds 10 1024 71 10000 2.1 160 17:39 10.12.2019
2887 Clouds 10 1024 71 10000 2.1 160 17:20 10.12.2019
2888 Clouds 11 1024 66 10000 2.6 160 16:43 10.12.2019
2889 Clouds 12 1024 62 10000 2.6 170 16:21 10.12.2019
2890 Clouds 12 1024 58 10000 3.6 160 15:59 10.12.2019
2891 Clouds 13 1025 62 10000 3.6 150 15:37 10.12.2019
2892 Clouds 13 1025 62 10000 3.6 150 15:18 10.12.2019
2893 Clouds 13 1025 58 10000 3.1 170 14:55 10.12.2019
2894 Clouds 13 1026 62 10000 4.1 170 14:37 10.12.2019
2895 Clouds 13 1026 62 10000 4.1 170 14:19 10.12.2019
2896 Clouds 12 1027 66 10000 3.6 160 13:56 10.12.2019
2897 Clouds 12 1027 66 10000 3.6 160 13:56 10.12.2019
2898 Clouds 12 1027 62 10000 4.6 160 13:38 10.12.2019
2899 Clouds 12 1027 62 10000 4.6 160 13:18 10.12.2019
2900 Clouds 10 1028 66 10000 4.1 160 12:40 10.12.2019
2901 Clouds 10 1028 71 10000 3.6 170 12:22 10.12.2019
2902 Clouds 9 1029 71 10000 4.1 160 11:42 10.12.2019
2903 Clouds 9 1030 76 10000 3.1 170 11:24 10.12.2019
2904 Clouds 7 1029 81 10000 2.6 150 10:56 10.12.2019
2905 Clouds 7 1029 81 10000 2.6 150 10:37 10.12.2019
2906 Clouds 6 1029 93 10000 2.1 140 10:37 10.12.2019
2907 Clouds 6 1029 93 10000 2.1 140 10:19 10.12.2019
2908 Clouds 4 1030 100 10000 1.5 130 09:55 10.12.2019
2909 Clouds 4 1030 100 10000 1.5 130 09:55 10.12.2019
2910 Clouds 4 1030 93 10000 1.5 130 09:37 10.12.2019
2911 Clouds 4 1030 93 10000 1.5 130 09:19 10.12.2019
2912 Clouds 4 1030 100 10000 2.1 120 08:54 10.12.2019
2913 Clouds 4 1030 93 10000 1.5 130 08:36 10.12.2019
2914 Clouds 4 1030 93 10000 1.5 130 08:18 10.12.2019
2915 Clouds 4 1030 100 10000 1 0 07:43 10.12.2019
2916 Clouds 4 1030 100 10000 1 0 07:24 10.12.2019
2917 Clouds 4 1030 100 10000 1.5 150 06:46 10.12.2019
2918 Clouds 4 1030 100 10000 1.5 150 06:19 10.12.2019
2919 Clouds 4 1030 100 7000 1 0 05:54 10.12.2019
2920 Clouds 4 1031 100 10000 1 170 04:52 10.12.2019
2921 Clouds 4 1031 100 10000 0.5 160 03:38 10.12.2019
2922 Clouds 5 1031 93 8000 1.1 122 02:46 10.12.2019
2923 Clouds 5 1031 93 10000 1.25 1 01:45 10.12.2019
2924 Clouds 6 1031 86 10000 1 290 01:21 10.12.2019
2925 Clouds 6 1031 87 10000 1 0 00:42 10.12.2019
2926 Clouds 7 1030 87 10000 1.5 330 00:21 10.12.2019
2927 Clouds 8 1030 81 10000 2.6 330 23:41 09.12.2019
2928 Clouds 8 1030 81 10000 2.1 320 23:23 09.12.2019
2929 Clouds 8 1030 81 10000 2.1 320 22:58 09.12.2019
2930 Clouds 8 1030 87 10000 3.1 290 22:40 09.12.2019
2931 Clouds 8 1030 87 10000 3.1 290 22:20 09.12.2019
2932 Clouds 9 1029 87 10000 2.6 290 21:57 09.12.2019
2933 Clouds 9 1029 87 10000 2.6 290 21:38 09.12.2019
2934 Clouds 10 1029 81 10000 3.1 290 21:19 09.12.2019
2935 Clouds 10 1029 81 10000 3.1 300 20:56 09.12.2019
2936 Clouds 10 1028 76 10000 2.6 300 20:38 09.12.2019
2937 Clouds 10 1028 76 10000 2.6 300 20:20 09.12.2019
2938 Clouds 10 1028 81 10000 3.1 300 19:56 09.12.2019
2939 Clouds 10 1027 81 10000 2.6 290 19:37 09.12.2019
2940 Clouds 10 1027 81 10000 2.6 290 19:19 09.12.2019
2941 Clouds 10 1027 81 10000 4.6 310 18:56 09.12.2019
2942 Clouds 10 1027 87 10000 4.1 300 18:38 09.12.2019
2943 Clouds 10 1027 87 10000 4.1 300 18:19 09.12.2019
2944 Rain 10 1026 87 10000 5.7 300 17:57 09.12.2019
2945 Rain 11 1026 71 10000 5.7 300 17:38 09.12.2019
2946 Rain 11 1026 71 10000 5.7 300 17:20 09.12.2019
2947 Rain 11 1025 71 10000 6.7 310 16:56 09.12.2019
2948 Clouds 12 1025 71 10000 6.7 310 16:37 09.12.2019
2949 Clouds 12 1025 71 10000 6.7 310 16:19 09.12.2019
2950 Clouds 12 1024 76 10000 6.7 300 15:55 09.12.2019
2951 Clouds 12 1024 76 10000 6.7 300 15:54 09.12.2019
2952 Rain 12 1024 76 10000 8.2 310 15:36 09.12.2019
2953 Rain 12 1024 76 10000 8.2 310 15:18 09.12.2019
2954 Clouds 12 1024 76 10000 7.7 310 14:41 09.12.2019
2955 Rain 12 1023 81 10000 6.2 310 14:18 09.12.2019
2956 Rain 12 1023 81 10000 6.2 300 13:56 09.12.2019
2957 Rain 11 1023 81 7000 9.3 300 13:38 09.12.2019
2958 Rain 11 1023 81 7000 9.3 300 13:19 09.12.2019
2959 Rain 11 1023 81 10000 6.7 310 12:56 09.12.2019
2960 Rain 11 1023 76 10000 9.3 290 12:37 09.12.2019
2961 Rain 11 1023 76 10000 9.3 290 12:18 09.12.2019
2962 Rain 11 1023 81 10000 7.7 300 11:55 09.12.2019
2963 Rain 11 1023 87 10000 10.3 290 11:36 09.12.2019
2964 Rain 11 1023 87 10000 10.3 290 11:18 09.12.2019
2965 Rain 11 1021 81 10000 9.3 300 10:39 09.12.2019
2966 Rain 12 1021 81 10000 9.3 300 10:20 09.12.2019
2967 Rain 11 1021 81 10000 8.2 280 09:56 09.12.2019
2968 Rain 11 1020 81 10000 7.7 280 09:37 09.12.2019
2969 Rain 11 1020 81 10000 7.7 280 09:19 09.12.2019
2970 Rain 11 1020 76 10000 8.2 280 08:40 09.12.2019
2971 Rain 11 1020 76 10000 8.2 280 08:22 09.12.2019
2972 Clouds 10 1020 81 10000 7.7 280 07:53 09.12.2019
2973 Rain 10 1020 81 10000 10.8 290 07:34 09.12.2019
2974 Rain 10 1019 81 10000 6.7 280 06:59 09.12.2019
2975 Rain 10 1019 76 10000 7.7 280 06:37 09.12.2019
2976 Rain 10 1019 76 10000 7.7 280 06:19 09.12.2019
2977 Rain 11 1019 93 8000 7.2 280 05:25 09.12.2019
2978 Clouds 12 1019 76 10000 8.2 270 04:28 09.12.2019
2979 Rain 12 1019 76 10000 9.3 250 02:46 09.12.2019
2980 Rain 12 1020 76 10000 8.2 260 01:48 09.12.2019
2981 Clouds 12 1020 76 10000 9.3 260 01:23 09.12.2019
2982 Clouds 12 1020 76 10000 7.2 260 00:34 09.12.2019
2983 Rain 12 1020 76 10000 7.2 260 23:58 08.12.2019
2984 Rain 12 1020 76 10000 7.2 260 23:37 08.12.2019
2985 Clouds 12 1020 76 10000 6.2 260 23:19 08.12.2019
2986 Clouds 12 1021 81 10000 7.2 260 22:56 08.12.2019
2987 Clouds 11 1021 81 10000 5.1 240 22:38 08.12.2019
2988 Clouds 11 1021 81 10000 5.1 240 22:18 08.12.2019
2989 Clouds 11 1021 81 10000 5.7 260 21:57 08.12.2019
2990 Clouds 11 1021 87 10000 5.1 260 21:37 08.12.2019
2991 Clouds 11 1021 87 10000 5.1 260 21:19 08.12.2019
2992 Clouds 11 1020 93 10000 4.1 240 20:56 08.12.2019
2993 Clouds 11 1020 93 10000 4.1 240 20:37 08.12.2019
2994 Clouds 11 1020 93 10000 4.1 240 20:19 08.12.2019
2995 Clouds 11 1020 93 10000 3.6 240 19:55 08.12.2019
2996 Clouds 11 1020 87 10000 3.6 250 19:37 08.12.2019
2997 Clouds 11 1020 87 10000 3.6 250 19:37 08.12.2019
2998 Clouds 11 1020 87 10000 3.6 250 19:18 08.12.2019
2999 Clouds 11 1020 87 10000 4.1 270 18:54 08.12.2019
3000 Clouds 12 1019 87 10000 4.1 270 18:36 08.12.2019
3001 Clouds 12 1019 87 10000 4.1 270 18:36 08.12.2019
3002 Clouds 12 1019 87 10000 4.1 270 18:18 08.12.2019
3003 Clouds 12 1019 87 10000 4.6 290 17:55 08.12.2019
3004 Clouds 12 1019 93 10000 5.7 300 17:36 08.12.2019
3005 Clouds 12 1019 93 10000 5.7 300 17:18 08.12.2019
3006 Clouds 13 1018 93 10000 7.2 300 16:55 08.12.2019
3007 Rain 13 1018 93 3800 6.2 300 16:37 08.12.2019
3008 Rain 14 1018 93 3800 6.2 300 16:18 08.12.2019
3009 Rain 13 1017 100 2900 8.2 240 15:37 08.12.2019
3010 Rain 13 1017 100 2900 8.2 240 15:18 08.12.2019
3011 Rain 13 1017 100 7000 8.2 240 14:57 08.12.2019
3012 Rain 13 1017 93 3600 5.1 220 14:37 08.12.2019
3013 Rain 13 1017 93 3600 5.1 220 14:19 08.12.2019
3014 Rain 12 1017 100 10000 5.1 210 13:41 08.12.2019
3015 Rain 12 1018 93 7000 5.1 220 13:22 08.12.2019
3016 Rain 12 1018 93 9000 4.6 210 12:59 08.12.2019
3017 Rain 12 1019 87 10000 5.1 200 12:40 08.12.2019
3018 Rain 12 1019 87 10000 5.1 200 12:20 08.12.2019
3019 Rain 12 1019 87 9000 5.1 210 11:58 08.12.2019
3020 Clouds 12 1019 87 10000 5.1 210 11:38 08.12.2019
3021 Clouds 12 1019 87 10000 5.1 210 11:19 08.12.2019
3022 Clouds 12 1019 87 10000 4.6 210 10:57 08.12.2019
3023 Clouds 11 1019 87 10000 4.1 190 10:38 08.12.2019
3024 Clouds 11 1019 87 10000 4.1 190 10:19 08.12.2019
3025 Clouds 11 1019 87 10000 4.1 190 09:55 08.12.2019
3026 Clouds 11 1019 87 10000 3.6 180 09:36 08.12.2019
3027 Clouds 11 1019 87 10000 3.6 180 09:18 08.12.2019
3028 Clouds 11 1019 93 10000 3.1 200 08:42 08.12.2019
3029 Clouds 11 1019 93 10000 3.1 200 08:23 08.12.2019
3030 Clouds 11 1020 93 10000 3.6 200 07:55 08.12.2019
3031 Clouds 11 1019 93 10000 3.1 190 07:36 08.12.2019
3032 Clouds 11 1019 93 10000 3.1 190 07:18 08.12.2019
3033 Clouds 11 1020 93 10000 3.1 210 06:40 08.12.2019
3034 Clouds 11 1019 93 10000 3.6 200 06:20 08.12.2019
3035 Clouds 11 1020 93 10000 4.1 200 05:23 08.12.2019
3036 Clouds 11 1020 100 10000 3.6 190 04:54 08.12.2019
3037 Clouds 11 1021 93 10000 3.1 210 03:40 08.12.2019
3038 Clouds 11 1021 93 10000 4.1 200 02:43 08.12.2019
3039 Clouds 11 1021 93 10000 3.6 200 02:20 08.12.2019
3040 Clouds 11 1022 100 10000 3.1 210 01:40 08.12.2019
3041 Clouds 12 1022 93 10000 3.1 180 00:54 08.12.2019
3042 Clouds 12 1023 93 10000 2.6 200 00:24 08.12.2019
3043 Clouds 11 1023 93 10000 3.1 200 23:59 07.12.2019
3044 Clouds 11 1023 93 10000 3.1 200 23:38 07.12.2019
3045 Clouds 11 1023 93 10000 2.6 210 23:20 07.12.2019
3046 Clouds 11 1023 100 10000 3.1 200 22:55 07.12.2019
3047 Clouds 11 1023 100 10000 2.6 210 22:37 07.12.2019
3048 Clouds 11 1023 100 10000 2.6 210 22:37 07.12.2019
3049 Clouds 11 1023 100 10000 2.6 210 22:37 07.12.2019
3050 Clouds 11 1023 100 10000 2.6 210 22:37 07.12.2019
3051 Clouds 11 1023 100 10000 2.6 210 22:19 07.12.2019
3052 Clouds 12 1023 100 10000 3.1 200 21:55 07.12.2019
3053 Clouds 12 1023 93 9000 3.1 200 21:37 07.12.2019
3054 Clouds 12 1023 93 9000 3.1 200 21:18 07.12.2019
3055 Clouds 12 1023 100 10000 3.1 230 20:38 07.12.2019
3056 Clouds 12 1023 100 10000 3.1 230 20:20 07.12.2019
3057 Clouds 12 1023 100 10000 3.1 230 20:20 07.12.2019
3058 Clouds 12 1022 93 10000 2.6 210 19:58 07.12.2019
3059 Clouds 12 1022 93 10000 2.6 210 19:39 07.12.2019
3060 Clouds 12 1022 93 10000 2.1 220 19:21 07.12.2019
3061 Clouds 12 1022 93 10000 2.6 220 18:58 07.12.2019
3062 Clouds 12 1022 93 10000 2.6 220 18:40 07.12.2019
3063 Clouds 12 1022 93 10000 2.6 220 18:40 07.12.2019
3064 Clouds 13 1022 93 10000 3.6 240 18:18 07.12.2019
3065 Clouds 13 1022 93 10000 3.1 230 17:56 07.12.2019
3066 Clouds 13 1022 87 10000 3.6 230 17:37 07.12.2019
3067 Clouds 13 1022 87 10000 3.6 230 17:19 07.12.2019
3068 Clouds 13 1022 87 10000 4.6 240 16:56 07.12.2019
3069 Clouds 13 1021 87 10000 4.6 240 16:36 07.12.2019
3070 Clouds 13 1021 87 10000 4.6 240 16:36 07.12.2019
3071 Clouds 13 1021 87 10000 4.6 240 16:18 07.12.2019
3072 Clouds 13 1021 87 10000 4.6 240 16:18 07.12.2019
3073 Clouds 13 1021 87 10000 4.6 240 15:41 07.12.2019
3074 Rain 13 1021 87 10000 4.6 240 15:23 07.12.2019
3075 Rain 13 1021 87 10000 4.6 240 15:23 07.12.2019
3076 Clouds 14 1021 87 10000 6.2 240 14:56 07.12.2019
3077 Clouds 13 1021 87 10000 5.1 230 14:38 07.12.2019
3078 Clouds 13 1021 87 10000 5.1 230 14:18 07.12.2019
3079 Clouds 13 1022 93 10000 4.1 210 13:40 07.12.2019
3080 Clouds 13 1022 93 10000 4.1 210 13:20 07.12.2019
3081 Clouds 13 1023 93 10000 3.6 200 12:55 07.12.2019
3082 Clouds 12 1023 93 10000 2.6 200 12:37 07.12.2019
3083 Clouds 12 1023 93 10000 2.6 200 12:18 07.12.2019
3084 Clouds 12 1023 100 10000 3.1 220 11:42 07.12.2019
3085 Clouds 12 1023 100 10000 3.1 220 11:23 07.12.2019
3086 Clouds 12 1023 93 10000 3.1 220 10:59 07.12.2019
3087 Clouds 11 1023 100 8000 2.6 210 10:37 07.12.2019
3088 Clouds 11 1023 100 8000 2.6 210 10:18 07.12.2019
3089 Mist 10 1022 100 1300 3.1 200 09:40 07.12.2019
3090 Mist 10 1022 100 1300 3.1 200 09:21 07.12.2019
3091 Mist 10 1022 100 1300 3.1 200 09:21 07.12.2019
3092 Mist 10 1022 93 4700 2.6 200 08:46 07.12.2019
3093 Mist 9 1022 100 5000 2.6 200 08:25 07.12.2019
3094 Mist 9 1022 100 4700 3.1 190 07:54 07.12.2019
3095 Clouds 9 1022 100 6000 3.1 190 07:30 07.12.2019
3096 Mist 8 1021 100 5000 2.6 190 06:53 07.12.2019
3097 Clouds 8 1021 100 6000 1.5 180 06:28 07.12.2019
3098 Mist 8 1021 100 5000 1 0 05:50 07.12.2019
3099 Clouds 8 1021 100 6000 2.1 200 04:49 07.12.2019
3100 Clouds 7 1022 100 6000 3.6 190 03:52 07.12.2019
3101 Mist 7 1022 100 5000 2.6 170 02:47 07.12.2019
3102 Mist 7 1022 100 3300 1.5 0 02:18 07.12.2019
3103 Fog 7 1022 100 1200 1 0 01:25 07.12.2019
3104 Fog 7 1022 100 1500 2.1 170 00:42 07.12.2019
3105 Fog 7 1022 100 650 2.1 160 00:18 07.12.2019
3106 Fog 7 1022 100 800 1.5 190 23:44 06.12.2019
3107 Mist 7 1022 100 1600 2.6 170 23:23 06.12.2019
3108 Mist 7 1022 100 3700 2.1 160 22:57 06.12.2019
3109 Mist 7 1022 100 3500 1.5 160 22:36 06.12.2019
3110 Mist 7 1022 100 3500 1.5 160 22:18 06.12.2019
3111 Mist 7 1022 100 4100 2.6 150 21:41 06.12.2019
3112 Mist 7 1022 100 4600 1.5 140 21:21 06.12.2019
3113 Mist 7 1022 100 4600 1.5 140 21:21 06.12.2019
3114 Mist 7 1022 100 4700 1.5 170 20:59 06.12.2019
3115 Mist 7 1022 100 4700 1.5 170 20:41 06.12.2019
3116 Mist 7 1021 100 4900 1.5 0 20:20 06.12.2019
3117 Clouds 7 1022 100 6000 1 160 19:43 06.12.2019
3118 Clouds 7 1021 100 6000 1.25 242 19:24 06.12.2019
3119 Mist 7 1021 100 4900 3.1 150 18:59 06.12.2019
3120 Mist 7 1021 100 4900 3.1 150 18:40 06.12.2019
3121 Mist 7 1021 100 5000 2.6 140 18:21 06.12.2019
3122 Clouds 8 1021 93 7000 2.1 150 17:58 06.12.2019
3123 Clouds 8 1021 93 7000 2.1 150 17:40 06.12.2019
3124 Clouds 8 1021 93 8000 1 0 17:22 06.12.2019
3125 Clouds 8 1021 93 10000 1.5 160 16:58 06.12.2019
3126 Clouds 8 1021 87 10000 1.5 0 16:38 06.12.2019
3127 Clouds 8 1021 87 10000 1.5 0 16:19 06.12.2019
3128 Clouds 8 1021 93 10000 2.1 160 15:41 06.12.2019
3129 Clouds 9 1021 93 10000 2.1 160 15:22 06.12.2019
3130 Clouds 8 1022 87 10000 2.1 160 14:58 06.12.2019
3131 Clouds 9 1022 87 10000 2.1 160 14:40 06.12.2019
3132 Clouds 8 1022 93 10000 2.1 170 14:20 06.12.2019
3133 Clouds 8 1023 93 10000 1.5 210 13:46 06.12.2019
3134 Clouds 8 1023 93 10000 1.5 210 13:46 06.12.2019
3135 Clouds 8 1023 93 6000 2.1 190 13:27 06.12.2019
3136 Mist 7 1023 93 4400 2.6 160 12:58 06.12.2019
3137 Mist 7 1024 100 5000 1.5 220 12:39 06.12.2019
3138 Mist 7 1024 100 5000 1.5 220 12:21 06.12.2019
3139 Clouds 6 1024 93 6000 1.5 180 11:42 06.12.2019
3140 Clouds 6 1024 93 8000 1.5 200 11:23 06.12.2019
3141 Clouds 5 1024 100 8000 2.1 160 10:56 06.12.2019
3142 Clouds 5 1024 93 8000 3.1 150 10:38 06.12.2019
3143 Clouds 5 1024 93 8000 3.1 150 10:20 06.12.2019
3144 Clouds 5 1024 93 8000 2.1 140 09:56 06.12.2019
3145 Clouds 4 1023 100 6000 3.1 150 09:36 06.12.2019
3146 Clouds 4 1023 100 6000 3.1 150 09:36 06.12.2019
3147 Clouds 4 1023 100 6000 3.1 150 09:18 06.12.2019
3148 Clouds 4 1024 93 6000 2.6 150 08:42 06.12.2019
3149 Clouds 4 1024 93 7000 2.1 130 08:24 06.12.2019
3150 Clouds 3 1024 100 7000 2.1 130 07:42 06.12.2019
3151 Clouds 4 1024 100 6000 1.5 110 07:22 06.12.2019
3152 Mist 4 1024 100 4200 1.5 110 06:48 06.12.2019
3153 Fog 4 1023 100 1400 2.1 140 06:25 06.12.2019
3154 Fog 4 1023 100 750 1 150 05:48 06.12.2019
3155 Fog 3 1024 100 350 0.33 157 02:51 06.12.2019
3156 Fog 4 1024 100 350 1.5 120 01:45 06.12.2019
3157 Fog 4 1024 100 500 1 0 00:51 06.12.2019
3158 Fog 3 1024 93 3300 1.5 330 00:23 06.12.2019
3159 Mist 5 1024 93 4700 1 0 23:51 05.12.2019
3160 Clear 4 1024 100 6000 1.5 330 23:21 05.12.2019
3161 Mist 4 1024 100 4700 0.5 310 22:58 05.12.2019
3162 Mist 4 1024 100 4700 0.5 310 22:39 05.12.2019
3163 Clear 5 1024 93 6000 1 0 22:19 05.12.2019
3164 Mist 5 1024 93 4900 2.1 320 21:57 05.12.2019
3165 Mist 5 1024 93 4900 2.1 320 21:57 05.12.2019
3166 Mist 5 1024 93 4900 2.1 320 21:39 05.12.2019
3167 Mist 5 1024 93 4900 2.1 320 21:39 05.12.2019
3168 Clear 5 1024 93 6000 0.51 0 21:20 05.12.2019
3169 Clear 5 1024 93 6000 1 0 20:56 05.12.2019
3170 Clear 5 1024 93 6000 1 0 20:56 05.12.2019
3171 Clear 5 1024 93 6000 1 0 20:56 05.12.2019
3172 Clear 5 1024 87 7000 0.5 0 20:37 05.12.2019
3173 Clear 6 1024 87 10000 1.77 8 20:18 05.12.2019
3174 Clear 6 1024 87 10000 1.77 8 20:18 05.12.2019
3175 Clear 7 1024 87 10000 1.5 350 19:40 05.12.2019
3176 Clear 8 1024 87 10000 1.5 350 19:22 05.12.2019
3177 Clear 8 1024 87 10000 2.6 10 18:58 05.12.2019
3178 Clear 8 1023 81 10000 2.1 30 18:39 05.12.2019
3179 Clear 9 1023 81 10000 2.1 30 18:20 05.12.2019
3180 Clear 9 1023 76 10000 2.1 30 17:55 05.12.2019
3181 Clear 11 1023 71 10000 3.1 360 17:36 05.12.2019
3182 Clear 10 1023 71 10000 3.1 360 17:18 05.12.2019
3183 Clear 12 1022 62 10000 1.5 0 16:40 05.12.2019
3184 Clear 12 1022 62 10000 1.5 0 16:21 05.12.2019
3185 Clear 12 1023 62 10000 1.5 350 15:58 05.12.2019
3186 Clear 12 1023 62 10000 1.5 350 15:58 05.12.2019
3187 Clear 12 1023 62 10000 1 0 15:39 05.12.2019
3188 Clear 12 1023 62 10000 1 0 15:20 05.12.2019
3189 Clear 12 1023 66 10000 1.5 0 14:56 05.12.2019
3190 Clear 12 1023 66 10000 2.1 30 14:38 05.12.2019
3191 Clear 12 1023 66 10000 2.1 340 14:19 05.12.2019
3192 Clear 12 1023 66 10000 2.1 340 13:57 05.12.2019
3193 Clear 10 1023 76 10000 2.6 330 13:39 05.12.2019
3194 Clear 10 1023 76 10000 2.6 330 13:20 05.12.2019
3195 Clear 10 1023 71 6000 2.1 330 12:58 05.12.2019
3196 Clear 9 1024 81 10000 1.5 0 12:39 05.12.2019
3197 Clear 9 1024 81 10000 1.5 0 12:20 05.12.2019
3198 Clear 7 1023 75 10000 1 0 11:40 05.12.2019
3199 Clear 7 1023 75 10000 1 0 11:22 05.12.2019
3200 Clear 6 1023 87 9000 2.1 40 10:58 05.12.2019
3201 Clear 5 1023 93 6000 2.6 10 10:40 05.12.2019
3202 Mist 4 1022 100 5000 2.1 10 10:19 05.12.2019
3203 Mist 3 1022 100 5000 2.1 10 09:55 05.12.2019
3204 Fog 2 1022 100 3900 1.5 20 09:37 05.12.2019
3205 Fog 2 1022 100 4300 1 0 09:18 05.12.2019
3206 Clear 3 1021 93 6000 2.1 10 08:39 05.12.2019
3207 Mist 3 1021 93 5000 2.6 360 08:21 05.12.2019
3208 Clouds 3 1021 93 6000 2.1 10 08:21 05.12.2019
3209 Mist 3 1021 93 5000 2.6 360 07:59 05.12.2019
3210 Mist 4 1021 93 5000 1.5 0 07:39 05.12.2019
3211 Mist 4 1021 93 5000 1.5 0 07:20 05.12.2019
3212 Clouds 4 1020 93 6000 2.1 10 06:46 05.12.2019
3213 Clouds 4 1020 93 6000 2.1 10 06:23 05.12.2019
3214 Clouds 4 1020 93 7000 2.6 10 05:49 05.12.2019
3215 Clouds 4 1020 93 7000 2.6 10 05:24 05.12.2019
3216 Clouds 5 1020 93 6000 2.6 360 04:33 05.12.2019
3217 Clouds 5 1020 93 6000 2.6 360 04:33 05.12.2019
3218 Clouds 5 1019 93 7000 2.1 340 03:31 05.12.2019
3219 Clouds 5 1019 93 7000 2.1 340 03:31 05.12.2019
3220 Clouds 5 1019 93 10000 1.5 360 02:40 05.12.2019
3221 Clouds 6 1019 93 10000 1.5 360 02:21 05.12.2019
3222 Clouds 6 1019 93 10000 1.5 10 01:49 05.12.2019
3223 Clouds 6 1019 87 9000 2.1 10 01:21 05.12.2019
3224 Clouds 6 1018 87 10000 3.1 10 00:38 05.12.2019
3225 Clouds 6 1018 87 10000 3.1 10 00:19 05.12.2019
3226 Clouds 6 1018 93 10000 2.1 10 23:45 04.12.2019
3227 Clouds 6 1018 93 10000 2.1 10 23:22 04.12.2019
3228 Clouds 6 1018 93 10000 2.1 10 23:22 04.12.2019
3229 Clouds 5 1018 87 10000 1.5 40 22:57 04.12.2019
3230 Clouds 6 1018 87 10000 1 0 22:37 04.12.2019
3231 Clouds 6 1017 87 10000 1.5 0 22:19 04.12.2019
3232 Clouds 6 1017 87 10000 1.5 0 21:56 04.12.2019
3233 Clouds 7 1017 81 10000 2.6 40 21:37 04.12.2019
3234 Clouds 7 1017 81 10000 2.1 30 21:18 04.12.2019
3235 Clouds 7 1017 81 10000 2.1 30 20:56 04.12.2019
3236 Clouds 7 1017 81 10000 2.6 30 20:38 04.12.2019
3237 Clouds 7 1017 76 10000 2.1 40 20:19 04.12.2019
3238 Clouds 8 1017 76 10000 3.6 20 19:41 04.12.2019
3239 Clouds 8 1017 76 10000 3.6 20 19:22 04.12.2019
3240 Clouds 9 1016 71 10000 2.6 30 18:59 04.12.2019
3241 Clouds 9 1016 71 10000 3.6 40 18:41 04.12.2019
3242 Clouds 9 1016 71 10000 3.6 40 18:22 04.12.2019
3243 Clouds 11 1015 62 10000 3.6 60 17:58 04.12.2019
3244 Clouds 11 1015 62 10000 3.6 60 17:39 04.12.2019
3245 Clouds 11 1015 66 10000 3.1 50 17:18 04.12.2019
3246 Clouds 12 1015 58 10000 3.1 60 16:41 04.12.2019
3247 Clouds 12 1015 58 10000 3.1 60 16:21 04.12.2019
3248 Clouds 12 1014 58 10000 4.1 60 15:59 04.12.2019
3249 Clouds 12 1014 58 10000 4.1 60 15:41 04.12.2019
3250 Clouds 12 1014 58 10000 4.1 60 15:21 04.12.2019
3251 Clouds 12 1014 62 10000 4.6 50 14:59 04.12.2019
3252 Clouds 11 1014 62 10000 4.1 60 14:41 04.12.2019
3253 Clouds 11 1014 62 10000 4.1 60 14:21 04.12.2019
3254 Clouds 10 1015 66 10000 3.6 70 13:56 04.12.2019
3255 Clouds 10 1015 66 10000 3.6 70 13:36 04.12.2019
3256 Clouds 8 1015 75 10000 2.6 50 13:18 04.12.2019
3257 Clouds 6 1015 75 10000 3.1 50 12:41 04.12.2019
3258 Clouds 6 1015 75 10000 3.1 50 12:23 04.12.2019
3259 Clouds 5 1016 80 10000 3.6 60 11:44 04.12.2019
3260 Clouds 5 1016 80 10000 3.6 60 11:26 04.12.2019
3261 Clouds 5 1016 80 10000 3.6 60 10:58 04.12.2019
3262 Clouds 4 1016 86 10000 3.1 40 10:40 04.12.2019
3263 Clouds 4 1016 86 10000 3.1 40 10:21 04.12.2019
3264 Clouds 3 1016 86 10000 3.1 90 09:44 04.12.2019
3265 Clouds 3 1016 86 10000 3.1 90 09:24 04.12.2019
3266 Clouds 3 1016 86 10000 3.1 90 09:24 04.12.2019
3267 Clouds 2 1015 86 10000 3.6 30 08:44 04.12.2019
3268 Clouds 2 1015 86 10000 3.6 30 08:26 04.12.2019
3269 Clouds 2 1015 93 8000 2.6 20 07:59 04.12.2019
3270 Clouds 1 1016 93 7000 2.6 40 07:40 04.12.2019
3271 Clouds 1 1016 93 7000 2.6 40 07:22 04.12.2019
3272 Clouds 1 1016 88 7000 2.1 70 06:32 04.12.2019
3273 Clouds 1 1016 100 6000 1.5 50 05:47 04.12.2019
3274 Clouds 1 1017 93 6000 1.5 90 04:39 04.12.2019
3275 Clear 1 1018 93 6000 2.6 80 03:52 04.12.2019
3276 Clouds 0 1019 79 7000 1.85 86 01:53 04.12.2019
3277 Clear -1 1020 100 6000 2 88 00:49 04.12.2019
3278 Clear -1 1020 100 6000 2 88 00:22 04.12.2019
3279 Clear -1 1020 100 6000 2 88 23:55 03.12.2019
3280 Clear 0 1020 81 6000 2 88 23:36 03.12.2019
3281 Clear 0 1020 83 6000 1.68 103 23:18 03.12.2019
3282 Clear 0 1020 83 8000 1.68 103 22:39 03.12.2019
3283 Clear 0 1020 83 8000 1.68 103 22:39 03.12.2019
3284 Clear 0 1020 83 8000 1.68 103 22:18 03.12.2019
3285 Clear 0 1020 83 8000 1.68 103 21:57 03.12.2019
3286 Clear 1 1020 83 10000 1.68 103 21:37 03.12.2019
3287 Clear 1 1020 83 10000 1.68 103 21:18 03.12.2019
3288 Clear 1 1020 83 10000 1.68 103 20:54 03.12.2019
3289 Clear 1 1020 79 10000 1.5 106 20:36 03.12.2019
3290 Clear 1 1020 79 10000 1 120 20:18 03.12.2019
3291 Clear 2 1020 79 10000 1 120 19:54 03.12.2019
3292 Clear 2 1020 79 10000 1 90 19:36 03.12.2019
3293 Clear 3 1020 86 10000 1 80 19:18 03.12.2019
3294 Clear 3 1020 86 10000 1 80 18:55 03.12.2019
3295 Clear 4 1020 79 10000 1.5 0 18:36 03.12.2019
3296 Clear 4 1020 79 10000 1.5 0 18:36 03.12.2019
3297 Clear 4 1020 75 10000 2.1 90 18:18 03.12.2019
3298 Clear 6 1020 79 10000 2.6 110 17:39 03.12.2019
3299 Clear 7 1020 64 10000 2.1 100 17:18 03.12.2019
3300 Clear 7 1020 64 10000 2.1 100 16:58 03.12.2019
3301 Clear 7 1020 64 10000 2.6 110 16:39 03.12.2019
3302 Clear 7 1020 64 10000 2.1 100 16:21 03.12.2019
3303 Clear 7 1020 64 10000 2.1 100 15:58 03.12.2019
3304 Clear 7 1020 64 10000 3.1 80 15:38 03.12.2019
3305 Clear 7 1021 64 10000 3.6 90 15:19 03.12.2019
3306 Clear 7 1021 60 10000 4.1 80 14:44 03.12.2019
3307 Clear 7 1021 60 10000 4.1 80 14:20 03.12.2019
3308 Clear 6 1021 60 10000 4.6 90 13:58 03.12.2019
3309 Clear 6 1022 60 10000 5.1 70 13:37 03.12.2019
3310 Clouds 5 1022 51 10000 5.1 80 13:19 03.12.2019
3311 Clear 5 1023 65 10000 5.1 70 12:42 03.12.2019
3312 Clear 5 1023 65 10000 5.1 70 12:19 03.12.2019
3313 Clear 4 1023 69 10000 5.1 60 11:59 03.12.2019
3314 Clear 3 1023 51 10000 5.7 60 11:39 03.12.2019
3315 Clear 3 1023 72 10000 5.7 60 11:21 03.12.2019
3316 Clear 3 1024 72 10000 5.7 50 10:59 03.12.2019
3317 Clear 2 1024 72 10000 4.6 40 10:41 03.12.2019
3318 Clear 2 1024 72 10000 4.6 30 10:21 03.12.2019
3319 Clear 2 1024 72 10000 4.6 30 09:56 03.12.2019
3320 Clear 1 1024 86 10000 3.6 30 09:38 03.12.2019
3321 Clear 1 1024 86 10000 3.6 30 09:19 03.12.2019
3322 Clear 0 1024 72 10000 2.1 20 08:41 03.12.2019
3323 Clear 0 1024 79 10000 2.1 20 08:22 03.12.2019
3324 Clear 0 1024 79 10000 2.6 10 07:54 03.12.2019
3325 Clear 0 1024 79 10000 2.6 10 07:30 03.12.2019
3326 Clear 0 1024 79 10000 4.6 20 06:59 03.12.2019
3327 Clear 0 1024 79 10000 4.6 10 06:22 03.12.2019
3328 Clear 0 1024 79 10000 3.6 30 05:57 03.12.2019
3329 Clear 1 1025 86 10000 2.6 40 04:48 03.12.2019
3330 Clear 1 1025 86 10000 4.1 30 03:36 03.12.2019
3331 Clear 2 1025 80 10000 5.1 30 03:18 03.12.2019
3332 Clear 2 1025 80 10000 4.1 30 02:43 03.12.2019
3333 Clear 2 1025 80 10000 4.1 30 02:24 03.12.2019
3334 Clear 2 1025 80 10000 3.6 40 01:41 03.12.2019
3335 Clear 2 1026 73 10000 4.6 30 01:21 03.12.2019
3336 Clear 3 1026 73 10000 4.6 30 00:44 03.12.2019
3337 Clear 3 1026 73 10000 4.6 30 00:44 03.12.2019
3338 Clear 3 1026 73 10000 4.6 30 00:26 03.12.2019
3339 Clouds 3 1025 73 10000 5.7 30 23:44 02.12.2019
3340 Clouds 3 1025 71 10000 5.7 30 23:25 02.12.2019
3341 Clear 3 1025 71 10000 5.1 30 22:59 02.12.2019
3342 Clear 3 1025 71 10000 5.1 20 22:39 02.12.2019
3343 Clear 3 1025 71 10000 5.1 20 22:21 02.12.2019
3344 Clear 4 1026 71 10000 4.6 20 21:57 02.12.2019
3345 Clear 4 1026 71 10000 4.1 20 21:36 02.12.2019
3346 Clear 4 1026 71 10000 4.1 20 21:36 02.12.2019
3347 Clear 4 1026 80 10000 4.6 20 21:18 02.12.2019
3348 Clear 5 1026 80 10000 4.6 20 20:55 02.12.2019
3349 Clouds 5 1026 75 10000 6.2 30 20:37 02.12.2019
3350 Clouds 6 1026 80 10000 6.2 30 20:18 02.12.2019
3351 Clouds 6 1025 75 10000 6.2 20 19:42 02.12.2019
3352 Clouds 6 1025 75 10000 6.2 30 19:21 02.12.2019
3353 Clouds 6 1025 75 10000 6.2 30 18:57 02.12.2019
3354 Clouds 6 1025 75 10000 7.7 30 18:38 02.12.2019
3355 Clouds 6 1025 81 10000 6.7 40 18:18 02.12.2019
3356 Clouds 6 1025 81 10000 6.7 20 17:42 02.12.2019
3357 Clouds 6 1024 81 10000 4.6 20 17:22 02.12.2019
3358 Clouds 6 1024 81 10000 6.7 30 16:59 02.12.2019
3359 Clouds 6 1024 81 10000 6.7 20 16:39 02.12.2019
3360 Clouds 6 1024 81 10000 5.7 30 16:19 02.12.2019
3361 Clouds 6 1024 81 10000 5.7 30 15:57 02.12.2019
3362 Clouds 6 1024 81 10000 6.7 40 15:38 02.12.2019
3363 Clouds 6 1024 81 10000 6.7 40 15:20 02.12.2019
3364 Clouds 6 1024 81 10000 5.1 40 14:55 02.12.2019
3365 Clouds 6 1024 81 10000 5.7 30 14:37 02.12.2019
3366 Clouds 6 1024 81 10000 5.1 30 14:19 02.12.2019
3367 Clouds 6 1024 81 10000 5.1 30 14:19 02.12.2019
3368 Clouds 6 1024 81 10000 5.1 30 13:55 02.12.2019
3369 Clouds 6 1024 81 10000 5.1 30 13:55 02.12.2019
3370 Clouds 6 1024 75 10000 5.7 40 13:36 02.12.2019
3371 Clouds 6 1024 81 10000 6.2 40 13:18 02.12.2019
3372 Clouds 6 1024 81 10000 6.7 30 12:42 02.12.2019
3373 Clouds 6 1024 81 10000 6.7 30 12:42 02.12.2019
3374 Clouds 6 1024 81 10000 5.7 30 12:21 02.12.2019
3375 Clouds 6 1024 81 10000 5.7 30 11:57 02.12.2019
3376 Clouds 6 1024 75 10000 5.7 40 11:37 02.12.2019
3377 Clouds 6 1024 75 10000 5.7 40 11:37 02.12.2019
3378 Clouds 6 1024 75 10000 5.7 40 11:19 02.12.2019
3379 Clouds 6 1024 81 10000 5.7 20 10:57 02.12.2019
3380 Clouds 5 1024 86 10000 6.2 30 10:38 02.12.2019
3381 Clouds 5 1024 86 10000 6.2 30 10:20 02.12.2019
3382 Clouds 5 1023 86 10000 5.7 30 09:42 02.12.2019
3383 Clouds 5 1023 86 10000 6.2 40 09:19 02.12.2019
3384 Clouds 5 1023 86 10000 6.2 40 08:59 02.12.2019
3385 Clouds 5 1022 86 10000 5.7 30 08:40 02.12.2019
3386 Clouds 5 1022 86 10000 5.7 20 08:22 02.12.2019
3387 Clouds 5 1022 86 10000 5.7 30 07:45 02.12.2019
3388 Clouds 6 1022 86 10000 5.7 30 07:24 02.12.2019
3389 Clouds 6 1021 93 10000 5.7 40 06:58 02.12.2019
3390 Clouds 6 1021 93 10000 5.1 40 06:39 02.12.2019
3391 Clouds 7 1021 93 10000 6.2 20 05:36 02.12.2019
3392 Clouds 7 1020 93 10000 5.7 30 04:51 02.12.2019
3393 Clouds 8 1019 93 10000 6.2 10 02:56 02.12.2019
3394 Clouds 8 1019 100 10000 5.1 10 02:36 02.12.2019
3395 Clouds 8 1019 100 10000 5.1 10 01:28 02.12.2019
3396 Clouds 8 1019 100 10000 3.6 10 00:59 02.12.2019
3397 Clouds 8 1018 100 8000 3.6 10 00:28 02.12.2019
3398 Clouds 8 1018 93 7000 3.1 10 23:56 01.12.2019
3399 Clouds 8 1018 100 9000 2.6 10 23:38 01.12.2019
3400 Clouds 8 1018 100 9000 2.6 10 23:19 01.12.2019
3401 Clouds 9 1018 93 10000 2.1 20 22:56 01.12.2019
3402 Clouds 9 1017 93 10000 3.6 10 22:37 01.12.2019
3403 Clouds 9 1017 100 7000 3.1 360 22:18 01.12.2019
3404 Clouds 9 1017 100 7000 3.1 360 21:55 01.12.2019
3405 Mist 9 1017 93 5000 3.1 10 21:37 01.12.2019
3406 Mist 9 1017 93 5000 3.1 10 21:18 01.12.2019
3407 Mist 9 1016 93 5000 2.6 40 20:56 01.12.2019
3408 Mist 9 1016 93 5000 2.6 40 20:37 01.12.2019
3409 Mist 10 1016 100 5000 2.6 30 20:19 01.12.2019
3410 Mist 10 1016 100 5000 2.6 30 19:55 01.12.2019
3411 Mist 9 1015 93 3200 3.6 30 19:36 01.12.2019
3412 Mist 10 1015 93 5000 2.6 20 19:18 01.12.2019
3413 Mist 10 1015 93 5000 2.6 20 18:54 01.12.2019
3414 Clouds 10 1014 93 10000 2.6 30 18:36 01.12.2019
3415 Clouds 10 1014 93 10000 2.6 30 18:18 01.12.2019
3416 Clouds 10 1014 93 10000 1.5 40 17:55 01.12.2019
3417 Clouds 11 1013 87 10000 2.09 69 17:37 01.12.2019
3418 Clouds 11 1013 87 10000 2.09 69 17:37 01.12.2019
3419 Clouds 11 1013 81 10000 1 0 17:19 01.12.2019
3420 Clouds 12 1013 93 10000 2.1 150 16:42 01.12.2019
3421 Clouds 12 1013 93 10000 2.1 150 16:23 01.12.2019
3422 Clouds 11 1013 87 10000 2.1 130 15:51 01.12.2019
3423 Clouds 12 1013 93 10000 1 0 15:32 01.12.2019
3424 Clouds 12 1013 93 10000 1 0 15:32 01.12.2019
3425 Clouds 12 1013 93 10000 1 0 15:32 01.12.2019
3426 Clouds 11 1013 100 10000 2.6 20 14:54 01.12.2019
3427 Clouds 11 1013 100 10000 2.6 20 14:54 01.12.2019
3428 Clouds 11 1013 100 10000 2.6 20 14:36 01.12.2019
3429 Clouds 11 1013 93 10000 2.1 140 14:18 01.12.2019
3430 Rain 11 1013 93 10000 2.1 170 13:40 01.12.2019
3431 Rain 11 1013 93 10000 2.1 170 13:40 01.12.2019
3432 Rain 10 1013 93 4400 2.1 190 13:20 01.12.2019
3433 Clouds 10 1013 87 10000 1.5 0 12:46 01.12.2019
3434 Clouds 10 1013 93 10000 1.5 0 11:59 01.12.2019
3435 Clouds 9 1013 87 10000 1 0 11:40 01.12.2019
3436 Clouds 9 1013 87 10000 1 0 11:22 01.12.2019
3437 Clouds 8 1012 100 10000 2.6 140 10:44 01.12.2019
3438 Clouds 8 1012 100 10000 2.6 140 10:22 01.12.2019
3439 Clouds 7 1012 100 10000 2.1 120 09:59 01.12.2019
3440 Rain 6 1012 93 6000 3.09 145 09:39 01.12.2019
3441 Clouds 6 1012 100 9000 2.6 280 09:20 01.12.2019
3442 Clouds 6 1011 100 10000 2.1 140 08:47 01.12.2019
3443 Clouds 6 1011 93 10000 1.5 130 08:20 01.12.2019
3444 Clouds 6 1011 93 10000 1.5 130 07:51 01.12.2019
3445 Clouds 6 1011 100 10000 2.1 140 07:31 01.12.2019
3446 Clouds 7 1011 100 10000 1.5 130 06:57 01.12.2019
3447 Clouds 7 1011 93 10000 1.5 130 06:34 01.12.2019
3448 Clouds 7 1011 100 10000 1.5 0 05:48 01.12.2019
3449 Clouds 7 1011 93 10000 2.6 180 04:50 01.12.2019
3450 Clouds 8 1011 93 10000 4.1 190 02:54 01.12.2019
3451 Clouds 9 1012 93 10000 3.6 190 02:36 01.12.2019
3452 Rain 9 1012 93 10000 3.1 180 02:18 01.12.2019
3453 Rain 8 1012 93 10000 3.1 200 01:50 01.12.2019
3454 Rain 8 1012 93 10000 3.1 200 01:19 01.12.2019
3455 Rain 9 1013 93 10000 2.6 180 00:40 01.12.2019
3456 Rain 9 1013 93 10000 2.6 180 00:22 01.12.2019
3457 Rain 10 1013 87 10000 5.1 200 23:42 30.11.2019
3458 Rain 10 1013 87 10000 5.1 200 23:23 30.11.2019
3459 Rain 9 1013 93 10000 4.1 190 22:50 30.11.2019
3460 Rain 9 1013 93 10000 4.1 190 22:30 30.11.2019
3461 Clouds 10 1013 93 10000 4.6 190 21:59 30.11.2019
3462 Rain 10 1013 93 10000 5.1 190 21:40 30.11.2019
3463 Rain 10 1013 93 10000 5.1 190 21:20 30.11.2019
3464 Rain 10 1013 93 10000 5.1 170 20:55 30.11.2019
3465 Rain 10 1013 93 10000 5.1 170 20:37 30.11.2019
3466 Clouds 10 1013 93 10000 4.6 180 20:19 30.11.2019
3467 Clouds 10 1013 93 10000 4.6 180 19:55 30.11.2019
3468 Clouds 10 1013 100 10000 3.6 190 19:36 30.11.2019
3469 Clouds 10 1013 100 10000 4.1 200 19:18 30.11.2019
3470 Clouds 10 1013 100 10000 4.1 200 18:54 30.11.2019
3471 Rain 10 1012 100 10000 3.1 150 18:36 30.11.2019
3472 Rain 10 1013 100 10000 2.6 180 18:18 30.11.2019
3473 Rain 10 1013 100 10000 2.6 180 18:18 30.11.2019
3474 Rain 10 1012 93 8000 2.6 170 17:56 30.11.2019
3475 Rain 10 1012 93 8000 2.6 170 17:37 30.11.2019
3476 Rain 11 1013 93 10000 3.6 220 17:19 30.11.2019
3477 Rain 11 1012 93 10000 2.6 230 16:42 30.11.2019
3478 Rain 11 1012 93 10000 2.6 230 16:22 30.11.2019
3479 Rain 11 1013 93 10000 2.6 220 15:55 30.11.2019
3480 Rain 11 1013 93 10000 2.6 220 15:55 30.11.2019
3481 Rain 11 1012 100 10000 3.6 170 15:37 30.11.2019
3482 Rain 11 1013 93 3600 3.6 190 15:18 30.11.2019
3483 Rain 11 1013 93 3600 3.6 190 14:56 30.11.2019
3484 Rain 11 1012 93 4600 3.1 170 14:37 30.11.2019
3485 Rain 10 1012 100 6000 3.1 140 14:18 30.11.2019
3486 Rain 10 1013 100 4300 3.6 140 13:45 30.11.2019
3487 Rain 10 1013 100 4300 3.6 140 13:26 30.11.2019
3488 Rain 10 1013 100 10000 5.7 130 12:59 30.11.2019
3489 Rain 10 1013 93 7000 5.1 110 12:41 30.11.2019
3490 Rain 9 1013 93 7000 5.1 110 12:22 30.11.2019
3491 Rain 9 1014 93 9000 4.6 100 11:43 30.11.2019
3492 Rain 9 1015 93 5000 3.1 100 11:20 30.11.2019
3493 Rain 9 1015 93 5000 3.1 100 10:56 30.11.2019
3494 Rain 9 1015 93 10000 3.1 120 10:37 30.11.2019
3495 Rain 9 1014 93 10000 5.1 120 10:19 30.11.2019
3496 Rain 9 1014 93 10000 5.7 120 09:46 30.11.2019
3497 Rain 9 1014 93 10000 5.7 120 09:24 30.11.2019
3498 Rain 8 1014 93 10000 6.2 120 08:44 30.11.2019
3499 Clouds 8 1014 93 10000 6.2 120 08:22 30.11.2019
3500 Clouds 8 1015 93 10000 5.1 120 07:58 30.11.2019
3501 Clouds 7 1015 100 10000 3.1 110 07:39 30.11.2019
3502 Clouds 7 1015 100 10000 4.1 110 06:56 30.11.2019
3503 Clouds 7 1016 93 10000 5.1 110 06:29 30.11.2019
3504 Clouds 7 1016 100 10000 4.6 120 05:50 30.11.2019
3505 Clouds 7 1018 93 8000 3.1 110 03:53 30.11.2019
3506 Mist 6 1019 100 5000 2.1 120 02:40 30.11.2019
3507 Mist 6 1019 100 5000 3.1 110 02:22 30.11.2019
3508 Mist 6 1019 100 3400 2.6 120 01:25 30.11.2019
3509 Mist 6 1019 100 3400 2.6 120 01:25 30.11.2019
3510 Fog 6 1020 100 2400 1 110 00:50 30.11.2019
3511 Fog 6 1020 100 2400 1 110 00:31 30.11.2019
3512 Fog 7 1020 93 3100 1.5 120 23:59 29.11.2019
3513 Fog 7 1020 93 3100 1.5 120 23:59 29.11.2019
3514 Fog 7 1020 93 3100 1.5 120 23:40 29.11.2019
3515 Fog 7 1020 93 3100 1.5 120 23:22 29.11.2019
3516 Fog 7 1021 93 1100 0.5 190 22:45 29.11.2019
3517 Fog 7 1021 93 1100 0.5 190 22:25 29.11.2019
3518 Fog 7 1021 100 4600 1 170 21:44 29.11.2019
3519 Fog 7 1021 100 4600 1 170 21:44 29.11.2019
3520 Fog 7 1021 100 4600 1 170 21:24 29.11.2019
3521 Fog 8 1021 93 4900 0.95 121 20:58 29.11.2019
3522 Clouds 8 1021 93 6000 1 190 20:38 29.11.2019
3523 Fog 8 1020 93 5000 1.15 285 20:19 29.11.2019
3524 Fog 8 1020 93 5000 1.15 285 19:57 29.11.2019
3525 Clouds 9 1020 87 10000 1.15 285 19:39 29.11.2019
3526 Clouds 9 1020 87 10000 1.15 285 19:19 29.11.2019
3527 Clouds 11 1020 87 10000 1 0 18:55 29.11.2019
3528 Clouds 12 1020 87 10000 1.5 250 18:37 29.11.2019
3529 Clouds 12 1020 87 10000 1.5 250 18:37 29.11.2019
3530 Clouds 12 1020 87 10000 1.5 250 18:37 29.11.2019
3531 Clouds 12 1020 81 10000 1.5 290 18:19 29.11.2019
3532 Clouds 13 1019 76 10000 1.5 280 17:43 29.11.2019
3533 Clear 13 1019 76 10000 1.5 280 17:24 29.11.2019
3534 Clear 14 1019 71 10000 3.1 270 16:56 29.11.2019
3535 Clouds 14 1019 71 10000 3.1 290 16:37 29.11.2019
3536 Clouds 15 1019 71 10000 4.1 290 16:18 29.11.2019
3537 Clouds 15 1019 67 10000 4.6 290 15:40 29.11.2019
3538 Clouds 15 1019 67 10000 4.6 290 15:21 29.11.2019
3539 Clouds 15 1019 71 10000 4.1 290 14:42 29.11.2019
3540 Clouds 15 1019 71 10000 4.1 290 14:22 29.11.2019
3541 Clouds 15 1019 67 10000 5.1 300 13:59 29.11.2019
3542 Clouds 15 1019 67 10000 5.1 300 13:39 29.11.2019
3543 Clouds 15 1019 67 10000 5.1 300 13:20 29.11.2019
3544 Clouds 15 1019 72 10000 4.6 280 12:45 29.11.2019
3545 Clouds 14 1019 72 10000 4.6 280 12:25 29.11.2019
3546 Clouds 14 1019 82 10000 5.1 290 11:59 29.11.2019
3547 Clear 14 1019 82 10000 4.1 280 11:41 29.11.2019
3548 Clouds 14 1018 87 10000 2.6 260 11:19 29.11.2019
3549 Clouds 14 1018 87 10000 2.6 260 11:19 29.11.2019
3550 Clouds 13 1018 87 10000 2.6 260 10:59 29.11.2019
3551 Clouds 13 1018 87 10000 2.6 260 10:59 29.11.2019
3552 Clouds 13 1018 87 10000 3.6 270 10:39 29.11.2019
3553 Clouds 13 1018 87 10000 3.6 270 10:21 29.11.2019
3554 Clouds 12 1017 93 10000 3.1 240 09:59 29.11.2019
3555 Clouds 12 1017 93 10000 3.1 230 09:40 29.11.2019
3556 Rain 12 1016 93 10000 3.6 240 09:22 29.11.2019
3557 Rain 12 1016 93 10000 3.6 240 08:57 29.11.2019
3558 Rain 12 1016 93 10000 3.1 260 08:37 29.11.2019
3559 Rain 12 1015 93 10000 4.1 250 08:19 29.11.2019
3560 Rain 12 1015 93 10000 3.6 250 07:42 29.11.2019
3561 Rain 12 1015 93 10000 3.6 250 07:42 29.11.2019
3562 Rain 12 1015 93 10000 3.6 250 07:23 29.11.2019
3563 Rain 12 1014 93 10000 4.1 250 06:54 29.11.2019
3564 Rain 12 1014 93 10000 5.1 260 06:35 29.11.2019
3565 Rain 11 1013 100 10000 3.1 220 05:46 29.11.2019
3566 Rain 11 1013 100 10000 3.1 220 05:23 29.11.2019
3567 Rain 11 1013 93 10000 2.6 180 05:23 29.11.2019
3568 Clouds 12 1012 100 10000 3.6 230 03:41 29.11.2019
3569 Clouds 12 1012 100 10000 3.6 220 03:18 29.11.2019
3570 Clouds 12 1012 100 10000 3.1 220 02:24 29.11.2019
3571 Clouds 12 1012 100 10000 3.6 210 01:45 29.11.2019
3572 Clouds 12 1012 100 10000 3.6 210 01:20 29.11.2019
3573 Rain 11 1011 100 10000 3.6 220 00:40 29.11.2019
3574 Rain 11 1011 93 10000 4.6 220 00:18 29.11.2019
3575 Rain 11 1011 93 10000 4.6 220 00:18 29.11.2019
3576 Drizzle 12 1011 93 10000 5.1 210 23:41 28.11.2019
3577 Rain 12 1011 93 10000 5.1 200 23:21 28.11.2019
3578 Rain 12 1011 93 10000 5.1 200 22:56 28.11.2019
3579 Rain 12 1010 93 10000 3.1 210 22:37 28.11.2019
3580 Rain 12 1010 93 10000 4.1 220 22:19 28.11.2019
3581 Rain 12 1010 93 10000 4.1 220 21:54 28.11.2019
3582 Clouds 12 1010 93 10000 5.1 220 21:36 28.11.2019
3583 Clouds 12 1010 93 10000 3.6 210 21:18 28.11.2019
3584 Clouds 12 1010 93 10000 4.1 230 20:42 28.11.2019
3585 Clouds 12 1009 87 10000 5.1 240 20:22 28.11.2019
3586 Clouds 12 1009 87 10000 5.1 240 19:57 28.11.2019
3587 Clouds 13 1009 87 10000 5.7 230 19:39 28.11.2019
3588 Clouds 13 1009 87 10000 5.7 230 19:19 28.11.2019
3589 Rain 13 1009 87 10000 4.6 250 18:58 28.11.2019
3590 Rain 13 1009 87 10000 4.6 230 18:39 28.11.2019
3591 Rain 13 1009 87 10000 5.1 230 18:18 28.11.2019
3592 Rain 13 1009 87 10000 5.1 230 17:58 28.11.2019
3593 Rain 13 1009 87 10000 5.1 230 17:58 28.11.2019
3594 Rain 13 1009 87 10000 5.1 230 17:58 28.11.2019
3595 Clouds 13 1009 87 10000 4.1 230 17:40 28.11.2019
3596 Clouds 13 1009 87 10000 4.1 230 17:20 28.11.2019
3597 Clouds 14 1009 82 10000 5.1 240 16:40 28.11.2019
3598 Clouds 14 1009 82 10000 5.1 240 16:19 28.11.2019
3599 Clouds 14 1009 82 10000 7.2 240 15:58 28.11.2019
3600 Clouds 14 1009 82 10000 6.7 250 15:39 28.11.2019
3601 Clouds 14 1009 82 10000 5.7 250 15:19 28.11.2019
3602 Clouds 14 1009 82 10000 5.7 250 14:58 28.11.2019
3603 Rain 14 1010 82 10000 7.7 250 14:39 28.11.2019
3604 Rain 14 1010 82 10000 7.7 250 14:19 28.11.2019
3605 Rain 14 1010 82 10000 5.1 250 13:42 28.11.2019
3606 Rain 14 1010 82 10000 5.1 250 13:23 28.11.2019
3607 Clouds 14 1010 67 10000 6.2 260 12:56 28.11.2019
3608 Clouds 14 1010 72 10000 5.7 250 12:37 28.11.2019
3609 Clouds 14 1010 72 10000 5.7 250 12:19 28.11.2019
3610 Clouds 14 1010 71 10000 5.7 250 11:55 28.11.2019
3611 Clouds 14 1010 71 10000 5.7 260 11:36 28.11.2019
3612 Clouds 14 1010 71 10000 5.7 260 11:36 28.11.2019
3613 Clouds 13 1010 76 10000 5.1 250 11:18 28.11.2019
3614 Clouds 13 1009 82 10000 4.6 250 10:42 28.11.2019
3615 Clouds 12 1009 82 10000 4.6 250 10:21 28.11.2019
3616 Clouds 12 1009 87 10000 3.6 230 09:55 28.11.2019
3617 Clouds 11 1008 87 10000 3.6 230 09:37 28.11.2019
3618 Clouds 11 1008 87 10000 3.6 230 09:18 28.11.2019
3619 Clouds 11 1007 87 10000 4.1 240 08:40 28.11.2019
3620 Rain 11 1007 93 10000 3.6 230 08:21 28.11.2019
3621 Rain 12 1007 87 10000 3.6 270 07:43 28.11.2019
3622 Rain 12 1007 87 10000 3.6 270 07:25 28.11.2019
3623 Rain 12 1006 87 10000 4.6 240 06:58 28.11.2019
3624 Rain 12 1006 81 10000 5.1 260 06:37 28.11.2019
3625 Rain 12 1006 87 10000 6.2 250 05:53 28.11.2019
3626 Rain 12 1006 87 10000 4.6 230 05:33 28.11.2019
3627 Rain 11 1005 100 10000 3.1 260 03:43 28.11.2019
3628 Rain 12 1006 93 3600 6.7 280 02:18 28.11.2019
3629 Rain 12 1005 93 3600 5.7 270 00:52 28.11.2019
3630 Rain 12 1006 93 7000 4.6 250 00:26 28.11.2019
3631 Rain 12 1005 93 10000 2.6 210 23:59 27.11.2019
3632 Rain 12 1006 93 10000 5.1 250 23:38 27.11.2019
3633 Rain 12 1006 93 5000 6.2 280 23:19 27.11.2019
3634 Rain 12 1006 93 5000 6.2 280 22:54 27.11.2019
3635 Drizzle 12 1006 93 10000 6.7 240 22:36 27.11.2019
3636 Rain 12 1006 93 10000 5.1 270 22:18 27.11.2019
3637 Rain 12 1006 93 10000 5.1 270 21:55 27.11.2019
3638 Rain 12 1006 87 10000 5.1 250 21:36 27.11.2019
3639 Rain 12 1005 87 10000 6.7 250 21:18 27.11.2019
3640 Rain 12 1005 87 10000 6.7 250 21:18 27.11.2019
3641 Rain 12 1005 87 10000 6.7 250 20:55 27.11.2019
3642 Rain 12 1005 87 10000 7.2 240 20:36 27.11.2019
3643 Rain 12 1005 87 10000 7.2 240 20:36 27.11.2019
3644 Rain 13 1005 93 10000 4.6 230 20:18 27.11.2019
3645 Rain 12 1005 93 10000 4.6 230 19:54 27.11.2019
3646 Rain 12 1005 93 10000 3.6 220 19:36 27.11.2019
3647 Rain 12 1006 87 10000 4.1 240 19:18 27.11.2019
3648 Rain 12 1005 87 10000 9.3 250 18:38 27.11.2019
3649 Rain 12 1005 87 10000 9.3 250 18:38 27.11.2019
3650 Rain 12 1005 87 10000 8.2 260 18:19 27.11.2019
3651 Rain 12 1005 87 10000 8.2 260 18:19 27.11.2019
3652 Rain 12 1005 87 10000 8.2 260 17:59 27.11.2019
3653 Rain 13 1005 93 4800 9.8 240 17:40 27.11.2019
3654 Rain 13 1005 93 4800 9.8 240 17:40 27.11.2019
3655 Rain 13 1005 93 4800 9.8 240 17:21 27.11.2019
3656 Rain 13 1005 93 10000 7.7 250 16:57 27.11.2019
3657 Rain 13 1004 87 8000 11.3 260 16:39 27.11.2019
3658 Clouds 14 1004 82 10000 8.7 260 16:21 27.11.2019
3659 Clouds 14 1004 82 10000 8.7 260 15:57 27.11.2019
3660 Clouds 14 1004 82 10000 9.3 260 15:39 27.11.2019
3661 Clouds 14 1004 82 10000 8.7 250 15:20 27.11.2019
3662 Clouds 14 1004 82 10000 8.7 250 14:57 27.11.2019
3663 Rain 14 1004 87 10000 7.7 250 14:39 27.11.2019
3664 Rain 14 1004 87 10000 7.7 250 14:21 27.11.2019
3665 Rain 13 1004 87 10000 9.3 250 13:57 27.11.2019
3666 Rain 14 1004 82 10000 10.8 250 13:38 27.11.2019
3667 Rain 14 1004 82 10000 10.8 250 13:38 27.11.2019
3668 Rain 14 1004 77 10000 10.8 250 13:19 27.11.2019
3669 Clouds 15 1004 77 10000 10.3 250 12:55 27.11.2019
3670 Clouds 14 1004 77 10000 10.3 250 12:37 27.11.2019
3671 Rain 14 1004 77 10000 10.8 250 12:18 27.11.2019
3672 Rain 14 1004 82 10000 9.8 250 11:38 27.11.2019
3673 Rain 13 1003 87 10000 10.3 260 11:19 27.11.2019
3674 Rain 13 1003 87 10000 10.3 260 10:55 27.11.2019
3675 Rain 13 1003 87 4300 10.3 250 10:37 27.11.2019
3676 Rain 13 1003 87 10000 8.7 240 10:19 27.11.2019
3677 Rain 13 1002 82 10000 7.7 250 09:43 27.11.2019
3678 Rain 13 1002 82 10000 7.7 250 09:24 27.11.2019
3679 Rain 13 1002 87 10000 8.2 250 08:43 27.11.2019
3680 Rain 12 1002 87 10000 8.2 250 08:25 27.11.2019
3681 Rain 13 1001 82 5000 9.8 240 07:59 27.11.2019
3682 Rain 13 1001 82 10000 8.7 240 07:40 27.11.2019
3683 Rain 13 1001 82 10000 9.3 250 07:21 27.11.2019
3684 Rain 13 1000 82 10000 8.2 250 06:45 27.11.2019
3685 Clouds 13 1000 76 10000 8.7 250 06:25 27.11.2019
3686 Clouds 13 1000 71 10000 9.8 260 05:26 27.11.2019
3687 Rain 13 1000 76 10000 10.3 240 04:57 27.11.2019
3688 Rain 13 1000 76 10000 10.3 240 04:37 27.11.2019
3689 Clouds 13 1000 71 10000 7.2 240 03:50 27.11.2019
3690 Clouds 13 1000 71 10000 8.7 250 03:21 27.11.2019
3691 Clouds 13 1000 82 10000 5.1 220 02:54 27.11.2019
3692 Rain 12 1000 93 10000 4.1 210 01:34 27.11.2019
3693 Rain 12 999 93 10000 5.1 210 00:42 27.11.2019
3694 Rain 12 999 93 10000 5.1 210 00:24 27.11.2019
3695 Rain 12 1000 87 6000 7.2 260 23:44 26.11.2019
3696 Rain 12 1000 87 6000 7.2 260 23:25 26.11.2019
3697 Rain 12 1000 93 6000 9.8 270 22:55 26.11.2019
3698 Rain 14 997 72 10000 7.2 200 22:37 26.11.2019
3699 Rain 16 997 72 10000 7.7 200 22:18 26.11.2019
3700 Rain 15 997 77 10000 6.7 180 21:40 26.11.2019
3701 Rain 15 997 77 10000 6.7 180 21:21 26.11.2019
3702 Rain 15 997 82 10000 5.1 150 20:58 26.11.2019
3703 Rain 14 997 82 10000 5.1 150 20:39 26.11.2019
3704 Clouds 14 997 82 10000 5.1 140 20:20 26.11.2019
3705 Clouds 14 997 82 10000 5.1 140 19:56 26.11.2019
3706 Clouds 14 998 82 10000 5.7 140 19:38 26.11.2019
3707 Clouds 14 999 82 10000 4.6 140 19:20 26.11.2019
3708 Clouds 14 999 82 10000 4.6 140 18:58 26.11.2019
3709 Clouds 13 999 82 10000 3.6 130 18:39 26.11.2019
3710 Clouds 14 1000 82 10000 3.6 130 18:21 26.11.2019
3711 Clouds 14 1000 82 10000 3.6 130 17:59 26.11.2019
3712 Clouds 14 1001 77 10000 3.6 130 17:40 26.11.2019
3713 Clouds 15 1001 77 10000 4.1 140 17:22 26.11.2019
3714 Clouds 15 1001 77 10000 4.1 140 16:57 26.11.2019
3715 Clouds 15 1002 72 10000 4.1 140 16:38 26.11.2019
3716 Clouds 15 1002 77 10000 3.1 140 16:19 26.11.2019
3717 Clouds 15 1002 77 10000 3.1 140 15:59 26.11.2019
3718 Clouds 15 1003 77 10000 3.1 150 15:38 26.11.2019
3719 Clouds 15 1003 77 10000 3.1 150 15:38 26.11.2019
3720 Clouds 15 1003 77 10000 3.1 150 15:20 26.11.2019
3721 Clouds 16 1004 72 10000 2.6 140 14:51 26.11.2019
3722 Clouds 16 1004 72 10000 2.6 140 14:26 26.11.2019
3723 Rain 16 1004 77 10000 3.1 140 13:57 26.11.2019
3724 Rain 15 1005 72 10000 3.1 150 13:38 26.11.2019
3725 Clouds 15 1005 72 10000 3.6 150 13:19 26.11.2019
3726 Rain 15 1005 72 10000 3.1 150 13:19 26.11.2019
3727 Clouds 14 1006 72 10000 4.1 160 12:39 26.11.2019
3728 Clouds 14 1007 76 10000 3.6 160 12:21 26.11.2019
3729 Clouds 14 1007 82 10000 3.6 150 11:58 26.11.2019
3730 Clouds 13 1007 82 10000 3.6 150 11:39 26.11.2019
3731 Rain 13 1006 87 10000 5.7 140 11:20 26.11.2019
3732 Clouds 12 1007 87 10000 4.6 150 10:58 26.11.2019
3733 Clouds 12 1007 87 10000 4.6 150 10:40 26.11.2019
3734 Clouds 12 1007 87 10000 4.6 150 10:21 26.11.2019
3735 Rain 11 1007 93 10000 4.1 150 09:57 26.11.2019
3736 Rain 11 1007 93 10000 4.1 150 09:37 26.11.2019
3737 Clouds 11 1007 93 10000 4.1 150 09:18 26.11.2019
3738 Rain 10 1007 93 10000 4.6 150 08:43 26.11.2019
3739 Rain 10 1007 93 10000 4.6 150 08:43 26.11.2019
3740 Clouds 10 1007 93 10000 3.6 150 08:24 26.11.2019
3741 Clouds 10 1007 93 10000 3.6 140 07:46 26.11.2019
3742 Clouds 10 1007 93 10000 3.6 140 07:27 26.11.2019
3743 Clouds 10 1008 93 10000 2.6 140 06:55 26.11.2019
3744 Clouds 10 1008 93 10000 2.6 140 06:35 26.11.2019
3745 Clouds 10 1008 100 8000 4.1 160 05:52 26.11.2019
3746 Clouds 10 1008 100 8000 4.1 160 05:52 26.11.2019
3747 Clouds 10 1009 93 10000 2.1 160 03:59 26.11.2019
3748 Clouds 10 1010 100 10000 3.6 170 02:52 26.11.2019
3749 Clouds 11 1011 93 10000 3.1 190 01:33 26.11.2019
3750 Clouds 11 1011 93 10000 3.1 190 00:52 26.11.2019
3751 Clouds 11 1011 93 10000 2.6 180 00:29 26.11.2019
3752 Clouds 11 1011 100 10000 3.6 190 23:41 25.11.2019
3753 Clouds 11 1012 93 10000 3.6 190 23:21 25.11.2019
3754 Clouds 11 1012 93 10000 3.6 190 22:59 25.11.2019
3755 Clouds 11 1012 93 10000 3.1 190 22:38 25.11.2019
3756 Clouds 11 1012 93 10000 3.1 180 22:18 25.11.2019
3757 Clouds 11 1012 93 10000 3.1 180 21:58 25.11.2019
3758 Clouds 11 1012 93 10000 2.6 220 21:39 25.11.2019
3759 Clouds 12 1012 93 10000 2.6 220 21:21 25.11.2019
3760 Clouds 12 1012 93 10000 2.6 220 20:57 25.11.2019
3761 Clouds 12 1012 100 10000 2.6 220 20:39 25.11.2019
3762 Clouds 12 1011 93 10000 2.1 200 20:19 25.11.2019
3763 Clouds 12 1011 93 10000 2.1 200 19:56 25.11.2019
3764 Clouds 12 1011 93 10000 4.1 240 19:37 25.11.2019
3765 Rain 13 1011 87 10000 3.6 230 19:18 25.11.2019
3766 Rain 13 1011 87 10000 3.1 220 18:56 25.11.2019
3767 Rain 13 1011 87 10000 3.1 220 18:38 25.11.2019
3768 Rain 13 1011 87 10000 3.1 220 18:38 25.11.2019
3769 Clouds 13 1011 82 10000 3.6 250 18:20 25.11.2019
3770 Clouds 13 1011 82 10000 3.6 250 17:57 25.11.2019
3771 Clouds 14 1011 87 10000 5.1 250 17:38 25.11.2019
3772 Clouds 14 1010 87 10000 5.1 240 17:19 25.11.2019
3773 Clouds 14 1010 87 10000 5.1 240 16:56 25.11.2019
3774 Clouds 14 1010 87 10000 5.1 250 16:37 25.11.2019
3775 Rain 14 1010 87 10000 6.2 240 16:19 25.11.2019
3776 Rain 14 1010 87 10000 6.7 260 15:42 25.11.2019
3777 Clouds 15 1010 82 10000 6.7 250 15:21 25.11.2019
3778 Clouds 15 1010 82 10000 6.7 250 14:59 25.11.2019
3779 Clouds 15 1010 82 10000 6.2 250 14:40 25.11.2019
3780 Clouds 15 1010 82 10000 6.2 250 14:22 25.11.2019
3781 Clouds 15 1009 82 10000 7.2 240 13:55 25.11.2019
3782 Clouds 15 1009 82 10000 7.2 240 13:36 25.11.2019
3783 Clouds 15 1009 82 10000 7.7 240 13:18 25.11.2019
3784 Clouds 15 1009 82 10000 6.7 250 12:41 25.11.2019
3785 Clouds 15 1009 87 10000 8.7 250 12:22 25.11.2019
3786 Clouds 15 1009 82 10000 6.7 250 12:22 25.11.2019
3787 Clouds 15 1009 87 10000 8.7 250 11:59 25.11.2019
3788 Clouds 14 1009 93 10000 6.2 240 11:39 25.11.2019
3789 Clouds 14 1009 93 10000 3.6 230 11:20 25.11.2019
3790 Clouds 14 1009 93 10000 3.6 230 11:20 25.11.2019
3791 Clouds 12 1009 100 10000 3.6 190 10:46 25.11.2019
3792 Clouds 12 1009 100 10000 3.6 190 10:28 25.11.2019
3793 Clouds 11 1008 100 10000 4.1 190 09:59 25.11.2019
3794 Clouds 11 1008 100 10000 4.1 190 09:40 25.11.2019
3795 Clouds 10 1008 100 10000 4.1 190 09:22 25.11.2019
3796 Rain 10 1008 93 10000 3.1 190 08:41 25.11.2019
3797 Rain 10 1008 93 10000 3.1 190 08:22 25.11.2019
3798 Rain 9 1008 93 10000 3.6 190 07:45 25.11.2019
3799 Rain 9 1008 93 10000 3.6 190 07:24 25.11.2019
3800 Clouds 9 1007 93 10000 4.1 160 06:51 25.11.2019
3801 Rain 9 1007 93 10000 5.1 160 06:22 25.11.2019
3802 Rain 9 1007 93 10000 2.6 140 05:49 25.11.2019
3803 Rain 9 1007 93 10000 2.6 140 05:28 25.11.2019
3804 Clouds 9 1007 93 10000 5.1 160 03:26 25.11.2019
3805 Clouds 9 1008 93 10000 3.6 170 02:31 25.11.2019
3806 Rain 9 1008 100 10000 3.6 170 01:42 25.11.2019
3807 Rain 9 1008 100 10000 3.6 170 01:23 25.11.2019
3808 Rain 10 1009 93 10000 3.1 160 00:37 25.11.2019
3809 Rain 10 1009 93 10000 3.1 210 00:18 25.11.2019
3810 Rain 10 1008 93 10000 2.6 190 23:41 24.11.2019
3811 Rain 10 1008 93 10000 3.1 150 23:20 24.11.2019
3812 Rain 10 1008 93 10000 3.1 150 22:56 24.11.2019
3813 Rain 10 1008 93 9000 3.1 160 22:37 24.11.2019
3814 Rain 10 1009 93 10000 3.1 180 22:18 24.11.2019
3815 Rain 10 1009 93 10000 3.1 180 21:54 24.11.2019
3816 Rain 10 1009 93 10000 3.6 170 21:36 24.11.2019
3817 Rain 10 1009 93 10000 3.6 170 21:18 24.11.2019
3818 Rain 10 1009 93 10000 3.6 170 20:54 24.11.2019
3819 Rain 10 1009 93 10000 3.6 160 20:36 24.11.2019
3820 Clouds 10 1009 87 10000 3.1 170 20:18 24.11.2019
3821 Clouds 11 1009 87 10000 3.1 170 19:54 24.11.2019
3822 Clouds 11 1009 87 10000 3.6 180 19:36 24.11.2019
3823 Clouds 11 1009 87 10000 3.1 180 19:18 24.11.2019
3824 Clouds 11 1009 87 10000 3.1 200 18:38 24.11.2019
3825 Clouds 11 1010 81 10000 1.5 180 18:20 24.11.2019
3826 Clouds 12 1010 81 10000 1.5 180 17:59 24.11.2019
3827 Clouds 12 1010 81 10000 1.5 180 17:59 24.11.2019
3828 Clouds 12 1010 81 10000 2.1 200 17:41 24.11.2019
3829 Clouds 12 1010 71 10000 2.6 220 17:22 24.11.2019
3830 Clouds 12 1010 71 10000 2.6 220 16:59 24.11.2019
3831 Clouds 13 1010 67 10000 4.1 240 16:40 24.11.2019
3832 Clouds 13 1010 67 10000 4.1 240 16:40 24.11.2019
3833 Clouds 13 1010 67 10000 4.1 240 16:22 24.11.2019
3834 Clouds 14 1010 71 10000 2.1 250 15:56 24.11.2019
3835 Clouds 13 1010 71 10000 2.6 270 15:37 24.11.2019
3836 Clouds 13 1010 71 10000 2.6 270 15:37 24.11.2019
3837 Clouds 13 1010 71 10000 2.6 270 15:37 24.11.2019
3838 Clouds 13 1010 71 10000 2.6 270 15:37 24.11.2019
3839 Clouds 13 1010 67 10000 3.6 280 15:19 24.11.2019
3840 Rain 13 1010 71 10000 3.1 250 14:39 24.11.2019
3841 Rain 13 1010 71 10000 3.1 250 14:19 24.11.2019
3842 Clouds 13 1010 71 10000 3.6 260 13:58 24.11.2019
3843 Clouds 14 1010 71 10000 4.1 280 13:37 24.11.2019
3844 Rain 14 1010 76 10000 4.1 280 13:19 24.11.2019
3845 Rain 13 1011 76 10000 3.6 250 12:55 24.11.2019
3846 Rain 13 1011 76 10000 3.6 250 12:37 24.11.2019
3847 Clouds 12 1011 82 10000 3.1 240 12:18 24.11.2019
3848 Clouds 12 1010 82 10000 3.6 240 11:38 24.11.2019
3849 Clouds 11 1010 93 10000 2.6 230 11:19 24.11.2019
3850 Clouds 11 1010 93 10000 2.6 230 10:55 24.11.2019
3851 Clouds 10 1010 93 10000 2.1 200 10:37 24.11.2019
3852 Clouds 9 1009 93 10000 2.1 200 10:19 24.11.2019
3853 Clouds 9 1009 100 10000 3.1 210 09:38 24.11.2019
3854 Rain 9 1009 100 10000 2.6 210 09:20 24.11.2019
3855 Rain 10 1009 100 10000 2.6 210 08:57 24.11.2019
3856 Clouds 10 1009 93 10000 3.1 200 08:38 24.11.2019
3857 Rain 7 1008 100 10000 3.1 210 08:19 24.11.2019
3858 Clouds 8 1008 93 10000 3.6 210 07:47 24.11.2019
3859 Clouds 7 1007 100 10000 2.6 210 07:20 24.11.2019
3860 Clear 8 1007 93 10000 3.1 210 06:40 24.11.2019
3861 Clear 8 1007 93 10000 2.6 210 04:54 24.11.2019
3862 Clear 7 1006 93 10000 2.6 220 04:35 24.11.2019
3863 Clear 8 1005 93 10000 2.6 220 02:35 24.11.2019
3864 Clouds 9 1005 93 10000 3.6 230 01:49 24.11.2019
3865 Clouds 9 1005 100 10000 3.1 220 01:27 24.11.2019
3866 Clouds 9 1004 93 10000 2.1 210 00:48 24.11.2019
3867 Clouds 9 1004 93 10000 4.1 240 00:24 24.11.2019
3868 Clouds 9 1004 93 10000 4.1 240 23:56 23.11.2019
3869 Clouds 10 1004 87 10000 3.1 240 23:37 23.11.2019
3870 Clouds 9 1004 87 10000 2.6 250 23:19 23.11.2019
3871 Clouds 9 1004 87 10000 2.6 250 22:55 23.11.2019
3872 Clouds 9 1004 87 10000 2.6 250 22:54 23.11.2019
3873 Clouds 10 1003 81 10000 3.1 250 22:36 23.11.2019
3874 Clouds 10 1003 76 10000 2.6 260 22:18 23.11.2019
3875 Clouds 10 1003 71 10000 3.1 260 21:43 23.11.2019
3876 Clouds 10 1003 71 10000 3.1 260 21:43 23.11.2019
3877 Clouds 10 1003 71 10000 3.1 260 21:23 23.11.2019
3878 Clouds 10 1003 71 10000 3.1 260 21:23 23.11.2019
3879 Clouds 10 1002 71 10000 4.1 280 20:59 23.11.2019
3880 Clouds 11 1001 71 10000 5.7 290 20:37 23.11.2019
3881 Clouds 11 1001 81 10000 6.2 290 20:18 23.11.2019
3882 Clouds 11 1000 81 10000 6.7 300 19:56 23.11.2019
3883 Clouds 11 1000 81 10000 6.7 300 19:37 23.11.2019
3884 Clouds 11 1000 81 10000 6.7 300 19:37 23.11.2019
3885 Clouds 11 1000 81 10000 6.7 300 19:37 23.11.2019
3886 Clouds 11 1000 81 10000 6.7 300 19:37 23.11.2019
3887 Clouds 11 1000 81 10000 5.7 290 19:18 23.11.2019
3888 Clouds 11 1000 81 10000 5.7 290 19:18 23.11.2019
3889 Clouds 11 1000 81 10000 5.7 290 19:18 23.11.2019
3890 Clouds 11 999 87 10000 5.7 290 18:40 23.11.2019
3891 Clouds 11 998 87 10000 5.1 300 18:21 23.11.2019
3892 Clouds 11 998 87 10000 5.1 300 18:21 23.11.2019
3893 Clouds 11 998 87 10000 5.1 300 18:21 23.11.2019
3894 Clouds 11 998 87 10000 5.1 300 17:59 23.11.2019
3895 Rain 11 997 87 10000 5.1 290 17:40 23.11.2019
3896 Rain 11 996 93 6000 6.2 310 17:20 23.11.2019
3897 Rain 11 996 93 6000 6.2 310 16:56 23.11.2019
3898 Rain 11 996 93 6000 6.2 310 16:56 23.11.2019
3899 Rain 11 996 93 2200 8.2 300 16:38 23.11.2019
3900 Rain 11 995 100 5000 6.7 300 16:20 23.11.2019
3901 Rain 11 994 93 9000 6.2 300 15:57 23.11.2019
3902 Rain 11 994 93 9000 6.2 300 15:38 23.11.2019
3903 Rain 12 993 93 8000 5.1 290 15:18 23.11.2019
3904 Rain 12 993 93 8000 5.1 290 15:18 23.11.2019
3905 Rain 12 993 93 4900 3.6 280 14:46 23.11.2019
3906 Rain 12 993 93 4900 3.6 280 14:23 23.11.2019
3907 Rain 12 993 93 4900 3.6 280 14:23 23.11.2019
3908 Rain 12 992 82 10000 2.6 290 13:59 23.11.2019
3909 Rain 12 992 76 10000 3.11 30 13:41 23.11.2019
3910 Rain 13 991 76 10000 3.58 11 13:19 23.11.2019
3911 Clouds 12 990 81 10000 1 0 12:55 23.11.2019
3912 Clouds 12 990 81 10000 1 0 12:37 23.11.2019
3913 Clouds 12 990 81 10000 1.5 0 12:18 23.11.2019
3914 Clouds 11 989 81 10000 1.5 60 11:41 23.11.2019
3915 Clouds 11 988 87 10000 2.1 60 11:18 23.11.2019
3916 Clouds 11 987 87 10000 3.1 70 10:43 23.11.2019
3917 Clouds 10 987 87 10000 3.1 90 10:21 23.11.2019
3918 Clouds 9 986 93 10000 3.1 100 09:41 23.11.2019
3919 Clouds 9 986 93 10000 3.1 100 09:19 23.11.2019
3920 Clouds 9 986 87 10000 4.1 180 08:42 23.11.2019
3921 Rain 9 986 93 9000 4.6 180 08:19 23.11.2019
3922 Rain 9 985 93 8000 3.6 180 07:52 23.11.2019
3923 Rain 9 985 93 8000 3.6 180 07:34 23.11.2019
3924 Clouds 9 985 87 10000 4.1 170 06:43 23.11.2019
3925 Clouds 9 985 87 10000 4.6 180 06:19 23.11.2019
3926 Clouds 9 985 87 10000 3.6 180 05:48 23.11.2019
3927 Clouds 9 985 87 10000 3.6 180 05:28 23.11.2019
3928 Clouds 9 984 93 10000 3.6 160 04:47 23.11.2019
3929 Clouds 9 984 93 10000 3.6 160 04:26 23.11.2019
3930 Clouds 10 985 87 10000 4.1 160 02:39 23.11.2019
3931 Rain 10 984 81 10000 3.6 150 01:42 23.11.2019
3932 Clouds 10 985 81 10000 4.6 140 00:57 23.11.2019
3933 Clouds 10 985 81 10000 4.6 140 00:57 23.11.2019
3934 Clouds 11 985 81 10000 4.1 150 00:38 23.11.2019
3935 Clouds 11 985 81 10000 4.6 150 00:18 23.11.2019
3936 Clouds 11 985 81 10000 3.1 140 23:39 22.11.2019
3937 Clouds 11 985 81 10000 5.1 140 23:20 22.11.2019
3938 Clouds 11 985 81 10000 5.7 140 22:57 22.11.2019
3939 Clouds 11 985 81 10000 5.7 140 22:38 22.11.2019
3940 Clouds 11 985 81 10000 5.7 140 22:20 22.11.2019
3941 Clouds 11 985 87 10000 5.7 140 21:58 22.11.2019
3942 Clouds 11 985 87 10000 4.6 140 21:38 22.11.2019
3943 Clouds 11 985 87 10000 6.2 140 21:19 22.11.2019
3944 Clouds 11 985 87 10000 6.2 140 20:42 22.11.2019
3945 Rain 11 985 87 10000 6.7 130 20:22 22.11.2019
3946 Rain 10 985 87 10000 6.7 130 19:55 22.11.2019
3947 Rain 10 986 93 10000 6.7 130 19:37 22.11.2019
3948 Rain 10 986 93 10000 6.7 140 19:18 22.11.2019
3949 Rain 10 986 93 10000 7.2 130 18:39 22.11.2019
3950 Rain 10 986 93 10000 6.7 130 18:21 22.11.2019
3951 Rain 10 986 93 10000 7.2 130 18:21 22.11.2019
3952 Rain 10 987 93 10000 7.7 130 17:55 22.11.2019
3953 Rain 10 987 93 10000 7.7 130 17:37 22.11.2019
3954 Rain 10 988 93 5000 8.2 140 17:19 22.11.2019
3955 Rain 10 988 87 8000 7.2 140 16:40 22.11.2019
3956 Rain 10 988 87 8000 7.2 140 16:22 22.11.2019
3957 Rain 10 988 87 10000 7.2 130 15:41 22.11.2019
3958 Rain 10 988 87 10000 7.2 130 15:23 22.11.2019
3959 Rain 10 989 87 10000 6.7 120 14:56 22.11.2019
3960 Rain 9 990 93 10000 7.7 120 14:37 22.11.2019
3961 Rain 9 991 87 10000 6.2 130 14:19 22.11.2019
3962 Rain 9 991 87 10000 6.2 130 13:56 22.11.2019
3963 Rain 9 992 87 10000 7.2 120 13:36 22.11.2019
3964 Rain 9 993 87 10000 5.7 130 13:18 22.11.2019
3965 Clouds 9 994 81 10000 5.1 140 12:40 22.11.2019
3966 Clouds 9 995 81 10000 5.7 140 12:20 22.11.2019
3967 Clouds 8 995 81 10000 5.7 140 11:59 22.11.2019
3968 Clouds 8 995 81 10000 7.2 130 11:39 22.11.2019
3969 Clouds 8 995 81 10000 7.2 130 11:20 22.11.2019
3970 Clouds 8 995 87 10000 6.7 130 10:58 22.11.2019
3971 Clouds 8 996 87 10000 6.7 130 10:39 22.11.2019
3972 Clouds 8 996 87 10000 6.7 130 10:21 22.11.2019
3973 Clouds 8 997 87 10000 6.7 130 09:55 22.11.2019
3974 Clouds 7 997 87 10000 5.7 140 09:37 22.11.2019
3975 Clouds 6 998 87 10000 6.2 130 09:18 22.11.2019
3976 Clouds 6 998 86 10000 5.1 130 08:44 22.11.2019
3977 Clouds 6 998 86 10000 5.1 130 08:25 22.11.2019
3978 Clouds 6 999 86 10000 5.1 140 07:45 22.11.2019
3979 Clouds 6 999 86 10000 5.1 140 07:22 22.11.2019
3980 Clouds 6 1000 93 10000 5.1 140 06:49 22.11.2019
3981 Clouds 6 1000 93 10000 5.1 140 06:29 22.11.2019
3982 Clouds 6 1001 93 10000 4.6 130 05:45 22.11.2019
3983 Clouds 6 1002 93 10000 4.1 130 04:22 22.11.2019
3984 Clouds 6 1003 93 10000 3.6 140 02:52 22.11.2019
3985 Clouds 6 1003 93 10000 3.6 160 02:29 22.11.2019
3986 Clouds 6 1004 93 10000 3.1 150 01:45 22.11.2019
3987 Clouds 6 1004 93 10000 3.6 170 01:19 22.11.2019
3988 Clouds 6 1004 93 10000 3.6 170 00:50 22.11.2019
3989 Clouds 6 1004 93 10000 3.6 170 00:23 22.11.2019
3990 Clouds 6 1004 93 10000 4.1 180 23:46 21.11.2019
3991 Clouds 6 1004 93 10000 4.1 180 23:28 21.11.2019
3992 Clouds 7 1005 87 10000 4.1 180 22:58 21.11.2019
3993 Clouds 7 1005 93 10000 4.6 170 22:39 21.11.2019
3994 Clouds 7 1005 93 10000 4.6 170 22:21 21.11.2019
3995 Clouds 7 1005 93 10000 4.1 180 21:56 21.11.2019
3996 Clouds 7 1005 93 10000 4.6 170 21:37 21.11.2019
3997 Clouds 7 1005 93 10000 4.6 170 21:19 21.11.2019
3998 Clouds 7 1005 100 10000 3.1 170 20:58 21.11.2019
3999 Rain 7 1005 87 10000 2.6 180 20:38 21.11.2019
4000 Clouds 7 1005 87 10000 1.5 260 20:19 21.11.2019
4001 Clouds 7 1005 87 10000 1.5 260 20:19 21.11.2019
4002 Clouds 7 1005 87 10000 1.5 260 19:59 21.11.2019
4003 Clouds 8 1004 87 10000 2.1 200 19:39 21.11.2019
4004 Clouds 8 1004 87 10000 2.1 200 19:39 21.11.2019
4005 Rain 8 1004 87 10000 3.1 170 19:21 21.11.2019
4006 Rain 8 1004 87 10000 3.1 170 18:56 21.11.2019
4007 Rain 8 1004 87 10000 3.1 170 18:56 21.11.2019
4008 Rain 8 1004 93 10000 1.5 170 18:37 21.11.2019
4009 Rain 9 1004 93 10000 0.5 0 18:18 21.11.2019
4010 Rain 9 1005 93 10000 3.1 190 17:41 21.11.2019
4011 Rain 9 1004 87 10000 2.1 210 17:22 21.11.2019
4012 Rain 9 1004 87 10000 2.1 210 17:22 21.11.2019
4013 Rain 10 1004 81 10000 7.7 250 16:59 21.11.2019
4014 Rain 10 1004 81 10000 7.7 250 16:40 21.11.2019
4015 Rain 10 1003 87 10000 4.1 180 16:21 21.11.2019
4016 Rain 10 1003 87 10000 4.1 180 15:56 21.11.2019
4017 Rain 10 1003 87 10000 3.1 180 15:37 21.11.2019
4018 Rain 11 1003 87 10000 5.1 190 15:19 21.11.2019
4019 Rain 10 1003 93 10000 4.1 180 14:39 21.11.2019
4020 Rain 10 1004 93 10000 4.6 210 14:21 21.11.2019
4021 Rain 10 1004 87 10000 4.6 200 13:59 21.11.2019
4022 Rain 10 1004 87 10000 4.6 200 13:38 21.11.2019
4023 Rain 10 1004 81 10000 5.1 210 13:19 21.11.2019
4024 Rain 10 1004 81 10000 5.1 210 13:19 21.11.2019
4025 Rain 10 1004 81 10000 5.1 210 12:54 21.11.2019
4026 Rain 10 1004 71 10000 6.2 200 12:36 21.11.2019
4027 Rain 11 1004 66 10000 5.7 190 12:18 21.11.2019
4028 Rain 11 1004 66 10000 6.7 180 11:40 21.11.2019
4029 Clouds 10 1004 66 10000 6.7 180 11:21 21.11.2019
4030 Clouds 10 1004 71 10000 5.1 190 10:57 21.11.2019
4031 Clouds 9 1004 81 10000 4.6 170 10:39 21.11.2019
4032 Clouds 8 1004 87 10000 5.7 170 10:20 21.11.2019
4033 Clouds 8 1004 81 10000 5.1 160 09:43 21.11.2019
4034 Clouds 8 1004 81 10000 5.1 160 09:23 21.11.2019
4035 Clouds 8 1004 87 10000 4.6 160 08:58 21.11.2019
4036 Clouds 8 1003 87 10000 4.6 160 08:39 21.11.2019
4037 Clouds 7 1004 93 10000 4.1 150 08:18 21.11.2019
4038 Clouds 7 1004 93 10000 4.1 150 07:40 21.11.2019
4039 Clouds 7 1004 93 10000 4.1 150 07:18 21.11.2019
4040 Rain 8 1004 93 10000 4.1 150 06:47 21.11.2019
4041 Rain 8 1004 93 10000 4.1 150 06:28 21.11.2019
4042 Drizzle 8 1004 93 10000 3.1 160 05:27 21.11.2019
4043 Rain 8 1004 87 10000 3.6 150 03:32 21.11.2019
4044 Rain 8 1004 87 10000 3.6 150 02:40 21.11.2019
4045 Rain 8 1005 81 10000 4.1 140 01:53 21.11.2019
4046 Rain 8 1004 87 10000 3.6 140 01:53 21.11.2019
4047 Clouds 8 1005 81 10000 4.1 140 01:23 21.11.2019
4048 Clouds 8 1005 87 10000 4.1 150 00:52 21.11.2019
4049 Clouds 8 1005 87 10000 4.6 150 00:20 21.11.2019
4050 Clouds 8 1005 87 10000 4.6 150 23:52 20.11.2019
4051 Clouds 8 1005 87 10000 4.6 150 23:24 20.11.2019
4052 Clouds 8 1005 87 10000 4.6 150 22:59 20.11.2019
4053 Clouds 8 1005 87 10000 3.6 140 22:41 20.11.2019
4054 Clouds 7 1005 87 10000 3.6 140 22:20 20.11.2019
4055 Clouds 7 1005 87 10000 3.1 140 21:59 20.11.2019
4056 Clouds 7 1005 87 10000 3.6 140 21:40 20.11.2019
4057 Clouds 7 1005 87 10000 2.6 150 21:22 20.11.2019
4058 Clouds 7 1006 87 10000 3.6 130 20:59 20.11.2019
4059 Clouds 7 1006 87 10000 3.6 130 20:41 20.11.2019
4060 Clouds 7 1006 87 10000 3.6 130 20:23 20.11.2019
4061 Clouds 7 1006 87 10000 3.6 140 19:59 20.11.2019
4062 Clouds 7 1006 87 10000 3.6 130 19:37 20.11.2019
4063 Clouds 7 1006 87 10000 3.6 130 19:37 20.11.2019
4064 Clouds 7 1006 87 10000 3.6 130 19:19 20.11.2019
4065 Clouds 7 1006 87 10000 3.6 120 18:59 20.11.2019
4066 Clouds 8 1006 81 10000 3.6 120 18:40 20.11.2019
4067 Clouds 8 1006 81 10000 3.6 120 18:22 20.11.2019
4068 Clouds 8 1006 81 10000 3.6 120 17:58 20.11.2019
4069 Clouds 9 1006 76 10000 3.1 120 17:39 20.11.2019
4070 Clouds 9 1006 76 10000 3.1 120 17:21 20.11.2019
4071 Clouds 10 1006 71 10000 2.1 120 16:57 20.11.2019
4072 Clouds 10 1006 71 10000 2.1 120 16:57 20.11.2019
4073 -273 0 0 0 0 0 16:39 20.11.2019
4074 Clouds 10 1006 71 10000 3.6 130 16:19 20.11.2019
4075 Clouds 10 1006 71 10000 3.1 130 16:19 20.11.2019
4076 Clouds 10 1006 71 10000 3.1 130 15:57 20.11.2019
4077 Clouds 11 1006 71 10000 3.6 120 15:38 20.11.2019
4078 Clouds 11 1006 71 10000 3.6 120 15:38 20.11.2019
4079 Clouds 11 1006 71 10000 3.6 120 15:19 20.11.2019
4080 Clouds 11 1007 66 10000 3.1 150 14:41 20.11.2019
4081 Clouds 11 1007 66 10000 3.1 150 14:22 20.11.2019
4082 Clouds 11 1007 66 10000 3.1 150 14:22 20.11.2019
4083 Clouds 11 1007 66 10000 3.1 150 14:22 20.11.2019
4084 Clouds 11 1007 66 10000 3.1 150 14:22 20.11.2019
4085 Clouds 11 1007 66 10000 3.1 150 14:22 20.11.2019
4086 Clouds 10 1007 66 10000 3.1 130 13:58 20.11.2019
4087 Clouds 10 1008 70 10000 4.1 120 13:39 20.11.2019
4088 Clouds 10 1008 70 10000 4.1 120 13:20 20.11.2019
4089 Clouds 9 1008 70 10000 3.1 140 12:57 20.11.2019
4090 Clouds 8 1009 70 10000 4.6 130 12:37 20.11.2019
4091 Clouds 7 1009 81 10000 4.6 130 12:19 20.11.2019
4092 Clouds 6 1009 86 10000 4.6 130 11:45 20.11.2019
4093 Clouds 5 1009 86 10000 4.6 130 11:22 20.11.2019
4094 Clouds 4 1009 86 10000 5.1 130 10:56 20.11.2019
4095 Clouds 4 1010 86 10000 4.1 120 10:38 20.11.2019
4096 Clouds 3 1010 93 8000 4.1 120 10:20 20.11.2019
4097 Clouds 3 1010 93 8000 4.1 120 09:55 20.11.2019
4098 Clouds 2 1010 93 6000 3.1 110 09:37 20.11.2019
4099 Clouds 1 1010 100 6000 2.6 110 09:18 20.11.2019
4100 Clouds 1 1010 100 6000 3.1 110 08:39 20.11.2019
4101 Clouds 1 1010 100 6000 3.6 110 08:21 20.11.2019
4102 Clouds 1 1010 100 6000 3.1 110 07:48 20.11.2019
4103 Clouds 1 1010 100 6000 2.6 100 07:28 20.11.2019
4104 Clouds 1 1010 100 6000 2.6 100 06:50 20.11.2019
4105 Mist 1 1010 100 3100 1 110 06:22 20.11.2019
4106 Mist 1 1010 100 3100 1 110 05:51 20.11.2019
4107 Mist 1 1012 100 5000 2.1 80 03:45 20.11.2019
4108 Mist 2 1013 87 5000 1 40 02:22 20.11.2019
4109 Mist 2 1013 93 5000 2.51 109 01:33 20.11.2019
4110 Clouds 3 1014 93 8000 1.5 130 00:42 20.11.2019
4111 Clouds 3 1014 86 10000 2.1 110 23:57 19.11.2019
4112 Clouds 3 1014 93 10000 3.6 100 23:27 19.11.2019
4113 Clouds 3 1015 93 8000 1.5 100 22:59 19.11.2019
4114 Clouds 3 1015 93 8000 2.73 78 22:41 19.11.2019
4115 Clouds 3 1015 93 8000 2.73 78 22:19 19.11.2019
4116 Clouds 4 1015 86 9000 1 0 22:19 19.11.2019
4117 Clouds 3 1015 93 8000 2.73 78 22:19 19.11.2019
4118 Clouds 4 1015 86 9000 1 0 21:57 19.11.2019
4119 Clouds 4 1015 86 10000 1.5 110 21:38 19.11.2019
4120 Clouds 4 1015 93 10000 3.1 80 21:19 19.11.2019
4121 Clouds 4 1015 86 10000 1.5 110 21:19 19.11.2019
4122 Clouds 4 1015 93 10000 3.1 80 20:56 19.11.2019
4123 Clouds 4 1016 93 10000 1.5 90 20:38 19.11.2019
4124 Clouds 4 1016 93 10000 1.5 90 20:19 19.11.2019
4125 Clouds 4 1016 86 10000 1.5 0 19:56 19.11.2019
4126 Clouds 5 1016 80 10000 1 100 19:38 19.11.2019
4127 Clouds 5 1016 75 10000 2.6 100 19:19 19.11.2019
4128 Clouds 6 1016 75 10000 2.6 100 18:55 19.11.2019
4129 Clouds 6 1016 70 10000 2.1 100 18:36 19.11.2019
4130 Clouds 7 1016 66 10000 3.1 110 18:18 19.11.2019
4131 Clouds 7 1016 66 10000 3.1 110 18:18 19.11.2019
4132 Clouds 8 1016 66 10000 3.1 110 17:55 19.11.2019
4133 Clouds 8 1016 66 10000 4.1 100 17:55 19.11.2019
4134 Clouds 8 1016 66 10000 4.1 100 17:36 19.11.2019
4135 Clouds 9 1016 57 10000 3.6 100 17:18 19.11.2019
4136 Clouds 10 1016 53 10000 3.1 120 16:42 19.11.2019
4137 Clouds 10 1016 53 10000 3.1 120 16:22 19.11.2019
4138 Clouds 10 1017 53 10000 2.6 130 15:54 19.11.2019
4139 Clouds 10 1017 57 10000 2.1 140 15:36 19.11.2019
4140 Clouds 10 1017 57 10000 2.1 140 15:36 19.11.2019
4141 Clouds 10 1017 57 10000 2.1 150 15:18 19.11.2019
4142 Clouds 10 1017 57 10000 2.1 150 14:54 19.11.2019
4143 Clouds 10 1017 53 10000 2.6 150 14:36 19.11.2019
4144 Clouds 10 1017 53 10000 2.6 150 14:36 19.11.2019
4145 Clear 10 1017 53 10000 2.6 150 14:18 19.11.2019
4146 Clear 10 1018 53 10000 2.6 170 13:39 19.11.2019
4147 Clear 10 1018 53 10000 2.6 170 13:39 19.11.2019
4148 Clear 10 1018 57 10000 2.1 170 13:18 19.11.2019
4149 Clear 9 1019 61 10000 2.1 160 12:40 19.11.2019
4150 Clear 9 1019 61 10000 2.1 160 12:40 19.11.2019
4151 Clear 9 1019 61 10000 2.1 160 12:21 19.11.2019
4152 Clear 8 1019 61 10000 1.5 150 11:57 19.11.2019
4153 Clear 7 1019 70 10000 2.6 130 11:37 19.11.2019
4154 Clear 6 1019 70 10000 2.6 130 11:19 19.11.2019
4155 Clear 4 1019 86 10000 1.5 120 10:45 19.11.2019
4156 Clear 3 1019 86 10000 1.5 140 10:22 19.11.2019
4157 Clear 2 1019 86 10000 1.5 140 09:56 19.11.2019
4158 Clear 1 1019 100 10000 1 130 09:38 19.11.2019
4159 Clear 0 1019 76 10000 2.6 110 09:18 19.11.2019
4160 Clear 0 1019 76 9000 1 0 08:40 19.11.2019
4161 Clear 0 1019 100 10000 1.5 90 08:22 19.11.2019
4162 Clear 0 1019 100 10000 1.5 90 08:22 19.11.2019
4163 Clear 0 1019 100 10000 1.5 90 07:56 19.11.2019
4164 Clear 0 1019 100 10000 1 120 07:37 19.11.2019
4165 Clear 0 1019 100 8000 1 130 07:19 19.11.2019
4166 Clear 0 1019 100 10000 1.05 176 06:44 19.11.2019
4167 Clear 0 1019 100 10000 1.05 176 06:24 19.11.2019
4168 Clear 1 1019 84 10000 0.5 110 05:19 19.11.2019
4169 Clear 2 1019 84 7000 0.5 270 03:41 19.11.2019
4170 Clear 2 1019 84 7000 0.5 270 03:20 19.11.2019
4171 Clear 2 1019 84 10000 1 130 02:50 19.11.2019
4172 Clear 2 1019 82 10000 0.5 110 01:58 19.11.2019
4173 Clear 2 1019 83 10000 0.56 154 00:51 19.11.2019
4174 Clear 3 1019 100 10000 0.5 240 00:21 19.11.2019
4175 Clear 3 1019 93 10000 1.5 220 23:41 18.11.2019
4176 Clouds 3 1019 93 10000 1.5 220 23:20 18.11.2019
4177 Clouds 3 1019 93 10000 2.1 250 23:20 18.11.2019
4178 Clouds 3 1019 93 10000 1.5 260 22:48 18.11.2019
4179 Clouds 3 1019 93 10000 1.5 260 22:24 18.11.2019
4180 Clouds 4 1019 93 10000 1 220 21:59 18.11.2019
4181 Clouds 4 1019 93 10000 1.5 220 21:40 18.11.2019
4182 Clouds 4 1019 93 10000 1.5 220 21:40 18.11.2019
4183 Clouds 4 1019 93 10000 1.5 250 21:21 18.11.2019
4184 Clouds 5 1019 86 10000 2.1 240 20:59 18.11.2019
4185 Clouds 5 1019 86 10000 2.1 240 20:41 18.11.2019
4186 Clouds 5 1018 86 10000 1.5 240 20:19 18.11.2019
4187 Clouds 5 1018 86 10000 1.5 240 19:58 18.11.2019
4188 Clouds 5 1018 86 10000 1 230 19:38 18.11.2019
4189 Clouds 6 1018 75 10000 1 190 19:20 18.11.2019
4190 Clouds 6 1018 75 10000 1 190 18:56 18.11.2019
4191 Clouds 6 1018 70 10000 1.5 270 18:38 18.11.2019
4192 Clouds 7 1018 61 10000 1.5 280 18:19 18.11.2019
4193 Clouds 7 1018 61 10000 1.5 280 17:56 18.11.2019
4194 Clouds 8 1018 61 10000 0.5 290 17:37 18.11.2019
4195 Clouds 8 1018 61 10000 0.5 290 17:19 18.11.2019
4196 Clouds 8 1017 64 10000 1.5 0 17:19 18.11.2019
4197 Clouds 8 1017 64 10000 1 0 16:42 18.11.2019
4198 Clouds 8 1017 64 10000 1 0 16:24 18.11.2019
4199 Clouds 8 1017 64 10000 1.5 0 15:58 18.11.2019
4200 Clouds 9 1017 61 10000 1 0 15:39 18.11.2019
4201 Clouds 9 1017 61 10000 1 0 15:39 18.11.2019
4202 Clouds 8 1017 61 10000 1.5 350 15:20 18.11.2019
4203 Clouds 8 1017 61 10000 1 0 15:20 18.11.2019
4204 Clouds 9 1017 61 10000 1.5 350 14:56 18.11.2019
4205 Clouds 9 1017 64 10000 2.1 360 14:37 18.11.2019
4206 Clouds 8 1017 62 10000 1.5 0 14:18 18.11.2019
4207 Clouds 9 1016 65 10000 1.5 330 13:42 18.11.2019
4208 Clouds 9 1016 65 10000 1.5 330 13:23 18.11.2019
4209 Clouds 8 1016 65 10000 1.5 20 12:40 18.11.2019
4210 Clouds 8 1017 75 10000 1.5 360 12:20 18.11.2019
4211 Clouds 8 1017 75 10000 1.5 360 11:56 18.11.2019
4212 Clouds 7 1016 81 10000 1.5 0 11:37 18.11.2019
4213 Clouds 7 1016 81 10000 1.5 0 11:19 18.11.2019
4214 Clouds 7 1016 87 10000 1.5 310 10:42 18.11.2019
4215 Clouds 7 1016 87 10000 1.5 310 10:42 18.11.2019
4216 Clouds 6 1016 87 10000 1.5 310 10:23 18.11.2019
4217 Clouds 6 1015 87 10000 1.5 0 09:57 18.11.2019
4218 Clouds 6 1015 87 10000 1.5 0 09:38 18.11.2019
4219 Clouds 6 1015 87 10000 2.1 320 09:19 18.11.2019
4220 Clouds 6 1015 87 10000 2.1 320 09:19 18.11.2019
4221 Clouds 6 1014 87 10000 1.5 0 08:47 18.11.2019
4222 Clouds 6 1014 87 10000 1.5 0 08:24 18.11.2019
4223 Clouds 6 1014 87 10000 2.1 350 07:55 18.11.2019
4224 Clouds 6 1014 87 10000 2.6 360 07:37 18.11.2019
4225 Clouds 6 1013 87 10000 3.1 360 07:19 18.11.2019
4226 Clouds 6 1013 87 10000 3.6 360 06:41 18.11.2019
4227 Clouds 6 1013 87 10000 3.6 360 06:21 18.11.2019
4228 Clouds 6 1012 87 10000 2.6 350 05:26 18.11.2019
4229 Clouds 6 1011 93 10000 2.6 330 03:40 18.11.2019
4230 Clouds 5 1011 93 9000 3.1 10 01:39 18.11.2019
4231 Clouds 5 1010 93 7000 2.1 360 00:53 18.11.2019
4232 Clouds 5 1010 93 6000 2.6 360 00:18 18.11.2019
4233 Clouds 5 1010 93 6000 2.6 20 23:40 17.11.2019
4234 Clouds 5 1010 93 6000 2.6 20 23:21 17.11.2019
4235 Mist 5 1010 93 4500 2.1 10 22:57 17.11.2019
4236 Mist 6 1009 100 4300 2.1 10 22:38 17.11.2019
4237 Mist 6 1009 100 5000 2.6 20 22:20 17.11.2019
4238 Clouds 6 1009 93 6000 2.6 30 21:42 17.11.2019
4239 Clouds 6 1009 93 7000 2.1 50 21:20 17.11.2019
4240 Clouds 6 1009 93 7000 2.1 50 20:59 17.11.2019
4241 Clouds 6 1009 93 7000 2.1 70 20:40 17.11.2019
4242 Clouds 6 1008 93 8000 2.1 50 20:20 17.11.2019
4243 Clouds 6 1008 93 8000 2.1 50 19:57 17.11.2019
4244 Clouds 6 1008 93 7000 2.6 40 19:39 17.11.2019
4245 Clouds 6 1008 93 7000 2.6 40 19:39 17.11.2019
4246 Clouds 7 1008 93 7000 3.1 50 19:20 17.11.2019
4247 Clouds 7 1008 93 7000 2.6 40 19:20 17.11.2019
4248 Clouds 6 1008 93 7000 3.1 50 18:57 17.11.2019
4249 Clouds 6 1008 93 7000 3.1 50 18:57 17.11.2019
4250 Clouds 6 1008 93 7000 3.1 50 18:57 17.11.2019
4251 Drizzle 7 1008 93 9000 4.1 50 18:39 17.11.2019
4252 Rain 7 1008 93 10000 3.1 70 18:19 17.11.2019
4253 Rain 7 1008 93 10000 3.1 70 17:58 17.11.2019
4254 Rain 7 1008 93 10000 3.1 70 17:58 17.11.2019
4255 Clouds 7 1008 87 10000 2.6 100 17:40 17.11.2019
4256 Clouds 8 1008 87 10000 3.6 80 17:21 17.11.2019
4257 Clouds 8 1007 87 10000 3.6 80 16:59 17.11.2019
4258 Clouds 8 1007 87 10000 3.6 80 16:41 17.11.2019
4259 Clouds 8 1007 87 10000 3.6 80 16:21 17.11.2019
4260 Clouds 8 1008 93 10000 3.1 80 15:57 17.11.2019
4261 Clouds 8 1008 93 10000 3.1 100 15:39 17.11.2019
4262 Clouds 8 1008 93 10000 3.1 110 15:19 17.11.2019
4263 Clouds 8 1008 93 10000 3.1 110 14:57 17.11.2019
4264 Clouds 8 1008 100 10000 2.1 120 14:38 17.11.2019
4265 Clouds 8 1008 100 10000 2.1 120 14:20 17.11.2019
4266 Clouds 8 1008 93 8000 2.6 110 13:58 17.11.2019
4267 Clouds 7 1008 93 9000 2.6 100 13:39 17.11.2019
4268 Clouds 7 1008 100 9000 2.1 100 13:19 17.11.2019
4269 Clouds 7 1009 100 9000 1.5 0 12:45 17.11.2019
4270 Clouds 7 1009 100 9000 1.5 0 12:23 17.11.2019
4271 Clouds 6 1009 93 7000 1.5 0 11:58 17.11.2019
4272 Clouds 6 1009 100 6000 2.6 110 11:39 17.11.2019
4273 Mist 6 1009 100 4800 2.1 110 11:20 17.11.2019
4274 Mist 5 1009 100 4000 2.6 130 10:45 17.11.2019
4275 Mist 5 1009 100 4000 2.6 130 10:24 17.11.2019
4276 Mist 5 1009 100 3400 1 0 09:58 17.11.2019
4277 Fog 5 1009 100 700 1.5 110 09:40 17.11.2019
4278 Fog 5 1009 100 700 1.5 110 09:40 17.11.2019
4279 Fog 4 1009 100 550 1.5 110 09:22 17.11.2019
4280 Fog 4 1009 100 750 2.1 110 08:41 17.11.2019
4281 Fog 4 1009 100 750 2.1 110 08:23 17.11.2019
4282 Fog 4 1009 100 1100 1.5 110 07:56 17.11.2019
4283 Fog 4 1009 100 2000 2.1 110 07:37 17.11.2019
4284 Mist 4 1009 100 2500 1 110 07:19 17.11.2019
4285 Mist 4 1009 93 1900 1.52 106 06:46 17.11.2019
4286 Mist 4 1009 93 1900 1.52 106 06:27 17.11.2019
4287 Fog 4 1009 93 800 1 310 04:38 17.11.2019
4288 Fog 4 1009 93 700 1 260 03:53 17.11.2019
4289 Fog 5 1009 100 700 1.5 250 03:33 17.11.2019
4290 Fog 5 1009 100 1600 1 260 02:36 17.11.2019
4291 Fog 5 1009 100 750 1.5 0 01:43 17.11.2019
4292 Fog 5 1009 100 1100 1.5 220 00:55 17.11.2019
4293 Clouds 5 1009 93 10000 3.1 220 00:23 17.11.2019
4294 Clouds 6 1009 100 10000 2.6 220 23:52 16.11.2019
4295 Clouds 6 1009 100 10000 2.6 220 23:20 16.11.2019
4296 Clouds 6 1009 93 10000 3.1 230 22:59 16.11.2019
4297 Clouds 6 1009 100 10000 2.6 230 22:41 16.11.2019
4298 Rain 6 1009 93 10000 1.5 240 22:19 16.11.2019
4299 Rain 7 1009 93 10000 1.5 240 21:56 16.11.2019
4300 Clouds 7 1009 100 10000 1.5 240 21:38 16.11.2019
4301 Clouds 7 1008 93 10000 1.5 230 21:19 16.11.2019
4302 Clouds 7 1008 93 10000 1.5 230 20:43 16.11.2019
4303 Rain 7 1008 93 10000 1.5 230 20:21 16.11.2019
4304 Clouds 7 1008 93 10000 2.6 220 19:59 16.11.2019
4305 Rain 7 1008 93 10000 2.6 220 19:40 16.11.2019
4306 Rain 7 1008 93 10000 2.6 220 19:21 16.11.2019
4307 Clouds 7 1007 93 10000 3.1 220 18:47 16.11.2019
4308 -273 0 0 0 0 0 18:29 16.11.2019
4309 Rain 8 1007 93 10000 1.5 200 17:57 16.11.2019
4310 Rain 8 1007 93 9000 3.6 250 17:39 16.11.2019
4311 Rain 8 1007 87 10000 1.5 210 17:19 16.11.2019
4312 Rain 9 1006 81 10000 1.5 0 16:48 16.11.2019
4313 Rain 9 1006 81 10000 1.5 290 16:30 16.11.2019
4314 Rain 9 1006 81 10000 1.5 290 15:59 16.11.2019
4315 Rain 9 1006 87 10000 2.6 260 15:41 16.11.2019
4316 Rain 9 1006 87 10000 3.39 289 15:21 16.11.2019
4317 Rain 9 1006 87 10000 3.39 289 14:58 16.11.2019
4318 Rain 9 1006 87 10000 1.5 360 14:39 16.11.2019
4319 Rain 9 1005 93 10000 4.1 0 14:21 16.11.2019
4320 Rain 9 1005 93 10000 4.1 0 13:55 16.11.2019
4321 Rain 9 1005 93 10000 5.1 180 13:37 16.11.2019
4322 Rain 9 1006 100 10000 5.1 180 13:18 16.11.2019
4323 Rain 9 1006 100 10000 5.1 180 13:18 16.11.2019
4324 Rain 8 1006 93 10000 3.1 170 12:42 16.11.2019
4325 Rain 8 1006 93 10000 3.1 170 12:23 16.11.2019
4326 Rain 8 1006 93 10000 2.1 210 11:56 16.11.2019
4327 Rain 8 1006 100 10000 3.1 200 11:38 16.11.2019
4328 Rain 8 1006 100 10000 3.1 200 11:38 16.11.2019
4329 Rain 8 1006 100 10000 3.1 200 11:19 16.11.2019
4330 Rain 7 1006 100 10000 3.1 190 10:43 16.11.2019
4331 Rain 7 1006 100 10000 3.1 190 10:25 16.11.2019
4332 Rain 8 1006 93 7000 3.6 200 09:59 16.11.2019
4333 Rain 7 1006 93 10000 2.6 210 09:59 16.11.2019
4334 Rain 8 1006 93 7000 3.6 200 09:40 16.11.2019
4335 Rain 7 1006 93 7000 3.6 200 09:19 16.11.2019
4336 Rain 7 1006 93 10000 2.1 180 08:41 16.11.2019
4337 Rain 7 1006 93 7000 4.6 190 08:20 16.11.2019
4338 Rain 7 1006 93 7000 0.5 210 07:46 16.11.2019
4339 Rain 7 1006 93 7000 0.5 210 07:22 16.11.2019
4340 Rain 7 1006 93 7000 0.5 210 07:22 16.11.2019
4341 Rain 7 1006 93 7000 3.1 250 06:59 16.11.2019
4342 Clouds 7 1005 87 10000 3.6 240 06:41 16.11.2019
4343 Clouds 7 1005 93 10000 5.7 190 06:19 16.11.2019
4344 Rain 7 1006 93 10000 3.6 200 04:21 16.11.2019
4345 Clouds 7 1006 93 10000 3.6 190 04:21 16.11.2019
4346 Rain 7 1006 93 10000 4.6 210 03:26 16.11.2019
4347 Drizzle 6 1006 93 10000 4.1 210 02:36 16.11.2019
4348 Clouds 6 1006 93 10000 3.1 220 01:38 16.11.2019
4349 Clouds 6 1006 86 10000 3.6 220 00:48 16.11.2019
4350 Clouds 6 1006 86 10000 3.6 220 00:29 16.11.2019
4351 Rain 5 1006 93 10000 3.6 220 23:44 15.11.2019
4352 Clouds 5 1006 93 10000 3.6 220 23:25 15.11.2019
4353 Clouds 5 1006 93 10000 3.1 220 22:59 15.11.2019
4354 Clouds 5 1005 93 10000 3.1 220 22:39 15.11.2019
4355 Clouds 4 1005 93 10000 3.1 220 22:19 15.11.2019
4356 Clouds 4 1005 93 10000 2.6 230 21:55 15.11.2019
4357 Clouds 4 1005 93 6000 2.1 230 21:37 15.11.2019
4358 Clouds 4 1005 93 6000 2.1 230 21:19 15.11.2019
4359 Clouds 4 1005 93 8000 2.1 250 20:56 15.11.2019
4360 Clouds 5 1005 93 10000 1.5 270 20:37 15.11.2019
4361 Clouds 5 1004 93 10000 1.5 260 20:19 15.11.2019
4362 Clouds 5 1004 93 10000 1.5 260 19:56 15.11.2019
4363 Clouds 6 1004 87 10000 2.1 250 19:37 15.11.2019
4364 Clouds 6 1004 87 10000 1.5 270 19:18 15.11.2019
4365 Clouds 6 1003 87 10000 2.6 250 18:42 15.11.2019
4366 Clouds 6 1003 87 10000 2.6 250 18:24 15.11.2019
4367 Clouds 7 1003 87 10000 2.1 260 17:57 15.11.2019
4368 Clouds 7 1003 87 10000 1.5 0 17:39 15.11.2019
4369 Clouds 7 1003 87 10000 1.5 0 17:20 15.11.2019
4370 Clouds 8 1002 75 10000 3.6 310 16:40 15.11.2019
4371 Clouds 8 1002 75 10000 3.6 310 16:22 15.11.2019
4372 Clouds 8 1002 75 10000 2.6 320 16:00 15.11.2019
4373 Clouds 8 1002 75 10000 2.6 320 16:00 15.11.2019
4374 Clouds 8 1002 75 10000 2.6 320 16:00 15.11.2019
4375 Clouds 8 1002 75 10000 3.1 330 15:37 15.11.2019
4376 Clouds 8 1002 75 10000 3.1 330 15:18 15.11.2019
4377 Clouds 8 1001 81 10000 4.1 10 14:55 15.11.2019
4378 Clouds 8 1001 81 10000 4.1 10 14:37 15.11.2019
4379 Clouds 7 1001 81 10000 3.6 10 14:18 15.11.2019
4380 Clouds 7 1001 81 10000 4.1 360 13:55 15.11.2019
4381 Clouds 7 1001 81 10000 4.1 360 13:55 15.11.2019
4382 Clouds 7 1001 81 10000 4.1 360 13:36 15.11.2019
4383 Clouds 7 1001 87 10000 3.6 20 13:18 15.11.2019
4384 Clouds 7 1001 87 10000 3.6 20 12:56 15.11.2019
4385 Clouds 6 1001 93 10000 3.6 360 12:37 15.11.2019
4386 Clouds 6 1001 93 10000 3.6 360 12:18 15.11.2019
4387 Clouds 6 1001 93 10000 3.6 360 12:18 15.11.2019
4388 Clouds 6 1000 93 10000 3.6 10 11:40 15.11.2019
4389 Clouds 6 1000 93 10000 3.6 10 11:40 15.11.2019
4390 Clouds 6 1000 93 10000 3.6 10 11:21 15.11.2019
4391 Clouds 6 1000 93 10000 4.1 10 10:59 15.11.2019
4392 Clouds 6 1000 93 10000 4.1 10 10:59 15.11.2019
4393 Clouds 5 999 100 10000 3.1 60 10:39 15.11.2019
4394 Clouds 5 999 100 9000 2.6 30 10:20 15.11.2019
4395 Clouds 5 999 100 7000 3.6 40 09:41 15.11.2019
4396 Clouds 5 999 100 7000 3.6 40 09:21 15.11.2019
4397 Clouds 5 999 100 7000 2.6 50 08:58 15.11.2019
4398 Clouds 5 998 93 9000 2.1 60 08:39 15.11.2019
4399 Clouds 5 998 100 10000 3.1 50 08:20 15.11.2019
4400 Clouds 4 998 100 8000 2.6 100 07:42 15.11.2019
4401 Rain 4 997 100 7000 3.1 110 07:23 15.11.2019
4402 Rain 4 997 100 6000 2.1 100 06:36 15.11.2019
4403 Rain 4 997 100 6000 1.5 100 05:54 15.11.2019
4404 Mist 4 997 100 5000 2.1 120 05:35 15.11.2019
4405 Mist 4 997 100 3900 1.5 120 04:53 15.11.2019
4406 Mist 4 998 100 3900 2.1 120 03:39 15.11.2019
4407 Fog 3 998 100 800 1.5 120 02:34 15.11.2019
4408 Fog 3 998 100 1500 1.5 0 01:55 15.11.2019
4409 Mist 3 998 93 2500 2.1 160 01:32 15.11.2019
4410 Fog 3 998 93 1000 1 140 00:40 15.11.2019
4411 Fog 3 998 100 1200 1 180 00:21 15.11.2019
4412 Fog 4 998 100 2600 1 0 23:46 14.11.2019
4413 Mist 4 998 100 3100 1 140 23:26 14.11.2019
4414 Fog 4 998 93 10000 1 0 22:42 14.11.2019
4415 Fog 4 998 93 10000 1 0 22:23 14.11.2019
4416 Fog 4 998 93 10000 0.53 214 21:58 14.11.2019
4417 Clouds 4 997 100 10000 1 0 21:40 14.11.2019
4418 Clouds 4 997 100 10000 1 0 21:40 14.11.2019
4419 Clouds 4 997 100 10000 1 0 21:40 14.11.2019
4420 Rain 5 997 100 7000 1.5 260 21:22 14.11.2019
4421 Rain 5 997 100 7000 1.5 260 20:55 14.11.2019
4422 Rain 5 997 93 10000 1.5 220 20:37 14.11.2019
4423 Rain 5 997 93 10000 2.1 210 20:18 14.11.2019
4424 Rain 5 997 93 10000 2.1 210 19:55 14.11.2019
4425 Clouds 5 997 100 10000 3.1 210 19:36 14.11.2019
4426 Clouds 6 997 93 10000 2.1 200 19:18 14.11.2019
4427 Clouds 6 997 93 10000 2.6 240 18:42 14.11.2019
4428 Rain 6 996 93 10000 4.6 190 18:23 14.11.2019
4429 Rain 6 996 93 10000 4.6 190 17:57 14.11.2019
4430 Rain 7 996 100 10000 5.1 190 17:38 14.11.2019
4431 Rain 7 996 87 10000 5.1 170 17:20 14.11.2019
4432 Rain 7 996 87 10000 5.1 170 16:58 14.11.2019
4433 Rain 7 996 93 10000 5.7 170 16:37 14.11.2019
4434 Rain 7 996 93 10000 4.6 190 16:19 14.11.2019
4435 Rain 7 996 93 10000 4.6 190 16:19 14.11.2019
4436 Rain 7 996 93 10000 4.1 190 15:58 14.11.2019
4437 Rain 7 996 93 10000 4.1 190 15:38 14.11.2019
4438 Rain 7 996 93 10000 4.1 190 15:20 14.11.2019
4439 Rain 7 997 93 10000 4.1 160 14:46 14.11.2019
4440 Rain 7 997 93 10000 4.1 160 14:23 14.11.2019
4441 Rain 8 997 100 6000 6.7 220 13:58 14.11.2019
4442 Rain 7 997 93 3000 7.2 200 13:39 14.11.2019
4443 Rain 8 997 87 10000 7.2 200 13:20 14.11.2019
4444 Rain 9 997 87 10000 7.2 200 12:56 14.11.2019
4445 Rain 8 997 87 10000 6.2 190 12:37 14.11.2019
4446 Rain 8 998 87 10000 5.1 170 12:19 14.11.2019
4447 Rain 8 998 87 10000 5.1 170 11:54 14.11.2019
4448 Clouds 8 998 93 10000 5.1 170 11:36 14.11.2019
4449 Rain 8 998 93 10000 6.2 170 11:18 14.11.2019
4450 Rain 8 999 93 10000 4.6 170 10:41 14.11.2019
4451 Rain 8 999 93 10000 4.6 170 10:20 14.11.2019
4452 Clouds 7 999 93 10000 3.1 150 09:57 14.11.2019
4453 Rain 7 999 93 10000 2.6 150 09:39 14.11.2019
4454 Rain 7 999 87 9000 2.6 330 09:21 14.11.2019
4455 Rain 7 999 87 9000 2.6 330 08:48 14.11.2019
4456 Rain 7 999 87 9000 2.6 330 08:26 14.11.2019
4457 Rain 7 999 87 10000 3.1 190 07:57 14.11.2019
4458 Rain 9 999 93 10000 3.1 190 07:38 14.11.2019
4459 Rain 8 998 93 10000 2.1 180 07:19 14.11.2019
4460 Rain 8 999 93 10000 1.5 190 06:43 14.11.2019
4461 Clouds 9 998 87 10000 2.1 190 06:19 14.11.2019
4462 Rain 8 998 93 10000 3.1 190 04:42 14.11.2019
4463 Rain 8 998 78 0 3.99 260 04:23 14.11.2019
4464 Rain 9 999 93 10000 2.1 260 02:47 14.11.2019
4465 Rain 9 999 93 10000 2.1 260 02:25 14.11.2019
4466 Rain 9 1000 93 7000 8.2 300 01:33 14.11.2019
4467 Rain 9 1000 93 7000 8.2 310 00:53 14.11.2019
4468 Rain 11 999 93 5000 4.6 250 00:30 14.11.2019
4469 Rain 11 1000 93 10000 6.2 190 23:42 13.11.2019
4470 Rain 11 1000 93 10000 6.2 190 23:22 13.11.2019
4471 Rain 11 1001 93 9000 6.2 180 22:57 13.11.2019
4472 Rain 11 1001 93 10000 4.1 210 22:39 13.11.2019
4473 Rain 10 1001 93 10000 4.1 210 22:21 13.11.2019
4474 Rain 10 1002 93 8000 5.1 180 21:56 13.11.2019
4475 Rain 10 1003 93 10000 4.6 170 21:38 13.11.2019
4476 Rain 10 1003 93 10000 4.6 170 21:19 13.11.2019
4477 Rain 10 1004 87 8000 4.1 190 20:57 13.11.2019
4478 Rain 10 1005 87 10000 5.1 180 20:37 13.11.2019
4479 Rain 10 1005 87 10000 5.1 180 20:37 13.11.2019
4480 Rain 10 1005 87 10000 5.1 180 20:37 13.11.2019
4481 Rain 10 1005 87 10000 5.1 180 20:37 13.11.2019
4482 Clouds 10 1006 87 10000 4.6 180 20:19 13.11.2019
4483 Clouds 10 1006 87 10000 4.1 170 19:44 13.11.2019
4484 Rain 10 1007 87 8000 5.1 200 19:20 13.11.2019
4485 Rain 10 1007 87 8000 5.1 200 18:58 13.11.2019
4486 Rain 10 1007 87 8000 5.1 200 18:58 13.11.2019
4487 Clouds 10 1007 81 10000 5.1 180 18:39 13.11.2019
4488 Clouds 10 1007 81 10000 5.1 180 18:21 13.11.2019
4489 Clouds 10 1008 81 10000 4.6 190 17:58 13.11.2019
4490 Clouds 10 1008 76 10000 4.1 190 17:40 13.11.2019
4491 Clouds 11 1008 71 10000 4.1 200 17:22 13.11.2019
4492 Clouds 11 1008 71 10000 4.1 200 17:22 13.11.2019
4493 Clouds 11 1008 71 10000 4.1 200 16:58 13.11.2019
4494 Clouds 11 1009 66 10000 4.6 220 16:40 13.11.2019
4495 Clouds 11 1009 66 10000 4.6 220 16:39 13.11.2019
4496 Clouds 12 1009 66 10000 4.6 220 16:21 13.11.2019
4497 Clouds 11 1009 62 10000 5.7 220 15:58 13.11.2019
4498 Clouds 11 1009 62 10000 5.1 230 15:39 13.11.2019
4499 Clouds 11 1010 66 10000 4.1 220 15:20 13.11.2019
4500 Clouds 11 1010 66 10000 4.1 220 15:20 13.11.2019
4501 Clouds 12 1010 58 10000 3.6 230 14:43 13.11.2019
4502 Clouds 12 1010 62 10000 2.6 230 14:22 13.11.2019
4503 Clouds 12 1010 62 10000 4.1 240 13:58 13.11.2019
4504 Clouds 12 1010 62 10000 4.1 240 13:36 13.11.2019
4505 Clouds 12 1011 62 10000 2.1 250 13:18 13.11.2019
4506 Clouds 11 1011 62 10000 2.1 250 12:54 13.11.2019
4507 Clouds 11 1011 57 10000 1.5 220 12:36 13.11.2019
4508 Clouds 11 1011 62 10000 1 0 12:18 13.11.2019
4509 Clouds 10 1011 81 10000 1 0 11:40 13.11.2019
4510 Clouds 9 1010 87 10000 1.5 0 11:20 13.11.2019
4511 Clouds 8 1010 100 10000 1 0 10:58 13.11.2019
4512 Clouds 8 1010 100 10000 1 0 10:40 13.11.2019
4513 Clouds 8 1010 100 10000 1 0 10:19 13.11.2019
4514 Clouds 7 1010 100 10000 2.14 328 09:45 13.11.2019
4515 Clouds 7 1010 100 10000 2.14 328 09:24 13.11.2019
4516 Clouds 7 1009 93 10000 1 0 08:59 13.11.2019
4517 Fog 7 1009 100 10000 1.5 20 08:37 13.11.2019
4518 Clouds 6 1009 93 10000 1.5 20 08:19 13.11.2019
4519 Clouds 7 1008 100 10000 2.1 10 07:42 13.11.2019
4520 Clouds 7 1008 100 10000 2.1 10 07:42 13.11.2019
4521 Clouds 7 1008 100 10000 2.1 10 07:20 13.11.2019
4522 Clouds 7 1008 93 10000 2.6 360 06:46 13.11.2019
4523 Clouds 7 1008 93 10000 2.6 360 06:19 13.11.2019
4524 Clouds 8 1007 93 10000 2.6 10 06:19 13.11.2019
4525 Clouds 8 1007 93 10000 2.6 10 05:53 13.11.2019
4526 Clouds 8 1007 93 10000 3.1 340 05:31 13.11.2019
4527 Clouds 8 1007 93 10000 1.5 340 04:27 13.11.2019
4528 Clouds 9 1007 93 10000 1.5 60 02:18 13.11.2019
4529 Clouds 9 1006 93 10000 2.1 70 01:41 13.11.2019
4530 Clouds 9 1007 93 10000 2.6 30 00:44 13.11.2019
4531 Clouds 9 1007 93 10000 2.6 30 00:44 13.11.2019
4532 Rain 9 1007 93 9000 1.36 51 00:19 13.11.2019
4533 Rain 10 1007 93 10000 1 230 23:41 12.11.2019
4534 Rain 10 1007 93 10000 1 230 23:41 12.11.2019
4535 Rain 10 1007 93 10000 1 230 23:21 12.11.2019
4536 Rain 10 1007 93 6000 1.5 0 22:54 12.11.2019
4537 Clouds 10 1007 93 10000 1.5 220 22:36 12.11.2019
4538 Clouds 10 1007 93 10000 1.5 220 22:18 12.11.2019
4539 Clouds 10 1007 93 10000 2.6 230 21:43 12.11.2019
4540 Clouds 10 1007 93 10000 2.6 230 21:24 12.11.2019
4541 Clouds 10 1007 93 10000 2.6 230 20:57 12.11.2019
4542 Clouds 10 1007 87 10000 2.6 230 20:37 12.11.2019
4543 Clouds 10 1007 87 10000 2.6 230 20:19 12.11.2019
4544 Clouds 10 1007 100 10000 2.6 220 19:57 12.11.2019
4545 Clouds 11 1008 87 10000 2.1 220 19:38 12.11.2019
4546 Clouds 11 1008 87 10000 2.6 250 19:19 12.11.2019
4547 Clouds 11 1008 87 10000 2.6 250 18:58 12.11.2019
4548 Clouds 11 1008 93 10000 1.5 0 18:39 12.11.2019
4549 Clouds 11 1008 93 10000 2.1 240 18:21 12.11.2019
4550 Clouds 11 1008 93 10000 2.1 240 18:21 12.11.2019
4551 Clouds 11 1008 93 10000 2.1 240 17:56 12.11.2019
4552 Clouds 12 1009 93 10000 2.1 250 17:37 12.11.2019
4553 Clouds 12 1009 93 10000 2.1 250 17:19 12.11.2019
4554 Rain 12 1009 81 10000 3.1 300 16:44 12.11.2019
4555 Rain 13 1009 81 10000 3.1 300 16:25 12.11.2019
4556 Rain 12 1009 87 10000 3.6 310 15:58 12.11.2019
4557 Rain 13 1010 76 10000 7.7 290 15:39 12.11.2019
4558 Rain 14 1009 71 10000 5.1 270 15:20 12.11.2019
4559 Rain 14 1009 71 10000 5.1 270 14:55 12.11.2019
4560 Rain 13 1010 87 10000 4.1 260 14:36 12.11.2019
4561 Rain 13 1010 87 10000 4.1 260 14:36 12.11.2019
4562 Rain 13 1010 82 10000 3.1 260 14:18 12.11.2019
4563 Rain 12 1010 82 10000 3.1 260 13:54 12.11.2019
4564 Rain 12 1010 87 10000 3.6 280 13:36 12.11.2019
4565 Rain 13 1011 82 10000 3.6 280 13:18 12.11.2019
4566 Rain 12 1011 93 10000 3.1 260 12:40 12.11.2019
4567 Rain 12 1012 93 3800 5.7 270 12:19 12.11.2019
4568 Rain 12 1012 93 3800 5.7 270 11:55 12.11.2019
4569 Rain 13 1012 76 10000 5.1 250 11:36 12.11.2019
4570 Rain 12 1012 81 10000 4.6 260 11:18 12.11.2019
4571 Rain 12 1012 81 10000 4.6 260 10:55 12.11.2019
4572 Clouds 11 1012 87 10000 4.1 250 10:36 12.11.2019
4573 Clouds 12 1012 87 10000 3.1 260 10:18 12.11.2019
4574 Rain 10 1012 93 10000 2.6 250 09:39 12.11.2019
4575 Rain 9 1012 93 10000 3.1 260 09:20 12.11.2019
4576 Rain 9 1012 93 10000 3.1 240 08:49 12.11.2019
4577 Rain 9 1012 93 10000 3.1 240 08:29 12.11.2019
4578 Clouds 9 1012 93 10000 3.6 230 07:43 12.11.2019
4579 Clouds 9 1012 93 10000 3.6 230 07:25 12.11.2019
4580 Rain 8 1012 100 10000 4.1 240 06:54 12.11.2019
4581 Rain 8 1013 87 10000 3.6 270 06:28 12.11.2019
4582 Clouds 8 1013 100 10000 2.1 220 05:56 12.11.2019
4583 Rain 7 1013 100 10000 3.1 240 04:59 12.11.2019
4584 Rain 7 1013 100 10000 2.1 230 04:37 12.11.2019
4585 Clouds 8 1015 93 10000 1.5 170 02:41 12.11.2019
4586 Rain 8 1015 87 10000 1 0 01:27 12.11.2019
4587 Rain 8 1016 87 10000 1.5 290 00:58 12.11.2019
4588 Rain 8 1016 93 10000 2.1 210 00:40 12.11.2019
4589 Clouds 8 1016 93 10000 1.5 170 00:18 12.11.2019
4590 Clouds 8 1016 93 10000 2.6 210 23:41 11.11.2019
4591 Clouds 8 1016 87 10000 2.6 210 23:20 11.11.2019
4592 Clouds 8 1016 87 10000 2.6 230 22:39 11.11.2019
4593 Clouds 8 1016 87 10000 2.6 230 22:20 11.11.2019
4594 Rain 8 1016 87 10000 2.1 230 21:59 11.11.2019
4595 Rain 8 1016 87 10000 2.1 230 21:39 11.11.2019
4596 Rain 8 1016 87 10000 2.1 230 21:21 11.11.2019
4597 Rain 8 1016 81 10000 2.1 300 20:59 11.11.2019
4598 Rain 8 1016 81 10000 1.5 320 20:40 11.11.2019
4599 Clouds 8 1015 81 10000 3.1 280 20:19 11.11.2019
4600 Clouds 9 1015 81 10000 3.1 280 19:55 11.11.2019
4601 Clouds 10 1015 81 10000 3.1 280 19:37 11.11.2019
4602 Clouds 9 1015 81 10000 2.6 280 19:18 11.11.2019
4603 Clouds 10 1014 76 10000 3.6 290 18:41 11.11.2019
4604 Clouds 10 1014 81 10000 3.6 300 18:21 11.11.2019
4605 Clouds 10 1013 81 10000 2.6 290 17:46 11.11.2019
4606 Clouds 10 1013 81 10000 2.6 290 17:46 11.11.2019
4607 Clouds 10 1013 81 10000 2.6 290 17:28 11.11.2019
4608 Clouds 11 1013 81 10000 3.1 320 16:58 11.11.2019
4609 Clouds 11 1013 81 10000 4.6 330 16:38 11.11.2019
4610 Clouds 11 1012 71 10000 5.7 340 16:20 11.11.2019
4611 Rain 10 1012 81 10000 5.7 330 15:42 11.11.2019
4612 Rain 10 1011 93 10000 5.1 330 15:20 11.11.2019
4613 Rain 10 1011 93 10000 5.1 330 14:57 11.11.2019
4614 Rain 10 1011 93 10000 5.1 340 14:39 11.11.2019
4615 Rain 10 1011 93 10000 5.1 340 14:21 11.11.2019
4616 Rain 11 1010 100 4500 5.7 190 13:56 11.11.2019
4617 Rain 11 1010 100 9000 5.1 190 13:37 11.11.2019
4618 Rain 11 1010 100 9000 5.1 190 13:19 11.11.2019
4619 Rain 11 1011 93 6000 4.6 190 12:55 11.11.2019
4620 Rain 10 1011 93 4200 3.6 180 12:37 11.11.2019
4621 Rain 10 1011 93 4200 3.6 180 12:19 11.11.2019
4622 Clouds 10 1012 93 10000 4.1 190 11:41 11.11.2019
4623 Clouds 10 1012 93 10000 4.1 190 11:21 11.11.2019
4624 Clouds 9 1012 93 10000 3.1 170 10:44 11.11.2019
4625 Clouds 9 1012 93 10000 3.1 170 10:20 11.11.2019
4626 Rain 8 1013 93 10000 2.6 170 09:59 11.11.2019
4627 Rain 8 1013 93 10000 2.6 170 09:40 11.11.2019
4628 Rain 8 1013 93 10000 2.6 170 09:19 11.11.2019
4629 Clouds 7 1013 93 10000 3.1 170 08:42 11.11.2019
4630 Clouds 7 1013 93 10000 3.1 170 08:22 11.11.2019
4631 Clouds 7 1013 93 10000 3.1 180 07:57 11.11.2019
4632 Clouds 7 1013 100 10000 1 0 07:38 11.11.2019
4633 Clouds 7 1013 100 10000 1 0 07:19 11.11.2019
4634 Clouds 7 1013 100 10000 1.5 0 06:49 11.11.2019
4635 Clouds 7 1014 93 10000 1 0 06:49 11.11.2019
4636 Clouds 7 1014 93 10000 1 0 06:24 11.11.2019
4637 Clouds 6 1013 100 10000 2.6 180 05:52 11.11.2019
4638 Clouds 6 1014 100 10000 2.1 150 04:50 11.11.2019
4639 Clouds 7 1015 93 10000 1.5 220 03:25 11.11.2019
4640 Clouds 6 1015 100 10000 2.6 210 02:30 11.11.2019
4641 Clouds 6 1015 93 10000 3.1 210 01:57 11.11.2019
4642 Clouds 6 1015 93 10000 4.1 200 01:35 11.11.2019
4643 Clouds 6 1016 100 10000 4.1 190 00:51 11.11.2019
4644 Clouds 6 1016 100 10000 3.1 200 00:26 11.11.2019
4645 Clouds 6 1015 93 10000 2.6 200 23:55 10.11.2019
4646 Clouds 5 1016 93 10000 2.1 190 23:36 10.11.2019
4647 Clouds 5 1016 93 10000 2.1 190 23:36 10.11.2019
4648 Clear 5 1015 100 10000 4.1 180 23:18 10.11.2019
4649 Clear 5 1015 100 10000 4.1 180 22:54 10.11.2019
4650 Clear 6 1015 93 10000 3.1 200 22:36 10.11.2019
4651 Clear 6 1015 93 10000 3.1 200 22:18 10.11.2019
4652 Clear 6 1015 93 10000 3.6 190 21:40 10.11.2019
4653 Clear 6 1015 93 10000 3.6 190 21:21 10.11.2019
4654 Clear 6 1015 93 10000 3.1 200 20:58 10.11.2019
4655 Clear 6 1015 87 10000 3.1 210 20:39 10.11.2019
4656 Clouds 7 1015 87 10000 3.6 200 20:21 10.11.2019
4657 Clouds 7 1015 87 10000 3.6 200 19:55 10.11.2019
4658 Clouds 8 1015 87 10000 3.1 190 19:37 10.11.2019
4659 Clouds 8 1015 87 10000 2.6 210 19:18 10.11.2019
4660 Clouds 8 1015 87 10000 2.6 210 18:54 10.11.2019
4661 Clouds 8 1015 81 10000 2.6 210 18:36 10.11.2019
4662 Clouds 9 1014 76 10000 2.1 230 18:18 10.11.2019
4663 Clouds 9 1014 76 10000 2.1 230 17:55 10.11.2019
4664 Clouds 9 1014 76 10000 2.1 230 17:55 10.11.2019
4665 Clouds 10 1014 71 10000 3.1 260 17:37 10.11.2019
4666 Rain 10 1014 66 10000 4.1 260 17:18 10.11.2019
4667 Rain 11 1013 66 10000 3.1 270 16:43 10.11.2019
4668 Rain 11 1013 66 10000 3.1 270 16:25 10.11.2019
4669 Rain 11 1013 71 10000 4.1 270 15:57 10.11.2019
4670 Rain 11 1013 76 10000 4.6 270 15:38 10.11.2019
4671 Rain 10 1013 71 10000 4.1 280 15:19 10.11.2019
4672 Rain 10 1013 71 10000 4.1 280 14:58 10.11.2019
4673 Clouds 10 1013 71 10000 4.1 280 14:38 10.11.2019
4674 Clouds 10 1013 71 10000 4.6 300 14:20 10.11.2019
4675 Clouds 10 1013 71 10000 4.6 300 13:55 10.11.2019
4676 Rain 10 1013 76 10000 2.6 270 13:36 10.11.2019
4677 Rain 9 1013 81 10000 3.1 240 13:18 10.11.2019
4678 Clouds 9 1013 93 10000 3.1 220 12:41 10.11.2019
4679 Rain 8 1013 87 10000 2.6 260 12:19 10.11.2019
4680 Rain 8 1013 87 10000 2.6 260 11:55 10.11.2019
4681 Rain 8 1013 87 10000 2.6 260 11:55 10.11.2019
4682 Rain 8 1013 87 10000 2.6 260 11:55 10.11.2019
4683 Rain 8 1013 81 10000 1 0 11:37 10.11.2019
4684 Rain 7 1013 93 10000 2.09 216 11:19 10.11.2019
4685 Rain 7 1013 93 10000 1 0 10:42 10.11.2019
4686 Rain 7 1013 93 10000 1 0 10:21 10.11.2019
4687 Rain 7 1013 93 10000 1.5 0 09:56 10.11.2019
4688 Clouds 7 1012 93 10000 3.1 180 09:38 10.11.2019
4689 Clouds 7 1012 100 10000 3.1 180 09:19 10.11.2019
4690 Rain 7 1012 93 10000 1.5 100 08:39 10.11.2019
4691 Rain 7 1012 93 10000 1.5 100 08:20 10.11.2019
4692 Rain 7 1011 93 9000 3.6 190 07:45 10.11.2019
4693 Rain 7 1011 93 9000 3.6 190 07:26 10.11.2019
4694 Rain 7 1012 93 10000 2.1 110 06:57 10.11.2019
4695 Rain 7 1011 87 10000 2.6 190 05:55 10.11.2019
4696 Rain 7 1011 93 10000 2.6 180 03:31 10.11.2019
4697 Rain 8 1012 93 10000 2.6 220 02:22 10.11.2019
4698 Rain 9 1011 87 7000 1.5 0 01:20 10.11.2019
4699 Rain 9 1011 81 10000 2.1 340 00:48 10.11.2019
4700 Rain 9 1011 81 10000 3.1 270 00:23 10.11.2019
4701 Rain 9 1011 76 10000 3.6 280 23:40 09.11.2019
4702 Rain 10 1011 81 10000 4.6 320 23:19 09.11.2019
4703 Rain 10 1010 81 10000 4.1 260 22:42 09.11.2019
4704 Rain 10 1010 81 10000 4.1 260 22:42 09.11.2019
4705 Rain 10 1010 81 10000 4.1 260 22:21 09.11.2019
4706 Rain 10 1009 76 10000 4.6 290 21:58 09.11.2019
4707 Clouds 10 1009 76 10000 4.6 300 21:38 09.11.2019
4708 Clouds 10 1009 76 10000 4.6 300 21:38 09.11.2019
4709 Clouds 10 1009 76 10000 6.2 310 21:20 09.11.2019
4710 Rain 11 1009 81 10000 5.7 310 20:44 09.11.2019
4711 Rain 11 1009 81 10000 5.7 310 20:24 09.11.2019
4712 Clouds 11 1008 87 10000 4.6 290 19:58 09.11.2019
4713 Rain 11 1008 87 9000 7.7 310 19:40 09.11.2019
4714 Rain 11 1008 87 9000 7.7 310 19:22 09.11.2019
4715 Rain 12 1007 87 6000 9.8 290 18:57 09.11.2019
4716 Rain 12 1007 93 10000 6.7 250 18:38 09.11.2019
4717 Rain 12 1007 93 10000 6.7 250 18:18 09.11.2019
4718 Rain 11 1008 93 10000 6.2 200 17:42 09.11.2019
4719 Rain 11 1008 93 10000 6.2 200 17:22 09.11.2019
4720 Rain 11 1008 93 8000 6.2 190 16:57 09.11.2019
4721 Rain 11 1009 93 3300 4.6 170 16:37 09.11.2019
4722 Rain 11 1010 93 5000 6.2 190 16:18 09.11.2019
4723 Clouds 12 1010 81 10000 5.1 180 15:41 09.11.2019
4724 Clouds 12 1010 81 10000 5.1 180 15:23 09.11.2019
4725 Clouds 12 1012 76 10000 4.6 180 14:46 09.11.2019
4726 Clouds 12 1012 76 10000 4.6 180 14:23 09.11.2019
4727 Clouds 12 1012 76 10000 4.1 190 13:58 09.11.2019
4728 Clouds 12 1013 76 10000 5.1 190 13:40 09.11.2019
4729 Clouds 12 1013 76 10000 5.1 190 13:21 09.11.2019
4730 Clouds 12 1013 71 10000 4.6 190 12:58 09.11.2019
4731 Clouds 12 1014 71 10000 4.6 180 12:40 09.11.2019
4732 Clouds 12 1014 71 10000 4.6 180 12:22 09.11.2019
4733 Clouds 11 1015 76 10000 3.1 190 11:48 09.11.2019
4734 Clouds 11 1015 76 10000 3.1 190 11:23 09.11.2019
4735 Clouds 10 1015 81 10000 2.1 190 10:59 09.11.2019
4736 Clouds 10 1015 87 10000 3.1 210 10:39 09.11.2019
4737 Clouds 9 1016 87 10000 1.5 210 10:19 09.11.2019
4738 Clouds 7 1016 93 10000 1.5 190 09:45 09.11.2019
4739 Clouds 7 1016 93 10000 1.5 190 09:26 09.11.2019
4740 Clouds 6 1016 100 10000 1 160 08:57 09.11.2019
4741 Clouds 6 1016 93 10000 1.5 200 08:39 09.11.2019
4742 Clouds 7 1016 93 10000 2.1 220 08:19 09.11.2019
4743 Clouds 7 1016 93 10000 2.1 220 07:44 09.11.2019
4744 Clouds 7 1016 93 10000 2.1 220 07:22 09.11.2019
4745 Clouds 7 1016 93 10000 2.1 220 06:49 09.11.2019
4746 Clouds 7 1016 93 10000 2.1 220 06:30 09.11.2019
4747 Clouds 7 1016 93 10000 2.1 220 05:42 09.11.2019
4748 Clouds 7 1016 93 10000 2.6 220 04:56 09.11.2019
4749 Clouds 6 1015 93 10000 3.1 230 03:35 09.11.2019
4750 Clouds 6 1015 93 10000 1 230 02:41 09.11.2019
4751 Clear 6 1015 93 10000 1.5 240 01:55 09.11.2019
4752 Clouds 5 1015 86 10000 2.6 240 00:49 09.11.2019
4753 Clouds 5 1015 86 10000 2.6 240 00:31 09.11.2019
4754 Clouds 5 1014 93 10000 3.1 250 23:57 08.11.2019
4755 Clouds 6 1014 93 10000 2.6 230 23:38 08.11.2019
4756 Clouds 7 1014 87 10000 1.5 310 23:19 08.11.2019
4757 Clouds 7 1013 81 10000 2.6 350 22:42 08.11.2019
4758 Clouds 7 1013 81 10000 2.6 350 22:21 08.11.2019
4759 Clouds 8 1013 75 10000 4.1 360 21:56 08.11.2019
4760 Clouds 8 1013 75 10000 4.1 350 21:37 08.11.2019
4761 Clouds 8 1013 75 10000 3.1 340 21:18 08.11.2019
4762 Clouds 8 1012 75 10000 3.1 340 20:41 08.11.2019
4763 Clouds 8 1012 75 10000 3.1 340 20:21 08.11.2019
4764 Clouds 9 1012 70 10000 3.6 340 19:58 08.11.2019
4765 Clouds 9 1011 76 10000 4.6 340 19:37 08.11.2019
4766 Clouds 9 1011 76 10000 4.6 340 19:37 08.11.2019
4767 Clouds 10 1010 76 10000 4.6 330 19:18 08.11.2019
4768 Clouds 10 1010 76 10000 4.6 330 18:55 08.11.2019
4769 Clouds 10 1010 76 10000 3.6 330 18:37 08.11.2019
4770 Clouds 10 1009 76 10000 5.7 320 18:18 08.11.2019
4771 Clouds 10 1009 76 10000 5.7 320 17:55 08.11.2019
4772 Clouds 11 1009 76 10000 5.1 330 17:36 08.11.2019
4773 Clouds 11 1008 71 10000 5.1 330 17:18 08.11.2019
4774 Clouds 11 1008 71 10000 5.1 330 16:57 08.11.2019
4775 Clouds 11 1008 71 10000 5.1 330 16:57 08.11.2019
4776 Clouds 11 1007 71 10000 6.7 330 16:38 08.11.2019
4777 Clouds 12 1006 66 10000 7.2 320 16:19 08.11.2019
4778 Clouds 12 1006 66 10000 7.2 320 15:55 08.11.2019
4779 Clouds 12 1006 66 10000 7.2 320 15:36 08.11.2019
4780 Clouds 12 1006 66 10000 7.2 320 15:36 08.11.2019
4781 Clouds 12 1006 66 10000 7.2 320 15:18 08.11.2019
4782 Rain 12 1005 76 10000 5.1 310 14:54 08.11.2019
4783 Rain 12 1005 76 10000 5.1 310 14:36 08.11.2019
4784 Rain 12 1005 76 10000 5.1 310 14:36 08.11.2019
4785 Rain 11 1005 76 10000 6.2 310 14:18 08.11.2019
4786 Clouds 11 1004 87 10000 4.6 320 13:42 08.11.2019
4787 Clouds 11 1004 87 10000 4.6 320 13:22 08.11.2019
4788 Rain 10 1004 93 10000 3.1 280 12:49 08.11.2019
4789 Rain 10 1004 93 10000 3.1 280 12:31 08.11.2019
4790 Rain 10 1004 87 10000 3.1 270 11:59 08.11.2019
4791 Rain 10 1003 87 10000 4.1 330 11:41 08.11.2019
4792 Rain 10 1003 87 10000 4.1 330 11:22 08.11.2019
4793 Rain 10 1003 93 10000 1 0 10:59 08.11.2019
4794 Rain 10 1003 93 10000 3.1 240 10:41 08.11.2019
4795 Rain 10 1003 93 10000 3.1 240 10:22 08.11.2019
4796 Rain 10 1002 93 10000 4.1 290 09:58 08.11.2019
4797 Rain 11 1002 81 10000 4.6 300 09:38 08.11.2019
4798 Rain 11 1002 87 10000 3.1 220 09:19 08.11.2019
4799 Rain 11 1002 87 10000 4.1 250 08:45 08.11.2019
4800 Rain 11 1002 87 10000 4.1 250 08:23 08.11.2019
4801 Rain 10 1001 93 10000 0.5 130 07:45 08.11.2019
4802 Rain 10 1001 93 10000 0.5 130 07:24 08.11.2019
4803 Rain 10 1002 93 10000 1 0 06:58 08.11.2019
4804 Rain 10 1002 93 10000 1 0 06:38 08.11.2019
4805 Rain 10 1001 93 10000 3.1 240 06:19 08.11.2019
4806 Rain 10 1001 93 10000 2.6 180 05:32 08.11.2019
4807 Rain 10 1001 93 10000 3.6 170 04:29 08.11.2019
4808 Rain 9 1001 93 8000 3.6 160 03:42 08.11.2019
4809 Rain 9 1001 93 8000 3.6 160 03:19 08.11.2019
4810 Rain 9 1002 93 10000 5.7 170 01:54 08.11.2019
4811 Rain 9 1002 93 10000 5.1 180 01:36 08.11.2019
4812 Rain 9 1003 93 10000 6.2 180 00:46 08.11.2019
4813 Rain 8 1003 93 10000 6.2 180 00:22 08.11.2019
4814 Rain 8 1003 93 10000 6.2 180 00:22 08.11.2019
4815 Rain 8 1004 93 10000 4.1 170 23:49 07.11.2019
4816 Clouds 8 1004 93 10000 4.1 170 23:28 07.11.2019
4817 Clouds 8 1004 93 10000 3.6 160 22:58 07.11.2019
4818 Clouds 8 1004 93 10000 4.6 170 22:40 07.11.2019
4819 Clouds 8 1004 100 10000 4.6 180 22:20 07.11.2019
4820 Rain 8 1004 93 7000 4.1 210 21:39 07.11.2019
4821 Rain 8 1004 93 7000 4.1 210 21:21 07.11.2019
4822 Clouds 8 1004 87 10000 4.6 200 20:59 07.11.2019
4823 Clouds 8 1005 87 10000 4.6 190 20:40 07.11.2019
4824 Clouds 8 1005 87 10000 4.6 190 20:40 07.11.2019
4825 Rain 8 1005 87 10000 4.6 190 20:22 07.11.2019
4826 Rain 8 1005 93 10000 3.6 190 19:58 07.11.2019
4827 Rain 8 1005 93 10000 1.5 0 19:39 07.11.2019
4828 Drizzle 8 1005 87 10000 3.6 190 19:20 07.11.2019
4829 Drizzle 8 1005 87 10000 3.6 190 18:57 07.11.2019
4830 Rain 8 1005 93 10000 4.6 180 18:38 07.11.2019
4831 Rain 8 1005 93 10000 4.6 180 18:19 07.11.2019
4832 Rain 9 1005 93 10000 2.6 180 17:56 07.11.2019
4833 Rain 9 1005 93 10000 2.6 180 17:37 07.11.2019
4834 Rain 9 1005 93 10000 2.6 180 17:19 07.11.2019
4835 Thunderstorm 8 1006 87 10000 7.2 250 16:55 07.11.2019
4836 Rain 9 1005 87 10000 2.6 180 16:37 07.11.2019
4837 Rain 10 1005 87 10000 2.6 180 16:18 07.11.2019
4838 Rain 10 1006 71 7000 5.1 250 15:40 07.11.2019
4839 Rain 11 1005 71 10000 4.1 200 15:20 07.11.2019
4840 Rain 11 1005 71 10000 4.1 200 15:20 07.11.2019
4841 Rain 11 1006 76 10000 3.1 200 14:57 07.11.2019
4842 Rain 11 1006 71 10000 3.6 230 14:37 07.11.2019
4843 Rain 11 1006 71 10000 3.6 230 14:19 07.11.2019
4844 Rain 11 1006 76 10000 2.6 230 13:55 07.11.2019
4845 Rain 11 1007 76 10000 4.1 290 13:36 07.11.2019
4846 Rain 11 1007 76 10000 4.1 290 13:18 07.11.2019
4847 Rain 11 1007 81 10000 3.1 230 12:55 07.11.2019
4848 Rain 11 1007 81 10000 3.1 210 12:37 07.11.2019
4849 Rain 11 1007 81 10000 3.1 210 12:18 07.11.2019
4850 Rain 11 1007 81 10000 3.1 210 12:18 07.11.2019
4851 Rain 11 1007 87 10000 2.6 210 11:41 07.11.2019
4852 Clouds 10 1007 87 10000 2.6 210 11:22 07.11.2019
4853 Clouds 9 1007 87 10000 3.1 200 10:42 07.11.2019
4854 Clouds 9 1007 87 10000 3.1 200 10:42 07.11.2019
4855 Clouds 10 1007 87 10000 3.1 200 10:19 07.11.2019
4856 Clouds 10 1007 87 10000 3.1 200 10:19 07.11.2019
4857 Clouds 10 1006 87 10000 3.1 200 09:55 07.11.2019
4858 Clouds 9 1006 87 10000 2.6 220 09:36 07.11.2019
4859 Clouds 9 1006 87 10000 2.6 220 09:18 07.11.2019
4860 Rain 10 1006 87 10000 2.6 300 08:41 07.11.2019
4861 Rain 10 1005 81 10000 5.7 270 08:22 07.11.2019
4862 Rain 10 1005 81 10000 3.1 240 07:56 07.11.2019
4863 Rain 10 1005 81 10000 3.1 240 07:38 07.11.2019
4864 Clouds 10 1005 76 10000 3.6 280 07:20 07.11.2019
4865 Clouds 10 1005 71 10000 3.6 280 06:45 07.11.2019
4866 Rain 10 1005 76 10000 3.6 270 06:25 07.11.2019
4867 Clouds 11 1005 71 10000 4.1 300 05:49 07.11.2019
4868 Clouds 11 1004 71 10000 6.2 290 05:31 07.11.2019
4869 Clouds 11 1004 81 10000 4.6 290 04:51 07.11.2019
4870 Clouds 12 1004 81 10000 4.6 270 04:29 07.11.2019
4871 Rain 12 1003 93 7000 6.2 200 01:28 07.11.2019
4872 Rain 12 1003 93 6000 4.6 200 00:32 07.11.2019
4873 Rain 12 1004 93 10000 5.1 190 23:58 06.11.2019
4874 Rain 12 1005 100 10000 4.6 180 23:40 06.11.2019
4875 Clouds 12 1005 100 10000 4.6 180 23:18 06.11.2019
4876 Clouds 12 1006 100 10000 4.1 190 22:39 06.11.2019
4877 Clouds 12 1006 100 10000 4.1 190 22:20 06.11.2019
4878 Clouds 12 1006 93 10000 4.6 190 21:57 06.11.2019
4879 Clouds 12 1006 93 10000 4.6 190 21:57 06.11.2019
4880 Clouds 12 1006 93 10000 4.6 190 21:39 06.11.2019
4881 Clouds 12 1007 100 10000 4.6 180 21:19 06.11.2019
4882 Rain 12 1007 100 10000 4.1 190 20:56 06.11.2019
4883 Clouds 12 1008 93 10000 4.1 180 20:38 06.11.2019
4884 Clouds 12 1008 93 10000 4.1 180 20:20 06.11.2019
4885 Clouds 12 1008 87 10000 3.6 180 19:56 06.11.2019
4886 Clouds 12 1008 87 10000 3.6 200 19:36 06.11.2019
4887 Clouds 12 1008 87 10000 3.6 200 19:18 06.11.2019
4888 Clouds 12 1009 87 10000 4.6 220 18:40 06.11.2019
4889 Clouds 12 1009 82 10000 3.6 230 18:20 06.11.2019
4890 Clouds 13 1009 82 10000 3.6 230 17:59 06.11.2019
4891 Clouds 13 1009 76 10000 2.6 230 17:41 06.11.2019
4892 Clouds 13 1009 76 10000 2.6 230 17:41 06.11.2019
4893 Clouds 13 1009 76 10000 2.6 230 17:23 06.11.2019
4894 Clouds 13 1009 76 10000 2.6 230 17:23 06.11.2019
4895 Clouds 14 1010 71 10000 3.6 260 16:57 06.11.2019
4896 Clouds 14 1010 71 10000 3.6 260 16:38 06.11.2019
4897 Clouds 14 1010 62 10000 5.7 260 16:19 06.11.2019
4898 Clouds 14 1010 62 10000 5.7 260 15:57 06.11.2019
4899 Clouds 15 1010 62 10000 6.7 270 15:37 06.11.2019
4900 Clouds 15 1010 71 10000 3.6 290 15:19 06.11.2019
4901 Clouds 14 1010 71 10000 3.6 290 14:56 06.11.2019
4902 Rain 15 1010 71 10000 3.6 290 14:38 06.11.2019
4903 Rain 15 1010 71 10000 3.6 290 14:20 06.11.2019
4904 Clouds 14 1011 71 10000 5.7 290 13:54 06.11.2019
4905 Clouds 14 1011 82 10000 1.5 290 13:36 06.11.2019
4906 Clouds 14 1011 82 10000 1.5 0 13:18 06.11.2019
4907 Clouds 14 1011 82 10000 1.5 0 13:18 06.11.2019
4908 Clouds 14 1012 87 10000 0.5 0 12:43 06.11.2019
4909 Clouds 14 1012 87 10000 0.5 0 12:23 06.11.2019
4910 Rain 13 1012 87 10000 1.5 0 11:59 06.11.2019
4911 Rain 13 1012 93 10000 1.5 330 11:38 06.11.2019
4912 Rain 12 1012 100 10000 1.5 0 11:19 06.11.2019
4913 Rain 12 1012 100 10000 1.5 0 10:57 06.11.2019
4914 Rain 12 1012 100 10000 1.5 0 10:57 06.11.2019
4915 Rain 12 1011 100 10000 1.5 0 10:39 06.11.2019
4916 Rain 12 1011 100 10000 1.5 0 10:39 06.11.2019
4917 Rain 12 1011 93 8000 2.1 260 10:20 06.11.2019
4918 Rain 12 1011 93 8000 2.1 260 09:56 06.11.2019
4919 Rain 12 1011 93 4600 3.6 270 09:36 06.11.2019
4920 Rain 11 1011 93 10000 3.1 230 09:18 06.11.2019
4921 Rain 11 1011 93 10000 3.1 230 08:54 06.11.2019
4922 Rain 11 1010 100 10000 3.6 230 08:36 06.11.2019
4923 Rain 11 1010 100 10000 3.6 230 08:36 06.11.2019
4924 Clouds 11 1010 100 10000 1.5 220 08:18 06.11.2019
4925 Clouds 11 1010 100 10000 1.5 220 08:18 06.11.2019
4926 Drizzle 11 1010 100 10000 2.1 230 07:40 06.11.2019
4927 Rain 11 1009 100 10000 1 0 07:22 06.11.2019
4928 Clouds 11 1010 100 10000 1 0 06:47 06.11.2019
4929 Clouds 10 1010 100 10000 1 0 06:27 06.11.2019
4930 Clouds 10 1009 100 10000 2.6 230 04:52 06.11.2019
4931 Clouds 11 1009 93 10000 3.1 240 02:28 06.11.2019
4932 Clouds 11 1008 93 10000 1.5 300 01:38 06.11.2019
4933 Clouds 11 1007 93 10000 2.1 260 00:39 06.11.2019
4934 Clouds 11 1007 93 10000 3.6 270 23:58 05.11.2019
4935 Clouds 11 1007 87 10000 2.6 290 23:39 05.11.2019
4936 Rain 11 1007 87 10000 2.6 290 23:21 05.11.2019
4937 Rain 11 1006 87 10000 3.6 330 22:45 05.11.2019
4938 Rain 11 1005 93 10000 3.1 290 22:20 05.11.2019
4939 Rain 11 1005 93 10000 3.1 290 21:59 05.11.2019
4940 Rain 11 1005 93 10000 3.6 270 21:41 05.11.2019
4941 Rain 11 1005 93 10000 3.6 270 21:41 05.11.2019
4942 Rain 11 1005 93 10000 3.6 270 21:21 05.11.2019
4943 Rain 11 1004 93 10000 3.6 280 20:57 05.11.2019
4944 Rain 11 1004 93 10000 5.1 320 20:38 05.11.2019
4945 Rain 11 1004 93 10000 5.1 320 20:38 05.11.2019
4946 Rain 11 1004 93 10000 5.1 320 20:20 05.11.2019
4947 Rain 12 1004 93 8000 4.1 300 19:56 05.11.2019
4948 Rain 12 1003 93 10000 1.5 330 19:38 05.11.2019
4949 Rain 12 1003 93 10000 1.5 330 19:38 05.11.2019
4950 Rain 12 1003 93 10000 1.5 330 19:20 05.11.2019
4951 Rain 12 1002 93 10000 5.1 290 18:57 05.11.2019
4952 Rain 12 1002 81 10000 5.1 290 18:38 05.11.2019
4953 Rain 12 1001 87 10000 2.1 340 18:19 05.11.2019
4954 Rain 12 1001 87 10000 2.1 340 18:19 05.11.2019
4955 Rain 12 1001 87 10000 2.1 340 17:56 05.11.2019
4956 Rain 12 1001 87 10000 3.6 270 17:37 05.11.2019
4957 Rain 12 1001 81 10000 6.2 300 17:18 05.11.2019
4958 Rain 13 1001 76 5000 9.8 290 16:42 05.11.2019
4959 Rain 14 1001 71 10000 7.7 290 16:21 05.11.2019
4960 Thunderstorm 14 1000 67 10000 6.7 270 15:59 05.11.2019
4961 Thunderstorm 13 1000 72 10000 6.7 280 15:37 05.11.2019
4962 Rain 13 1000 82 10000 4.1 250 15:18 05.11.2019
4963 Rain 13 1000 82 10000 4.1 250 14:55 05.11.2019
4964 Rain 13 1000 82 10000 4.1 250 14:55 05.11.2019
4965 Rain 13 999 82 10000 5.1 270 14:36 05.11.2019
4966 Rain 12 999 87 10000 3.6 270 14:18 05.11.2019
4967 Drizzle 12 999 87 10000 5.1 290 13:43 05.11.2019
4968 Drizzle 12 999 87 10000 5.1 290 13:24 05.11.2019
4969 Rain 12 999 87 10000 4.6 260 12:42 05.11.2019
4970 Rain 12 999 87 10000 4.6 260 12:23 05.11.2019
4971 Rain 11 998 93 10000 2.1 210 11:59 05.11.2019
4972 Rain 11 998 93 10000 2.1 210 11:39 05.11.2019
4973 Rain 11 998 93 10000 2.6 210 11:21 05.11.2019
4974 Rain 11 998 93 10000 2.6 210 10:56 05.11.2019
4975 Rain 11 998 93 10000 2.6 210 10:56 05.11.2019
4976 Rain 11 998 93 10000 4.6 210 10:38 05.11.2019
4977 Rain 11 998 93 10000 4.6 200 10:19 05.11.2019
4978 Clouds 11 998 93 10000 4.1 200 09:55 05.11.2019
4979 Clouds 11 998 93 10000 4.1 200 09:37 05.11.2019
4980 Rain 11 998 93 10000 4.1 220 09:18 05.11.2019
4981 Rain 11 998 93 10000 4.1 220 09:18 05.11.2019
4982 Rain 10 997 93 10000 3.1 230 08:38 05.11.2019
4983 Rain 10 997 93 10000 3.1 230 08:19 05.11.2019
4984 -273 0 0 0 0 0 07:55 05.11.2019
4985 Rain 10 997 87 10000 5.7 230 07:37 05.11.2019
4986 Rain 11 997 87 10000 4.1 220 07:19 05.11.2019
4987 Rain 10 998 93 10000 4.6 190 06:43 05.11.2019
4988 Rain 10 998 93 10000 4.6 190 06:43 05.11.2019
4989 Rain 10 998 87 10000 4.1 210 05:51 05.11.2019
4990 Rain 10 998 93 10000 3.1 210 05:22 05.11.2019
4991 Rain 10 998 93 10000 3.6 200 04:25 05.11.2019
4992 Rain 11 999 87 10000 5.1 230 03:49 05.11.2019
4993 Rain 10 999 93 10000 3.1 180 02:43 05.11.2019
4994 Rain 10 1000 93 10000 3.1 180 01:57 05.11.2019
4995 Rain 11 1000 93 10000 4.1 200 00:49 05.11.2019
4996 Rain 10 1000 93 10000 4.1 200 00:27 05.11.2019
4997 Rain 11 1000 87 10000 4.6 190 23:43 04.11.2019
4998 Rain 11 1000 87 9000 5.7 220 23:20 04.11.2019
4999 Rain 11 1000 87 9000 5.7 220 22:59 04.11.2019
5000 Rain 11 1000 87 10000 3.1 180 22:40 04.11.2019
5001 Rain 11 1000 87 10000 3.1 180 22:40 04.11.2019
5002 Rain 11 1000 87 10000 3.1 180 22:22 04.11.2019
5003 Rain 11 1000 81 10000 1.5 200 21:55 04.11.2019
5004 Clouds 11 1000 76 10000 3.1 210 21:37 04.11.2019
5005 Clouds 11 1000 76 10000 3.1 210 21:37 04.11.2019
5006 Rain 11 1000 76 10000 3.6 220 21:19 04.11.2019
5007 Rain 11 1000 76 10000 3.6 220 20:57 04.11.2019
5008 Rain 12 1001 76 10000 3.6 250 20:38 04.11.2019
5009 Clouds 12 1001 76 10000 3.6 250 20:20 04.11.2019
5010 Clouds 12 1001 81 10000 4.1 240 19:57 04.11.2019
5011 Clouds 12 1000 76 10000 3.6 230 19:39 04.11.2019
5012 Rain 12 1000 76 10000 4.1 240 19:21 04.11.2019
5013 Rain 12 1000 76 10000 4.1 240 18:55 04.11.2019
5014 Clouds 12 1000 76 10000 3.1 260 18:37 04.11.2019
5015 Rain 12 1000 76 10000 4.6 270 18:18 04.11.2019
5016 Rain 12 1000 76 10000 4.6 270 18:18 04.11.2019
5017 Clouds 13 1000 67 10000 5.7 250 17:38 04.11.2019
5018 Clouds 14 1000 67 10000 5.1 270 17:20 04.11.2019
5019 Clouds 14 1000 67 10000 5.1 270 16:55 04.11.2019
5020 Clouds 14 1000 67 10000 5.1 270 16:55 04.11.2019
5021 Clouds 14 1000 67 10000 5.1 270 16:55 04.11.2019
5022 Clouds 14 1000 67 10000 6.2 260 16:36 04.11.2019
5023 Clouds 14 1000 67 10000 8.2 280 16:18 04.11.2019
5024 Clouds 14 999 67 10000 8.2 270 15:41 04.11.2019
5025 Clouds 14 999 67 10000 8.2 270 15:21 04.11.2019
5026 Clouds 14 999 72 10000 8.2 280 14:59 04.11.2019
5027 Clouds 14 999 72 10000 6.7 260 14:40 04.11.2019
5028 Rain 14 999 72 10000 6.7 260 14:21 04.11.2019
5029 Rain 14 999 72 10000 7.7 260 13:58 04.11.2019
5030 Rain 14 999 72 10000 7.7 260 13:58 04.11.2019
5031 Clouds 14 999 82 10000 5.7 260 13:40 04.11.2019
5032 Rain 14 999 82 10000 7.2 250 13:21 04.11.2019
5033 Rain 14 999 82 10000 7.2 250 12:56 04.11.2019
5034 Rain 14 999 82 10000 7.2 240 12:38 04.11.2019
5035 Rain 13 999 87 10000 7.7 260 12:18 04.11.2019
5036 Rain 13 999 93 4500 9.8 290 11:43 04.11.2019
5037 Rain 13 999 93 4500 9.8 290 11:23 04.11.2019
5038 Rain 14 998 87 10000 7.2 230 10:59 04.11.2019
5039 Rain 14 998 93 10000 7.7 240 10:41 04.11.2019
5040 Rain 13 998 93 10000 7.7 240 10:23 04.11.2019
5041 Rain 13 998 93 10000 5.7 240 09:45 04.11.2019
5042 Rain 13 998 93 10000 5.7 240 09:27 04.11.2019
5043 Rain 13 998 93 7000 5.7 240 08:57 04.11.2019
5044 Rain 14 998 93 5000 6.2 250 08:37 04.11.2019
5045 Rain 14 998 93 5000 6.2 250 08:37 04.11.2019
5046 Rain 13 998 93 10000 6.2 240 08:18 04.11.2019
5047 Rain 14 998 93 5000 6.2 250 07:42 04.11.2019
5048 Rain 14 998 93 10000 5.7 270 07:21 04.11.2019
5049 Rain 14 998 93 10000 5.7 270 06:49 04.11.2019
5050 Rain 14 998 93 10000 5.7 270 06:49 04.11.2019
5051 Rain 14 997 93 8000 6.7 250 06:49 04.11.2019
5052 Rain 14 997 93 8000 8.7 260 06:18 04.11.2019
5053 Rain 14 997 93 8000 9.8 250 05:38 04.11.2019
5054 Rain 14 997 93 4600 4.1 220 04:41 04.11.2019
5055 Rain 14 998 93 6000 6.2 270 03:48 04.11.2019
5056 Rain 13 998 100 10000 6.2 220 01:45 04.11.2019
5057 Rain 13 998 100 10000 6.2 220 01:19 04.11.2019
5058 Clouds 13 999 93 10000 8.2 230 00:39 04.11.2019
5059 Rain 13 999 93 5000 8.2 220 00:19 04.11.2019
5060 Rain 13 999 100 4400 8.7 220 23:40 03.11.2019
5061 Rain 13 999 100 4400 8.7 220 23:21 03.11.2019
5062 Rain 13 999 100 10000 6.7 220 22:57 03.11.2019
5063 Rain 13 1000 93 3100 3.6 190 22:39 03.11.2019
5064 Rain 13 1000 93 3100 3.6 190 22:19 03.11.2019
5065 Drizzle 12 1001 93 10000 4.6 240 21:43 03.11.2019
5066 Drizzle 12 1001 93 10000 4.6 240 21:22 03.11.2019
5067 Clouds 12 1001 93 10000 3.1 240 20:59 03.11.2019
5068 Drizzle 12 1002 87 10000 2.6 260 20:38 03.11.2019
5069 Drizzle 12 1002 87 10000 2.6 260 20:19 03.11.2019
5070 Rain 13 1001 87 10000 3.1 280 19:57 03.11.2019
5071 Rain 12 1001 87 10000 3.1 280 19:39 03.11.2019
5072 Rain 12 1001 87 10000 3.1 280 19:20 03.11.2019
5073 Rain 12 1001 82 10000 4.6 270 18:58 03.11.2019
5074 Rain 12 1001 76 10000 6.2 250 18:37 03.11.2019
5075 Rain 12 1001 71 10000 10.8 280 18:18 03.11.2019
5076 Clouds 13 1000 62 10000 10.3 270 17:43 03.11.2019
5077 Clouds 13 1000 62 10000 10.3 270 17:23 03.11.2019
5078 Clouds 14 1000 62 10000 10.3 270 17:23 03.11.2019
5079 Clouds 13 1000 67 10000 6.7 270 17:00 03.11.2019
5080 Rain 13 1000 76 10000 7.7 270 16:41 03.11.2019
5081 Rain 14 999 72 10000 11.8 280 16:22 03.11.2019
5082 Rain 14 999 72 10000 11.8 280 15:58 03.11.2019
5083 Drizzle 14 999 72 10000 11.3 270 15:40 03.11.2019
5084 Drizzle 14 999 72 10000 11.3 270 15:22 03.11.2019
5085 Rain 14 998 72 10000 9.8 270 14:54 03.11.2019
5086 Clouds 14 998 76 10000 10.3 270 14:36 03.11.2019
5087 Rain 14 998 82 10000 9.8 280 14:18 03.11.2019
5088 Rain 13 998 82 10000 10.3 280 13:41 03.11.2019
5089 Rain 14 997 76 10000 9.3 270 13:18 03.11.2019
5090 Rain 14 997 76 10000 9.3 270 12:55 03.11.2019
5091 Rain 13 997 76 10000 11.8 290 12:36 03.11.2019
5092 Rain 13 997 87 5000 14.4 300 12:18 03.11.2019
5093 Rain 14 995 82 9000 12.3 300 11:42 03.11.2019
5094 Rain 13 994 76 10000 11.8 290 11:22 03.11.2019
5095 Rain 13 994 76 10000 11.8 290 10:55 03.11.2019
5096 Rain 12 993 82 7000 13.9 290 10:37 03.11.2019
5097 Rain 12 992 93 6000 11.3 280 10:18 03.11.2019
5098 Rain 12 990 93 7000 14.9 280 09:43 03.11.2019
5099 Rain 12 990 93 7000 14.9 280 09:43 03.11.2019
5100 Rain 12 990 93 7000 14.9 280 09:24 03.11.2019
5101 Rain 12 987 87 4000 15.9 270 08:56 03.11.2019
5102 Rain 12 987 87 4000 15.9 270 08:36 03.11.2019
5103 Rain 12 985 93 4300 20.6 260 08:18 03.11.2019
5104 Rain 12 985 87 3900 18.5 260 07:44 03.11.2019
5105 Rain 12 985 82 9000 15.9 260 07:21 03.11.2019
5106 Rain 12 985 71 10000 16.5 250 06:39 03.11.2019
5107 Rain 13 985 76 10000 15.4 250 05:54 03.11.2019
5108 Rain 13 985 82 10000 9.8 230 05:34 03.11.2019
5109 Rain 13 986 87 4300 11.3 250 04:52 03.11.2019
5110 Rain 13 985 100 10000 8.2 170 03:58 03.11.2019
5111 Rain 13 987 100 10000 7.2 170 03:19 03.11.2019
5112 Rain 13 991 100 7000 4.6 190 02:23 03.11.2019
5113 Rain 13 992 87 10000 5.7 220 01:49 03.11.2019
5114 Rain 14 992 87 10000 5.7 220 01:25 03.11.2019
5115 Rain 14 993 87 10000 7.2 230 00:57 03.11.2019
5116 Rain 13 994 93 10000 5.1 220 00:38 03.11.2019
5117 Rain 13 995 93 10000 5.1 230 00:19 03.11.2019
5118 Rain 13 995 93 8000 5.7 220 23:40 02.11.2019
5119 Rain 13 996 93 10000 6.7 220 23:20 02.11.2019
5120 Rain 13 996 93 10000 6.7 220 23:20 02.11.2019
5121 Rain 13 996 93 10000 6.7 220 22:57 02.11.2019
5122 Rain 13 997 93 4700 3.6 250 22:38 02.11.2019
5123 Rain 14 997 93 4700 3.6 250 22:20 02.11.2019
5124 Rain 14 997 93 10000 3.1 210 21:57 02.11.2019
5125 Rain 14 997 93 10000 3.6 210 21:38 02.11.2019
5126 Rain 14 998 93 7000 4.1 220 21:19 02.11.2019
5127 Rain 14 998 93 7000 4.1 220 21:19 02.11.2019
5128 Rain 14 998 93 7000 4.1 220 21:19 02.11.2019
5129 Rain 14 998 93 7000 4.1 220 21:00 02.11.2019
5130 Rain 14 999 87 10000 5.7 240 20:41 02.11.2019
5131 Rain 14 999 87 10000 5.7 240 20:21 02.11.2019
5132 Rain 14 999 93 9000 4.6 230 19:58 02.11.2019
5133 Rain 14 1000 93 6000 3.6 230 19:36 02.11.2019
5134 Rain 14 1000 100 10000 3.6 200 19:18 02.11.2019
5135 Rain 14 1000 100 10000 3.6 200 18:54 02.11.2019
5136 Rain 14 1000 87 10000 3.1 230 18:36 02.11.2019
5137 Clouds 14 1001 87 10000 5.1 230 18:18 02.11.2019
5138 Rain 14 1001 87 10000 6.2 260 17:43 02.11.2019
5139 Rain 14 1001 93 10000 6.2 270 17:25 02.11.2019
5140 Rain 15 1001 93 10000 6.2 270 16:59 02.11.2019
5141 Rain 15 1001 93 7000 7.7 250 16:39 02.11.2019
5142 Rain 15 1001 93 9000 7.2 260 16:20 02.11.2019
5143 Rain 15 1002 93 3200 7.7 280 15:43 02.11.2019
5144 Rain 16 1001 82 10000 6.2 250 15:21 02.11.2019
5145 Rain 16 1001 82 10000 6.2 250 14:57 02.11.2019
5146 Clouds 17 1002 72 10000 8.2 240 14:39 02.11.2019
5147 Clouds 17 1002 72 10000 8.2 240 14:20 02.11.2019
5148 Clouds 18 1002 77 10000 6.2 240 13:40 02.11.2019
5149 Clouds 17 1002 77 10000 7.2 240 13:20 02.11.2019
5150 Clouds 17 1002 77 10000 7.2 240 12:58 02.11.2019
5151 Clouds 17 1003 82 10000 6.2 240 12:38 02.11.2019
5152 Clouds 17 1003 82 10000 6.2 240 12:20 02.11.2019
5153 Clouds 17 1003 82 10000 6.2 240 12:20 02.11.2019
5154 Rain 17 1004 82 10000 5.1 220 11:43 02.11.2019
5155 Rain 17 1004 82 10000 5.1 220 11:24 02.11.2019
5156 Clouds 16 1004 82 10000 4.1 230 10:57 02.11.2019
5157 Clouds 16 1004 87 10000 4.1 230 10:39 02.11.2019
5158 Clouds 16 1004 87 10000 4.1 230 10:20 02.11.2019
5159 Clouds 16 1004 87 10000 3.6 260 09:43 02.11.2019
5160 Clouds 16 1004 87 10000 3.6 260 09:22 02.11.2019
5161 Clouds 16 1004 87 10000 4.6 260 08:52 02.11.2019
5162 Drizzle 15 1004 93 10000 3.6 250 08:25 02.11.2019
5163 Rain 15 1004 93 10000 3.6 250 07:58 02.11.2019
5164 Rain 16 1004 93 10000 3.6 270 07:40 02.11.2019
5165 Rain 16 1004 93 10000 3.6 270 07:40 02.11.2019
5166 Rain 16 1004 93 10000 6.7 240 07:22 02.11.2019
5167 Rain 16 1004 93 10000 6.7 240 06:50 02.11.2019
5168 Clouds 16 1004 93 10000 4.1 230 06:22 02.11.2019
5169 Clouds 16 1004 93 10000 6.7 250 05:41 02.11.2019
5170 Clouds 16 1004 93 10000 6.2 250 04:24 02.11.2019
5171 Clouds 16 1005 88 10000 5.7 250 03:51 02.11.2019
5172 Clouds 17 1005 88 10000 5.7 250 03:30 02.11.2019
5173 Rain 17 1005 93 10000 8.2 260 02:19 02.11.2019
5174 Rain 17 1006 100 10000 8.2 250 01:29 02.11.2019
5175 Rain 17 1006 100 10000 8.2 250 00:56 02.11.2019
5176 Rain 17 1006 93 10000 6.7 230 00:30 02.11.2019
5177 Rain 17 1006 93 10000 6.7 230 23:56 01.11.2019
5178 Rain 17 1007 93 10000 7.2 240 23:37 01.11.2019
5179 Rain 17 1007 93 10000 6.7 250 23:19 01.11.2019
5180 Rain 17 1007 93 10000 7.2 230 22:41 01.11.2019
5181 Rain 17 1007 93 10000 6.2 210 22:20 01.11.2019
5182 Rain 17 1008 93 10000 4.6 220 21:43 01.11.2019
5183 Rain 17 1008 93 10000 4.6 220 21:43 01.11.2019
5184 Rain 17 1008 93 10000 4.6 220 21:24 01.11.2019
5185 Rain 17 1008 93 10000 4.6 210 20:59 01.11.2019
5186 Rain 17 1008 100 10000 5.1 230 20:41 01.11.2019
5187 Clouds 17 1008 93 10000 5.1 230 20:22 01.11.2019
5188 Clouds 17 1008 93 10000 5.1 230 19:58 01.11.2019
5189 Clouds 18 1008 93 10000 6.7 250 19:40 01.11.2019
5190 Rain 18 1008 93 5000 8.2 230 19:21 01.11.2019
5191 Rain 18 1009 93 8000 6.2 240 18:41 01.11.2019
5192 Rain 18 1009 93 10000 5.1 240 18:21 01.11.2019
5193 Rain 18 1009 93 10000 5.1 240 17:57 01.11.2019
5194 Clouds 18 1009 93 10000 5.1 240 17:39 01.11.2019
5195 Clouds 18 1009 93 10000 5.1 240 17:39 01.11.2019
5196 Clouds 19 1009 88 10000 6.2 250 17:20 01.11.2019
5197 Clouds 19 1009 88 10000 6.7 260 16:40 01.11.2019
5198 Drizzle 18 1010 93 9000 6.7 270 16:20 01.11.2019
5199 Drizzle 18 1010 93 9000 6.7 270 15:56 01.11.2019
5200 Rain 19 1010 88 10000 6.7 260 15:38 01.11.2019
5201 Rain 19 1010 88 10000 6.7 260 15:20 01.11.2019
5202 Rain 18 1010 100 4000 5.1 240 14:43 01.11.2019
5203 Rain 18 1010 100 4000 5.1 240 14:24 01.11.2019
5204 Rain 18 1011 100 2200 5.7 250 13:58 01.11.2019
5205 Rain 18 1011 100 2200 6.2 260 13:39 01.11.2019
5206 Rain 18 1011 100 2200 6.2 260 13:21 01.11.2019
5207 Drizzle 18 1012 100 3600 5.7 240 12:44 01.11.2019
5208 Drizzle 18 1012 100 3600 5.7 240 12:26 01.11.2019
5209 Drizzle 18 1013 93 7000 4.1 240 11:59 01.11.2019
5210 Clouds 18 1013 93 10000 5.1 230 11:40 01.11.2019
5211 Clouds 18 1013 93 10000 5.1 230 11:22 01.11.2019
5212 Clouds 17 1013 100 10000 3.6 230 10:42 01.11.2019
5213 Clouds 17 1013 100 10000 3.6 230 10:42 01.11.2019
5214 Clouds 16 1013 100 10000 3.6 230 10:22 01.11.2019
5215 Drizzle 15 1014 100 5000 4.1 210 09:57 01.11.2019
5216 Drizzle 15 1014 93 3300 4.6 190 09:39 01.11.2019
5217 Clouds 15 1014 100 6000 4.6 180 09:20 01.11.2019
5218 Drizzle 14 1014 100 4300 4.6 180 08:44 01.11.2019
5219 Drizzle 14 1014 100 4300 4.6 180 08:22 01.11.2019
5220 Drizzle 14 1014 100 7000 4.1 180 07:56 01.11.2019
5221 Clouds 14 1015 93 10000 4.1 180 07:37 01.11.2019
5222 Clouds 14 1015 93 10000 3.6 180 07:19 01.11.2019
5223 Clouds 13 1015 93 10000 4.1 170 06:46 01.11.2019
5224 Clouds 14 1015 93 10000 4.1 170 06:22 01.11.2019
5225 Rain 13 1016 93 10000 3.6 180 05:43 01.11.2019
5226 Clouds 13 1017 93 10000 3.1 160 03:57 01.11.2019
5227 Clouds 12 1018 93 10000 2.6 160 02:49 01.11.2019
5228 Clouds 12 1019 100 10000 2.1 200 01:31 01.11.2019
5229 Clouds 12 1019 93 8000 1.5 200 00:40 01.11.2019
5230 Clouds 13 1019 93 8000 2.1 190 00:18 01.11.2019
5231 Clouds 13 1020 100 10000 2.6 190 23:43 31.10.2019
5232 Clouds 13 1020 100 10000 2.6 190 23:23 31.10.2019
5233 Clouds 13 1020 93 10000 2.6 200 22:55 31.10.2019
5234 Clouds 13 1020 93 10000 2.6 200 22:37 31.10.2019
5235 Clouds 13 1020 93 10000 2.6 200 22:18 31.10.2019
5236 Clouds 13 1020 93 10000 2.6 200 22:18 31.10.2019
5237 Clouds 13 1021 93 10000 2.1 210 21:42 31.10.2019
5238 Clouds 13 1021 93 10000 2.1 210 21:20 31.10.2019
5239 Clouds 14 1021 93 10000 2.1 220 20:56 31.10.2019
5240 Clouds 14 1021 93 10000 2.1 230 20:37 31.10.2019
5241 Clouds 14 1021 87 10000 2.6 220 20:19 31.10.2019
5242 Clouds 15 1021 87 10000 2.1 240 19:41 31.10.2019
5243 Clouds 15 1021 87 10000 2.1 240 19:21 31.10.2019
5244 Clouds 15 1021 82 10000 2.6 270 18:56 31.10.2019
5245 Clouds 16 1021 82 10000 3.6 260 18:38 31.10.2019
5246 Clouds 16 1020 82 10000 3.6 270 18:19 31.10.2019
5247 Clouds 17 1021 77 10000 3.6 280 17:41 31.10.2019
5248 Clouds 17 1021 77 10000 3.6 280 17:22 31.10.2019
5249 Clouds 18 1021 82 10000 5.1 290 16:58 31.10.2019
5250 Clouds 18 1020 72 10000 6.2 300 16:39 31.10.2019
5251 Clouds 18 1020 72 10000 6.2 290 16:20 31.10.2019
5252 Clouds 18 1020 72 10000 6.2 290 15:54 31.10.2019
5253 Clouds 18 1020 82 10000 5.1 300 15:36 31.10.2019
5254 Rain 18 1020 88 10000 3.1 310 15:18 31.10.2019
5255 Clouds 19 1020 77 10000 5.7 280 14:41 31.10.2019
5256 Clouds 19 1020 77 10000 5.7 280 14:23 31.10.2019
5257 Clouds 19 1020 68 10000 7.2 280 13:59 31.10.2019
5258 Rain 19 1020 77 10000 6.2 310 13:39 31.10.2019
5259 Rain 18 1021 77 10000 7.2 280 13:20 31.10.2019
5260 Clouds 18 1021 88 10000 3.1 320 12:58 31.10.2019
5261 Clouds 18 1021 88 10000 3.1 320 12:38 31.10.2019
5262 Clouds 19 1020 72 10000 5.1 290 12:20 31.10.2019
5263 Clouds 18 1020 77 10000 5.7 300 11:46 31.10.2019
5264 Clouds 18 1020 77 10000 5.7 300 11:21 31.10.2019
5265 Clouds 18 1020 82 10000 4.6 290 10:59 31.10.2019
5266 Clouds 17 1020 88 10000 4.1 280 10:40 31.10.2019
5267 Clouds 17 1020 88 10000 4.1 280 10:21 31.10.2019
5268 Clouds 17 1020 93 10000 2.6 270 09:56 31.10.2019
5269 Clouds 16 1020 93 10000 2.6 270 09:37 31.10.2019
5270 Clouds 16 1019 93 10000 2.6 280 09:18 31.10.2019
5271 Clouds 16 1019 93 10000 3.6 250 08:44 31.10.2019
5272 Clouds 16 1019 93 10000 3.6 250 08:26 31.10.2019
5273 Clouds 16 1018 87 10000 3.1 270 07:48 31.10.2019
5274 Clouds 16 1018 87 10000 3.1 270 07:27 31.10.2019
5275 -273 0 0 0 0 0 06:54 31.10.2019
5276 Clouds 16 1018 93 10000 3.1 260 06:32 31.10.2019
5277 Clouds 17 1018 88 10000 5.1 290 05:28 31.10.2019
5278 Rain 16 1017 93 10000 5.1 260 03:20 31.10.2019
5279 Rain 16 1017 93 10000 3.1 200 02:30 31.10.2019
5280 Clouds 16 1018 93 10000 2.6 190 01:24 31.10.2019
5281 Rain 16 1018 93 10000 3.1 170 00:27 31.10.2019
5282 Rain 15 1018 93 9000 2.1 160 23:52 30.10.2019
5283 Rain 15 1018 93 9000 2.1 160 23:27 30.10.2019
5284 Rain 15 1018 93 8000 3.1 140 22:43 30.10.2019
5285 Rain 15 1018 93 8000 3.1 140 22:20 30.10.2019
5286 Rain 15 1018 93 7000 3.1 150 21:55 30.10.2019
5287 Rain 15 1018 93 8000 3.1 130 21:37 30.10.2019
5288 Rain 15 1018 93 8000 3.1 130 21:37 30.10.2019
5289 Rain 16 1018 93 8000 3.1 130 21:37 30.10.2019
5290 Rain 16 1018 93 10000 2.1 130 21:18 30.10.2019
5291 Clouds 16 1018 93 10000 2.1 120 20:58 30.10.2019
5292 Rain 16 1018 93 10000 2.1 130 20:58 30.10.2019
5293 Clouds 16 1018 93 10000 2.1 120 20:39 30.10.2019
5294 Clouds 16 1018 93 10000 2.1 120 20:21 30.10.2019
5295 Clouds 16 1018 93 10000 2.1 110 19:54 30.10.2019
5296 Clouds 16 1018 93 10000 2.1 110 19:36 30.10.2019
5297 Clouds 16 1018 88 10000 1.5 120 19:18 30.10.2019
5298 Clouds 17 1018 88 10000 2.6 90 18:39 30.10.2019
5299 Clouds 17 1018 88 10000 2.6 100 18:19 30.10.2019
5300 Clouds 17 1018 88 10000 2.6 100 17:57 30.10.2019
5301 Clouds 17 1018 88 10000 2.6 110 17:38 30.10.2019
5302 Clouds 18 1018 88 10000 2.6 100 17:18 30.10.2019
5303 Clouds 18 1018 88 10000 2.6 100 16:55 30.10.2019
5304 Clouds 18 1018 88 10000 3.1 100 16:36 30.10.2019
5305 Clouds 18 1018 82 10000 2.6 100 16:18 30.10.2019
5306 Clouds 19 1019 88 10000 3.1 100 15:41 30.10.2019
5307 Clouds 19 1019 88 10000 3.1 100 15:41 30.10.2019
5308 Clouds 19 1019 88 10000 3.1 100 15:21 30.10.2019
5309 Clouds 19 1019 88 10000 3.1 100 15:21 30.10.2019
5310 Clouds 19 1019 88 10000 3.1 100 14:59 30.10.2019
5311 Clouds 19 1019 82 10000 2.6 80 14:41 30.10.2019
5312 Clouds 19 1019 82 10000 2.6 80 14:22 30.10.2019
5313 Clouds 18 1019 87 10000 2.6 130 13:57 30.10.2019
5314 Clouds 18 1020 87 10000 1.5 90 13:39 30.10.2019
5315 Clouds 18 1020 87 10000 1.5 90 13:19 30.10.2019
5316 Clouds 15 1020 93 10000 1.5 90 12:54 30.10.2019
5317 Clouds 15 1020 93 10000 3.6 100 12:36 30.10.2019
5318 Clouds 15 1020 93 10000 3.6 100 12:36 30.10.2019
5319 Clouds 15 1020 93 8000 2.1 100 12:18 30.10.2019
5320 Mist 15 1020 100 4000 2.1 80 11:41 30.10.2019
5321 Mist 15 1020 100 4000 2.1 80 11:21 30.10.2019
5322 Fog 14 1020 100 650 2.1 140 10:44 30.10.2019
5323 Fog 14 1020 100 650 2.1 140 10:23 30.10.2019
5324 Fog 13 1020 100 400 2.1 110 09:57 30.10.2019
5325 Fog 13 1020 100 450 1.5 90 09:38 30.10.2019
5326 Fog 13 1020 100 450 1.5 90 09:19 30.10.2019
5327 Fog 13 1020 100 700 2.1 130 08:40 30.10.2019
5328 Fog 13 1020 100 800 1.5 130 08:21 30.10.2019
5329 Fog 13 1019 100 750 1 0 07:47 30.10.2019
5330 Fog 13 1019 100 750 1 0 07:28 30.10.2019
5331 Fog 13 1019 100 550 1.5 100 06:43 30.10.2019
5332 Fog 13 1019 100 550 1.5 100 06:21 30.10.2019
5333 Fog 13 1019 100 450 1 0 05:42 30.10.2019
5334 Fog 13 1019 100 450 1 0 05:19 30.10.2019
5335 Fog 14 1020 100 400 1 0 03:45 30.10.2019
5336 Fog 13 1020 100 400 0.5 0 03:18 30.10.2019
5337 Fog 13 1020 100 350 1 0 02:19 30.10.2019
5338 Fog 13 1020 100 350 1.5 0 01:32 30.10.2019
5339 Fog 14 1019 100 500 2.1 30 00:31 30.10.2019
5340 Fog 14 1020 93 500 0.5 0 23:46 29.10.2019
5341 Fog 14 1020 93 500 0.5 0 23:25 29.10.2019
5342 Clouds 15 1019 100 7000 1.5 360 22:49 29.10.2019
5343 Clouds 15 1019 100 7000 1.5 360 22:20 29.10.2019
5344 Clouds 15 1019 93 7000 1.5 360 21:59 29.10.2019
5345 Clouds 15 1019 93 7000 2.1 10 21:41 29.10.2019
5346 Fog 15 1019 93 6000 1.5 0 21:20 29.10.2019
5347 Fog 15 1019 93 6000 1.5 0 20:58 29.10.2019
5348 Fog 15 1019 93 4900 0.5 0 20:40 29.10.2019
5349 Clear 15 1018 93 9000 0.5 340 20:21 29.10.2019
5350 Clear 15 1018 93 9000 0.5 340 19:56 29.10.2019
5351 Clear 15 1018 93 9000 0.5 340 19:56 29.10.2019
5352 Clear 16 1018 93 10000 1.5 0 19:38 29.10.2019
5353 Clear 17 1018 88 10000 2.1 20 19:19 29.10.2019
5354 Clear 17 1018 88 10000 2.1 20 18:55 29.10.2019
5355 Clouds 17 1017 82 10000 1.5 30 18:37 29.10.2019
5356 Clouds 17 1017 82 10000 1.5 30 18:37 29.10.2019
5357 Clouds 18 1017 82 10000 1.5 30 18:18 29.10.2019
5358 Clouds 18 1017 82 10000 1.5 30 17:54 29.10.2019
5359 Clouds 18 1017 82 10000 1.5 30 17:54 29.10.2019
5360 Clouds 19 1017 82 10000 2.1 60 17:36 29.10.2019
5361 Clouds 19 1017 82 10000 2.1 60 17:36 29.10.2019
5362 Clouds 19 1017 82 10000 1.5 0 17:18 29.10.2019
5363 Clouds 20 1016 77 10000 1.5 300 16:39 29.10.2019
5364 Clouds 20 1016 77 10000 1.5 300 16:19 29.10.2019
5365 Clear 20 1016 77 10000 1.5 320 15:55 29.10.2019
5366 Clouds 20 1016 77 10000 2.1 310 15:37 29.10.2019
5367 Clouds 20 1016 77 10000 2.1 310 15:19 29.10.2019
5368 Clouds 19 1016 77 10000 4.6 300 14:54 29.10.2019
5369 Clouds 19 1016 77 10000 4.6 300 14:54 29.10.2019
5370 Clouds 20 1016 77 10000 3.1 280 14:36 29.10.2019
5371 Clouds 20 1016 82 10000 2.1 280 14:18 29.10.2019
5372 Clouds 19 1016 88 8000 1.5 240 13:40 29.10.2019
5373 Clouds 19 1016 88 8000 1.5 240 13:40 29.10.2019
5374 Clouds 18 1017 93 6000 0.5 0 13:21 29.10.2019
5375 Mist 17 1016 100 3900 1 0 12:45 29.10.2019
5376 Fog 16 1016 100 1400 0.7 243 12:25 29.10.2019
5377 Mist 17 1016 100 3900 1 0 12:25 29.10.2019
5378 Fog 16 1016 100 1400 0.7 243 11:57 29.10.2019
5379 Fog 15 1016 100 400 0.7 243 11:38 29.10.2019
5380 Fog 15 1016 100 300 1.56 139 11:19 29.10.2019
5381 Fog 14 1016 100 300 1.56 139 10:57 29.10.2019
5382 Fog 14 1016 100 350 1 0 10:38 29.10.2019
5383 Fog 14 1015 100 350 1.5 0 10:19 29.10.2019
5384 Fog 13 1015 100 300 1.5 130 09:43 29.10.2019
5385 Fog 13 1015 100 300 1.5 130 09:23 29.10.2019
5386 Fog 13 1015 100 300 1.5 130 09:23 29.10.2019
5387 Fog 13 1015 100 300 1.5 130 09:23 29.10.2019
5388 Fog 12 1015 100 350 1.5 100 08:58 29.10.2019
5389 Fog 12 1015 100 300 1 100 08:39 29.10.2019
5390 Fog 12 1015 100 300 1 100 08:21 29.10.2019
5391 Fog 11 1014 100 500 1.41 122 07:48 29.10.2019
5392 Fog 11 1014 93 500 1 130 07:21 29.10.2019
5393 Fog 12 1014 93 500 1 130 06:54 29.10.2019
5394 Fog 12 1014 93 300 1.41 122 06:33 29.10.2019
5395 Fog 12 1014 100 350 1.41 122 05:59 29.10.2019
5396 Fog 12 1014 100 500 1 120 05:39 29.10.2019
5397 Fog 12 1014 100 2500 1.5 110 04:52 29.10.2019
5398 Fog 13 1014 100 700 1 120 03:23 29.10.2019
5399 Fog 13 1014 93 4600 2.1 100 01:57 29.10.2019
5400 Fog 13 1014 93 650 1 90 01:36 29.10.2019
5401 Fog 14 1014 93 700 1 120 00:53 29.10.2019
5402 Fog 14 1014 93 5000 1.5 100 00:26 29.10.2019
5403 Fog 14 1014 93 7000 1.5 100 23:38 28.10.2019
5404 Fog 14 1014 93 7000 1.5 100 23:20 28.10.2019
5405 Clouds 15 1015 93 8000 2.1 110 23:20 28.10.2019
5406 Fog 14 1014 93 7000 1.5 100 23:20 28.10.2019
5407 Clouds 15 1014 93 10000 2.6 110 22:40 28.10.2019
5408 Clouds 15 1014 93 10000 2.6 110 22:20 28.10.2019
5409 Clouds 15 1014 93 10000 2.1 110 21:59 28.10.2019
5410 Clouds 15 1014 93 10000 2.1 120 21:41 28.10.2019
5411 Clouds 15 1014 88 7000 2.6 110 21:22 28.10.2019
5412 Clouds 16 1014 88 7000 2.6 110 20:59 28.10.2019
5413 Clouds 16 1014 88 10000 2.1 110 20:40 28.10.2019
5414 Clouds 16 1014 88 10000 2.1 110 20:21 28.10.2019
5415 Clouds 16 1014 88 10000 2.1 100 19:54 28.10.2019
5416 Clouds 17 1014 88 10000 3.1 90 19:36 28.10.2019
5417 Clouds 17 1014 82 10000 2.6 90 19:18 28.10.2019
5418 Clouds 17 1014 82 10000 2.6 90 18:56 28.10.2019
5419 Clouds 17 1014 82 10000 2.6 90 18:56 28.10.2019
5420 Clouds 18 1014 77 10000 2.1 100 18:38 28.10.2019
5421 Clouds 18 1014 72 10000 4.1 90 18:20 28.10.2019
5422 Clouds 19 1014 72 10000 4.1 90 17:55 28.10.2019
5423 Clouds 20 1015 64 10000 3.1 110 17:36 28.10.2019
5424 Clouds 20 1015 68 10000 4.1 100 17:18 28.10.2019
5425 Clouds 20 1015 68 10000 4.1 100 17:18 28.10.2019
5426 Clouds 20 1015 68 10000 4.1 100 17:18 28.10.2019
5427 Clouds 20 1015 68 10000 4.1 100 16:54 28.10.2019
5428 Clouds 20 1015 72 10000 3.6 110 16:36 28.10.2019
5429 Clouds 20 1015 72 10000 4.1 90 16:18 28.10.2019
5430 Clouds 20 1015 68 10000 3.6 100 15:42 28.10.2019
5431 Clouds 20 1015 68 10000 3.6 100 15:24 28.10.2019
5432 Clouds 20 1015 72 10000 4.1 110 14:59 28.10.2019
5433 Clouds 20 1015 72 10000 4.1 120 14:40 28.10.2019
5434 Clouds 20 1015 72 10000 4.1 120 14:20 28.10.2019
5435 Clouds 20 1016 72 10000 3.6 100 13:59 28.10.2019
5436 Clouds 20 1016 72 10000 3.1 100 13:41 28.10.2019
5437 Clouds 19 1016 77 10000 3.6 120 13:18 28.10.2019
5438 Clouds 20 1016 77 10000 3.6 100 12:43 28.10.2019
5439 Clouds 19 1016 77 10000 3.6 100 12:22 28.10.2019
5440 Clouds 19 1017 82 10000 3.6 90 11:58 28.10.2019
5441 Clouds 18 1017 82 10000 3.6 90 11:37 28.10.2019
5442 Clouds 18 1017 88 10000 4.1 90 11:19 28.10.2019
5443 Clouds 17 1017 88 9000 3.6 80 10:41 28.10.2019
5444 Clouds 17 1017 88 9000 3.6 80 10:22 28.10.2019
5445 Clouds 16 1017 93 6000 2.6 70 09:58 28.10.2019
5446 Clouds 16 1017 93 7000 2.1 70 09:39 28.10.2019
5447 Clouds 16 1017 93 6000 2.6 60 09:19 28.10.2019
5448 Clouds 15 1017 93 6000 2.6 60 08:57 28.10.2019
5449 Clouds 15 1016 93 6000 3.1 40 08:57 28.10.2019
5450 Clouds 15 1016 93 6000 3.1 40 08:38 28.10.2019
5451 Clouds 15 1016 93 6000 3.1 50 08:19 28.10.2019
5452 Clouds 15 1016 93 6000 3.1 50 07:56 28.10.2019
5453 Clouds 15 1016 93 10000 2.6 60 07:36 28.10.2019
5454 Clouds 15 1016 93 9000 2.1 100 07:18 28.10.2019
5455 Clouds 15 1016 93 9000 4.1 120 06:40 28.10.2019
5456 Clouds 15 1016 93 10000 3.6 140 05:41 28.10.2019
5457 Rain 16 1017 100 6000 3.1 110 03:48 28.10.2019
5458 Rain 16 1018 93 6000 2.1 140 02:46 28.10.2019
5459 Rain 16 1018 93 6000 2.1 140 02:27 28.10.2019
5460 Clouds 16 1018 93 7000 2.6 30 00:56 28.10.2019
5461 Clouds 16 1018 93 7000 3.1 10 00:33 28.10.2019
5462 Clouds 16 1018 93 8000 1 110 23:47 27.10.2019
5463 Clouds 16 1018 93 8000 1 110 23:24 27.10.2019
5464 Clouds 16 1018 93 9000 1 0 22:58 27.10.2019
5465 Clouds 16 1018 93 9000 1 0 22:58 27.10.2019
5466 Clouds 16 1018 93 10000 1.5 0 22:39 27.10.2019
5467 Clouds 16 1018 93 10000 1.5 0 22:21 27.10.2019
5468 Clouds 16 1018 93 10000 1.5 120 22:21 27.10.2019
5469 Clouds 16 1018 93 10000 1.5 120 21:57 27.10.2019
5470 Clouds 16 1018 93 10000 1 0 21:39 27.10.2019
5471 Clouds 17 1018 93 10000 1 0 21:20 27.10.2019
5472 Rain 17 1018 88 10000 0.5 90 20:56 27.10.2019
5473 Rain 17 1018 88 10000 0.47 111 20:37 27.10.2019
5474 Clouds 17 1018 88 10000 1.04 213 20:19 27.10.2019
5475 Clouds 17 1018 88 10000 2.1 100 19:40 27.10.2019
5476 Clouds 17 1018 88 10000 2.1 100 19:21 27.10.2019
5477 Clouds 18 1018 82 10000 2.1 110 18:58 27.10.2019
5478 Clouds 18 1018 77 10000 1.5 120 18:40 27.10.2019
5479 Clouds 18 1018 77 10000 1.5 120 18:22 27.10.2019
5480 Clouds 19 1018 72 10000 2.1 140 17:58 27.10.2019
5481 Clouds 19 1018 72 10000 2.1 140 17:39 27.10.2019
5482 Clouds 19 1018 72 10000 2.1 140 17:39 27.10.2019
5483 Clouds 20 1018 72 10000 1.5 140 17:19 27.10.2019
5484 Clouds 20 1018 72 10000 1.5 140 16:57 27.10.2019
5485 Clouds 20 1018 72 10000 2.1 140 16:38 27.10.2019
5486 Clouds 20 1018 72 10000 2.6 120 16:20 27.10.2019
5487 Clouds 20 1018 72 10000 2.6 120 15:55 27.10.2019
5488 Clouds 20 1018 72 10000 2.6 140 15:37 27.10.2019
5489 Clouds 20 1018 72 10000 2.1 140 15:18 27.10.2019
5490 Clouds 20 1018 68 10000 2.1 160 14:42 27.10.2019
5491 Clouds 20 1018 68 10000 2.1 160 14:20 27.10.2019
5492 Clouds 20 1018 68 10000 1.5 180 13:56 27.10.2019
5493 Clouds 19 1019 72 10000 2.1 160 13:38 27.10.2019
5494 Clouds 19 1019 72 10000 2.1 160 13:19 27.10.2019
5495 Clouds 18 1019 77 10000 2.6 140 12:45 27.10.2019
5496 Clouds 18 1019 77 10000 2.6 140 12:24 27.10.2019
5497 Clouds 18 1019 72 10000 2.6 140 11:58 27.10.2019
5498 Clouds 17 1019 72 10000 2.6 160 11:38 27.10.2019
5499 Clouds 17 1019 72 10000 2.6 160 11:20 27.10.2019
5500 Clouds 16 1019 82 10000 2.6 150 10:44 27.10.2019
5501 Clouds 16 1019 82 10000 2.6 150 10:24 27.10.2019
5502 Clouds 14 1019 93 10000 2.6 140 09:56 27.10.2019
5503 Clouds 13 1019 93 10000 1.5 150 09:37 27.10.2019
5504 Clouds 13 1018 93 10000 2.6 130 09:18 27.10.2019
5505 Clouds 13 1018 93 10000 2.6 130 09:18 27.10.2019
5506 Clouds 12 1018 93 10000 2.6 140 08:41 27.10.2019
5507 Clouds 12 1018 93 10000 2.6 140 08:21 27.10.2019
5508 Clouds 12 1018 93 9000 1.5 140 07:50 27.10.2019
5509 Clouds 12 1018 93 7000 2.6 130 07:29 27.10.2019
5510 Clouds 12 1018 93 7000 2.1 130 06:56 27.10.2019
5511 Clouds 12 1018 93 8000 2.1 140 06:38 27.10.2019
5512 Clouds 12 1018 93 8000 2.1 140 06:38 27.10.2019
5513 Clouds 12 1018 93 9000 2.1 140 06:20 27.10.2019
5514 Clouds 13 1018 93 8000 2.6 140 05:38 27.10.2019
5515 Clouds 12 1018 100 9000 2.1 130 04:47 27.10.2019
5516 Clouds 14 1018 93 10000 2.6 140 02:46 27.10.2019
5517 Clouds 14 1018 93 10000 3.6 150 01:36 27.10.2019
5518 Clouds 14 1018 87 10000 2.6 140 01:18 27.10.2019
5519 Clouds 14 1018 87 10000 2.1 140 00:42 27.10.2019
5520 Clouds 14 1018 93 10000 1.5 120 23:59 26.10.2019
5521 Clouds 15 1018 87 10000 1 140 23:40 26.10.2019
5522 Clouds 15 1018 87 10000 1 140 23:22 26.10.2019
5523 Clouds 15 1018 87 10000 2.6 140 22:59 26.10.2019
5524 Clouds 15 1018 87 10000 3.1 140 22:39 26.10.2019
5525 Clouds 16 1018 82 10000 3.1 140 22:20 26.10.2019
5526 Clouds 16 1018 82 10000 3.1 140 21:59 26.10.2019
5527 Clouds 16 1018 82 10000 3.1 130 21:40 26.10.2019
5528 Clouds 16 1017 82 10000 3.6 130 21:19 26.10.2019
5529 Clouds 17 1017 77 10000 1 140 20:45 26.10.2019
5530 Clouds 17 1017 77 10000 2.6 110 20:20 26.10.2019
5531 Clouds 17 1017 77 10000 2.6 110 19:56 26.10.2019
5532 Clouds 19 1017 68 10000 1.5 130 19:38 26.10.2019
5533 Clouds 19 1017 68 10000 1.5 130 19:19 26.10.2019
5534 Clouds 21 1017 60 10000 2.1 130 18:55 26.10.2019
5535 Clouds 21 1017 56 10000 3.1 130 18:37 26.10.2019
5536 Clouds 22 1017 56 10000 3.1 130 18:18 26.10.2019
5537 Clouds 23 1017 53 10000 2.6 140 17:39 26.10.2019
5538 Clouds 23 1017 53 10000 2.6 140 17:21 26.10.2019
5539 Clouds 24 1017 50 10000 3.1 140 16:58 26.10.2019
5540 Clouds 23 1017 50 10000 3.1 140 16:40 26.10.2019
5541 Clouds 23 1017 50 10000 3.1 140 16:21 26.10.2019
5542 Clouds 23 1017 56 10000 2.6 160 15:41 26.10.2019
5543 Clouds 23 1018 56 10000 3.1 140 15:19 26.10.2019
5544 Clouds 22 1018 56 10000 3.1 130 14:41 26.10.2019
5545 Clouds 21 1018 60 10000 2.6 150 14:22 26.10.2019
5546 Clouds 20 1017 55 0 4.04 141 13:59 26.10.2019
5547 Clouds 20 1017 55 0 4.04 141 13:40 26.10.2019
5548 Clouds 20 1017 55 0 4.04 141 13:20 26.10.2019
5549 Clouds 16 1017 87 0 1.34 131 12:46 26.10.2019
5550 Clouds 15 1018 77 10000 2.6 140 12:23 26.10.2019
5551 Clouds 15 1018 77 10000 2.6 140 11:48 26.10.2019
5552 Clouds 15 1018 77 10000 2.6 140 11:48 26.10.2019
5553 Clouds 15 1018 77 10000 2.6 140 11:27 26.10.2019
5554 Clouds 14 1018 77 10000 2.6 140 11:27 26.10.2019
5555 Clouds 12 1018 82 10000 4.6 140 10:47 26.10.2019
5556 Clouds 12 1018 82 10000 4.6 140 10:27 26.10.2019
5557 Clouds 11 1018 87 10000 4.1 140 09:57 26.10.2019
5558 Clouds 10 1018 93 10000 2.1 130 09:39 26.10.2019
5559 Clouds 10 1018 93 10000 2.1 130 09:20 26.10.2019
5560 Clouds 10 1017 93 10000 2.1 140 08:42 26.10.2019
5561 Clouds 10 1017 93 10000 2.1 140 08:24 26.10.2019
5562 Clouds 10 1017 93 10000 2.6 130 07:44 26.10.2019
5563 Clouds 10 1017 93 10000 2.6 130 07:24 26.10.2019
5564 Clouds 11 1017 93 10000 3.6 140 06:41 26.10.2019
5565 Clouds 10 1017 93 10000 3.6 130 06:18 26.10.2019
5566 Clouds 11 1017 93 10000 4.1 130 05:19 26.10.2019
5567 Clouds 11 1018 93 10000 3.1 120 04:23 26.10.2019
5568 Clouds 12 1019 93 10000 2.6 120 02:37 26.10.2019
5569 Clouds 13 1019 93 10000 3.6 120 01:48 26.10.2019
5570 Clouds 13 1019 93 10000 2.6 120 00:58 26.10.2019
5571 Clear 13 1020 93 10000 2.6 120 00:18 26.10.2019
5572 Clear 13 1020 87 10000 3.1 130 23:40 25.10.2019
5573 Clear 13 1020 93 10000 4.1 130 23:19 25.10.2019
5574 Clear 14 1020 87 10000 3.6 130 22:40 25.10.2019
5575 Clear 14 1020 87 10000 3.6 130 22:22 25.10.2019
5576 Clear 14 1020 87 10000 3.6 130 21:57 25.10.2019
5577 Clear 14 1020 87 10000 3.1 110 21:38 25.10.2019
5578 Clouds 15 1020 93 10000 3.1 110 21:19 25.10.2019
5579 Clouds 15 1020 82 10000 2.6 110 20:44 25.10.2019
5580 Clouds 15 1020 82 10000 2.6 110 20:20 25.10.2019
5581 Clouds 15 1020 82 10000 2.6 110 20:20 25.10.2019
5582 Clouds 16 1020 82 10000 3.6 110 20:20 25.10.2019
5583 Clouds 16 1020 82 10000 3.6 110 19:56 25.10.2019
5584 Clouds 16 1020 77 10000 4.1 110 19:38 25.10.2019
5585 Clouds 17 1020 77 10000 4.1 110 19:20 25.10.2019
5586 Clouds 18 1020 72 10000 5.1 120 18:43 25.10.2019
5587 Clouds 18 1020 63 10000 5.1 130 18:21 25.10.2019
5588 Clouds 19 1021 60 10000 6.2 120 17:41 25.10.2019
5589 Clouds 20 1021 64 10000 5.1 100 17:20 25.10.2019
5590 Clouds 20 1021 64 10000 4.6 110 16:47 25.10.2019
5591 Clouds 20 1021 64 10000 4.6 110 16:24 25.10.2019
5592 Clouds 20 1021 60 10000 4.1 130 15:58 25.10.2019
5593 Clouds 20 1021 60 10000 3.6 110 15:40 25.10.2019
5594 Clouds 20 1022 64 10000 3.6 130 15:21 25.10.2019
5595 Clouds 19 1022 72 10000 3.6 130 14:43 25.10.2019
5596 Clouds 19 1022 72 10000 3.6 130 14:23 25.10.2019
5597 Clouds 20 1022 72 10000 2.6 110 13:59 25.10.2019
5598 Clouds 19 1023 77 10000 2.6 120 13:39 25.10.2019
5599 Clouds 18 1023 77 10000 2.1 90 13:21 25.10.2019
5600 Clouds 18 1023 77 10000 2.1 90 12:55 25.10.2019
5601 Clouds 18 1023 77 10000 2.1 90 12:55 25.10.2019
5602 Clouds 17 1023 82 10000 3.1 100 12:36 25.10.2019
5603 Clouds 16 1023 82 10000 2.6 140 12:18 25.10.2019
5604 Clouds 15 1023 87 10000 1.5 0 11:39 25.10.2019
5605 Clouds 15 1023 87 10000 1.5 0 11:39 25.10.2019
5606 Clouds 15 1023 87 10000 1.5 0 11:20 25.10.2019
5607 Clouds 13 1023 93 10000 1.5 150 10:42 25.10.2019
5608 Clouds 13 1023 93 10000 1.5 150 10:23 25.10.2019
5609 Clouds 13 1023 93 10000 2.1 170 09:59 25.10.2019
5610 Clouds 12 1023 93 10000 2.1 160 09:39 25.10.2019
5611 Clouds 12 1023 93 10000 2.1 160 09:20 25.10.2019
5612 Clouds 12 1023 93 10000 2.1 170 08:51 25.10.2019
5613 Clouds 12 1023 93 10000 2.1 170 08:51 25.10.2019
5614 Clouds 12 1023 93 10000 1.5 160 08:33 25.10.2019
5615 Clouds 12 1023 100 10000 3.1 180 07:57 25.10.2019
5616 Clouds 12 1023 100 10000 3.1 180 07:35 25.10.2019
5617 Clouds 12 1022 100 10000 2.6 190 06:53 25.10.2019
5618 Clouds 12 1022 100 10000 3.1 180 06:31 25.10.2019
5619 Clouds 12 1022 100 10000 2.6 180 05:40 25.10.2019
5620 Clouds 12 1022 100 10000 2.6 190 04:54 25.10.2019
5621 Clouds 12 1022 93 10000 3.6 190 03:45 25.10.2019
5622 Clouds 12 1021 93 10000 2.6 210 01:55 25.10.2019
5623 Clouds 12 1021 93 10000 2.1 200 01:35 25.10.2019
5624 Clouds 13 1021 93 10000 2.1 210 00:22 25.10.2019
5625 Clouds 13 1020 93 10000 2.1 230 23:41 24.10.2019
5626 Clouds 14 1020 93 10000 2.1 230 23:23 24.10.2019
5627 Clouds 13 1020 93 10000 2.1 220 22:56 24.10.2019
5628 Clouds 13 1020 93 10000 2.6 230 22:37 24.10.2019
5629 Clouds 13 1020 93 10000 2.6 230 22:18 24.10.2019
5630 Clouds 14 1019 100 10000 3.1 230 21:56 24.10.2019
5631 Clouds 14 1019 100 10000 3.1 230 21:56 24.10.2019
5632 Clouds 14 1019 100 10000 3.1 230 21:38 24.10.2019
5633 Clouds 14 1018 93 10000 2.6 230 21:19 24.10.2019
5634 Clouds 14 1019 100 10000 3.1 230 21:19 24.10.2019
5635 Clouds 14 1018 93 10000 2.6 230 20:56 24.10.2019
5636 Clouds 14 1017 93 10000 2.6 250 20:38 24.10.2019
5637 Clouds 14 1017 93 10000 2.6 250 20:20 24.10.2019
5638 Clouds 15 1016 87 10000 4.1 280 19:45 24.10.2019
5639 Clouds 15 1016 87 10000 4.1 280 19:27 24.10.2019
5640 Clouds 15 1015 93 10000 6.2 270 18:59 24.10.2019
5641 Rain 16 1014 100 10000 5.1 250 18:40 24.10.2019
5642 Rain 15 1013 92 0 1.34 231 18:22 24.10.2019
5643 Rain 15 1014 93 2200 7.2 250 17:59 24.10.2019
5644 Rain 15 1014 93 10000 4.1 200 17:39 24.10.2019
5645 Rain 15 1014 93 10000 4.1 200 17:19 24.10.2019
5646 Rain 15 1014 93 10000 4.1 200 16:55 24.10.2019
5647 Rain 15 1013 93 5000 5.7 210 16:37 24.10.2019
5648 Rain 15 1013 93 8000 5.7 220 16:18 24.10.2019
5649 Rain 15 1013 93 8000 5.7 220 15:54 24.10.2019
5650 Rain 15 1013 87 10000 7.7 240 15:36 24.10.2019
5651 Clouds 15 1013 87 10000 3.1 200 15:18 24.10.2019
5652 Rain 16 1013 82 10000 4.1 210 14:44 24.10.2019
5653 Rain 16 1013 82 10000 4.1 210 14:26 24.10.2019
5654 Clouds 16 1013 82 10000 3.6 220 13:59 24.10.2019
5655 Clouds 15 1013 82 10000 4.1 240 13:37 24.10.2019
5656 Rain 14 1012 93 10000 5.1 250 13:18 24.10.2019
5657 Rain 14 1012 93 10000 5.1 250 12:56 24.10.2019
5658 Rain 14 1012 93 10000 7.7 260 12:37 24.10.2019
5659 Drizzle 14 1011 87 10000 7.2 270 12:18 24.10.2019
5660 Drizzle 14 1011 87 10000 7.2 270 11:55 24.10.2019
5661 Rain 14 1010 93 10000 8.2 270 11:36 24.10.2019
5662 Rain 14 1009 93 10000 9.3 270 11:18 24.10.2019
5663 Rain 14 1008 93 10000 2.6 230 10:42 24.10.2019
5664 Rain 14 1008 93 10000 2.6 230 10:23 24.10.2019
5665 Rain 14 1007 93 9000 4.1 180 09:40 24.10.2019
5666 Rain 13 1007 93 9000 4.1 180 09:19 24.10.2019
5667 Clouds 13 1007 93 10000 5.7 170 08:58 24.10.2019
5668 Clouds 13 1006 93 10000 5.1 180 08:38 24.10.2019
5669 Clouds 13 1006 93 10000 5.1 180 08:19 24.10.2019
5670 Clouds 14 1005 93 10000 7.7 200 07:47 24.10.2019
5671 Clouds 14 1005 93 10000 7.7 200 07:23 24.10.2019
5672 Clouds 14 1005 93 10000 7.7 200 07:23 24.10.2019
5673 Clouds 13 1004 93 10000 10.8 180 06:51 24.10.2019
5674 Drizzle 13 1004 93 10000 9.8 170 06:32 24.10.2019
5675 Drizzle 13 1004 93 10000 9.8 170 06:32 24.10.2019
5676 Clouds 13 1005 87 10000 7.2 170 05:53 24.10.2019
5677 Clouds 13 1005 93 10000 6.7 180 05:30 24.10.2019
5678 Drizzle 13 1006 93 7000 6.7 170 03:51 24.10.2019
5679 Clouds 14 1006 93 10000 6.7 150 03:26 24.10.2019
5680 Clouds 14 1006 93 10000 4.1 160 02:29 24.10.2019
5681 Clouds 14 1006 93 10000 3.6 170 01:59 24.10.2019
5682 Rain 14 1006 93 10000 3.6 170 01:30 24.10.2019
5683 Rain 14 1007 100 10000 4.1 170 00:51 24.10.2019
5684 Clouds 14 1006 93 10000 2.6 180 00:23 24.10.2019
5685 Clouds 14 1006 93 9000 2.6 150 23:44 23.10.2019
5686 Clouds 14 1006 93 9000 2.6 150 23:24 23.10.2019
5687 Clouds 14 1006 93 6000 1.5 150 22:58 23.10.2019
5688 Clouds 14 1006 93 10000 0.5 130 22:39 23.10.2019
5689 Clouds 14 1006 93 10000 1.5 170 22:19 23.10.2019
5690 Clouds 14 1006 93 10000 1.5 170 21:58 23.10.2019
5691 Clouds 14 1006 93 10000 1 160 21:39 23.10.2019
5692 Rain 15 1006 93 10000 1 160 21:20 23.10.2019
5693 Rain 15 1006 93 10000 1.5 180 20:58 23.10.2019
5694 Rain 15 1005 93 10000 3.6 180 20:39 23.10.2019
5695 Rain 15 1005 93 10000 3.6 180 20:39 23.10.2019
5696 Rain 15 1005 93 10000 3.6 180 20:20 23.10.2019
5697 Rain 15 1005 87 9000 3.1 210 19:58 23.10.2019
5698 Rain 16 1005 82 10000 2.1 80 19:39 23.10.2019
5699 Rain 16 1005 82 10000 2.1 70 19:18 23.10.2019
5700 Rain 16 1005 82 10000 2.1 70 18:55 23.10.2019
5701 Rain 16 1005 77 10000 2.1 70 18:36 23.10.2019
5702 Rain 17 1005 77 10000 2.6 90 18:18 23.10.2019
5703 Clouds 18 1005 77 10000 3.6 70 17:43 23.10.2019
5704 Clouds 18 1005 77 10000 2.6 110 17:20 23.10.2019
5705 Clouds 18 1005 77 10000 2.6 110 16:56 23.10.2019
5706 Clouds 18 1004 72 10000 1 0 16:38 23.10.2019
5707 Clouds 18 1004 72 10000 1 0 16:19 23.10.2019
5708 Clouds 18 1004 72 10000 1 0 16:19 23.10.2019
5709 Rain 18 1005 77 10000 1 0 15:42 23.10.2019
5710 Rain 18 1005 77 10000 1 0 15:22 23.10.2019
5711 Rain 17 1005 82 10000 1.5 190 14:58 23.10.2019
5712 Clouds 17 1006 87 10000 1 0 14:38 23.10.2019
5713 Clouds 16 1006 87 10000 2.1 220 14:19 23.10.2019
5714 Clouds 16 1006 87 10000 2.1 220 13:57 23.10.2019
5715 Clouds 16 1006 87 10000 3.1 220 13:38 23.10.2019
5716 Clouds 15 1006 87 10000 2.6 210 13:20 23.10.2019
5717 Clouds 15 1006 87 10000 2.6 210 12:54 23.10.2019
5718 Clouds 15 1006 87 10000 2.6 210 12:54 23.10.2019
5719 Clouds 15 1006 87 10000 2.6 210 12:54 23.10.2019
5720 Clouds 15 1006 93 10000 3.1 190 12:36 23.10.2019
5721 Clouds 14 1006 93 10000 3.6 200 12:18 23.10.2019
5722 Clouds 14 1006 93 10000 3.6 200 11:54 23.10.2019
5723 Clouds 14 1006 100 10000 3.6 190 11:36 23.10.2019
5724 Clouds 14 1006 100 10000 3.6 190 11:36 23.10.2019
5725 Clouds 14 1006 100 10000 3.6 190 11:36 23.10.2019
5726 Clouds 14 1006 100 10000 2.1 140 11:18 23.10.2019
5727 Clouds 14 1006 93 10000 2.1 140 10:42 23.10.2019
5728 Clouds 14 1006 93 10000 2.1 140 10:23 23.10.2019
5729 Clouds 13 1005 93 10000 2.1 60 09:42 23.10.2019
5730 Clouds 13 1005 93 10000 2.1 60 09:23 23.10.2019
5731 Clouds 13 1005 100 10000 5.1 40 08:59 23.10.2019
5732 Clouds 13 1006 100 10000 3.6 60 08:41 23.10.2019
5733 Clouds 13 1006 100 10000 3.6 60 08:22 23.10.2019
5734 Rain 13 1007 100 10000 2.6 90 07:45 23.10.2019
5735 Rain 13 1008 100 4400 2.1 100 07:21 23.10.2019
5736 Rain 13 1008 100 3500 2.1 170 06:46 23.10.2019
5737 Rain 13 1008 93 4100 1 50 06:20 23.10.2019
5738 Rain 13 1008 93 4000 4.01 66 05:24 23.10.2019
5739 Rain 13 1009 93 10000 1 0 04:34 23.10.2019
5740 Clouds 13 1009 100 10000 3.6 50 02:45 23.10.2019
5741 Clouds 14 1009 100 10000 3.6 50 02:25 23.10.2019
5742 Clouds 13 1010 93 10000 2.6 70 01:25 23.10.2019
5743 Clouds 13 1010 100 10000 4.6 50 00:35 23.10.2019
5744 Clouds 13 1010 100 10000 4.6 50 00:35 23.10.2019
5745 Clouds 13 1010 93 10000 5.1 40 23:57 22.10.2019
5746 Clouds 13 1011 93 10000 3.6 10 23:38 22.10.2019
5747 Drizzle 13 1011 93 5000 3.6 20 23:18 22.10.2019
5748 Drizzle 13 1011 93 5000 3.6 20 22:54 22.10.2019
5749 Drizzle 13 1012 93 10000 4.6 30 22:36 22.10.2019
5750 Clouds 13 1012 93 10000 5.7 20 22:18 22.10.2019
5751 Clouds 13 1012 93 10000 5.7 20 21:55 22.10.2019
5752 Rain 13 1012 93 10000 6.2 20 21:36 22.10.2019
5753 Rain 13 1012 93 7000 7.7 20 21:18 22.10.2019
5754 Rain 12 1013 93 6000 6.2 10 20:42 22.10.2019
5755 Rain 12 1013 93 6000 6.2 10 20:23 22.10.2019
5756 Rain 12 1014 93 5000 5.1 350 19:59 22.10.2019
5757 Rain 12 1014 100 4700 4.6 350 19:41 22.10.2019
5758 Rain 12 1014 100 4700 4.6 350 19:23 22.10.2019
5759 Rain 12 1014 93 4100 4.6 10 18:57 22.10.2019
5760 Rain 12 1014 93 10000 4.1 350 18:39 22.10.2019
5761 Rain 12 1014 93 10000 4.1 350 18:20 22.10.2019
5762 Rain 12 1015 87 6000 3.6 10 17:56 22.10.2019
5763 Rain 13 1015 87 10000 4.6 350 17:37 22.10.2019
5764 Clouds 13 1016 87 10000 4.6 10 17:18 22.10.2019
5765 Clouds 13 1016 87 10000 4.6 10 16:56 22.10.2019
5766 Rain 13 1016 87 10000 5.7 10 16:37 22.10.2019
5767 Clouds 13 1017 82 10000 3.6 350 16:18 22.10.2019
5768 Clouds 13 1017 82 10000 4.1 350 15:42 22.10.2019
5769 Clouds 13 1017 82 10000 4.1 350 15:20 22.10.2019
5770 Clouds 13 1018 82 10000 2.6 350 14:50 22.10.2019
5771 Clouds 13 1018 87 10000 4.1 20 14:22 22.10.2019
5772 Clouds 13 1019 87 10000 4.1 10 13:59 22.10.2019
5773 Clouds 13 1020 87 10000 3.1 20 13:41 22.10.2019
5774 Clouds 13 1020 87 10000 3.1 20 13:19 22.10.2019
5775 Clouds 12 1020 87 10000 2.1 10 12:55 22.10.2019
5776 Clouds 12 1020 87 10000 2.1 350 12:37 22.10.2019
5777 Clouds 12 1020 87 10000 2.1 350 12:19 22.10.2019
5778 Clouds 11 1020 93 10000 3.1 40 11:40 22.10.2019
5779 Clouds 10 1020 93 10000 3.1 40 11:22 22.10.2019
5780 Clouds 10 1021 93 10000 2.1 30 10:59 22.10.2019
5781 Clouds 9 1020 100 10000 1.5 30 10:38 22.10.2019
5782 Clouds 9 1020 100 10000 1.5 30 10:19 22.10.2019
5783 Clouds 9 1020 93 10000 1.5 360 09:57 22.10.2019
5784 Clouds 9 1021 100 10000 1.5 0 09:39 22.10.2019
5785 Clouds 9 1021 100 10000 1.5 0 09:39 22.10.2019
5786 Clouds 8 1021 100 10000 1.5 0 09:21 22.10.2019
5787 Clouds 8 1020 100 10000 2.6 30 08:43 22.10.2019
5788 Clouds 8 1020 100 10000 2.6 30 08:22 22.10.2019
5789 Clouds 8 1021 100 10000 2.6 60 07:57 22.10.2019
5790 Clouds 8 1021 100 10000 2.6 60 07:57 22.10.2019
5791 Clouds 8 1020 100 8000 1.5 0 07:39 22.10.2019
5792 Clouds 8 1020 100 8000 1.5 0 07:20 22.10.2019
5793 Fog 8 1021 100 5000 2.15 48 06:37 22.10.2019
5794 Fog 8 1021 100 7000 1.74 39 06:19 22.10.2019
5795 Fog 8 1020 100 1000 1.74 39 05:27 22.10.2019
5796 Fog 9 1021 93 6000 1 30 03:53 22.10.2019
5797 Clear 10 1021 93 10000 2.1 60 02:29 22.10.2019
5798 Clear 11 1021 93 10000 2.1 40 01:32 22.10.2019
5799 Clear 10 1021 100 10000 1.5 0 00:59 22.10.2019
5800 Fog 11 1021 93 7000 1.56 69 00:41 22.10.2019
5801 Fog 11 1021 93 7000 2.08 85 00:21 22.10.2019
5802 Fog 11 1021 87 8000 2.08 85 23:57 21.10.2019
5803 Clear 11 1021 93 10000 0.5 20 23:37 21.10.2019
5804 Clear 11 1021 93 10000 0.5 20 23:19 21.10.2019
5805 Clear 12 1021 87 10000 1 0 22:57 21.10.2019
5806 Clear 12 1021 82 10000 2.6 110 22:38 21.10.2019
5807 Clear 12 1021 82 10000 2.6 110 22:19 21.10.2019
5808 Clear 12 1021 82 10000 1.5 100 21:55 21.10.2019
5809 Clear 12 1021 82 10000 1.5 100 21:55 21.10.2019
5810 Clear 12 1020 87 10000 1.5 90 21:37 21.10.2019
5811 Rain 12 1020 87 10000 1.5 90 21:19 21.10.2019
5812 Rain 13 1020 82 10000 2.1 80 20:56 21.10.2019
5813 Rain 13 1020 82 10000 1.5 90 20:37 21.10.2019
5814 Clouds 14 1020 72 10000 1.5 100 20:18 21.10.2019
5815 Clouds 14 1020 72 10000 2.6 80 19:41 21.10.2019
5816 Clouds 14 1020 72 10000 2.6 80 19:22 21.10.2019
5817 Clouds 15 1019 63 10000 1 110 18:57 21.10.2019
5818 Clouds 15 1019 63 10000 1 110 18:57 21.10.2019
5819 Clouds 15 1019 63 10000 2.1 130 18:38 21.10.2019
5820 Clouds 15 1019 63 10000 2.1 130 18:38 21.10.2019
5821 Clouds 16 1019 63 10000 2.1 130 18:19 21.10.2019
5822 Clouds 16 1019 59 10000 2.1 130 17:59 21.10.2019
5823 Rain 16 1019 63 10000 2.1 90 17:38 21.10.2019
5824 Rain 16 1019 63 10000 2.1 90 17:19 21.10.2019
5825 Rain 16 1019 63 10000 2.6 100 16:57 21.10.2019
5826 Clouds 17 1019 63 10000 2.6 100 16:39 21.10.2019
5827 Clouds 17 1019 63 10000 2.6 100 16:20 21.10.2019
5828 Clouds 16 1019 63 10000 2.6 130 15:47 21.10.2019
5829 Clouds 17 1019 63 10000 2.6 130 15:25 21.10.2019
5830 Clouds 16 1019 63 10000 4.6 110 14:58 21.10.2019
5831 Clouds 16 1019 63 10000 2.6 130 14:39 21.10.2019
5832 Clouds 16 1019 63 10000 2.6 130 14:20 21.10.2019
5833 Clouds 16 1019 72 10000 3.1 100 13:57 21.10.2019
5834 Clouds 16 1019 82 10000 3.1 130 13:38 21.10.2019
5835 Clouds 15 1019 82 10000 3.1 130 13:19 21.10.2019
5836 Clouds 14 1019 82 10000 1.5 120 12:42 21.10.2019
5837 Clouds 14 1019 82 10000 1.5 120 12:22 21.10.2019
5838 Clouds 13 1019 87 10000 1 0 11:57 21.10.2019
5839 Clouds 13 1019 87 10000 1 0 11:57 21.10.2019
5840 Clouds 13 1019 87 10000 2.6 140 11:38 21.10.2019
5841 Clouds 13 1019 87 10000 2.6 140 11:20 21.10.2019
5842 Clouds 12 1018 87 10000 2.6 150 10:56 21.10.2019
5843 Clouds 12 1018 87 10000 2.6 150 10:56 21.10.2019
5844 Clouds 12 1018 93 10000 2.6 130 10:38 21.10.2019
5845 Rain 11 1018 87 10000 2.1 140 10:19 21.10.2019
5846 Rain 11 1018 93 10000 1.5 130 09:44 21.10.2019
5847 Rain 11 1018 93 10000 1.5 130 09:26 21.10.2019
5848 Rain 11 1017 93 10000 1 140 08:56 21.10.2019
5849 Rain 11 1017 93 10000 1.5 120 08:37 21.10.2019
5850 Clear 11 1017 93 10000 2.1 130 08:18 21.10.2019
5851 Rain 11 1016 93 10000 2.1 110 07:39 21.10.2019
5852 Rain 11 1016 93 10000 2.1 110 07:20 21.10.2019
5853 Rain 11 1016 87 10000 1 140 06:54 21.10.2019
5854 Rain 11 1016 93 10000 1 0 06:36 21.10.2019
5855 Clear 11 1015 93 10000 1.5 0 05:56 21.10.2019
5856 Rain 10 1015 93 10000 4.1 200 04:45 21.10.2019
5857 Rain 11 1015 93 10000 2.1 230 03:37 21.10.2019
5858 Rain 11 1014 100 10000 2.6 290 02:24 21.10.2019
5859 Rain 11 1014 100 10000 2.6 290 02:23 21.10.2019
5860 Clouds 11 1014 93 10000 1.5 230 01:59 21.10.2019
5861 Rain 11 1014 93 10000 1.5 240 01:23 21.10.2019
5862 Rain 11 1013 93 10000 2.1 230 00:47 21.10.2019
5863 Rain 11 1013 93 10000 2.1 230 00:25 21.10.2019
5864 Rain 11 1013 93 10000 1.5 270 23:42 20.10.2019
5865 Rain 12 1013 93 10000 1.5 270 23:22 20.10.2019
5866 Clear 12 1012 93 10000 2.6 270 22:56 20.10.2019
5867 Clear 12 1012 87 10000 2.6 280 22:37 20.10.2019
5868 Clear 12 1012 87 10000 2.6 280 22:18 20.10.2019
5869 Clear 12 1011 87 10000 2.6 270 21:57 20.10.2019
5870 Clear 12 1011 87 10000 2.6 260 21:38 20.10.2019
5871 Clear 12 1011 87 10000 2.6 260 21:20 20.10.2019
5872 Clouds 12 1010 93 10000 1.5 270 20:41 20.10.2019
5873 Clouds 12 1010 93 10000 1.5 270 20:19 20.10.2019
5874 Clouds 12 1010 93 10000 1.5 270 20:19 20.10.2019
5875 Clouds 13 1009 87 10000 2.6 280 19:56 20.10.2019
5876 Clouds 13 1008 87 10000 2.6 310 19:38 20.10.2019
5877 Clouds 13 1008 87 10000 2.6 310 19:20 20.10.2019
5878 Clouds 14 1008 82 10000 5.1 330 18:55 20.10.2019
5879 Clouds 14 1008 82 10000 5.1 330 18:55 20.10.2019
5880 Clouds 14 1008 82 10000 5.1 330 18:36 20.10.2019
5881 Clouds 14 1007 87 10000 4.1 320 18:18 20.10.2019
5882 Clouds 15 1007 87 10000 4.6 330 17:42 20.10.2019
5883 Clouds 15 1007 87 10000 4.6 330 17:23 20.10.2019
5884 Clouds 15 1006 87 10000 4.6 320 16:57 20.10.2019
5885 Rain 15 1006 87 10000 2.1 320 16:39 20.10.2019
5886 Rain 15 1006 87 10000 2.1 320 16:39 20.10.2019
5887 Rain 15 1006 87 10000 2.1 320 16:21 20.10.2019
5888 Rain 15 1006 87 10000 4.6 300 15:56 20.10.2019
5889 Rain 15 1005 87 10000 3.1 320 15:38 20.10.2019
5890 Rain 15 1005 87 10000 3.1 320 15:19 20.10.2019
5891 Rain 15 1005 93 10000 4.1 290 14:56 20.10.2019
5892 Rain 15 1005 93 10000 4.6 310 14:37 20.10.2019
5893 Clouds 16 1005 93 10000 5.1 310 14:18 20.10.2019
5894 Rain 16 1004 100 10000 4.6 330 13:54 20.10.2019
5895 Clouds 15 1005 93 10000 5.1 310 13:54 20.10.2019
5896 Rain 16 1004 100 10000 4.6 330 13:54 20.10.2019
5897 Clouds 15 1005 93 10000 5.1 310 13:54 20.10.2019
5898 Rain 16 1004 100 10000 4.6 330 13:36 20.10.2019
5899 Rain 16 1004 93 10000 3.6 330 13:18 20.10.2019
5900 Rain 16 1004 93 10000 3.6 330 13:18 20.10.2019
5901 Rain 15 1004 93 10000 3.6 330 12:54 20.10.2019
5902 Rain 15 1004 93 10000 3.6 330 12:54 20.10.2019
5903 Rain 14 1004 100 10000 1.5 90 12:36 20.10.2019
5904 Mist 14 1004 100 4200 5.1 330 12:18 20.10.2019
5905 Rain 14 1003 100 10000 3.6 290 11:41 20.10.2019
5906 Rain 14 1003 100 10000 3.6 290 11:22 20.10.2019
5907 Drizzle 13 1003 100 10000 2.1 10 10:58 20.10.2019
5908 Rain 14 1003 93 10000 3.1 350 10:39 20.10.2019
5909 Rain 14 1003 93 10000 3.1 350 10:39 20.10.2019
5910 Rain 14 1003 93 10000 3.1 350 10:21 20.10.2019
5911 Rain 14 1003 93 10000 3.1 350 10:21 20.10.2019
5912 Rain 14 1002 100 10000 1.5 0 09:56 20.10.2019
5913 Rain 14 1002 100 3900 1.5 320 09:37 20.10.2019
5914 Rain 14 1001 100 4100 2.1 330 09:18 20.10.2019
5915 Rain 14 1000 100 10000 2.6 30 08:40 20.10.2019
5916 Rain 14 1000 100 10000 2.6 30 08:21 20.10.2019
5917 Clouds 14 1000 100 8000 3.1 30 07:47 20.10.2019
5918 Clouds 14 1000 100 8000 3.1 30 07:28 20.10.2019
5919 Rain 14 1000 100 9000 2.6 30 06:30 20.10.2019
5920 Drizzle 14 1001 93 10000 2.6 20 04:30 20.10.2019
5921 Rain 14 1002 93 10000 2.6 80 03:51 20.10.2019
5922 Rain 14 1003 100 10000 2.1 340 03:22 20.10.2019
5923 Rain 14 1002 100 9000 2.1 350 02:49 20.10.2019
5924 Rain 14 1002 100 10000 2.6 10 02:22 20.10.2019
5925 Rain 14 1003 100 10000 1.5 360 01:49 20.10.2019
5926 Rain 14 1003 100 10000 2.1 20 01:21 20.10.2019
5927 Rain 14 1003 93 10000 1.5 10 00:48 20.10.2019
5928 Rain 14 1003 93 10000 1.5 10 00:20 20.10.2019
5929 Rain 15 1003 93 10000 1.5 30 23:54 19.10.2019
5930 Rain 15 1003 93 10000 1.5 30 23:54 19.10.2019
5931 Rain 15 1003 93 10000 2.1 50 23:36 19.10.2019
5932 Rain 15 1004 93 10000 1 0 23:18 19.10.2019
5933 Rain 15 1004 93 10000 1 0 22:40 19.10.2019
5934 Rain 15 1004 93 10000 1 0 22:21 19.10.2019
5935 Clear 15 1004 93 10000 0.5 90 21:55 19.10.2019
5936 Rain 15 1004 87 10000 1.5 330 21:37 19.10.2019
5937 Rain 15 1004 87 10000 1.5 330 21:19 19.10.2019
5938 Drizzle 15 1004 87 10000 1.5 330 20:41 19.10.2019
5939 Drizzle 15 1004 87 10000 1.5 330 20:20 19.10.2019
5940 Rain 16 1004 88 10000 1 210 19:42 19.10.2019
5941 Rain 16 1004 88 10000 1 210 19:24 19.10.2019
5942 Rain 16 1004 88 8000 1 0 18:55 19.10.2019
5943 Rain 17 1004 82 10000 0.5 0 18:37 19.10.2019
5944 Rain 18 1004 77 10000 1 0 18:18 19.10.2019
5945 Clouds 18 1004 72 10000 0.5 0 17:41 19.10.2019
5946 Clouds 18 1004 72 10000 0.5 0 17:21 19.10.2019
5947 Clouds 18 1004 72 10000 0.5 0 17:21 19.10.2019
5948 Clouds 19 1005 72 10000 1 0 16:55 19.10.2019
5949 Rain 19 1005 72 10000 1.5 250 16:37 19.10.2019
5950 Clouds 19 1005 68 10000 2.1 240 16:18 19.10.2019
5951 Clouds 19 1005 68 10000 2.1 240 16:18 19.10.2019
5952 Clouds 19 1005 63 10000 2.1 240 15:40 19.10.2019
5953 Clouds 19 1005 63 10000 2.1 240 15:22 19.10.2019
5954 Clouds 19 1006 72 10000 3.1 220 14:39 19.10.2019
5955 Clouds 19 1006 72 10000 3.1 220 14:20 19.10.2019
5956 Clouds 19 1006 68 10000 2.6 200 13:57 19.10.2019
5957 Clouds 19 1006 77 10000 2.1 190 13:39 19.10.2019
5958 Clouds 19 1006 77 10000 2.1 190 13:19 19.10.2019
5959 Clouds 18 1006 82 10000 2.1 210 12:55 19.10.2019
5960 Clouds 18 1007 82 10000 3.1 220 12:36 19.10.2019
5961 Clear 17 1007 82 10000 3.6 200 12:18 19.10.2019
5962 Clear 17 1007 82 10000 3.6 200 12:18 19.10.2019
5963 Clouds 16 1007 87 10000 4.1 190 11:41 19.10.2019
5964 Clouds 16 1007 87 10000 4.1 190 11:22 19.10.2019
5965 Rain 15 1007 93 10000 4.1 170 10:55 19.10.2019
5966 Rain 15 1007 93 10000 4.1 170 10:37 19.10.2019
5967 Drizzle 14 1007 93 10000 3.6 170 10:19 19.10.2019
5968 Rain 14 1007 93 10000 2.1 190 09:42 19.10.2019
5969 Clear 14 1006 93 10000 3.6 160 09:24 19.10.2019
5970 Clouds 14 1006 93 10000 3.1 160 08:59 19.10.2019
5971 Clouds 14 1006 93 10000 3.1 160 08:39 19.10.2019
5972 Clouds 14 1007 93 10000 2.6 160 08:20 19.10.2019
5973 Clear 14 1007 93 10000 2.1 150 07:44 19.10.2019
5974 Clear 14 1007 93 10000 2.1 140 07:24 19.10.2019
5975 Rain 13 1007 93 10000 1.5 140 06:46 19.10.2019
5976 Rain 14 1008 93 10000 1.5 140 05:57 19.10.2019
5977 Rain 14 1008 93 10000 1 160 05:28 19.10.2019
5978 Clear 14 1009 93 10000 1 0 03:59 19.10.2019
5979 Clear 14 1009 93 10000 1.5 200 02:40 19.10.2019
5980 Clear 14 1010 93 10000 2.6 190 01:51 19.10.2019
5981 Clear 14 1010 93 10000 2.6 180 01:20 19.10.2019
5982 Clear 14 1010 87 10000 1.5 220 00:46 19.10.2019
5983 Clear 14 1010 87 10000 1.5 220 00:25 19.10.2019
5984 Clear 14 1010 87 10000 3.1 190 23:42 18.10.2019
5985 Clear 14 1010 87 10000 3.1 190 23:42 18.10.2019
5986 Clear 14 1010 87 10000 3.1 190 23:23 18.10.2019
5987 Clear 15 1011 87 10000 3.1 170 22:56 18.10.2019
5988 Clear 15 1011 87 10000 2.6 180 22:38 18.10.2019
5989 Clear 15 1011 87 10000 2.6 180 22:38 18.10.2019
5990 Clear 15 1011 87 10000 2.6 180 22:20 18.10.2019
5991 Clear 15 1011 87 10000 2.6 180 22:20 18.10.2019
5992 Clear 15 1011 87 10000 2.6 180 22:20 18.10.2019
5993 Clear 15 1011 87 10000 2.6 170 21:57 18.10.2019
5994 Clear 15 1011 93 10000 3.1 170 21:38 18.10.2019
5995 Clear 15 1011 93 10000 3.1 170 21:19 18.10.2019
5996 Clear 15 1012 93 10000 3.1 170 20:56 18.10.2019
5997 Clear 15 1012 93 10000 3.1 170 20:38 18.10.2019
5998 Clear 15 1012 93 10000 3.1 170 20:19 18.10.2019
5999 Clear 16 1012 82 10000 3.1 170 19:54 18.10.2019
6000 Clear 16 1013 87 10000 2.6 190 19:36 18.10.2019
6001 Clear 16 1013 82 10000 2.6 180 19:18 18.10.2019
6002 Clear 16 1013 77 10000 2.6 180 18:42 18.10.2019
6003 Clear 17 1013 77 10000 2.6 180 18:23 18.10.2019
6004 Clear 16 1013 77 10000 2.6 190 17:57 18.10.2019
6005 Clouds 17 1013 72 10000 3.1 210 17:38 18.10.2019
6006 Clouds 17 1013 72 10000 3.1 210 17:20 18.10.2019
6007 Clouds 17 1014 68 10000 4.1 240 16:44 18.10.2019
6008 Clouds 17 1014 68 10000 4.1 240 16:44 18.10.2019
6009 Clouds 18 1014 68 10000 4.1 240 16:22 18.10.2019
6010 Clouds 18 1014 68 10000 4.1 240 16:22 18.10.2019
6011 Clouds 19 1014 68 10000 4.1 240 15:59 18.10.2019
6012 Clouds 19 1014 63 10000 3.6 260 15:40 18.10.2019
6013 Clouds 19 1014 63 10000 3.6 260 15:20 18.10.2019
6014 Clouds 19 1014 63 10000 4.6 230 14:58 18.10.2019
6015 Clouds 18 1015 68 10000 4.1 250 14:39 18.10.2019
6016 Clouds 18 1015 68 10000 4.1 250 14:21 18.10.2019
6017 Clouds 18 1015 63 10000 5.1 250 13:58 18.10.2019
6018 Clouds 18 1015 72 10000 3.6 230 13:39 18.10.2019
6019 Clouds 18 1015 82 10000 3.6 250 13:21 18.10.2019
6020 Clouds 17 1015 82 10000 3.6 250 12:56 18.10.2019
6021 Rain 17 1015 87 4900 4.6 270 12:37 18.10.2019
6022 Rain 17 1015 87 4900 4.6 270 12:19 18.10.2019
6023 Clouds 17 1015 72 10000 4.1 240 11:42 18.10.2019
6024 Clouds 17 1015 72 10000 4.1 240 11:21 18.10.2019
6025 Clouds 17 1015 72 10000 4.1 240 11:21 18.10.2019
6026 Clouds 16 1015 77 10000 3.1 210 10:59 18.10.2019
6027 Clouds 16 1015 82 10000 2.6 220 10:41 18.10.2019
6028 Clouds 16 1015 82 10000 2.6 220 10:22 18.10.2019
6029 Clouds 16 1014 82 10000 2.6 220 09:58 18.10.2019
6030 Clear 15 1014 87 10000 2.6 210 09:39 18.10.2019
6031 Clear 15 1014 87 10000 2.6 210 09:19 18.10.2019
6032 Clouds 15 1014 82 10000 3.6 250 08:45 18.10.2019
6033 Clouds 15 1014 82 10000 3.6 250 08:25 18.10.2019
6034 Clouds 15 1013 87 10000 3.1 230 07:57 18.10.2019
6035 Clear 15 1013 87 10000 2.1 220 07:39 18.10.2019
6036 Clear 15 1013 87 10000 2.6 220 07:18 18.10.2019
6037 Clear 15 1013 87 10000 2.6 210 06:37 18.10.2019
6038 Clear 14 1013 87 10000 2.1 230 06:19 18.10.2019
6039 Clear 15 1013 87 10000 2.1 230 05:53 18.10.2019
6040 Clear 14 1013 87 10000 2.1 230 05:20 18.10.2019
6041 Clouds 15 1013 87 10000 2.1 220 03:41 18.10.2019
6042 Clouds 15 1013 87 10000 2.1 220 03:19 18.10.2019
6043 Clouds 15 1013 87 10000 2.6 190 02:32 18.10.2019
6044 Clouds 15 1014 87 10000 3.6 180 01:42 18.10.2019
6045 Clouds 15 1014 87 10000 3.6 180 01:23 18.10.2019
6046 Clouds 15 1014 87 10000 3.1 180 00:43 18.10.2019
6047 Clouds 15 1014 87 10000 3.1 180 00:20 18.10.2019
6048 Clouds 15 1014 87 10000 3.1 180 00:20 18.10.2019
6049 Clouds 15 1014 87 10000 1 190 23:40 17.10.2019
6050 Clouds 15 1014 87 10000 1 190 23:21 17.10.2019
6051 Clouds 15 1014 87 10000 1.5 160 22:57 17.10.2019
6052 Clouds 15 1014 87 10000 1.5 170 22:39 17.10.2019
6053 Clouds 15 1014 87 10000 1.5 170 22:39 17.10.2019
6054 Clouds 15 1014 87 10000 1.5 170 22:19 17.10.2019
6055 Clouds 15 1014 93 10000 1 170 21:58 17.10.2019
6056 Clouds 16 1014 87 10000 0.5 200 21:39 17.10.2019
6057 Clouds 16 1014 87 10000 0.5 200 21:20 17.10.2019
6058 Clouds 16 1014 87 10000 1.5 0 20:58 17.10.2019
6059 Clouds 17 1014 88 10000 2.6 310 20:39 17.10.2019
6060 Clouds 17 1014 88 10000 2.6 310 20:19 17.10.2019
6061 -273 0 0 0 0 0 19:59 17.10.2019
6062 Rain 18 1014 72 10000 4.6 260 19:39 17.10.2019
6063 Rain 18 1014 72 10000 4.6 260 19:19 17.10.2019
6064 Rain 18 1014 72 10000 4.6 260 19:19 17.10.2019
6065 Clear 19 1014 72 10000 4.1 250 18:58 17.10.2019
6066 Clear 20 1013 68 10000 4.6 260 18:38 17.10.2019
6067 Clear 20 1013 68 10000 4.6 260 18:19 17.10.2019
6068 Clouds 21 1013 64 10000 6.2 260 17:42 17.10.2019
6069 Clouds 21 1013 64 10000 6.2 260 17:23 17.10.2019
6070 Clouds 21 1013 60 10000 4.6 250 16:56 17.10.2019
6071 Clouds 21 1013 64 10000 5.7 230 16:37 17.10.2019
6072 Clouds 21 1013 68 10000 4.6 210 16:18 17.10.2019
6073 Clouds 22 1013 68 10000 4.6 210 15:55 17.10.2019
6074 -273 0 0 0 0 0 15:55 17.10.2019
6075 Rain 21 1013 64 10000 5.1 210 15:37 17.10.2019
6076 Rain 21 1013 64 10000 5.1 210 15:19 17.10.2019
6077 Clouds 20 1014 72 10000 7.2 240 14:42 17.10.2019
6078 Clouds 20 1014 72 10000 7.2 240 14:23 17.10.2019
6079 -273 0 0 0 0 0 13:56 17.10.2019
6080 Clouds 20 1014 68 10000 6.2 230 13:38 17.10.2019
6081 Clouds 19 1014 72 10000 5.1 210 13:18 17.10.2019
6082 Clouds 19 1014 72 10000 5.1 210 13:18 17.10.2019
6083 Clouds 18 1014 77 10000 4.1 200 12:41 17.10.2019
6084 Clouds 18 1014 77 10000 4.1 200 12:20 17.10.2019
6085 Clouds 17 1013 88 10000 5.1 190 11:59 17.10.2019
6086 Clouds 16 1013 93 10000 5.1 180 11:40 17.10.2019
6087 Clouds 15 1013 93 10000 5.1 180 11:19 17.10.2019
6088 Rain 15 1013 100 10000 4.6 180 10:55 17.10.2019
6089 Clouds 15 1013 93 10000 4.1 180 10:36 17.10.2019
6090 Clouds 15 1013 100 10000 4.1 180 10:18 17.10.2019
6091 Rain 15 1013 93 10000 4.6 170 09:41 17.10.2019
6092 Rain 15 1013 93 10000 4.6 170 09:22 17.10.2019
6093 Rain 14 1012 93 10000 3.6 190 08:58 17.10.2019
6094 Rain 14 1012 87 10000 4.6 170 08:39 17.10.2019
6095 Rain 14 1012 87 10000 4.6 170 08:21 17.10.2019
6096 Rain 14 1012 87 10000 4.6 170 08:21 17.10.2019
6097 Rain 14 1012 87 10000 4.6 180 07:55 17.10.2019
6098 -273 0 0 0 0 0 07:55 17.10.2019
6099 Rain 14 1012 87 10000 4.6 160 07:36 17.10.2019
6100 Rain 14 1012 82 10000 3.6 160 07:18 17.10.2019
6101 Rain 14 1012 82 10000 3.6 150 06:40 17.10.2019
6102 Clouds 14 1012 82 10000 3.6 150 06:20 17.10.2019
6103 Clouds 14 1012 87 10000 2.6 140 05:51 17.10.2019
6104 Rain 14 1012 87 10000 3.1 120 05:31 17.10.2019
6105 Rain 14 1012 82 10000 0.5 110 04:52 17.10.2019
6106 Clouds 15 1012 72 10000 2.6 180 03:55 17.10.2019
6107 Rain 15 1012 72 10000 3.1 150 02:36 17.10.2019
6108 Rain 16 1013 67 10000 2.1 210 00:57 17.10.2019
6109 Rain 16 1013 72 10000 2.1 170 00:38 17.10.2019
6110 Rain 16 1013 67 10000 3.6 170 00:18 17.10.2019
6111 Rain 16 1013 72 10000 3.1 180 23:42 16.10.2019
6112 Rain 16 1013 72 10000 3.1 180 23:21 16.10.2019
6113 Rain 16 1013 72 10000 3.1 180 23:21 16.10.2019
6114 Rain 16 1013 72 10000 3.1 180 23:21 16.10.2019
6115 Rain 16 1013 72 10000 4.1 160 22:56 16.10.2019
6116 Rain 16 1013 77 10000 3.6 160 22:36 16.10.2019
6117 Rain 16 1013 77 10000 3.6 160 22:36 16.10.2019
6118 Rain 16 1013 77 10000 3.6 160 22:18 16.10.2019
6119 Rain 16 1013 77 10000 3.6 160 21:56 16.10.2019
6120 Clouds 16 1013 77 10000 3.1 160 21:37 16.10.2019
6121 Clouds 16 1013 77 10000 2.6 150 21:18 16.10.2019
6122 Clouds 16 1013 77 10000 2.6 150 20:57 16.10.2019
6123 Clouds 16 1013 82 10000 2.6 150 20:38 16.10.2019
6124 Clouds 16 1013 82 10000 2.6 150 20:20 16.10.2019
6125 Clouds 16 1013 82 10000 2.6 160 19:56 16.10.2019
6126 Clouds 17 1013 77 10000 3.1 160 19:38 16.10.2019
6127 Clouds 17 1013 77 10000 3.1 160 19:38 16.10.2019
6128 Clouds 17 1013 77 10000 3.1 160 19:19 16.10.2019
6129 Clouds 17 1013 77 10000 3.6 190 18:39 16.10.2019
6130 Clouds 17 1013 77 10000 3.6 190 18:39 16.10.2019
6131 Rain 17 1013 77 10000 3.6 190 18:19 16.10.2019
6132 Clouds 17 1013 77 10000 3.1 190 17:56 16.10.2019
6133 Clouds 18 1013 77 10000 3.6 190 17:38 16.10.2019
6134 Clouds 18 1013 77 10000 3.6 190 17:20 16.10.2019
6135 Clouds 18 1013 77 10000 4.1 200 16:58 16.10.2019
6136 Rain 18 1013 77 10000 4.1 180 16:40 16.10.2019
6137 Rain 17 1013 77 10000 4.1 180 16:20 16.10.2019
6138 -273 0 0 0 0 0 15:56 16.10.2019
6139 Rain 17 1013 77 10000 3.1 160 15:55 16.10.2019
6140 -273 0 0 0 0 0 15:36 16.10.2019
6141 Clouds 18 1014 68 10000 4.1 200 15:18 16.10.2019
6142 Clouds 18 1014 68 10000 4.1 200 14:55 16.10.2019
6143 Clouds 18 1014 68 10000 4.1 200 14:36 16.10.2019
6144 Clouds 18 1014 68 10000 4.1 200 14:18 16.10.2019
6145 Clouds 18 1014 72 10000 4.6 180 13:42 16.10.2019
6146 Clouds 19 1014 63 10000 5.1 210 13:23 16.10.2019
6147 Clouds 18 1014 59 10000 6.2 190 12:57 16.10.2019
6148 Clouds 17 1014 67 10000 4.1 180 12:39 16.10.2019
6149 Clouds 16 1014 67 10000 4.1 180 12:18 16.10.2019
6150 Clouds 15 1014 72 10000 3.6 170 11:42 16.10.2019
6151 Clouds 14 1014 71 10000 3.6 160 11:18 16.10.2019
6152 Clouds 13 1014 76 10000 4.1 170 10:37 16.10.2019
6153 -273 0 0 0 0 0 10:19 16.10.2019
6154 Clouds 12 1014 81 10000 4.1 160 09:54 16.10.2019
6155 Clouds 11 1014 87 10000 3.1 160 09:36 16.10.2019
6156 Clouds 10 1014 87 10000 3.1 160 09:18 16.10.2019
6157 Clouds 10 1014 87 10000 3.1 170 08:42 16.10.2019
6158 Clouds 10 1014 87 10000 3.1 160 08:23 16.10.2019
6159 Clouds 10 1014 87 10000 3.1 160 07:45 16.10.2019
6160 Clouds 10 1014 87 10000 3.1 180 07:25 16.10.2019
6161 Clouds 10 1014 87 10000 4.6 160 06:58 16.10.2019
6162 Clouds 10 1014 87 10000 4.1 180 06:39 16.10.2019
6163 Clouds 10 1014 87 10000 4.6 170 05:44 16.10.2019
6164 Clouds 11 1016 87 10000 4.1 160 02:58 16.10.2019
6165 Clouds 11 1016 93 10000 3.6 160 02:38 16.10.2019
6166 Clouds 12 1016 93 10000 3.6 170 01:19 16.10.2019
6167 Clouds 12 1016 93 10000 3.6 170 00:47 16.10.2019
6168 Clouds 12 1016 93 10000 3.6 180 00:27 16.10.2019
6169 Clouds 13 1016 93 10000 3.6 180 23:40 15.10.2019
6170 Clouds 12 1017 93 10000 3.1 170 23:21 15.10.2019
6171 Clouds 13 1017 100 10000 3.6 160 22:56 15.10.2019
6172 Clouds 14 1017 93 10000 3.6 160 22:37 15.10.2019
6173 Clouds 14 1017 93 10000 3.6 160 22:19 15.10.2019
6174 Rain 14 1017 93 5000 3.1 190 21:55 15.10.2019
6175 Clouds 14 1017 93 10000 3.1 170 21:37 15.10.2019
6176 Rain 14 1017 93 10000 3.1 170 21:19 15.10.2019
6177 Rain 15 1017 93 10000 2.6 220 20:57 15.10.2019
6178 Rain 14 1017 93 10000 3.6 200 20:39 15.10.2019
6179 Rain 14 1017 93 10000 3.6 200 20:20 15.10.2019
6180 Rain 15 1016 87 10000 4.1 220 19:56 15.10.2019
6181 Rain 14 1016 87 10000 4.1 220 19:56 15.10.2019
6182 Rain 15 1016 82 10000 4.1 220 19:38 15.10.2019
6183 Rain 15 1016 82 10000 4.1 220 19:19 15.10.2019
6184 Rain 15 1016 82 10000 4.6 220 18:44 15.10.2019
6185 Rain 16 1016 72 10000 4.6 220 18:26 15.10.2019
6186 Clouds 16 1016 63 10000 6.7 240 17:57 15.10.2019
6187 Clouds 16 1016 55 10000 7.7 240 17:38 15.10.2019
6188 -273 0 0 0 0 0 17:19 15.10.2019
6189 Clouds 17 1015 55 10000 7.2 240 16:46 15.10.2019
6190 Clouds 18 1015 55 10000 8.2 240 16:23 15.10.2019
6191 Clouds 16 1015 55 10000 6.7 280 15:58 15.10.2019
6192 Clouds 17 1015 55 10000 6.7 280 15:40 15.10.2019
6193 Clouds 17 1015 52 10000 6.7 280 15:20 15.10.2019
6194 Clouds 17 1015 55 10000 6.7 280 14:57 15.10.2019
6195 Rain 17 1015 59 10000 6.2 270 14:38 15.10.2019
6196 Rain 17 1015 59 10000 6.2 270 14:19 15.10.2019
6197 Rain 16 1015 63 10000 6.7 280 13:44 15.10.2019
6198 Rain 17 1015 59 10000 8.2 270 13:21 15.10.2019
6199 Rain 17 1015 63 10000 5.1 270 12:59 15.10.2019
6200 Rain 17 1015 63 10000 5.1 270 12:59 15.10.2019
6201 Rain 17 1015 63 10000 5.1 270 12:38 15.10.2019
6202 Rain 16 1015 63 10000 5.1 270 12:20 15.10.2019
6203 Clouds 15 1014 82 10000 2.1 220 11:44 15.10.2019
6204 Clouds 15 1014 82 10000 2.1 220 11:21 15.10.2019
6205 Rain 14 1014 82 10000 2.6 220 10:57 15.10.2019
6206 Rain 13 1014 93 10000 2.6 230 10:39 15.10.2019
6207 Rain 13 1014 93 10000 2.6 230 10:19 15.10.2019
6208 Rain 13 1013 100 10000 2.1 170 09:56 15.10.2019
6209 Rain 12 1013 93 10000 2.6 200 09:37 15.10.2019
6210 Rain 12 1013 93 10000 2.6 200 09:19 15.10.2019
6211 Rain 12 1012 93 10000 2.1 270 08:41 15.10.2019
6212 Rain 12 1012 93 10000 2.1 270 08:21 15.10.2019
6213 Rain 12 1012 93 10000 3.6 250 07:55 15.10.2019
6214 Rain 12 1012 100 10000 3.1 220 07:37 15.10.2019
6215 Rain 12 1012 100 10000 3.1 220 07:37 15.10.2019
6216 Rain 12 1012 100 10000 3.1 220 07:18 15.10.2019
6217 Drizzle 13 1011 100 10000 2.6 190 06:43 15.10.2019
6218 Drizzle 13 1011 100 10000 2.6 190 06:20 15.10.2019
6219 Rain 12 1010 93 10000 0.5 0 05:37 15.10.2019
6220 Rain 13 1011 93 8000 2.6 280 04:54 15.10.2019
6221 Rain 13 1010 93 5000 4.1 240 04:20 15.10.2019
6222 Rain 13 1010 93 10000 3.1 240 03:35 15.10.2019
6223 Rain 13 1010 93 10000 3.1 240 03:35 15.10.2019
6224 Rain 13 1010 93 10000 3.6 230 02:19 15.10.2019
6225 Rain 14 1010 100 10000 4.1 210 01:41 15.10.2019
6226 Rain 14 1010 100 10000 4.1 210 01:18 15.10.2019
6227 Rain 14 1010 100 10000 4.1 230 00:26 15.10.2019
6228 Rain 14 1010 87 6000 6.2 230 23:59 14.10.2019
6229 Rain 14 1009 87 9000 3.6 210 23:38 14.10.2019
6230 Rain 15 1009 87 9000 3.6 210 23:19 14.10.2019
6231 Rain 15 1009 87 9000 3.6 210 23:19 14.10.2019
6232 Rain 15 1009 93 10000 2.6 200 22:40 14.10.2019
6233 Rain 15 1009 93 10000 2.6 200 22:40 14.10.2019
6234 Rain 15 1008 93 10000 1.5 0 22:21 14.10.2019
6235 Clear 15 1009 93 10000 2.1 200 21:58 14.10.2019
6236 Clear 15 1008 93 10000 1 0 21:40 14.10.2019
6237 Clear 15 1008 93 10000 1 0 21:21 14.10.2019
6238 -273 0 0 0 0 0 20:58 14.10.2019
6239 Fog 16 1009 93 10000 1.5 240 20:38 14.10.2019
6240 Fog 16 1009 93 10000 1.5 240 20:19 14.10.2019
6241 Clear 16 1008 93 10000 1.5 160 19:55 14.10.2019
6242 -273 0 0 0 0 0 19:54 14.10.2019
6243 Rain 17 1008 88 10000 1.5 180 19:36 14.10.2019
6244 Clear 17 1008 88 10000 1.5 180 19:18 14.10.2019
6245 Clouds 17 1009 88 10000 2.1 210 18:54 14.10.2019
6246 Clouds 17 1009 93 10000 3.6 230 18:36 14.10.2019
6247 Rain 17 1009 93 10000 3.6 230 18:18 14.10.2019
6248 Thunderstorm 17 1008 93 10000 6.2 240 17:41 14.10.2019
6249 Thunderstorm 17 1008 93 10000 6.2 240 17:22 14.10.2019
6250 Rain 18 1007 88 10000 8.2 250 16:46 14.10.2019
6251 Rain 18 1007 88 10000 8.2 250 16:23 14.10.2019
6252 Thunderstorm 18 1006 73 10000 8.2 260 15:59 14.10.2019
6253 Thunderstorm 21 1006 64 10000 6.2 210 15:40 14.10.2019
6254 Thunderstorm 21 1006 64 10000 6.2 210 15:40 14.10.2019
6255 Thunderstorm 22 1006 64 10000 6.2 210 15:21 14.10.2019
6256 Clear 22 1006 64 10000 5.1 180 14:44 14.10.2019
6257 Clear 22 1006 64 10000 5.1 180 14:25 14.10.2019
6258 Clear 22 1006 68 10000 6.2 170 13:57 14.10.2019
6259 Clear 22 1006 68 10000 7.2 160 13:39 14.10.2019
6260 Clear 22 1006 73 10000 6.2 150 13:20 14.10.2019
6261 Clear 22 1006 73 10000 6.2 150 13:20 14.10.2019
6262 Rain 21 1006 73 10000 5.7 140 12:41 14.10.2019
6263 Rain 21 1006 73 10000 5.1 140 12:20 14.10.2019
6264 -273 0 0 0 0 0 11:55 14.10.2019
6265 Rain 20 1007 77 10000 3.6 140 11:36 14.10.2019
6266 Clear 20 1007 82 10000 3.1 150 11:18 14.10.2019
6267 Rain 19 1006 82 10000 3.6 160 10:43 14.10.2019
6268 Rain 19 1006 82 10000 3.6 160 10:21 14.10.2019
6269 Rain 19 1006 82 10000 6.7 130 09:59 14.10.2019
6270 Rain 19 1006 82 10000 6.7 130 09:59 14.10.2019
6271 Rain 18 1006 88 10000 6.2 120 09:38 14.10.2019
6272 Rain 18 1006 88 10000 6.2 120 09:38 14.10.2019
6273 Clouds 18 1006 88 10000 6.2 120 09:19 14.10.2019
6274 Clear 18 1006 88 10000 7.2 130 08:47 14.10.2019
6275 Clear 18 1006 88 10000 7.2 130 08:23 14.10.2019
6276 Clear 18 1006 88 10000 6.7 130 07:44 14.10.2019
6277 Clear 17 1006 88 10000 6.2 130 07:21 14.10.2019
6278 Clear 17 1006 88 10000 6.2 130 06:55 14.10.2019
6279 Clear 17 1007 88 10000 6.2 130 06:27 14.10.2019
6280 Clear 18 1007 88 10000 5.1 140 05:51 14.10.2019
6281 Clear 18 1008 88 10000 6.2 140 04:50 14.10.2019
6282 Clear 19 1009 82 10000 5.7 140 03:48 14.10.2019
6283 Clear 19 1009 82 10000 5.7 140 03:21 14.10.2019
6284 Clear 19 1009 82 10000 7.7 130 01:36 14.10.2019
6285 Clear 19 1010 82 10000 7.2 130 01:18 14.10.2019
6286 Clear 19 1010 77 10000 6.7 130 00:23 14.10.2019
6287 Clear 20 1010 68 10000 4.1 120 23:46 13.10.2019
6288 Clear 20 1010 68 10000 4.1 120 23:21 13.10.2019
6289 Clear 20 1011 64 10000 4.1 70 22:59 13.10.2019
6290 Clear 20 1011 68 10000 3.1 50 22:41 13.10.2019
6291 Clear 20 1011 68 10000 3.1 50 22:22 13.10.2019
6292 Clear 20 1011 64 10000 3.1 50 21:58 13.10.2019
6293 Clear 20 1011 72 10000 2.1 0 21:38 13.10.2019
6294 Clear 20 1011 64 10000 1.5 0 21:19 13.10.2019
6295 Clear 20 1011 64 10000 1.5 0 20:58 13.10.2019
6296 Clear 21 1010 64 10000 2.1 330 20:39 13.10.2019
6297 Clear 22 1011 53 10000 3.6 310 20:21 13.10.2019
6298 Clear 22 1011 53 10000 3.6 310 19:59 13.10.2019
6299 Clear 24 1011 50 10000 3.6 290 19:39 13.10.2019
6300 Clear 24 1011 50 10000 3.6 290 19:21 13.10.2019
6301 Clear 26 1011 44 10000 4.6 260 18:57 13.10.2019
6302 Clear 26 1011 44 10000 4.6 260 18:57 13.10.2019
6303 -273 0 0 0 0 0 18:56 13.10.2019
6304 -273 0 0 0 0 0 18:56 13.10.2019
6305 Clear 26 1011 42 10000 6.2 250 18:36 13.10.2019
6306 Clear 27 1011 44 10000 7.2 260 18:18 13.10.2019
6307 Clear 28 1011 42 10000 7.7 250 17:44 13.10.2019
6308 Clear 28 1011 42 10000 7.7 250 17:26 13.10.2019
6309 Clear 28 1011 42 10000 7.7 250 17:26 13.10.2019
6310 Clear 28 1011 37 10000 8.7 250 16:58 13.10.2019
6311 Clear 29 1010 28 10000 9.3 250 16:40 13.10.2019
6312 Clear 29 1010 28 10000 10.3 240 16:18 13.10.2019
6313 -273 0 0 0 0 0 15:56 13.10.2019
6314 Clear 29 1010 28 10000 10.3 240 15:56 13.10.2019
6315 Clear 29 1010 33 10000 9.8 230 15:37 13.10.2019
6316 Clear 29 1010 30 10000 9.3 220 15:18 13.10.2019
6317 Clear 29 1010 30 10000 9.3 220 14:56 13.10.2019
6318 -273 0 0 0 0 0 14:56 13.10.2019
6319 Clear 29 1010 37 10000 7.2 200 14:37 13.10.2019
6320 Clear 28 1011 42 10000 5.7 180 14:18 13.10.2019
6321 Clear 27 1011 47 10000 5.7 190 13:39 13.10.2019
6322 Clear 27 1011 47 10000 5.7 190 13:39 13.10.2019
6323 Clear 26 1011 50 10000 5.7 180 13:21 13.10.2019
6324 Clear 26 1011 50 10000 5.7 180 12:57 13.10.2019
6325 Clear 26 1011 57 10000 6.2 160 12:39 13.10.2019
6326 Clear 26 1011 57 10000 6.2 160 12:39 13.10.2019
6327 Clear 24 1011 60 10000 6.2 170 12:19 13.10.2019
6328 Clear 24 1011 60 10000 6.2 170 11:58 13.10.2019
6329 Clear 23 1011 64 10000 5.7 170 11:38 13.10.2019
6330 Clear 22 1010 73 10000 5.1 170 11:19 13.10.2019
6331 Clear 21 1010 77 10000 5.7 160 10:42 13.10.2019
6332 Clear 20 1010 77 10000 5.7 160 10:23 13.10.2019
6333 Clear 19 1010 82 10000 3.6 160 09:58 13.10.2019
6334 Clear 19 1010 82 10000 3.6 160 09:58 13.10.2019
6335 Clear 19 1009 88 10000 4.6 150 09:38 13.10.2019
6336 Clear 18 1009 82 10000 5.1 150 09:19 13.10.2019
6337 Clear 18 1009 82 10000 5.1 150 08:43 13.10.2019
6338 Clear 18 1009 82 10000 5.1 150 08:43 13.10.2019
6339 Clear 18 1009 82 10000 5.1 150 08:23 13.10.2019
6340 Clear 18 1009 82 10000 5.1 150 07:47 13.10.2019
6341 Clear 18 1009 82 10000 5.1 150 07:28 13.10.2019
6342 Clear 18 1009 82 10000 6.2 140 06:48 13.10.2019
6343 Clear 19 1009 82 10000 5.7 140 05:57 13.10.2019
6344 Clear 19 1009 82 10000 5.7 140 04:52 13.10.2019
6345 Clear 19 1009 82 10000 6.7 140 04:33 13.10.2019
6346 Clear 20 1010 77 10000 8.2 140 02:48 13.10.2019
6347 Clear 20 1010 77 10000 8.2 140 02:23 13.10.2019
6348 Rain 20 1010 73 10000 7.7 140 01:34 13.10.2019
6349 Clear 21 1011 68 10000 6.7 150 00:52 13.10.2019
6350 Clear 21 1011 68 10000 6.7 150 00:52 13.10.2019
6351 Rain 22 1011 73 10000 6.2 150 00:22 13.10.2019
6352 Clear 22 1010 69 10000 6.7 150 23:58 12.10.2019
6353 Clear 22 1010 64 10000 6.7 150 23:39 12.10.2019
6354 Clear 22 1010 64 10000 6.7 150 23:21 12.10.2019
6355 Clear 23 1010 60 10000 7.2 140 22:58 12.10.2019
6356 Clear 23 1010 60 10000 7.2 140 22:58 12.10.2019
6357 Clear 23 1010 57 10000 6.2 150 22:39 12.10.2019
6358 Clear 23 1010 53 10000 5.1 150 22:20 12.10.2019
6359 Clear 23 1010 53 10000 5.1 150 21:55 12.10.2019
6360 Clear 23 1010 53 10000 4.1 150 21:37 12.10.2019
6361 Clear 23 1010 60 10000 3.6 130 21:19 12.10.2019
6362 Clear 23 1010 60 10000 3.1 130 20:41 12.10.2019
6363 Clear 23 1010 60 10000 3.1 130 20:41 12.10.2019
6364 Clear 23 1010 60 10000 3.1 130 20:41 12.10.2019
6365 Clear 24 1010 60 10000 3.1 130 20:23 12.10.2019
6366 Clear 25 1010 47 10000 2.6 140 19:40 12.10.2019
6367 Clear 25 1010 47 10000 2.6 140 19:40 12.10.2019
6368 Clear 25 1010 42 10000 2.1 150 19:22 12.10.2019
6369 Clear 26 1010 42 10000 2.1 150 18:59 12.10.2019
6370 Clear 26 1010 42 10000 2.6 160 18:40 12.10.2019
6371 Clear 26 1010 42 10000 2.6 160 18:40 12.10.2019
6372 Clear 27 1010 42 10000 2.6 160 18:22 12.10.2019
6373 Clear 27 1011 42 10000 4.1 190 17:43 12.10.2019
6374 Clear 28 1011 37 10000 5.7 190 17:19 12.10.2019
6375 Clear 28 1011 37 10000 5.7 190 16:55 12.10.2019
6376 Clear 28 1011 42 10000 3.1 190 16:36 12.10.2019
6377 Clear 28 1011 42 10000 3.1 190 16:36 12.10.2019
6378 Clear 28 1011 45 10000 6.2 190 16:18 12.10.2019
6379 Clear 28 1011 42 10000 6.7 190 15:44 12.10.2019
6380 Clear 29 1011 42 10000 6.7 190 15:25 12.10.2019
6381 Clear 27 1012 47 10000 4.6 180 14:43 12.10.2019
6382 Clear 26 1012 54 10000 4.1 170 14:22 12.10.2019
6383 Clear 26 1012 54 10000 4.1 170 13:59 12.10.2019
6384 Clear 26 1013 57 10000 3.6 170 13:40 12.10.2019
6385 Clear 25 1013 57 10000 3.6 170 13:21 12.10.2019
6386 Clear 22 1013 68 10000 4.1 160 12:40 12.10.2019
6387 Clear 22 1013 68 10000 3.6 170 12:21 12.10.2019
6388 Clear 22 1013 68 10000 3.6 170 11:59 12.10.2019
6389 Clear 21 1013 73 10000 3.6 140 11:39 12.10.2019
6390 Clear 20 1013 77 10000 3.6 150 11:20 12.10.2019
6391 Clear 18 1013 88 10000 4.6 140 10:44 12.10.2019
6392 Clear 18 1013 88 10000 4.6 140 10:24 12.10.2019
6393 Clear 17 1013 88 10000 3.1 140 09:58 12.10.2019
6394 Clear 16 1012 87 10000 3.1 140 09:39 12.10.2019
6395 Clear 16 1012 87 10000 3.1 140 09:21 12.10.2019
6396 Clear 16 1012 87 10000 2.6 150 08:57 12.10.2019
6397 Clear 16 1012 87 10000 2.6 150 08:38 12.10.2019
6398 Clear 16 1012 82 10000 4.1 140 08:19 12.10.2019
6399 Clear 16 1012 82 10000 3.6 140 07:34 12.10.2019
6400 Clear 16 1012 82 10000 4.1 140 06:51 12.10.2019
6401 Clear 16 1013 82 10000 3.6 150 05:47 12.10.2019
6402 Clear 16 1013 82 10000 3.6 150 05:22 12.10.2019
6403 Clear 16 1013 77 10000 5.1 130 04:24 12.10.2019
6404 Clear 17 1013 77 10000 5.1 130 03:30 12.10.2019
6405 Clear 17 1014 77 10000 3.6 120 01:38 12.10.2019
6406 Clear 16 1014 82 10000 3.1 110 01:19 12.10.2019
6407 Clear 16 1014 82 10000 1.5 80 00:40 12.10.2019
6408 Clear 15 1014 82 10000 1 90 23:57 11.10.2019
6409 Clear 16 1014 82 10000 1.5 90 23:39 11.10.2019
6410 Clear 16 1014 82 10000 1.5 100 23:20 11.10.2019
6411 Clear 16 1014 82 10000 1.5 100 23:20 11.10.2019
6412 Clear 16 1014 82 10000 1 90 22:40 11.10.2019
6413 Clear 17 1014 77 10000 1.91 142.267 22:21 11.10.2019
6414 Clear 17 1014 77 10000 1.91 142.267 21:56 11.10.2019
6415 Clear 17 1014 77 10000 1.91 142.267 21:38 11.10.2019
6416 Clear 18 1015 59 10000 1 260 21:19 11.10.2019
6417 Clear 19 1015 56 10000 1 260 20:44 11.10.2019
6418 Clear 20 1015 56 10000 1 260 20:25 11.10.2019
6419 Clear 21 1014 49 10000 1 270 19:56 11.10.2019
6420 Clear 22 1015 44 10000 2.1 260 19:38 11.10.2019
6421 Clear 23 1015 41 10000 3.1 250 19:18 11.10.2019
6422 Clear 24 1015 39 10000 3.6 250 18:58 11.10.2019
6423 Clear 25 1015 39 10000 3.6 250 18:37 11.10.2019
6424 Clear 25 1015 39 10000 3.6 250 18:37 11.10.2019
6425 Clear 25 1015 36 10000 4.6 240 18:19 11.10.2019
6426 Clear 26 1015 36 10000 4.6 240 17:58 11.10.2019
6427 Clear 26 1015 39 10000 4.1 220 17:37 11.10.2019
6428 Clear 26 1015 39 10000 4.1 230 17:18 11.10.2019
6429 Clear 26 1015 39 10000 4.1 230 16:54 11.10.2019
6430 Clear 26 1015 39 10000 4.1 230 16:54 11.10.2019
6431 Clear 26 1015 39 10000 4.1 230 16:36 11.10.2019
6432 Clear 26 1015 36 10000 5.7 220 16:18 11.10.2019
6433 Clear 26 1016 41 10000 4.6 220 15:39 11.10.2019
6434 Clear 26 1016 41 10000 4.1 200 15:19 11.10.2019
6435 Clear 25 1017 47 10000 3.6 190 14:49 11.10.2019
6436 Clear 24 1017 47 10000 3.6 190 14:30 11.10.2019
6437 Clear 23 1017 49 10000 4.1 150 13:58 11.10.2019
6438 Clear 23 1017 53 10000 3.6 150 13:40 11.10.2019
6439 Clear 21 1017 52 10000 4.1 150 13:22 11.10.2019
6440 Clear 22 1017 52 10000 4.1 150 12:56 11.10.2019
6441 Clear 20 1018 59 10000 4.1 150 12:38 11.10.2019
6442 Clear 19 1018 68 10000 4.1 140 12:19 11.10.2019
6443 Clear 17 1018 72 10000 3.6 130 11:41 11.10.2019
6444 -273 0 0 0 0 0 11:41 11.10.2019
6445 Clear 17 1018 72 10000 3.6 130 11:22 11.10.2019
6446 Clear 15 1018 77 10000 3.6 130 10:59 11.10.2019
6447 Clear 15 1018 77 10000 3.6 130 10:59 11.10.2019
6448 Clear 14 1018 76 10000 3.1 110 10:41 11.10.2019
6449 Clear 14 1018 76 10000 3.1 110 10:23 11.10.2019
6450 Clear 12 1018 82 10000 2.6 110 09:57 11.10.2019
6451 Clear 11 1018 87 10000 2.6 100 09:38 11.10.2019
6452 Clear 10 1018 93 10000 2.1 100 09:20 11.10.2019
6453 Clear 10 1018 93 10000 2.1 100 08:55 11.10.2019
6454 Clear 10 1018 93 10000 2.1 80 08:37 11.10.2019
6455 Clear 10 1018 93 10000 2.1 120 08:19 11.10.2019
6456 Clear 10 1018 93 10000 2.1 110 07:44 11.10.2019
6457 Clear 10 1018 93 10000 2.1 110 07:44 11.10.2019
6458 Clear 10 1018 93 10000 2.1 110 07:25 11.10.2019
6459 Clear 11 1018 100 10000 2.6 110 06:49 11.10.2019
6460 Clear 11 1019 93 10000 3.1 110 06:24 11.10.2019
6461 Clear 11 1019 100 10000 2.6 120 05:41 11.10.2019
6462 Clear 11 1019 93 10000 2.6 120 04:59 11.10.2019
6463 Clear 11 1019 100 10000 2.1 110 04:25 11.10.2019
6464 Clear 11 1021 93 10000 1.5 100 02:40 11.10.2019
6465 Clear 12 1021 93 10000 2.16 110.162 00:51 11.10.2019
6466 Clear 12 1021 93 10000 1 90 00:29 11.10.2019
6467 Clear 13 1022 87 10000 0.15 1.116 23:44 10.10.2019
6468 Clear 13 1022 87 10000 0.15 1.116 23:22 10.10.2019
6469 Clear 13 1022 87 10000 0.15 1.116 22:58 10.10.2019
6470 Clear 14 1022 93 10000 0.15 1.116 22:39 10.10.2019
6471 Clear 14 1022 93 10000 0.15 1.116 22:21 10.10.2019
6472 Clear 14 1022 82 10000 0.15 1.116 21:58 10.10.2019
6473 Clear 14 1022 82 10000 0.15 1.116 21:58 10.10.2019
6474 Clear 15 1022 82 10000 1 0 21:39 10.10.2019
6475 Clear 15 1022 82 10000 1 0 21:21 10.10.2019
6476 Clear 15 1022 82 10000 1 0 21:21 10.10.2019
6477 Clear 16 1021 72 10000 1.5 280 20:43 10.10.2019
6478 Clear 17 1021 68 10000 2.1 280 20:22 10.10.2019
6479 Clear 17 1021 68 10000 2.1 280 19:59 10.10.2019
6480 Clear 18 1021 63 10000 2.6 300 19:41 10.10.2019
6481 Clear 18 1021 63 10000 2.6 300 19:41 10.10.2019
6482 Clear 18 1021 63 10000 2.6 300 19:21 10.10.2019
6483 Clouds 20 1021 60 10000 3.6 270 18:59 10.10.2019
6484 Clouds 20 1021 60 10000 3.6 270 18:39 10.10.2019
6485 Clouds 20 1021 56 10000 4.1 290 18:20 10.10.2019
6486 Clouds 21 1021 56 10000 4.1 290 17:55 10.10.2019
6487 Clouds 21 1021 52 10000 5.7 290 17:36 10.10.2019
6488 Clouds 21 1022 56 10000 4.6 320 17:18 10.10.2019
6489 Clouds 21 1022 53 10000 5.1 290 16:44 10.10.2019
6490 Clouds 21 1022 53 10000 5.1 290 16:26 10.10.2019
6491 Clouds 21 1022 46 10000 4.1 260 15:54 10.10.2019
6492 Clouds 21 1022 52 10000 4.6 260 15:36 10.10.2019
6493 Clouds 21 1023 52 10000 4.6 250 15:18 10.10.2019
6494 Clouds 20 1023 52 10000 4.6 250 14:54 10.10.2019
6495 Clouds 21 1023 56 10000 4.1 280 14:36 10.10.2019
6496 Clouds 20 1023 68 10000 3.1 280 14:18 10.10.2019
6497 Clouds 20 1023 68 10000 3.1 250 13:41 10.10.2019
6498 Clouds 20 1023 68 10000 3.1 250 13:41 10.10.2019
6499 Clouds 19 1023 68 10000 3.1 250 13:23 10.10.2019
6500 Clouds 20 1023 64 10000 4.1 250 12:57 10.10.2019
6501 Clouds 20 1023 72 10000 4.1 240 12:39 10.10.2019
6502 Clouds 19 1023 72 10000 4.1 240 12:19 10.10.2019
6503 Rain 19 1023 77 10000 2.6 240 11:55 10.10.2019
6504 Rain 17 1023 88 10000 2.6 210 11:37 10.10.2019
6505 Rain 16 1023 87 10000 3.1 210 11:18 10.10.2019
6506 Rain 15 1023 93 10000 2.6 210 10:44 10.10.2019
6507 Rain 15 1023 93 10000 2.6 210 10:25 10.10.2019
6508 Clouds 13 1022 100 10000 1.5 160 09:56 10.10.2019
6509 Clouds 13 1022 100 10000 1.5 160 09:37 10.10.2019
6510 Clouds 13 1022 100 10000 1.5 160 09:19 10.10.2019
6511 Rain 12 1022 93 10000 1.5 190 08:41 10.10.2019
6512 Rain 12 1022 93 10000 1.5 190 08:23 10.10.2019
6513 Rain 12 1022 93 10000 1.5 200 07:58 10.10.2019
6514 Clear 13 1022 93 10000 1.5 180 07:40 10.10.2019
6515 Mist 13 1021 93 3900 1.5 0 07:20 10.10.2019
6516 Clouds 13 1021 93 10000 3.1 210 06:45 10.10.2019
6517 Clouds 13 1021 93 10000 3.1 210 06:22 10.10.2019
6518 Clouds 13 1021 100 10000 1 0 05:24 10.10.2019
6519 Rain 13 1021 93 10000 2.1 280 04:37 10.10.2019
6520 Clear 13 1021 93 10000 2.6 210 03:27 10.10.2019
6521 Clouds 13 1021 87 10000 3.1 230 01:42 10.10.2019
6522 Clouds 13 1021 87 10000 3.1 230 01:42 10.10.2019
6523 Clouds 14 1021 87 10000 3.1 230 01:23 10.10.2019
6524 Clear 13 1022 93 10000 1.5 250 00:45 10.10.2019
6525 Clear 14 1022 93 10000 2.6 250 00:19 10.10.2019
6526 Clouds 14 1021 87 10000 2.6 230 23:39 09.10.2019
6527 Clear 15 1021 93 10000 2.6 230 23:19 09.10.2019
6528 Clear 15 1021 93 10000 3.1 240 22:42 09.10.2019
6529 Clear 15 1021 93 10000 3.1 240 22:24 09.10.2019
6530 Clouds 15 1021 87 10000 2.6 230 21:59 09.10.2019
6531 Rain 15 1021 82 10000 3.1 230 21:39 09.10.2019
6532 Clear 16 1021 77 10000 2.6 250 21:20 09.10.2019
6533 Clear 16 1021 77 10000 2.6 250 20:56 09.10.2019
6534 Clear 16 1021 72 10000 3.6 270 20:37 09.10.2019
6535 Clouds 16 1020 67 10000 4.1 270 20:18 09.10.2019
6536 Clouds 17 1020 67 10000 5.1 270 19:45 09.10.2019
6537 Clouds 17 1020 67 10000 5.1 270 19:23 09.10.2019
6538 Clouds 18 1020 63 10000 6.2 260 18:58 09.10.2019
6539 Clouds 18 1020 63 10000 6.2 260 18:37 09.10.2019
6540 Clouds 18 1020 68 10000 4.6 260 18:18 09.10.2019
6541 Clouds 18 1020 68 10000 4.6 260 17:54 09.10.2019
6542 Clouds 19 1020 77 10000 6.2 280 17:36 09.10.2019
6543 Clouds 20 1020 55 10000 6.7 280 17:18 09.10.2019
6544 Clouds 20 1020 52 10000 8.7 260 16:40 09.10.2019
6545 Clouds 21 1020 52 10000 8.7 270 16:22 09.10.2019
6546 Clouds 20 1020 52 10000 7.2 270 15:58 09.10.2019
6547 Clouds 20 1020 52 10000 7.2 270 15:39 09.10.2019
6548 Clouds 20 1020 52 10000 7.2 270 15:39 09.10.2019
6549 Clouds 20 1019 52 10000 7.7 260 15:20 09.10.2019
6550 Clouds 20 1019 52 10000 7.7 260 14:56 09.10.2019
6551 Clouds 20 1020 55 10000 7.7 280 14:37 09.10.2019
6552 Clouds 20 1020 52 10000 7.2 270 14:18 09.10.2019
6553 Clouds 19 1020 55 10000 7.7 280 13:39 09.10.2019
6554 Clouds 19 1020 59 10000 7.2 270 13:21 09.10.2019
6555 Clouds 19 1020 59 10000 7.2 270 12:58 09.10.2019
6556 Clouds 19 1020 72 10000 6.7 280 12:40 09.10.2019
6557 Clouds 18 1020 72 10000 6.7 280 12:21 09.10.2019
6558 Clouds 18 1020 72 10000 6.7 280 12:21 09.10.2019
6559 Clear 18 1020 77 10000 4.6 260 11:55 09.10.2019
6560 Rain 17 1020 82 10000 4.6 260 11:36 09.10.2019
6561 Rain 17 1019 82 10000 5.7 280 11:18 09.10.2019
6562 Rain 16 1019 87 10000 3.6 230 10:43 09.10.2019
6563 Rain 16 1019 87 10000 3.6 230 10:21 09.10.2019
6564 Rain 15 1019 87 10000 2.6 200 09:57 09.10.2019
6565 Rain 15 1019 93 10000 3.1 260 09:38 09.10.2019
6566 Rain 15 1018 93 10000 2.6 220 09:18 09.10.2019
6567 Clouds 15 1018 93 10000 2.1 200 08:39 09.10.2019
6568 Clouds 15 1018 93 10000 2.6 180 08:21 09.10.2019
6569 Clouds 15 1018 93 10000 1.5 180 07:48 09.10.2019
6570 Clouds 15 1018 93 10000 1.5 180 07:27 09.10.2019
6571 Clouds 15 1018 93 10000 1.5 180 07:27 09.10.2019
6572 Clouds 15 1018 87 10000 2.1 220 06:59 09.10.2019
6573 Clouds 15 1018 87 10000 2.1 220 06:41 09.10.2019
6574 Rain 15 1018 87 10000 2.6 240 05:53 09.10.2019
6575 Rain 15 1018 93 10000 2.6 230 05:19 09.10.2019
6576 Clear 16 1018 93 10000 1.5 220 03:54 09.10.2019
6577 Clouds 16 1018 93 10000 1.5 210 02:42 09.10.2019
6578 Clear 16 1019 93 10000 1.5 230 01:42 09.10.2019
6579 Clear 16 1019 93 10000 1.5 240 01:19 09.10.2019
6580 Clear 16 1019 93 10000 1.5 240 00:56 09.10.2019
6581 Clear 16 1019 93 10000 1.5 240 00:37 09.10.2019
6582 Clear 16 1019 93 10000 1.5 240 00:37 09.10.2019
6583 Clear 16 1019 93 10000 1.5 230 00:19 09.10.2019
6584 Clear 16 1019 93 10000 1.5 0 23:39 08.10.2019
6585 Clear 16 1019 93 10000 1.5 310 23:18 08.10.2019
6586 Clear 16 1019 93 10000 1.5 310 22:56 08.10.2019
6587 Clouds 16 1019 93 10000 2.1 310 22:37 08.10.2019
6588 Clouds 16 1019 93 10000 2.6 310 22:18 08.10.2019
6589 Clouds 16 1019 93 10000 2.6 310 21:56 08.10.2019
6590 Clouds 16 1018 93 10000 2.1 310 21:37 08.10.2019
6591 Clouds 16 1018 93 10000 3.6 340 21:18 08.10.2019
6592 Clouds 16 1018 93 10000 3.6 340 20:55 08.10.2019
6593 Drizzle 16 1017 93 10000 4.6 330 20:37 08.10.2019
6594 Rain 17 1017 93 10000 6.2 340 20:18 08.10.2019
6595 Rain 17 1017 93 10000 6.2 340 19:54 08.10.2019
6596 Rain 19 1016 88 4000 5.1 240 19:36 08.10.2019
6597 Rain 19 1016 88 4000 5.1 240 19:36 08.10.2019
6598 Rain 20 1016 82 10000 8.2 250 19:18 08.10.2019
6599 Clouds 22 1016 73 10000 8.7 250 18:41 08.10.2019
6600 Clouds 22 1016 73 10000 8.7 250 18:23 08.10.2019
6601 Clouds 23 1016 69 10000 6.7 250 17:57 08.10.2019
6602 Clouds 23 1016 69 10000 6.7 250 17:57 08.10.2019
6603 Clouds 23 1016 69 10000 6.7 250 17:57 08.10.2019
6604 Clouds 23 1016 69 10000 6.2 260 17:39 08.10.2019
6605 Clouds 24 1016 69 10000 6.7 250 17:19 08.10.2019
6606 Clouds 23 1016 69 10000 6.7 250 16:56 08.10.2019
6607 Clouds 24 1016 64 10000 6.2 250 16:37 08.10.2019
6608 Clouds 24 1016 64 10000 6.2 260 16:18 08.10.2019
6609 Clouds 24 1015 64 10000 5.7 250 15:38 08.10.2019
6610 Clouds 24 1016 64 10000 4.6 220 15:20 08.10.2019
6611 Clouds 24 1016 64 10000 4.6 220 14:55 08.10.2019
6612 Clouds 24 1016 56 10000 4.1 240 14:37 08.10.2019
6613 Clouds 23 1017 56 10000 4.6 240 14:19 08.10.2019
6614 Clouds 23 1017 56 10000 4.6 240 13:54 08.10.2019
6615 Clouds 23 1017 56 10000 4.6 240 13:54 08.10.2019
6616 Clouds 23 1017 56 10000 4.6 250 13:36 08.10.2019
6617 Clouds 23 1017 49 10000 3.1 210 13:18 08.10.2019
6618 Clouds 23 1017 49 10000 3.1 210 13:18 08.10.2019
6619 Clear 22 1017 60 10000 4.1 220 12:40 08.10.2019
6620 Clear 21 1017 60 10000 3.6 190 12:20 08.10.2019
6621 Clear 20 1017 60 10000 3.6 190 11:57 08.10.2019
6622 Clear 19 1017 63 10000 3.1 200 11:38 08.10.2019
6623 Clear 19 1017 63 10000 3.1 200 11:20 08.10.2019
6624 Clear 16 1017 72 10000 3.1 190 10:42 08.10.2019
6625 Clear 16 1017 72 10000 3.1 190 10:22 08.10.2019
6626 Clear 15 1017 77 10000 3.1 180 09:58 08.10.2019
6627 Clear 14 1017 76 10000 4.1 160 09:40 08.10.2019
6628 Clear 14 1017 76 10000 4.1 160 09:40 08.10.2019
6629 Clear 12 1017 87 10000 3.6 160 09:21 08.10.2019
6630 Clear 12 1017 87 10000 2.6 160 08:45 08.10.2019
6631 Clear 12 1017 87 10000 2.6 160 08:25 08.10.2019
6632 Clear 12 1017 87 10000 2.6 150 07:47 08.10.2019
6633 Clear 12 1017 87 10000 2.6 150 07:23 08.10.2019
6634 Clear 12 1018 87 10000 2.1 150 06:57 08.10.2019
6635 Clear 13 1018 82 10000 1 140 06:36 08.10.2019
6636 Clear 13 1018 82 10000 2.27 175.839 05:59 08.10.2019
6637 Clear 13 1018 82 10000 1.5 180 05:40 08.10.2019
6638 Clear 13 1018 82 10000 1.5 180 05:40 08.10.2019
6639 Clear 13 1019 76 10000 3.1 170 04:56 08.10.2019
6640 Clear 14 1019 72 10000 2.6 170 03:30 08.10.2019
6641 Clear 14 1020 77 10000 2.6 170 02:41 08.10.2019
6642 Clear 14 1020 72 10000 2.1 180 01:56 08.10.2019
6643 Clouds 14 1020 77 10000 2.6 170 01:38 08.10.2019
6644 Clear 15 1020 72 10000 1.5 150 00:55 08.10.2019
6645 Clear 15 1021 82 10000 1 140 00:23 08.10.2019
6646 Clear 15 1021 82 10000 1.56 158.219 23:44 07.10.2019
6647 Clear 15 1021 82 10000 1.56 158.219 23:21 07.10.2019
6648 Clear 15 1021 82 10000 0.5 270 22:58 07.10.2019
6649 Clear 15 1021 82 10000 0.5 270 22:58 07.10.2019
6650 Clear 15 1021 82 10000 1 0 22:40 07.10.2019
6651 Clear 15 1021 77 10000 1 0 22:21 07.10.2019
6652 Clear 15 1021 77 10000 1 0 22:21 07.10.2019
6653 Clear 15 1021 77 10000 1 0 21:58 07.10.2019
6654 Clear 15 1021 77 10000 1 140 21:40 07.10.2019
6655 Clear 16 1021 72 10000 0.62 162.768 21:20 07.10.2019
6656 Clear 16 1021 72 10000 1.04 126.462 20:58 07.10.2019
6657 Clear 16 1020 67 10000 1 0 20:39 07.10.2019
6658 Clear 17 1020 67 10000 1 0 20:21 07.10.2019
6659 Clear 17 1020 63 10000 1.5 160 19:59 07.10.2019
6660 Clear 18 1020 59 10000 1.5 200 19:41 07.10.2019
6661 Clear 18 1021 55 10000 1 0 19:20 07.10.2019
6662 Clear 19 1021 55 10000 1 0 18:58 07.10.2019
6663 Clear 19 1020 52 10000 1 0 18:38 07.10.2019
6664 Clear 20 1021 56 10000 1.5 0 18:19 07.10.2019
6665 Clear 20 1021 52 10000 1.32 102.652 17:43 07.10.2019
6666 Clear 20 1021 52 10000 1.32 102.652 17:23 07.10.2019
6667 Clear 20 1021 52 10000 1.5 0 16:59 07.10.2019
6668 Clouds 20 1021 55 10000 2.1 30 16:41 07.10.2019
6669 Clouds 20 1021 55 10000 2.1 30 16:22 07.10.2019
6670 Clouds 20 1021 59 10000 2.1 310 15:46 07.10.2019
6671 Clouds 20 1021 59 10000 2.1 310 15:26 07.10.2019
6672 Clouds 20 1022 59 10000 1.5 0 14:58 07.10.2019
6673 Clouds 20 1022 59 10000 1 0 14:40 07.10.2019
6674 Clouds 20 1022 59 10000 1 0 14:21 07.10.2019
6675 Clouds 19 1022 63 10000 1 0 13:43 07.10.2019
6676 Clear 19 1022 68 10000 1 0 13:21 07.10.2019
6677 Clear 18 1022 68 10000 1 0 12:57 07.10.2019
6678 Clear 17 1022 72 10000 0.48 11.497 12:39 07.10.2019
6679 Clear 17 1022 77 10000 1.5 0 12:19 07.10.2019
6680 Clear 17 1022 77 10000 1.5 0 11:57 07.10.2019
6681 Clear 16 1022 77 10000 1 0 11:38 07.10.2019
6682 Clear 16 1022 77 10000 1 0 11:20 07.10.2019
6683 Clear 14 1022 87 10000 0.5 0 10:42 07.10.2019
6684 Clear 13 1021 93 10000 1 230 10:21 07.10.2019
6685 Clear 12 1021 93 10000 0.12 251.87 09:43 07.10.2019
6686 Clear 12 1021 93 10000 0.64 75.402 09:25 07.10.2019
6687 Clear 11 1021 100 10000 0.64 75.402 08:58 07.10.2019
6688 Clear 11 1021 93 10000 0.86 102.109 08:39 07.10.2019
6689 Clear 10 1021 93 10000 1 240 08:20 07.10.2019
6690 Clouds 10 1021 93 10000 0.86 102.109 07:43 07.10.2019
6691 Clouds 10 1021 93 10000 0.86 102.109 07:25 07.10.2019
6692 Clouds 10 1021 93 10000 0.86 102.109 06:54 07.10.2019
6693 Clear 10 1021 93 10000 0.86 102.109 06:34 07.10.2019
6694 Clouds 10 1021 93 10000 1 230 05:50 07.10.2019
6695 Clouds 11 1021 93 10000 2.1 230 05:24 07.10.2019
6696 Clouds 11 1021 93 10000 1 230 04:42 07.10.2019
6697 Clouds 11 1022 93 10000 0.5 250 03:45 07.10.2019
6698 Clouds 12 1022 93 10000 0.5 250 03:23 07.10.2019
6699 Clouds 11 1022 93 10000 0.5 250 03:23 07.10.2019
6700 Clouds 12 1021 87 10000 2.6 240 02:23 07.10.2019
6701 Clouds 12 1021 87 10000 2.6 240 02:23 07.10.2019
6702 Clouds 12 1022 93 10000 2.1